<?xml version="1.0" encoding="UTF-8" standalone="no" ?>
<gpx xmlns="http://www.topografix.com/GPX/1/1" xmlns:xsi="http://www.w3.org/2001/XMLSchema-instance" xsi:schemaLocation="http://www.topografix.com/GPX/1/1 http://www.topografix.com/GPX/1/1/gpx.xsd" version="1.1" creator="VisuGPX - https://www.visugpx.com">
  <metadata>
    <name>VTT- Valloire Itinéraire balisé N°5</name>
    <desc><![CDATA[Jolie boucle au départ de Valloire d'environ 20km.
Monter par la route de l'Archaz jusqu'à Point Rogereuil. 
Quitter la piste pour empreinter un petit sentier parfois boueux et pas très roulant. Attention aux racines et pierres.
Resdescendre jusqu'à l'Armeraz, et reprendre ensuite une piste large et roulante pour remonter.
A un moment possibilité de continuer par la piste jusqu'aux 3 croix, au lieu de redescendre jusqu'à la route goudronnée du col du télégraphe, pour rejoindre le col et remonter par une piste forestière jusqu'aux 3 croix.
Une fois aux 3 croix, rebasculer sur Valloire.]]></desc>
  </metadata>
  <trk>
    <name><![CDATA[VTT]]></name>
    <trkseg>
      <trkpt lat="45.16529" lon="6.43452">
        <ele>1481.7998</ele>
        <time>2020-08-12T06:32:29+02:00</time>
      </trkpt>
      <trkpt lat="45.16529" lon="6.43452">
        <ele>1481.7998</ele>
        <time>2020-08-12T06:32:33+02:00</time>
      </trkpt>
      <trkpt lat="45.16529" lon="6.43453">
        <ele>1481.7998</ele>
        <time>2020-08-12T06:32:34+02:00</time>
      </trkpt>
      <trkpt lat="45.16528" lon="6.43454">
        <ele>1481.7998</ele>
        <time>2020-08-12T06:32:38+02:00</time>
      </trkpt>
      <trkpt lat="45.16528" lon="6.43454">
        <ele>1481.7998</ele>
        <time>2020-08-12T06:32:39+02:00</time>
      </trkpt>
      <trkpt lat="45.16527" lon="6.43457">
        <ele>1485.9004</ele>
        <time>2020-08-12T06:32:43+02:00</time>
      </trkpt>
      <trkpt lat="45.16527" lon="6.43457">
        <ele>1485.9004</ele>
        <time>2020-08-12T06:32:44+02:00</time>
      </trkpt>
      <trkpt lat="45.16527" lon="6.43457">
        <ele>1485.9004</ele>
        <time>2020-08-12T06:32:48+02:00</time>
      </trkpt>
      <trkpt lat="45.16527" lon="6.43457">
        <ele>1485.9004</ele>
        <time>2020-08-12T06:32:49+02:00</time>
      </trkpt>
      <trkpt lat="45.16527" lon="6.43457">
        <ele>1485.9004</ele>
        <time>2020-08-12T06:32:53+02:00</time>
      </trkpt>
      <trkpt lat="45.16527" lon="6.43457">
        <ele>1485.9004</ele>
        <time>2020-08-12T06:32:54+02:00</time>
      </trkpt>
      <trkpt lat="45.16527" lon="6.43457">
        <ele>1485.9004</ele>
        <time>2020-08-12T06:32:58+02:00</time>
      </trkpt>
      <trkpt lat="45.16527" lon="6.43457">
        <ele>1485.9004</ele>
        <time>2020-08-12T06:32:59+02:00</time>
      </trkpt>
      <trkpt lat="45.16527" lon="6.43457">
        <ele>1485.9004</ele>
        <time>2020-08-12T06:33:03+02:00</time>
      </trkpt>
      <trkpt lat="45.16527" lon="6.43457">
        <ele>1485.9004</ele>
        <time>2020-08-12T06:33:04+02:00</time>
      </trkpt>
      <trkpt lat="45.16528" lon="6.43457">
        <ele>1485.9004</ele>
        <time>2020-08-12T06:33:08+02:00</time>
      </trkpt>
      <trkpt lat="45.16528" lon="6.43457">
        <ele>1485</ele>
        <time>2020-08-12T06:33:09+02:00</time>
      </trkpt>
      <trkpt lat="45.16532" lon="6.43458">
        <ele>1485</ele>
        <time>2020-08-12T06:33:13+02:00</time>
      </trkpt>
      <trkpt lat="45.16534" lon="6.43458">
        <ele>1484</ele>
        <time>2020-08-12T06:33:14+02:00</time>
      </trkpt>
      <trkpt lat="45.16543" lon="6.43461">
        <ele>1483.1006</ele>
        <time>2020-08-12T06:33:18+02:00</time>
      </trkpt>
      <trkpt lat="45.16546" lon="6.43462">
        <ele>1482.2002</ele>
        <time>2020-08-12T06:33:19+02:00</time>
      </trkpt>
      <trkpt lat="45.1656" lon="6.43471">
        <ele>1483.2998</ele>
        <time>2020-08-12T06:33:23+02:00</time>
      </trkpt>
      <trkpt lat="45.16565" lon="6.43474">
        <ele>1485.2002</ele>
        <time>2020-08-12T06:33:24+02:00</time>
      </trkpt>
      <trkpt lat="45.16582" lon="6.43479">
        <ele>1483.2998</ele>
        <time>2020-08-12T06:33:28+02:00</time>
      </trkpt>
      <trkpt lat="45.16587" lon="6.43479">
        <ele>1482.2002</ele>
        <time>2020-08-12T06:33:29+02:00</time>
      </trkpt>
      <trkpt lat="45.16599" lon="6.43474">
        <ele>1480.2002</ele>
        <time>2020-08-12T06:33:33+02:00</time>
      </trkpt>
      <trkpt lat="45.16601" lon="6.43472">
        <ele>1476.7998</ele>
        <time>2020-08-12T06:33:34+02:00</time>
      </trkpt>
      <trkpt lat="45.16594" lon="6.43464">
        <ele>1476.1006</ele>
        <time>2020-08-12T06:33:38+02:00</time>
      </trkpt>
      <trkpt lat="45.1659" lon="6.43459">
        <ele>1476.1006</ele>
        <time>2020-08-12T06:33:39+02:00</time>
      </trkpt>
      <trkpt lat="45.16569" lon="6.43441">
        <ele>1474.2998</ele>
        <time>2020-08-12T06:33:43+02:00</time>
      </trkpt>
      <trkpt lat="45.16563" lon="6.43437">
        <ele>1472.1006</ele>
        <time>2020-08-12T06:33:44+02:00</time>
      </trkpt>
      <trkpt lat="45.1654" lon="6.43419">
        <ele>1467.9004</ele>
        <time>2020-08-12T06:33:48+02:00</time>
      </trkpt>
      <trkpt lat="45.16534" lon="6.43417">
        <ele>1468.5</ele>
        <time>2020-08-12T06:33:49+02:00</time>
      </trkpt>
      <trkpt lat="45.16512" lon="6.43412">
        <ele>1468.1006</ele>
        <time>2020-08-12T06:33:53+02:00</time>
      </trkpt>
      <trkpt lat="45.16507" lon="6.43408">
        <ele>1468.9004</ele>
        <time>2020-08-12T06:33:54+02:00</time>
      </trkpt>
      <trkpt lat="45.16502" lon="6.43388">
        <ele>1463.4004</ele>
        <time>2020-08-12T06:33:58+02:00</time>
      </trkpt>
      <trkpt lat="45.16503" lon="6.43381">
        <ele>1460.5</ele>
        <time>2020-08-12T06:33:59+02:00</time>
      </trkpt>
      <trkpt lat="45.16524" lon="6.43373">
        <ele>1455.1006</ele>
        <time>2020-08-12T06:34:03+02:00</time>
      </trkpt>
      <trkpt lat="45.16529" lon="6.43375">
        <ele>1454.7002</ele>
        <time>2020-08-12T06:34:04+02:00</time>
      </trkpt>
      <trkpt lat="45.1655" lon="6.43381">
        <ele>1456</ele>
        <time>2020-08-12T06:34:08+02:00</time>
      </trkpt>
      <trkpt lat="45.16556" lon="6.43381">
        <ele>1455.7002</ele>
        <time>2020-08-12T06:34:09+02:00</time>
      </trkpt>
      <trkpt lat="45.16578" lon="6.43381">
        <ele>1453.9004</ele>
        <time>2020-08-12T06:34:13+02:00</time>
      </trkpt>
      <trkpt lat="45.16583" lon="6.43381">
        <ele>1453.2002</ele>
        <time>2020-08-12T06:34:14+02:00</time>
      </trkpt>
      <trkpt lat="45.16597" lon="6.43382">
        <ele>1451.7998</ele>
        <time>2020-08-12T06:34:18+02:00</time>
      </trkpt>
      <trkpt lat="45.166" lon="6.43384">
        <ele>1451.7998</ele>
        <time>2020-08-12T06:34:19+02:00</time>
      </trkpt>
      <trkpt lat="45.16606" lon="6.43391">
        <ele>1453.5</ele>
        <time>2020-08-12T06:34:23+02:00</time>
      </trkpt>
      <trkpt lat="45.16605" lon="6.43393">
        <ele>1453.5</ele>
        <time>2020-08-12T06:34:24+02:00</time>
      </trkpt>
      <trkpt lat="45.16597" lon="6.43393">
        <ele>1454.4004</ele>
        <time>2020-08-12T06:34:28+02:00</time>
      </trkpt>
      <trkpt lat="45.16594" lon="6.43391">
        <ele>1454.4004</ele>
        <time>2020-08-12T06:34:29+02:00</time>
      </trkpt>
      <trkpt lat="45.16579" lon="6.43382">
        <ele>1453.9004</ele>
        <time>2020-08-12T06:34:33+02:00</time>
      </trkpt>
      <trkpt lat="45.16574" lon="6.43379">
        <ele>1454.5</ele>
        <time>2020-08-12T06:34:34+02:00</time>
      </trkpt>
      <trkpt lat="45.16552" lon="6.43366">
        <ele>1450.2998</ele>
        <time>2020-08-12T06:34:38+02:00</time>
      </trkpt>
      <trkpt lat="45.16544" lon="6.43362">
        <ele>1451.2002</ele>
        <time>2020-08-12T06:34:39+02:00</time>
      </trkpt>
      <trkpt lat="45.16529" lon="6.43353">
        <ele>1449.5</ele>
        <time>2020-08-12T06:34:43+02:00</time>
      </trkpt>
      <trkpt lat="45.16525" lon="6.43352">
        <ele>1447.5</ele>
        <time>2020-08-12T06:34:44+02:00</time>
      </trkpt>
      <trkpt lat="45.16514" lon="6.43339">
        <ele>1446.2998</ele>
        <time>2020-08-12T06:34:48+02:00</time>
      </trkpt>
      <trkpt lat="45.16511" lon="6.43335">
        <ele>1444.1006</ele>
        <time>2020-08-12T06:34:49+02:00</time>
      </trkpt>
      <trkpt lat="45.16498" lon="6.43322">
        <ele>1443.2998</ele>
        <time>2020-08-12T06:34:53+02:00</time>
      </trkpt>
      <trkpt lat="45.16494" lon="6.43319">
        <ele>1444</ele>
        <time>2020-08-12T06:34:54+02:00</time>
      </trkpt>
      <trkpt lat="45.16478" lon="6.43303">
        <ele>1441.7002</ele>
        <time>2020-08-12T06:34:58+02:00</time>
      </trkpt>
      <trkpt lat="45.16474" lon="6.43297">
        <ele>1439.5</ele>
        <time>2020-08-12T06:34:59+02:00</time>
      </trkpt>
      <trkpt lat="45.16458" lon="6.43278">
        <ele>1437.5</ele>
        <time>2020-08-12T06:35:03+02:00</time>
      </trkpt>
      <trkpt lat="45.16455" lon="6.43274">
        <ele>1436.2002</ele>
        <time>2020-08-12T06:35:04+02:00</time>
      </trkpt>
      <trkpt lat="45.16447" lon="6.43262">
        <ele>1435</ele>
        <time>2020-08-12T06:35:08+02:00</time>
      </trkpt>
      <trkpt lat="45.16446" lon="6.4326">
        <ele>1435</ele>
        <time>2020-08-12T06:35:09+02:00</time>
      </trkpt>
      <trkpt lat="45.16447" lon="6.43248">
        <ele>1430.7998</ele>
        <time>2020-08-12T06:35:13+02:00</time>
      </trkpt>
      <trkpt lat="45.16449" lon="6.43244">
        <ele>1430.7998</ele>
        <time>2020-08-12T06:35:14+02:00</time>
      </trkpt>
      <trkpt lat="45.1646" lon="6.43224">
        <ele>1425.2998</ele>
        <time>2020-08-12T06:35:18+02:00</time>
      </trkpt>
      <trkpt lat="45.16462" lon="6.43218">
        <ele>1422.7998</ele>
        <time>2020-08-12T06:35:19+02:00</time>
      </trkpt>
      <trkpt lat="45.16463" lon="6.43192">
        <ele>1417.6006</ele>
        <time>2020-08-12T06:35:23+02:00</time>
      </trkpt>
      <trkpt lat="45.16463" lon="6.43185">
        <ele>1416.1006</ele>
        <time>2020-08-12T06:35:24+02:00</time>
      </trkpt>
      <trkpt lat="45.16458" lon="6.43161">
        <ele>1413</ele>
        <time>2020-08-12T06:35:28+02:00</time>
      </trkpt>
      <trkpt lat="45.16457" lon="6.43157">
        <ele>1413</ele>
        <time>2020-08-12T06:35:29+02:00</time>
      </trkpt>
      <trkpt lat="45.1645" lon="6.43144">
        <ele>1411.4004</ele>
        <time>2020-08-12T06:35:33+02:00</time>
      </trkpt>
      <trkpt lat="45.16448" lon="6.43142">
        <ele>1411.9004</ele>
        <time>2020-08-12T06:35:34+02:00</time>
      </trkpt>
      <trkpt lat="45.16444" lon="6.43136">
        <ele>1410.9004</ele>
        <time>2020-08-12T06:35:38+02:00</time>
      </trkpt>
      <trkpt lat="45.16445" lon="6.43133">
        <ele>1410.9004</ele>
        <time>2020-08-12T06:35:39+02:00</time>
      </trkpt>
      <trkpt lat="45.16447" lon="6.43125">
        <ele>1410.1006</ele>
        <time>2020-08-12T06:35:43+02:00</time>
      </trkpt>
      <trkpt lat="45.16446" lon="6.43122">
        <ele>1410.1006</ele>
        <time>2020-08-12T06:35:44+02:00</time>
      </trkpt>
      <trkpt lat="45.1644" lon="6.43119">
        <ele>1409.9004</ele>
        <time>2020-08-12T06:35:48+02:00</time>
      </trkpt>
      <trkpt lat="45.16438" lon="6.4312">
        <ele>1409.9004</ele>
        <time>2020-08-12T06:35:49+02:00</time>
      </trkpt>
      <trkpt lat="45.16433" lon="6.4312">
        <ele>1410.5</ele>
        <time>2020-08-12T06:35:53+02:00</time>
      </trkpt>
      <trkpt lat="45.16432" lon="6.4312">
        <ele>1410.5</ele>
        <time>2020-08-12T06:35:54+02:00</time>
      </trkpt>
      <trkpt lat="45.16427" lon="6.43123">
        <ele>1412</ele>
        <time>2020-08-12T06:35:58+02:00</time>
      </trkpt>
      <trkpt lat="45.16426" lon="6.43124">
        <ele>1412</ele>
        <time>2020-08-12T06:35:59+02:00</time>
      </trkpt>
      <trkpt lat="45.16422" lon="6.43126">
        <ele>1412.7002</ele>
        <time>2020-08-12T06:36:03+02:00</time>
      </trkpt>
      <trkpt lat="45.1642" lon="6.43126">
        <ele>1412.7002</ele>
        <time>2020-08-12T06:36:04+02:00</time>
      </trkpt>
      <trkpt lat="45.16414" lon="6.43129">
        <ele>1413.5</ele>
        <time>2020-08-12T06:36:08+02:00</time>
      </trkpt>
      <trkpt lat="45.16413" lon="6.43129">
        <ele>1414.6006</ele>
        <time>2020-08-12T06:36:09+02:00</time>
      </trkpt>
      <trkpt lat="45.16407" lon="6.4313">
        <ele>1415.4004</ele>
        <time>2020-08-12T06:36:13+02:00</time>
      </trkpt>
      <trkpt lat="45.16406" lon="6.4313">
        <ele>1416.4004</ele>
        <time>2020-08-12T06:36:14+02:00</time>
      </trkpt>
      <trkpt lat="45.16401" lon="6.43132">
        <ele>1416.4004</ele>
        <time>2020-08-12T06:36:18+02:00</time>
      </trkpt>
      <trkpt lat="45.16399" lon="6.43132">
        <ele>1417.2002</ele>
        <time>2020-08-12T06:36:19+02:00</time>
      </trkpt>
      <trkpt lat="45.16395" lon="6.43133">
        <ele>1417.2002</ele>
        <time>2020-08-12T06:36:23+02:00</time>
      </trkpt>
      <trkpt lat="45.16393" lon="6.43133">
        <ele>1418.2002</ele>
        <time>2020-08-12T06:36:24+02:00</time>
      </trkpt>
      <trkpt lat="45.16389" lon="6.43134">
        <ele>1418.2002</ele>
        <time>2020-08-12T06:36:28+02:00</time>
      </trkpt>
      <trkpt lat="45.16388" lon="6.43134">
        <ele>1419.1006</ele>
        <time>2020-08-12T06:36:29+02:00</time>
      </trkpt>
      <trkpt lat="45.16384" lon="6.43138">
        <ele>1420.2998</ele>
        <time>2020-08-12T06:36:33+02:00</time>
      </trkpt>
      <trkpt lat="45.16383" lon="6.43138">
        <ele>1420.2998</ele>
        <time>2020-08-12T06:36:34+02:00</time>
      </trkpt>
      <trkpt lat="45.16377" lon="6.43137">
        <ele>1420</ele>
        <time>2020-08-12T06:36:38+02:00</time>
      </trkpt>
      <trkpt lat="45.16376" lon="6.43136">
        <ele>1420.9004</ele>
        <time>2020-08-12T06:36:39+02:00</time>
      </trkpt>
      <trkpt lat="45.16375" lon="6.43135">
        <ele>1420.9004</ele>
        <time>2020-08-12T06:36:43+02:00</time>
      </trkpt>
      <trkpt lat="45.16373" lon="6.43135">
        <ele>1420.9004</ele>
        <time>2020-08-12T06:36:44+02:00</time>
      </trkpt>
      <trkpt lat="45.1637" lon="6.43136">
        <ele>1421.7998</ele>
        <time>2020-08-12T06:36:48+02:00</time>
      </trkpt>
      <trkpt lat="45.16369" lon="6.43137">
        <ele>1421.7998</ele>
        <time>2020-08-12T06:36:49+02:00</time>
      </trkpt>
      <trkpt lat="45.16366" lon="6.43138">
        <ele>1421.7998</ele>
        <time>2020-08-12T06:36:53+02:00</time>
      </trkpt>
      <trkpt lat="45.16365" lon="6.43137">
        <ele>1421.7998</ele>
        <time>2020-08-12T06:36:54+02:00</time>
      </trkpt>
      <trkpt lat="45.16365" lon="6.43137">
        <ele>1421.7998</ele>
        <time>2020-08-12T06:36:58+02:00</time>
      </trkpt>
      <trkpt lat="45.16364" lon="6.43136">
        <ele>1422.7002</ele>
        <time>2020-08-12T06:36:59+02:00</time>
      </trkpt>
      <trkpt lat="45.16361" lon="6.43135">
        <ele>1422.7002</ele>
        <time>2020-08-12T06:37:03+02:00</time>
      </trkpt>
      <trkpt lat="45.1636" lon="6.43134">
        <ele>1422.7002</ele>
        <time>2020-08-12T06:37:04+02:00</time>
      </trkpt>
      <trkpt lat="45.16355" lon="6.43135">
        <ele>1423.7002</ele>
        <time>2020-08-12T06:37:08+02:00</time>
      </trkpt>
      <trkpt lat="45.16354" lon="6.43136">
        <ele>1423.7002</ele>
        <time>2020-08-12T06:37:09+02:00</time>
      </trkpt>
      <trkpt lat="45.16349" lon="6.4314">
        <ele>1426.2002</ele>
        <time>2020-08-12T06:37:13+02:00</time>
      </trkpt>
      <trkpt lat="45.16348" lon="6.43142">
        <ele>1426.2002</ele>
        <time>2020-08-12T06:37:14+02:00</time>
      </trkpt>
      <trkpt lat="45.16346" lon="6.43147">
        <ele>1427.6006</ele>
        <time>2020-08-12T06:37:18+02:00</time>
      </trkpt>
      <trkpt lat="45.16346" lon="6.43149">
        <ele>1428.7002</ele>
        <time>2020-08-12T06:37:19+02:00</time>
      </trkpt>
      <trkpt lat="45.16344" lon="6.43156">
        <ele>1430.2002</ele>
        <time>2020-08-12T06:37:23+02:00</time>
      </trkpt>
      <trkpt lat="45.16343" lon="6.43158">
        <ele>1430.2002</ele>
        <time>2020-08-12T06:37:24+02:00</time>
      </trkpt>
      <trkpt lat="45.1634" lon="6.43162">
        <ele>1431.2998</ele>
        <time>2020-08-12T06:37:28+02:00</time>
      </trkpt>
      <trkpt lat="45.16339" lon="6.43163">
        <ele>1431.2998</ele>
        <time>2020-08-12T06:37:29+02:00</time>
      </trkpt>
      <trkpt lat="45.16335" lon="6.43164">
        <ele>1432.7998</ele>
        <time>2020-08-12T06:37:33+02:00</time>
      </trkpt>
      <trkpt lat="45.16333" lon="6.43164">
        <ele>1433.9004</ele>
        <time>2020-08-12T06:37:34+02:00</time>
      </trkpt>
      <trkpt lat="45.16326" lon="6.43164">
        <ele>1434.9004</ele>
        <time>2020-08-12T06:37:38+02:00</time>
      </trkpt>
      <trkpt lat="45.16324" lon="6.43164">
        <ele>1434.9004</ele>
        <time>2020-08-12T06:37:39+02:00</time>
      </trkpt>
      <trkpt lat="45.1632" lon="6.43168">
        <ele>1436</ele>
        <time>2020-08-12T06:37:43+02:00</time>
      </trkpt>
      <trkpt lat="45.16319" lon="6.43168">
        <ele>1436</ele>
        <time>2020-08-12T06:37:44+02:00</time>
      </trkpt>
      <trkpt lat="45.16319" lon="6.43171">
        <ele>1436</ele>
        <time>2020-08-12T06:37:48+02:00</time>
      </trkpt>
      <trkpt lat="45.16319" lon="6.43172">
        <ele>1437.5</ele>
        <time>2020-08-12T06:37:49+02:00</time>
      </trkpt>
      <trkpt lat="45.1632" lon="6.43173">
        <ele>1437.5</ele>
        <time>2020-08-12T06:37:53+02:00</time>
      </trkpt>
      <trkpt lat="45.16321" lon="6.43172">
        <ele>1437.5</ele>
        <time>2020-08-12T06:37:54+02:00</time>
      </trkpt>
      <trkpt lat="45.16324" lon="6.43173">
        <ele>1436.5</ele>
        <time>2020-08-12T06:37:58+02:00</time>
      </trkpt>
      <trkpt lat="45.16324" lon="6.43174">
        <ele>1436.5</ele>
        <time>2020-08-12T06:37:59+02:00</time>
      </trkpt>
      <trkpt lat="45.16325" lon="6.43179">
        <ele>1436.5</ele>
        <time>2020-08-12T06:38:03+02:00</time>
      </trkpt>
      <trkpt lat="45.16326" lon="6.4318">
        <ele>1436.5</ele>
        <time>2020-08-12T06:38:04+02:00</time>
      </trkpt>
      <trkpt lat="45.16328" lon="6.43188">
        <ele>1437.1006</ele>
        <time>2020-08-12T06:38:08+02:00</time>
      </trkpt>
      <trkpt lat="45.16329" lon="6.43189">
        <ele>1437.1006</ele>
        <time>2020-08-12T06:38:09+02:00</time>
      </trkpt>
      <trkpt lat="45.16335" lon="6.43193">
        <ele>1437.7002</ele>
        <time>2020-08-12T06:38:13+02:00</time>
      </trkpt>
      <trkpt lat="45.16336" lon="6.43195">
        <ele>1437.7002</ele>
        <time>2020-08-12T06:38:14+02:00</time>
      </trkpt>
      <trkpt lat="45.16342" lon="6.43201">
        <ele>1438.5</ele>
        <time>2020-08-12T06:38:18+02:00</time>
      </trkpt>
      <trkpt lat="45.16343" lon="6.43202">
        <ele>1438.5</ele>
        <time>2020-08-12T06:38:19+02:00</time>
      </trkpt>
      <trkpt lat="45.16349" lon="6.43207">
        <ele>1439.4004</ele>
        <time>2020-08-12T06:38:23+02:00</time>
      </trkpt>
      <trkpt lat="45.16351" lon="6.43208">
        <ele>1439.4004</ele>
        <time>2020-08-12T06:38:24+02:00</time>
      </trkpt>
      <trkpt lat="45.16357" lon="6.4321">
        <ele>1438.4004</ele>
        <time>2020-08-12T06:38:28+02:00</time>
      </trkpt>
      <trkpt lat="45.16358" lon="6.43211">
        <ele>1437.4004</ele>
        <time>2020-08-12T06:38:29+02:00</time>
      </trkpt>
      <trkpt lat="45.16364" lon="6.43215">
        <ele>1437.4004</ele>
        <time>2020-08-12T06:38:33+02:00</time>
      </trkpt>
      <trkpt lat="45.16365" lon="6.43216">
        <ele>1438.4004</ele>
        <time>2020-08-12T06:38:34+02:00</time>
      </trkpt>
      <trkpt lat="45.16366" lon="6.43224">
        <ele>1440.4004</ele>
        <time>2020-08-12T06:38:38+02:00</time>
      </trkpt>
      <trkpt lat="45.16365" lon="6.43227">
        <ele>1440.4004</ele>
        <time>2020-08-12T06:38:39+02:00</time>
      </trkpt>
      <trkpt lat="45.1636" lon="6.43235">
        <ele>1443.4004</ele>
        <time>2020-08-12T06:38:43+02:00</time>
      </trkpt>
      <trkpt lat="45.16359" lon="6.43236">
        <ele>1443.4004</ele>
        <time>2020-08-12T06:38:44+02:00</time>
      </trkpt>
      <trkpt lat="45.16354" lon="6.43239">
        <ele>1444.2998</ele>
        <time>2020-08-12T06:38:48+02:00</time>
      </trkpt>
      <trkpt lat="45.16354" lon="6.43238">
        <ele>1444.2998</ele>
        <time>2020-08-12T06:38:49+02:00</time>
      </trkpt>
      <trkpt lat="45.1635" lon="6.43238">
        <ele>1445.2002</ele>
        <time>2020-08-12T06:38:53+02:00</time>
      </trkpt>
      <trkpt lat="45.16349" lon="6.43237">
        <ele>1445.2002</ele>
        <time>2020-08-12T06:38:54+02:00</time>
      </trkpt>
      <trkpt lat="45.16345" lon="6.43235">
        <ele>1446.2002</ele>
        <time>2020-08-12T06:38:58+02:00</time>
      </trkpt>
      <trkpt lat="45.16344" lon="6.43235">
        <ele>1446.2002</ele>
        <time>2020-08-12T06:38:59+02:00</time>
      </trkpt>
      <trkpt lat="45.16336" lon="6.43234">
        <ele>1447.1006</ele>
        <time>2020-08-12T06:39:03+02:00</time>
      </trkpt>
      <trkpt lat="45.16334" lon="6.43234">
        <ele>1448</ele>
        <time>2020-08-12T06:39:04+02:00</time>
      </trkpt>
      <trkpt lat="45.16327" lon="6.43237">
        <ele>1448.7998</ele>
        <time>2020-08-12T06:39:08+02:00</time>
      </trkpt>
      <trkpt lat="45.16325" lon="6.43238">
        <ele>1448.7998</ele>
        <time>2020-08-12T06:39:09+02:00</time>
      </trkpt>
      <trkpt lat="45.16319" lon="6.43242">
        <ele>1451.7002</ele>
        <time>2020-08-12T06:39:13+02:00</time>
      </trkpt>
      <trkpt lat="45.16318" lon="6.43242">
        <ele>1451.7002</ele>
        <time>2020-08-12T06:39:14+02:00</time>
      </trkpt>
      <trkpt lat="45.16313" lon="6.43245">
        <ele>1452.5</ele>
        <time>2020-08-12T06:39:18+02:00</time>
      </trkpt>
      <trkpt lat="45.16311" lon="6.43245">
        <ele>1452.5</ele>
        <time>2020-08-12T06:39:19+02:00</time>
      </trkpt>
      <trkpt lat="45.16305" lon="6.43244">
        <ele>1453.2002</ele>
        <time>2020-08-12T06:39:23+02:00</time>
      </trkpt>
      <trkpt lat="45.16304" lon="6.43244">
        <ele>1453.2002</ele>
        <time>2020-08-12T06:39:24+02:00</time>
      </trkpt>
      <trkpt lat="45.16297" lon="6.43244">
        <ele>1454.5</ele>
        <time>2020-08-12T06:39:28+02:00</time>
      </trkpt>
      <trkpt lat="45.16297" lon="6.43244">
        <ele>1454.5</ele>
        <time>2020-08-12T06:39:29+02:00</time>
      </trkpt>
      <trkpt lat="45.16294" lon="6.43247">
        <ele>1454.5</ele>
        <time>2020-08-12T06:39:33+02:00</time>
      </trkpt>
      <trkpt lat="45.16293" lon="6.43248">
        <ele>1454.5</ele>
        <time>2020-08-12T06:39:34+02:00</time>
      </trkpt>
      <trkpt lat="45.16292" lon="6.43255">
        <ele>1456.5</ele>
        <time>2020-08-12T06:39:38+02:00</time>
      </trkpt>
      <trkpt lat="45.16292" lon="6.43256">
        <ele>1456.5</ele>
        <time>2020-08-12T06:39:39+02:00</time>
      </trkpt>
      <trkpt lat="45.16296" lon="6.43261">
        <ele>1458.7002</ele>
        <time>2020-08-12T06:39:43+02:00</time>
      </trkpt>
      <trkpt lat="45.16297" lon="6.43262">
        <ele>1458.7002</ele>
        <time>2020-08-12T06:39:44+02:00</time>
      </trkpt>
      <trkpt lat="45.16302" lon="6.43263">
        <ele>1458.1006</ele>
        <time>2020-08-12T06:39:48+02:00</time>
      </trkpt>
      <trkpt lat="45.16303" lon="6.43263">
        <ele>1458.1006</ele>
        <time>2020-08-12T06:39:49+02:00</time>
      </trkpt>
      <trkpt lat="45.16307" lon="6.43261">
        <ele>1457.5</ele>
        <time>2020-08-12T06:39:53+02:00</time>
      </trkpt>
      <trkpt lat="45.16307" lon="6.4326">
        <ele>1457.5</ele>
        <time>2020-08-12T06:39:54+02:00</time>
      </trkpt>
      <trkpt lat="45.16311" lon="6.43261">
        <ele>1456.7998</ele>
        <time>2020-08-12T06:39:58+02:00</time>
      </trkpt>
      <trkpt lat="45.16313" lon="6.43261">
        <ele>1456.7998</ele>
        <time>2020-08-12T06:39:59+02:00</time>
      </trkpt>
      <trkpt lat="45.16319" lon="6.4326">
        <ele>1456.1006</ele>
        <time>2020-08-12T06:40:03+02:00</time>
      </trkpt>
      <trkpt lat="45.1632" lon="6.43259">
        <ele>1456.1006</ele>
        <time>2020-08-12T06:40:04+02:00</time>
      </trkpt>
      <trkpt lat="45.16326" lon="6.43257">
        <ele>1453.1006</ele>
        <time>2020-08-12T06:40:08+02:00</time>
      </trkpt>
      <trkpt lat="45.16327" lon="6.43258">
        <ele>1453.1006</ele>
        <time>2020-08-12T06:40:09+02:00</time>
      </trkpt>
      <trkpt lat="45.16334" lon="6.43259">
        <ele>1453.6006</ele>
        <time>2020-08-12T06:40:13+02:00</time>
      </trkpt>
      <trkpt lat="45.16336" lon="6.4326">
        <ele>1453.6006</ele>
        <time>2020-08-12T06:40:14+02:00</time>
      </trkpt>
      <trkpt lat="45.16344" lon="6.43262">
        <ele>1452.7998</ele>
        <time>2020-08-12T06:40:18+02:00</time>
      </trkpt>
      <trkpt lat="45.16346" lon="6.43262">
        <ele>1451.9004</ele>
        <time>2020-08-12T06:40:19+02:00</time>
      </trkpt>
      <trkpt lat="45.16353" lon="6.43266">
        <ele>1451</ele>
        <time>2020-08-12T06:40:23+02:00</time>
      </trkpt>
      <trkpt lat="45.16354" lon="6.43267">
        <ele>1453.4004</ele>
        <time>2020-08-12T06:40:24+02:00</time>
      </trkpt>
      <trkpt lat="45.16362" lon="6.43272">
        <ele>1452.5</ele>
        <time>2020-08-12T06:40:28+02:00</time>
      </trkpt>
      <trkpt lat="45.16364" lon="6.43273">
        <ele>1452.5</ele>
        <time>2020-08-12T06:40:29+02:00</time>
      </trkpt>
      <trkpt lat="45.16373" lon="6.43276">
        <ele>1453.2002</ele>
        <time>2020-08-12T06:40:33+02:00</time>
      </trkpt>
      <trkpt lat="45.16375" lon="6.43277">
        <ele>1453.2002</ele>
        <time>2020-08-12T06:40:34+02:00</time>
      </trkpt>
      <trkpt lat="45.16383" lon="6.43281">
        <ele>1451.2998</ele>
        <time>2020-08-12T06:40:38+02:00</time>
      </trkpt>
      <trkpt lat="45.16386" lon="6.43282">
        <ele>1451.2998</ele>
        <time>2020-08-12T06:40:39+02:00</time>
      </trkpt>
      <trkpt lat="45.16393" lon="6.43287">
        <ele>1452.7002</ele>
        <time>2020-08-12T06:40:43+02:00</time>
      </trkpt>
      <trkpt lat="45.16394" lon="6.4329">
        <ele>1452.7002</ele>
        <time>2020-08-12T06:40:44+02:00</time>
      </trkpt>
      <trkpt lat="45.16393" lon="6.43299">
        <ele>1455.2002</ele>
        <time>2020-08-12T06:40:48+02:00</time>
      </trkpt>
      <trkpt lat="45.16393" lon="6.43301">
        <ele>1457.7002</ele>
        <time>2020-08-12T06:40:49+02:00</time>
      </trkpt>
      <trkpt lat="45.16388" lon="6.43309">
        <ele>1458.7998</ele>
        <time>2020-08-12T06:40:53+02:00</time>
      </trkpt>
      <trkpt lat="45.16388" lon="6.4331">
        <ele>1461.4004</ele>
        <time>2020-08-12T06:40:54+02:00</time>
      </trkpt>
      <trkpt lat="45.16383" lon="6.4331">
        <ele>1461.4004</ele>
        <time>2020-08-12T06:40:58+02:00</time>
      </trkpt>
      <trkpt lat="45.16382" lon="6.43309">
        <ele>1459.7998</ele>
        <time>2020-08-12T06:40:59+02:00</time>
      </trkpt>
      <trkpt lat="45.16376" lon="6.43307">
        <ele>1460.7002</ele>
        <time>2020-08-12T06:41:03+02:00</time>
      </trkpt>
      <trkpt lat="45.16374" lon="6.43306">
        <ele>1460.7002</ele>
        <time>2020-08-12T06:41:04+02:00</time>
      </trkpt>
      <trkpt lat="45.16367" lon="6.43303">
        <ele>1461.6006</ele>
        <time>2020-08-12T06:41:08+02:00</time>
      </trkpt>
      <trkpt lat="45.16366" lon="6.43303">
        <ele>1461.6006</ele>
        <time>2020-08-12T06:41:09+02:00</time>
      </trkpt>
      <trkpt lat="45.16358" lon="6.43302">
        <ele>1463.2998</ele>
        <time>2020-08-12T06:41:13+02:00</time>
      </trkpt>
      <trkpt lat="45.16356" lon="6.43303">
        <ele>1463.2998</ele>
        <time>2020-08-12T06:41:14+02:00</time>
      </trkpt>
      <trkpt lat="45.1635" lon="6.43305">
        <ele>1464</ele>
        <time>2020-08-12T06:41:18+02:00</time>
      </trkpt>
      <trkpt lat="45.16348" lon="6.43306">
        <ele>1464</ele>
        <time>2020-08-12T06:41:19+02:00</time>
      </trkpt>
      <trkpt lat="45.16343" lon="6.43313">
        <ele>1467.2002</ele>
        <time>2020-08-12T06:41:23+02:00</time>
      </trkpt>
      <trkpt lat="45.16342" lon="6.43315">
        <ele>1467.2002</ele>
        <time>2020-08-12T06:41:24+02:00</time>
      </trkpt>
      <trkpt lat="45.16337" lon="6.43322">
        <ele>1470.2002</ele>
        <time>2020-08-12T06:41:28+02:00</time>
      </trkpt>
      <trkpt lat="45.16336" lon="6.43324">
        <ele>1470.2002</ele>
        <time>2020-08-12T06:41:29+02:00</time>
      </trkpt>
      <trkpt lat="45.16331" lon="6.43333">
        <ele>1473</ele>
        <time>2020-08-12T06:41:33+02:00</time>
      </trkpt>
      <trkpt lat="45.1633" lon="6.43335">
        <ele>1473</ele>
        <time>2020-08-12T06:41:34+02:00</time>
      </trkpt>
      <trkpt lat="45.16326" lon="6.43341">
        <ele>1475.6006</ele>
        <time>2020-08-12T06:41:38+02:00</time>
      </trkpt>
      <trkpt lat="45.16325" lon="6.43342">
        <ele>1475.6006</ele>
        <time>2020-08-12T06:41:39+02:00</time>
      </trkpt>
      <trkpt lat="45.1632" lon="6.4335">
        <ele>1477.7998</ele>
        <time>2020-08-12T06:41:43+02:00</time>
      </trkpt>
      <trkpt lat="45.16319" lon="6.43352">
        <ele>1477.7998</ele>
        <time>2020-08-12T06:41:44+02:00</time>
      </trkpt>
      <trkpt lat="45.16315" lon="6.4336">
        <ele>1479.7998</ele>
        <time>2020-08-12T06:41:48+02:00</time>
      </trkpt>
      <trkpt lat="45.16314" lon="6.43362">
        <ele>1481.7002</ele>
        <time>2020-08-12T06:41:49+02:00</time>
      </trkpt>
      <trkpt lat="45.16309" lon="6.43369">
        <ele>1481.6006</ele>
        <time>2020-08-12T06:41:53+02:00</time>
      </trkpt>
      <trkpt lat="45.16308" lon="6.43371">
        <ele>1483.4004</ele>
        <time>2020-08-12T06:41:54+02:00</time>
      </trkpt>
      <trkpt lat="45.16306" lon="6.43376">
        <ele>1483.4004</ele>
        <time>2020-08-12T06:41:58+02:00</time>
      </trkpt>
      <trkpt lat="45.16304" lon="6.43376">
        <ele>1483.4004</ele>
        <time>2020-08-12T06:41:59+02:00</time>
      </trkpt>
      <trkpt lat="45.16296" lon="6.43378">
        <ele>1484.7998</ele>
        <time>2020-08-12T06:42:03+02:00</time>
      </trkpt>
      <trkpt lat="45.16294" lon="6.43379">
        <ele>1484.7998</ele>
        <time>2020-08-12T06:42:04+02:00</time>
      </trkpt>
      <trkpt lat="45.1629" lon="6.43386">
        <ele>1484.5</ele>
        <time>2020-08-12T06:42:08+02:00</time>
      </trkpt>
      <trkpt lat="45.16289" lon="6.43388">
        <ele>1486.2002</ele>
        <time>2020-08-12T06:42:09+02:00</time>
      </trkpt>
      <trkpt lat="45.16288" lon="6.43391">
        <ele>1486.2002</ele>
        <time>2020-08-12T06:42:13+02:00</time>
      </trkpt>
      <trkpt lat="45.16288" lon="6.4339">
        <ele>1486.2002</ele>
        <time>2020-08-12T06:42:14+02:00</time>
      </trkpt>
      <trkpt lat="45.16288" lon="6.43387">
        <ele>1486.2002</ele>
        <time>2020-08-12T06:42:18+02:00</time>
      </trkpt>
      <trkpt lat="45.16287" lon="6.43386">
        <ele>1484.5</ele>
        <time>2020-08-12T06:42:19+02:00</time>
      </trkpt>
      <trkpt lat="45.16289" lon="6.43384">
        <ele>1484.5</ele>
        <time>2020-08-12T06:42:23+02:00</time>
      </trkpt>
      <trkpt lat="45.1629" lon="6.43383">
        <ele>1484.5</ele>
        <time>2020-08-12T06:42:24+02:00</time>
      </trkpt>
      <trkpt lat="45.16295" lon="6.43379">
        <ele>1484.7998</ele>
        <time>2020-08-12T06:42:28+02:00</time>
      </trkpt>
      <trkpt lat="45.16297" lon="6.43378">
        <ele>1483.1006</ele>
        <time>2020-08-12T06:42:29+02:00</time>
      </trkpt>
      <trkpt lat="45.16304" lon="6.43375">
        <ele>1483.4004</ele>
        <time>2020-08-12T06:42:33+02:00</time>
      </trkpt>
      <trkpt lat="45.16306" lon="6.43375">
        <ele>1483.4004</ele>
        <time>2020-08-12T06:42:34+02:00</time>
      </trkpt>
      <trkpt lat="45.16312" lon="6.43374">
        <ele>1483.5</ele>
        <time>2020-08-12T06:42:38+02:00</time>
      </trkpt>
      <trkpt lat="45.16314" lon="6.43373">
        <ele>1483.5</ele>
        <time>2020-08-12T06:42:39+02:00</time>
      </trkpt>
      <trkpt lat="45.1632" lon="6.43368">
        <ele>1481.7002</ele>
        <time>2020-08-12T06:42:43+02:00</time>
      </trkpt>
      <trkpt lat="45.16321" lon="6.43366">
        <ele>1481.7002</ele>
        <time>2020-08-12T06:42:44+02:00</time>
      </trkpt>
      <trkpt lat="45.16328" lon="6.43358">
        <ele>1479.5</ele>
        <time>2020-08-12T06:42:48+02:00</time>
      </trkpt>
      <trkpt lat="45.1633" lon="6.43356">
        <ele>1479.5</ele>
        <time>2020-08-12T06:42:49+02:00</time>
      </trkpt>
      <trkpt lat="45.16338" lon="6.43351">
        <ele>1477.1006</ele>
        <time>2020-08-12T06:42:53+02:00</time>
      </trkpt>
      <trkpt lat="45.16341" lon="6.43349">
        <ele>1476.7002</ele>
        <time>2020-08-12T06:42:54+02:00</time>
      </trkpt>
      <trkpt lat="45.16349" lon="6.43343">
        <ele>1473.7998</ele>
        <time>2020-08-12T06:42:58+02:00</time>
      </trkpt>
      <trkpt lat="45.1635" lon="6.43342">
        <ele>1473.7998</ele>
        <time>2020-08-12T06:42:59+02:00</time>
      </trkpt>
      <trkpt lat="45.16358" lon="6.43343">
        <ele>1472.5</ele>
        <time>2020-08-12T06:43:03+02:00</time>
      </trkpt>
      <trkpt lat="45.1636" lon="6.43345">
        <ele>1475</ele>
        <time>2020-08-12T06:43:04+02:00</time>
      </trkpt>
      <trkpt lat="45.16361" lon="6.43354">
        <ele>1477.5</ele>
        <time>2020-08-12T06:43:08+02:00</time>
      </trkpt>
      <trkpt lat="45.1636" lon="6.43356">
        <ele>1477.5</ele>
        <time>2020-08-12T06:43:09+02:00</time>
      </trkpt>
      <trkpt lat="45.16354" lon="6.4336">
        <ele>1478.1006</ele>
        <time>2020-08-12T06:43:13+02:00</time>
      </trkpt>
      <trkpt lat="45.16352" lon="6.43361">
        <ele>1478.1006</ele>
        <time>2020-08-12T06:43:14+02:00</time>
      </trkpt>
      <trkpt lat="45.16346" lon="6.43365">
        <ele>1480.9004</ele>
        <time>2020-08-12T06:43:18+02:00</time>
      </trkpt>
      <trkpt lat="45.16345" lon="6.43366">
        <ele>1481.2002</ele>
        <time>2020-08-12T06:43:19+02:00</time>
      </trkpt>
      <trkpt lat="45.16341" lon="6.43373">
        <ele>1483.4004</ele>
        <time>2020-08-12T06:43:23+02:00</time>
      </trkpt>
      <trkpt lat="45.1634" lon="6.43375">
        <ele>1483.5</ele>
        <time>2020-08-12T06:43:24+02:00</time>
      </trkpt>
      <trkpt lat="45.16333" lon="6.43383">
        <ele>1485.6006</ele>
        <time>2020-08-12T06:43:28+02:00</time>
      </trkpt>
      <trkpt lat="45.16331" lon="6.43385">
        <ele>1485.6006</ele>
        <time>2020-08-12T06:43:29+02:00</time>
      </trkpt>
      <trkpt lat="45.16327" lon="6.43391">
        <ele>1487.6006</ele>
        <time>2020-08-12T06:43:33+02:00</time>
      </trkpt>
      <trkpt lat="45.16326" lon="6.43393">
        <ele>1487.6006</ele>
        <time>2020-08-12T06:43:34+02:00</time>
      </trkpt>
      <trkpt lat="45.16323" lon="6.434">
        <ele>1489.5</ele>
        <time>2020-08-12T06:43:38+02:00</time>
      </trkpt>
      <trkpt lat="45.16322" lon="6.43402">
        <ele>1489.5</ele>
        <time>2020-08-12T06:43:39+02:00</time>
      </trkpt>
      <trkpt lat="45.16318" lon="6.4341">
        <ele>1491.2998</ele>
        <time>2020-08-12T06:43:43+02:00</time>
      </trkpt>
      <trkpt lat="45.16317" lon="6.43412">
        <ele>1491.2998</ele>
        <time>2020-08-12T06:43:44+02:00</time>
      </trkpt>
      <trkpt lat="45.16313" lon="6.43419">
        <ele>1493</ele>
        <time>2020-08-12T06:43:48+02:00</time>
      </trkpt>
      <trkpt lat="45.16312" lon="6.4342">
        <ele>1493</ele>
        <time>2020-08-12T06:43:49+02:00</time>
      </trkpt>
      <trkpt lat="45.16308" lon="6.43428">
        <ele>1494.7998</ele>
        <time>2020-08-12T06:43:53+02:00</time>
      </trkpt>
      <trkpt lat="45.16307" lon="6.4343">
        <ele>1494.7998</ele>
        <time>2020-08-12T06:43:54+02:00</time>
      </trkpt>
      <trkpt lat="45.16301" lon="6.43436">
        <ele>1496.5</ele>
        <time>2020-08-12T06:43:58+02:00</time>
      </trkpt>
      <trkpt lat="45.163" lon="6.43437">
        <ele>1496.5</ele>
        <time>2020-08-12T06:43:59+02:00</time>
      </trkpt>
      <trkpt lat="45.16293" lon="6.43443">
        <ele>1498.1006</ele>
        <time>2020-08-12T06:44:03+02:00</time>
      </trkpt>
      <trkpt lat="45.16293" lon="6.43445">
        <ele>1498.1006</ele>
        <time>2020-08-12T06:44:04+02:00</time>
      </trkpt>
      <trkpt lat="45.16289" lon="6.4345">
        <ele>1499.7002</ele>
        <time>2020-08-12T06:44:08+02:00</time>
      </trkpt>
      <trkpt lat="45.16287" lon="6.43451">
        <ele>1499.7002</ele>
        <time>2020-08-12T06:44:09+02:00</time>
      </trkpt>
      <trkpt lat="45.16277" lon="6.43453">
        <ele>1498.6006</ele>
        <time>2020-08-12T06:44:13+02:00</time>
      </trkpt>
      <trkpt lat="45.16274" lon="6.43453">
        <ele>1498.6006</ele>
        <time>2020-08-12T06:44:14+02:00</time>
      </trkpt>
      <trkpt lat="45.16264" lon="6.43452">
        <ele>1497.2998</ele>
        <time>2020-08-12T06:44:18+02:00</time>
      </trkpt>
      <trkpt lat="45.16262" lon="6.43451">
        <ele>1497.2998</ele>
        <time>2020-08-12T06:44:19+02:00</time>
      </trkpt>
      <trkpt lat="45.16255" lon="6.43449">
        <ele>1496.2002</ele>
        <time>2020-08-12T06:44:23+02:00</time>
      </trkpt>
      <trkpt lat="45.16253" lon="6.43449">
        <ele>1496.2002</ele>
        <time>2020-08-12T06:44:24+02:00</time>
      </trkpt>
      <trkpt lat="45.16246" lon="6.43445">
        <ele>1494.2002</ele>
        <time>2020-08-12T06:44:28+02:00</time>
      </trkpt>
      <trkpt lat="45.16244" lon="6.43444">
        <ele>1494.2002</ele>
        <time>2020-08-12T06:44:29+02:00</time>
      </trkpt>
      <trkpt lat="45.16236" lon="6.4344">
        <ele>1493.7002</ele>
        <time>2020-08-12T06:44:33+02:00</time>
      </trkpt>
      <trkpt lat="45.16234" lon="6.43439">
        <ele>1493.7002</ele>
        <time>2020-08-12T06:44:34+02:00</time>
      </trkpt>
      <trkpt lat="45.16228" lon="6.43437">
        <ele>1492</ele>
        <time>2020-08-12T06:44:38+02:00</time>
      </trkpt>
      <trkpt lat="45.16227" lon="6.43437">
        <ele>1492</ele>
        <time>2020-08-12T06:44:39+02:00</time>
      </trkpt>
      <trkpt lat="45.16223" lon="6.43439">
        <ele>1493.2998</ele>
        <time>2020-08-12T06:44:43+02:00</time>
      </trkpt>
      <trkpt lat="45.16222" lon="6.43441">
        <ele>1493.2998</ele>
        <time>2020-08-12T06:44:44+02:00</time>
      </trkpt>
      <trkpt lat="45.16222" lon="6.43446">
        <ele>1493.2998</ele>
        <time>2020-08-12T06:44:48+02:00</time>
      </trkpt>
      <trkpt lat="45.16222" lon="6.43447">
        <ele>1494.7998</ele>
        <time>2020-08-12T06:44:49+02:00</time>
      </trkpt>
      <trkpt lat="45.16226" lon="6.43448">
        <ele>1495</ele>
        <time>2020-08-12T06:44:53+02:00</time>
      </trkpt>
      <trkpt lat="45.16227" lon="6.43448">
        <ele>1495</ele>
        <time>2020-08-12T06:44:54+02:00</time>
      </trkpt>
      <trkpt lat="45.16231" lon="6.43448">
        <ele>1495</ele>
        <time>2020-08-12T06:44:58+02:00</time>
      </trkpt>
      <trkpt lat="45.16232" lon="6.43448">
        <ele>1495.2002</ele>
        <time>2020-08-12T06:44:59+02:00</time>
      </trkpt>
      <trkpt lat="45.16236" lon="6.43447">
        <ele>1493.7002</ele>
        <time>2020-08-12T06:45:03+02:00</time>
      </trkpt>
      <trkpt lat="45.16237" lon="6.43447">
        <ele>1495.2002</ele>
        <time>2020-08-12T06:45:04+02:00</time>
      </trkpt>
      <trkpt lat="45.16243" lon="6.43449">
        <ele>1495.5</ele>
        <time>2020-08-12T06:45:08+02:00</time>
      </trkpt>
      <trkpt lat="45.16244" lon="6.43449">
        <ele>1495.7998</ele>
        <time>2020-08-12T06:45:09+02:00</time>
      </trkpt>
      <trkpt lat="45.16253" lon="6.4345">
        <ele>1496.2002</ele>
        <time>2020-08-12T06:45:13+02:00</time>
      </trkpt>
      <trkpt lat="45.16255" lon="6.4345">
        <ele>1496.2002</ele>
        <time>2020-08-12T06:45:14+02:00</time>
      </trkpt>
      <trkpt lat="45.16258" lon="6.43458">
        <ele>1498.6006</ele>
        <time>2020-08-12T06:45:18+02:00</time>
      </trkpt>
      <trkpt lat="45.16258" lon="6.43461">
        <ele>1498.6006</ele>
        <time>2020-08-12T06:45:19+02:00</time>
      </trkpt>
      <trkpt lat="45.16257" lon="6.43472">
        <ele>1500.5</ele>
        <time>2020-08-12T06:45:23+02:00</time>
      </trkpt>
      <trkpt lat="45.16256" lon="6.43474">
        <ele>1502.5</ele>
        <time>2020-08-12T06:45:24+02:00</time>
      </trkpt>
      <trkpt lat="45.16253" lon="6.43483">
        <ele>1503.7998</ele>
        <time>2020-08-12T06:45:28+02:00</time>
      </trkpt>
      <trkpt lat="45.16252" lon="6.43486">
        <ele>1503.7998</ele>
        <time>2020-08-12T06:45:29+02:00</time>
      </trkpt>
      <trkpt lat="45.16249" lon="6.43497">
        <ele>1505.2002</ele>
        <time>2020-08-12T06:45:33+02:00</time>
      </trkpt>
      <trkpt lat="45.16248" lon="6.43499">
        <ele>1507.2998</ele>
        <time>2020-08-12T06:45:34+02:00</time>
      </trkpt>
      <trkpt lat="45.16244" lon="6.43507">
        <ele>1507.2998</ele>
        <time>2020-08-12T06:45:38+02:00</time>
      </trkpt>
      <trkpt lat="45.16243" lon="6.43509">
        <ele>1508.9004</ele>
        <time>2020-08-12T06:45:39+02:00</time>
      </trkpt>
      <trkpt lat="45.16238" lon="6.43517">
        <ele>1511.2002</ele>
        <time>2020-08-12T06:45:43+02:00</time>
      </trkpt>
      <trkpt lat="45.16238" lon="6.43519">
        <ele>1511.2002</ele>
        <time>2020-08-12T06:45:44+02:00</time>
      </trkpt>
      <trkpt lat="45.16235" lon="6.43524">
        <ele>1510.5</ele>
        <time>2020-08-12T06:45:48+02:00</time>
      </trkpt>
      <trkpt lat="45.16235" lon="6.43524">
        <ele>1512.9004</ele>
        <time>2020-08-12T06:45:49+02:00</time>
      </trkpt>
      <trkpt lat="45.16231" lon="6.4353">
        <ele>1512.9004</ele>
        <time>2020-08-12T06:45:53+02:00</time>
      </trkpt>
      <trkpt lat="45.1623" lon="6.43531">
        <ele>1512.1006</ele>
        <time>2020-08-12T06:45:54+02:00</time>
      </trkpt>
      <trkpt lat="45.16223" lon="6.43532">
        <ele>1511.5</ele>
        <time>2020-08-12T06:45:58+02:00</time>
      </trkpt>
      <trkpt lat="45.1622" lon="6.43533">
        <ele>1511.5</ele>
        <time>2020-08-12T06:45:59+02:00</time>
      </trkpt>
      <trkpt lat="45.16211" lon="6.43535">
        <ele>1512.6006</ele>
        <time>2020-08-12T06:46:03+02:00</time>
      </trkpt>
      <trkpt lat="45.1621" lon="6.43536">
        <ele>1512.6006</ele>
        <time>2020-08-12T06:46:04+02:00</time>
      </trkpt>
      <trkpt lat="45.16204" lon="6.43542">
        <ele>1514.4004</ele>
        <time>2020-08-12T06:46:08+02:00</time>
      </trkpt>
      <trkpt lat="45.16203" lon="6.43544">
        <ele>1514.4004</ele>
        <time>2020-08-12T06:46:09+02:00</time>
      </trkpt>
      <trkpt lat="45.162" lon="6.4355">
        <ele>1516.2998</ele>
        <time>2020-08-12T06:46:13+02:00</time>
      </trkpt>
      <trkpt lat="45.162" lon="6.4355">
        <ele>1516.2998</ele>
        <time>2020-08-12T06:46:14+02:00</time>
      </trkpt>
      <trkpt lat="45.16197" lon="6.43549">
        <ele>1514.1006</ele>
        <time>2020-08-12T06:46:18+02:00</time>
      </trkpt>
      <trkpt lat="45.16196" lon="6.43549">
        <ele>1514.1006</ele>
        <time>2020-08-12T06:46:19+02:00</time>
      </trkpt>
      <trkpt lat="45.16197" lon="6.43547">
        <ele>1514.1006</ele>
        <time>2020-08-12T06:46:23+02:00</time>
      </trkpt>
      <trkpt lat="45.16198" lon="6.43547">
        <ele>1514.1006</ele>
        <time>2020-08-12T06:46:24+02:00</time>
      </trkpt>
      <trkpt lat="45.16203" lon="6.43546">
        <ele>1514.4004</ele>
        <time>2020-08-12T06:46:28+02:00</time>
      </trkpt>
      <trkpt lat="45.16205" lon="6.43546">
        <ele>1514.4004</ele>
        <time>2020-08-12T06:46:29+02:00</time>
      </trkpt>
      <trkpt lat="45.16209" lon="6.43546">
        <ele>1514.7998</ele>
        <time>2020-08-12T06:46:33+02:00</time>
      </trkpt>
      <trkpt lat="45.1621" lon="6.43546">
        <ele>1514.7998</ele>
        <time>2020-08-12T06:46:34+02:00</time>
      </trkpt>
      <trkpt lat="45.16215" lon="6.43542">
        <ele>1515.4004</ele>
        <time>2020-08-12T06:46:38+02:00</time>
      </trkpt>
      <trkpt lat="45.16217" lon="6.43542">
        <ele>1515.4004</ele>
        <time>2020-08-12T06:46:39+02:00</time>
      </trkpt>
      <trkpt lat="45.16221" lon="6.43539">
        <ele>1513.7998</ele>
        <time>2020-08-12T06:46:43+02:00</time>
      </trkpt>
      <trkpt lat="45.16222" lon="6.43538">
        <ele>1513.7998</ele>
        <time>2020-08-12T06:46:44+02:00</time>
      </trkpt>
      <trkpt lat="45.16229" lon="6.43535">
        <ele>1514.5</ele>
        <time>2020-08-12T06:46:48+02:00</time>
      </trkpt>
      <trkpt lat="45.1623" lon="6.43534">
        <ele>1514.5</ele>
        <time>2020-08-12T06:46:49+02:00</time>
      </trkpt>
      <trkpt lat="45.16237" lon="6.43532">
        <ele>1512.9004</ele>
        <time>2020-08-12T06:46:53+02:00</time>
      </trkpt>
      <trkpt lat="45.16239" lon="6.43531">
        <ele>1513.6006</ele>
        <time>2020-08-12T06:46:54+02:00</time>
      </trkpt>
      <trkpt lat="45.16245" lon="6.43528">
        <ele>1514.4004</ele>
        <time>2020-08-12T06:46:58+02:00</time>
      </trkpt>
      <trkpt lat="45.16246" lon="6.43527">
        <ele>1514.4004</ele>
        <time>2020-08-12T06:46:59+02:00</time>
      </trkpt>
      <trkpt lat="45.16253" lon="6.43522">
        <ele>1512.7002</ele>
        <time>2020-08-12T06:47:03+02:00</time>
      </trkpt>
      <trkpt lat="45.16254" lon="6.4352">
        <ele>1512.7002</ele>
        <time>2020-08-12T06:47:04+02:00</time>
      </trkpt>
      <trkpt lat="45.16261" lon="6.43516">
        <ele>1513.6006</ele>
        <time>2020-08-12T06:47:08+02:00</time>
      </trkpt>
      <trkpt lat="45.16263" lon="6.43515">
        <ele>1512.1006</ele>
        <time>2020-08-12T06:47:09+02:00</time>
      </trkpt>
      <trkpt lat="45.1627" lon="6.43512">
        <ele>1513.1006</ele>
        <time>2020-08-12T06:47:13+02:00</time>
      </trkpt>
      <trkpt lat="45.16272" lon="6.43511">
        <ele>1513.1006</ele>
        <time>2020-08-12T06:47:14+02:00</time>
      </trkpt>
      <trkpt lat="45.1628" lon="6.43508">
        <ele>1515.2002</ele>
        <time>2020-08-12T06:47:18+02:00</time>
      </trkpt>
      <trkpt lat="45.16282" lon="6.43507">
        <ele>1515.2002</ele>
        <time>2020-08-12T06:47:19+02:00</time>
      </trkpt>
      <trkpt lat="45.1629" lon="6.43503">
        <ele>1513.7998</ele>
        <time>2020-08-12T06:47:23+02:00</time>
      </trkpt>
      <trkpt lat="45.16292" lon="6.43503">
        <ele>1515</ele>
        <time>2020-08-12T06:47:24+02:00</time>
      </trkpt>
      <trkpt lat="45.163" lon="6.43499">
        <ele>1516.1006</ele>
        <time>2020-08-12T06:47:28+02:00</time>
      </trkpt>
      <trkpt lat="45.16302" lon="6.43498">
        <ele>1513.4004</ele>
        <time>2020-08-12T06:47:29+02:00</time>
      </trkpt>
      <trkpt lat="45.16308" lon="6.43492">
        <ele>1514.2998</ele>
        <time>2020-08-12T06:47:33+02:00</time>
      </trkpt>
      <trkpt lat="45.1631" lon="6.4349">
        <ele>1515.2002</ele>
        <time>2020-08-12T06:47:34+02:00</time>
      </trkpt>
      <trkpt lat="45.1632" lon="6.43485">
        <ele>1513.2002</ele>
        <time>2020-08-12T06:47:38+02:00</time>
      </trkpt>
      <trkpt lat="45.16323" lon="6.43483">
        <ele>1514</ele>
        <time>2020-08-12T06:47:39+02:00</time>
      </trkpt>
      <trkpt lat="45.16332" lon="6.43477">
        <ele>1512</ele>
        <time>2020-08-12T06:47:43+02:00</time>
      </trkpt>
      <trkpt lat="45.16333" lon="6.43475">
        <ele>1512</ele>
        <time>2020-08-12T06:47:44+02:00</time>
      </trkpt>
      <trkpt lat="45.16339" lon="6.43471">
        <ele>1510</ele>
        <time>2020-08-12T06:47:48+02:00</time>
      </trkpt>
      <trkpt lat="45.16341" lon="6.4347">
        <ele>1510.7998</ele>
        <time>2020-08-12T06:47:49+02:00</time>
      </trkpt>
      <trkpt lat="45.16348" lon="6.43471">
        <ele>1511.5</ele>
        <time>2020-08-12T06:47:53+02:00</time>
      </trkpt>
      <trkpt lat="45.1635" lon="6.43471">
        <ele>1511.5</ele>
        <time>2020-08-12T06:47:54+02:00</time>
      </trkpt>
      <trkpt lat="45.16352" lon="6.43477">
        <ele>1515</ele>
        <time>2020-08-12T06:47:58+02:00</time>
      </trkpt>
      <trkpt lat="45.16351" lon="6.43479">
        <ele>1514.5</ele>
        <time>2020-08-12T06:47:59+02:00</time>
      </trkpt>
      <trkpt lat="45.16348" lon="6.43485">
        <ele>1517.5</ele>
        <time>2020-08-12T06:48:03+02:00</time>
      </trkpt>
      <trkpt lat="45.16347" lon="6.43486">
        <ele>1517.5</ele>
        <time>2020-08-12T06:48:04+02:00</time>
      </trkpt>
      <trkpt lat="45.16346" lon="6.43488">
        <ele>1516.7998</ele>
        <time>2020-08-12T06:48:08+02:00</time>
      </trkpt>
      <trkpt lat="45.16346" lon="6.43488">
        <ele>1516.7998</ele>
        <time>2020-08-12T06:48:09+02:00</time>
      </trkpt>
      <trkpt lat="45.16345" lon="6.43487">
        <ele>1516.7998</ele>
        <time>2020-08-12T06:48:13+02:00</time>
      </trkpt>
      <trkpt lat="45.16345" lon="6.43487">
        <ele>1516.7998</ele>
        <time>2020-08-12T06:48:14+02:00</time>
      </trkpt>
      <trkpt lat="45.16345" lon="6.43487">
        <ele>1516.7998</ele>
        <time>2020-08-12T06:48:18+02:00</time>
      </trkpt>
      <trkpt lat="45.16345" lon="6.43488">
        <ele>1516.7998</ele>
        <time>2020-08-12T06:48:19+02:00</time>
      </trkpt>
      <trkpt lat="45.16345" lon="6.43487">
        <ele>1516.7998</ele>
        <time>2020-08-12T06:48:23+02:00</time>
      </trkpt>
      <trkpt lat="45.16345" lon="6.43487">
        <ele>1516.7998</ele>
        <time>2020-08-12T06:48:24+02:00</time>
      </trkpt>
      <trkpt lat="45.16345" lon="6.43487">
        <ele>1516.7998</ele>
        <time>2020-08-12T06:48:28+02:00</time>
      </trkpt>
      <trkpt lat="45.16345" lon="6.43487">
        <ele>1516.7998</ele>
        <time>2020-08-12T06:48:29+02:00</time>
      </trkpt>
      <trkpt lat="45.16345" lon="6.43487">
        <ele>1516.7998</ele>
        <time>2020-08-12T06:48:33+02:00</time>
      </trkpt>
      <trkpt lat="45.16345" lon="6.43487">
        <ele>1516.7998</ele>
        <time>2020-08-12T06:48:34+02:00</time>
      </trkpt>
      <trkpt lat="45.16345" lon="6.43487">
        <ele>1516.7998</ele>
        <time>2020-08-12T06:48:38+02:00</time>
      </trkpt>
      <trkpt lat="45.16345" lon="6.43487">
        <ele>1516.7998</ele>
        <time>2020-08-12T06:48:39+02:00</time>
      </trkpt>
      <trkpt lat="45.16345" lon="6.43487">
        <ele>1516.7998</ele>
        <time>2020-08-12T06:48:43+02:00</time>
      </trkpt>
      <trkpt lat="45.16345" lon="6.43487">
        <ele>1516.7998</ele>
        <time>2020-08-12T06:48:44+02:00</time>
      </trkpt>
      <trkpt lat="45.16345" lon="6.43487">
        <ele>1516.7998</ele>
        <time>2020-08-12T06:48:48+02:00</time>
      </trkpt>
      <trkpt lat="45.16345" lon="6.43487">
        <ele>1516.7998</ele>
        <time>2020-08-12T06:48:49+02:00</time>
      </trkpt>
      <trkpt lat="45.16345" lon="6.43487">
        <ele>1516.7998</ele>
        <time>2020-08-12T06:48:53+02:00</time>
      </trkpt>
      <trkpt lat="45.16345" lon="6.43487">
        <ele>1516.7998</ele>
        <time>2020-08-12T06:48:54+02:00</time>
      </trkpt>
      <trkpt lat="45.16345" lon="6.43487">
        <ele>1516.7998</ele>
        <time>2020-08-12T06:48:58+02:00</time>
      </trkpt>
      <trkpt lat="45.16344" lon="6.43487">
        <ele>1516.7998</ele>
        <time>2020-08-12T06:48:59+02:00</time>
      </trkpt>
      <trkpt lat="45.16345" lon="6.43487">
        <ele>1516.7998</ele>
        <time>2020-08-12T06:49:03+02:00</time>
      </trkpt>
      <trkpt lat="45.16345" lon="6.43487">
        <ele>1516.7998</ele>
        <time>2020-08-12T06:49:04+02:00</time>
      </trkpt>
      <trkpt lat="45.16345" lon="6.43485">
        <ele>1516.7998</ele>
        <time>2020-08-12T06:49:08+02:00</time>
      </trkpt>
      <trkpt lat="45.16345" lon="6.43485">
        <ele>1516.7998</ele>
        <time>2020-08-12T06:49:09+02:00</time>
      </trkpt>
      <trkpt lat="45.16344" lon="6.43484">
        <ele>1516.7998</ele>
        <time>2020-08-12T06:49:13+02:00</time>
      </trkpt>
      <trkpt lat="45.16344" lon="6.43483">
        <ele>1516.7998</ele>
        <time>2020-08-12T06:49:14+02:00</time>
      </trkpt>
      <trkpt lat="45.16343" lon="6.43483">
        <ele>1516.7998</ele>
        <time>2020-08-12T06:49:18+02:00</time>
      </trkpt>
      <trkpt lat="45.16343" lon="6.43483">
        <ele>1516.7998</ele>
        <time>2020-08-12T06:49:19+02:00</time>
      </trkpt>
      <trkpt lat="45.16343" lon="6.43483">
        <ele>1516.7998</ele>
        <time>2020-08-12T06:49:23+02:00</time>
      </trkpt>
      <trkpt lat="45.16343" lon="6.43483">
        <ele>1516.7998</ele>
        <time>2020-08-12T06:49:24+02:00</time>
      </trkpt>
      <trkpt lat="45.16343" lon="6.43483">
        <ele>1516.7998</ele>
        <time>2020-08-12T06:49:28+02:00</time>
      </trkpt>
      <trkpt lat="45.16343" lon="6.43483">
        <ele>1516.7998</ele>
        <time>2020-08-12T06:49:29+02:00</time>
      </trkpt>
      <trkpt lat="45.16343" lon="6.43487">
        <ele>1516.7998</ele>
        <time>2020-08-12T06:49:33+02:00</time>
      </trkpt>
      <trkpt lat="45.16342" lon="6.43489">
        <ele>1516.7998</ele>
        <time>2020-08-12T06:49:34+02:00</time>
      </trkpt>
      <trkpt lat="45.16336" lon="6.43496">
        <ele>1518.9004</ele>
        <time>2020-08-12T06:49:38+02:00</time>
      </trkpt>
      <trkpt lat="45.16335" lon="6.43496">
        <ele>1518.9004</ele>
        <time>2020-08-12T06:49:39+02:00</time>
      </trkpt>
      <trkpt lat="45.16329" lon="6.43501">
        <ele>1521</ele>
        <time>2020-08-12T06:49:43+02:00</time>
      </trkpt>
      <trkpt lat="45.16327" lon="6.43502">
        <ele>1520</ele>
        <time>2020-08-12T06:49:44+02:00</time>
      </trkpt>
      <trkpt lat="45.16323" lon="6.43507">
        <ele>1523</ele>
        <time>2020-08-12T06:49:48+02:00</time>
      </trkpt>
      <trkpt lat="45.16322" lon="6.43509">
        <ele>1523</ele>
        <time>2020-08-12T06:49:49+02:00</time>
      </trkpt>
      <trkpt lat="45.16315" lon="6.43514">
        <ele>1521</ele>
        <time>2020-08-12T06:49:53+02:00</time>
      </trkpt>
      <trkpt lat="45.16314" lon="6.43516">
        <ele>1523.9004</ele>
        <time>2020-08-12T06:49:54+02:00</time>
      </trkpt>
      <trkpt lat="45.16309" lon="6.43525">
        <ele>1525.5</ele>
        <time>2020-08-12T06:49:58+02:00</time>
      </trkpt>
      <trkpt lat="45.16308" lon="6.43527">
        <ele>1525.5</ele>
        <time>2020-08-12T06:49:59+02:00</time>
      </trkpt>
      <trkpt lat="45.16302" lon="6.43534">
        <ele>1527</ele>
        <time>2020-08-12T06:50:03+02:00</time>
      </trkpt>
      <trkpt lat="45.16301" lon="6.43537">
        <ele>1527</ele>
        <time>2020-08-12T06:50:04+02:00</time>
      </trkpt>
      <trkpt lat="45.16298" lon="6.43546">
        <ele>1529.7998</ele>
        <time>2020-08-12T06:50:08+02:00</time>
      </trkpt>
      <trkpt lat="45.16297" lon="6.43548">
        <ele>1528.4004</ele>
        <time>2020-08-12T06:50:09+02:00</time>
      </trkpt>
      <trkpt lat="45.16294" lon="6.43555">
        <ele>1531.1006</ele>
        <time>2020-08-12T06:50:13+02:00</time>
      </trkpt>
      <trkpt lat="45.16294" lon="6.43557">
        <ele>1531.1006</ele>
        <time>2020-08-12T06:50:14+02:00</time>
      </trkpt>
      <trkpt lat="45.1629" lon="6.43564">
        <ele>1532.4004</ele>
        <time>2020-08-12T06:50:18+02:00</time>
      </trkpt>
      <trkpt lat="45.16289" lon="6.43566">
        <ele>1532.4004</ele>
        <time>2020-08-12T06:50:19+02:00</time>
      </trkpt>
      <trkpt lat="45.16285" lon="6.43573">
        <ele>1533.6006</ele>
        <time>2020-08-12T06:50:23+02:00</time>
      </trkpt>
      <trkpt lat="45.16283" lon="6.43575">
        <ele>1533.6006</ele>
        <time>2020-08-12T06:50:24+02:00</time>
      </trkpt>
      <trkpt lat="45.16277" lon="6.43582">
        <ele>1534.7998</ele>
        <time>2020-08-12T06:50:28+02:00</time>
      </trkpt>
      <trkpt lat="45.16276" lon="6.43584">
        <ele>1534.7998</ele>
        <time>2020-08-12T06:50:29+02:00</time>
      </trkpt>
      <trkpt lat="45.1627" lon="6.43591">
        <ele>1536</ele>
        <time>2020-08-12T06:50:33+02:00</time>
      </trkpt>
      <trkpt lat="45.16268" lon="6.43592">
        <ele>1536</ele>
        <time>2020-08-12T06:50:34+02:00</time>
      </trkpt>
      <trkpt lat="45.16262" lon="6.43598">
        <ele>1537</ele>
        <time>2020-08-12T06:50:38+02:00</time>
      </trkpt>
      <trkpt lat="45.16261" lon="6.43598">
        <ele>1535.6006</ele>
        <time>2020-08-12T06:50:39+02:00</time>
      </trkpt>
      <trkpt lat="45.16256" lon="6.43601">
        <ele>1535.6006</ele>
        <time>2020-08-12T06:50:43+02:00</time>
      </trkpt>
      <trkpt lat="45.16255" lon="6.43601">
        <ele>1534.2998</ele>
        <time>2020-08-12T06:50:44+02:00</time>
      </trkpt>
      <trkpt lat="45.16248" lon="6.43605">
        <ele>1535.2998</ele>
        <time>2020-08-12T06:50:48+02:00</time>
      </trkpt>
      <trkpt lat="45.16247" lon="6.43606">
        <ele>1535.2998</ele>
        <time>2020-08-12T06:50:49+02:00</time>
      </trkpt>
      <trkpt lat="45.16243" lon="6.43613">
        <ele>1537.6006</ele>
        <time>2020-08-12T06:50:53+02:00</time>
      </trkpt>
      <trkpt lat="45.16242" lon="6.43615">
        <ele>1536.2998</ele>
        <time>2020-08-12T06:50:54+02:00</time>
      </trkpt>
      <trkpt lat="45.16237" lon="6.43624">
        <ele>1538.5</ele>
        <time>2020-08-12T06:50:58+02:00</time>
      </trkpt>
      <trkpt lat="45.16236" lon="6.43626">
        <ele>1537.2998</ele>
        <time>2020-08-12T06:50:59+02:00</time>
      </trkpt>
      <trkpt lat="45.16234" lon="6.43634">
        <ele>1539.5</ele>
        <time>2020-08-12T06:51:03+02:00</time>
      </trkpt>
      <trkpt lat="45.16233" lon="6.43635">
        <ele>1539.5</ele>
        <time>2020-08-12T06:51:04+02:00</time>
      </trkpt>
      <trkpt lat="45.16232" lon="6.43644">
        <ele>1541.6006</ele>
        <time>2020-08-12T06:51:08+02:00</time>
      </trkpt>
      <trkpt lat="45.16232" lon="6.43646">
        <ele>1543.7002</ele>
        <time>2020-08-12T06:51:09+02:00</time>
      </trkpt>
      <trkpt lat="45.16232" lon="6.43654">
        <ele>1545.7002</ele>
        <time>2020-08-12T06:51:13+02:00</time>
      </trkpt>
      <trkpt lat="45.16232" lon="6.43656">
        <ele>1545.7002</ele>
        <time>2020-08-12T06:51:14+02:00</time>
      </trkpt>
      <trkpt lat="45.16236" lon="6.43657">
        <ele>1545.7002</ele>
        <time>2020-08-12T06:51:18+02:00</time>
      </trkpt>
      <trkpt lat="45.16237" lon="6.43657">
        <ele>1547</ele>
        <time>2020-08-12T06:51:19+02:00</time>
      </trkpt>
      <trkpt lat="45.16243" lon="6.43654">
        <ele>1547</ele>
        <time>2020-08-12T06:51:23+02:00</time>
      </trkpt>
      <trkpt lat="45.16244" lon="6.43653">
        <ele>1546.2002</ele>
        <time>2020-08-12T06:51:24+02:00</time>
      </trkpt>
      <trkpt lat="45.16249" lon="6.43646">
        <ele>1546.2002</ele>
        <time>2020-08-12T06:51:28+02:00</time>
      </trkpt>
      <trkpt lat="45.1625" lon="6.43645">
        <ele>1547.6006</ele>
        <time>2020-08-12T06:51:29+02:00</time>
      </trkpt>
      <trkpt lat="45.16252" lon="6.43641">
        <ele>1545.4004</ele>
        <time>2020-08-12T06:51:33+02:00</time>
      </trkpt>
      <trkpt lat="45.16252" lon="6.4364">
        <ele>1545.4004</ele>
        <time>2020-08-12T06:51:34+02:00</time>
      </trkpt>
      <trkpt lat="45.16256" lon="6.43636">
        <ele>1546.9004</ele>
        <time>2020-08-12T06:51:38+02:00</time>
      </trkpt>
      <trkpt lat="45.16257" lon="6.43634">
        <ele>1544.7002</ele>
        <time>2020-08-12T06:51:39+02:00</time>
      </trkpt>
      <trkpt lat="45.16262" lon="6.43629">
        <ele>1546.2002</ele>
        <time>2020-08-12T06:51:43+02:00</time>
      </trkpt>
      <trkpt lat="45.16263" lon="6.43628">
        <ele>1546.2002</ele>
        <time>2020-08-12T06:51:44+02:00</time>
      </trkpt>
      <trkpt lat="45.16266" lon="6.43625">
        <ele>1544</ele>
        <time>2020-08-12T06:51:48+02:00</time>
      </trkpt>
      <trkpt lat="45.16267" lon="6.43625">
        <ele>1544</ele>
        <time>2020-08-12T06:51:49+02:00</time>
      </trkpt>
      <trkpt lat="45.16273" lon="6.43619">
        <ele>1545.5</ele>
        <time>2020-08-12T06:51:53+02:00</time>
      </trkpt>
      <trkpt lat="45.16275" lon="6.43618">
        <ele>1544.9004</ele>
        <time>2020-08-12T06:51:54+02:00</time>
      </trkpt>
      <trkpt lat="45.16282" lon="6.43612">
        <ele>1546.5</ele>
        <time>2020-08-12T06:51:58+02:00</time>
      </trkpt>
      <trkpt lat="45.16284" lon="6.4361">
        <ele>1546.5</ele>
        <time>2020-08-12T06:51:59+02:00</time>
      </trkpt>
      <trkpt lat="45.16288" lon="6.43605">
        <ele>1545.7002</ele>
        <time>2020-08-12T06:52:03+02:00</time>
      </trkpt>
      <trkpt lat="45.1629" lon="6.43604">
        <ele>1545.7002</ele>
        <time>2020-08-12T06:52:04+02:00</time>
      </trkpt>
      <trkpt lat="45.16297" lon="6.43597">
        <ele>1544.7002</ele>
        <time>2020-08-12T06:52:08+02:00</time>
      </trkpt>
      <trkpt lat="45.16299" lon="6.43596">
        <ele>1546.2998</ele>
        <time>2020-08-12T06:52:09+02:00</time>
      </trkpt>
      <trkpt lat="45.16305" lon="6.43589">
        <ele>1545.1006</ele>
        <time>2020-08-12T06:52:13+02:00</time>
      </trkpt>
      <trkpt lat="45.16306" lon="6.43588">
        <ele>1545.1006</ele>
        <time>2020-08-12T06:52:14+02:00</time>
      </trkpt>
      <trkpt lat="45.16311" lon="6.43584">
        <ele>1544</ele>
        <time>2020-08-12T06:52:18+02:00</time>
      </trkpt>
      <trkpt lat="45.16312" lon="6.43583">
        <ele>1544</ele>
        <time>2020-08-12T06:52:19+02:00</time>
      </trkpt>
      <trkpt lat="45.16318" lon="6.43586">
        <ele>1548.5</ele>
        <time>2020-08-12T06:52:23+02:00</time>
      </trkpt>
      <trkpt lat="45.16317" lon="6.43588">
        <ele>1548.5</ele>
        <time>2020-08-12T06:52:24+02:00</time>
      </trkpt>
      <trkpt lat="45.16313" lon="6.43595">
        <ele>1549.6006</ele>
        <time>2020-08-12T06:52:28+02:00</time>
      </trkpt>
      <trkpt lat="45.16311" lon="6.43597">
        <ele>1549.6006</ele>
        <time>2020-08-12T06:52:29+02:00</time>
      </trkpt>
      <trkpt lat="45.16308" lon="6.43604">
        <ele>1550.7002</ele>
        <time>2020-08-12T06:52:33+02:00</time>
      </trkpt>
      <trkpt lat="45.16307" lon="6.43605">
        <ele>1550.7002</ele>
        <time>2020-08-12T06:52:34+02:00</time>
      </trkpt>
      <trkpt lat="45.16303" lon="6.43611">
        <ele>1551.6006</ele>
        <time>2020-08-12T06:52:38+02:00</time>
      </trkpt>
      <trkpt lat="45.16302" lon="6.43613">
        <ele>1551.6006</ele>
        <time>2020-08-12T06:52:39+02:00</time>
      </trkpt>
      <trkpt lat="45.16299" lon="6.4362">
        <ele>1554.2002</ele>
        <time>2020-08-12T06:52:43+02:00</time>
      </trkpt>
      <trkpt lat="45.16299" lon="6.43622">
        <ele>1554.2002</ele>
        <time>2020-08-12T06:52:44+02:00</time>
      </trkpt>
      <trkpt lat="45.16296" lon="6.4363">
        <ele>1554.7998</ele>
        <time>2020-08-12T06:52:48+02:00</time>
      </trkpt>
      <trkpt lat="45.16295" lon="6.43633">
        <ele>1554.7998</ele>
        <time>2020-08-12T06:52:49+02:00</time>
      </trkpt>
      <trkpt lat="45.16294" lon="6.43641">
        <ele>1557.2998</ele>
        <time>2020-08-12T06:52:53+02:00</time>
      </trkpt>
      <trkpt lat="45.16294" lon="6.43643">
        <ele>1557.2998</ele>
        <time>2020-08-12T06:52:54+02:00</time>
      </trkpt>
      <trkpt lat="45.16294" lon="6.4365">
        <ele>1559.9004</ele>
        <time>2020-08-12T06:52:58+02:00</time>
      </trkpt>
      <trkpt lat="45.16294" lon="6.43652">
        <ele>1559.9004</ele>
        <time>2020-08-12T06:52:59+02:00</time>
      </trkpt>
      <trkpt lat="45.16293" lon="6.43659">
        <ele>1562.5</ele>
        <time>2020-08-12T06:53:03+02:00</time>
      </trkpt>
      <trkpt lat="45.16293" lon="6.43661">
        <ele>1562.5</ele>
        <time>2020-08-12T06:53:04+02:00</time>
      </trkpt>
      <trkpt lat="45.1629" lon="6.4367">
        <ele>1565.5</ele>
        <time>2020-08-12T06:53:08+02:00</time>
      </trkpt>
      <trkpt lat="45.1629" lon="6.43673">
        <ele>1565.5</ele>
        <time>2020-08-12T06:53:09+02:00</time>
      </trkpt>
      <trkpt lat="45.16289" lon="6.43683">
        <ele>1568.2998</ele>
        <time>2020-08-12T06:53:13+02:00</time>
      </trkpt>
      <trkpt lat="45.16289" lon="6.43685">
        <ele>1568.2998</ele>
        <time>2020-08-12T06:53:14+02:00</time>
      </trkpt>
      <trkpt lat="45.16287" lon="6.43694">
        <ele>1571.1006</ele>
        <time>2020-08-12T06:53:18+02:00</time>
      </trkpt>
      <trkpt lat="45.16286" lon="6.43696">
        <ele>1573.7002</ele>
        <time>2020-08-12T06:53:19+02:00</time>
      </trkpt>
      <trkpt lat="45.16283" lon="6.43705">
        <ele>1573.9004</ele>
        <time>2020-08-12T06:53:23+02:00</time>
      </trkpt>
      <trkpt lat="45.16282" lon="6.43707">
        <ele>1573.9004</ele>
        <time>2020-08-12T06:53:24+02:00</time>
      </trkpt>
      <trkpt lat="45.16278" lon="6.43716">
        <ele>1574</ele>
        <time>2020-08-12T06:53:28+02:00</time>
      </trkpt>
      <trkpt lat="45.16278" lon="6.43718">
        <ele>1574</ele>
        <time>2020-08-12T06:53:29+02:00</time>
      </trkpt>
      <trkpt lat="45.16274" lon="6.43726">
        <ele>1576.2002</ele>
        <time>2020-08-12T06:53:33+02:00</time>
      </trkpt>
      <trkpt lat="45.16273" lon="6.43728">
        <ele>1574</ele>
        <time>2020-08-12T06:53:34+02:00</time>
      </trkpt>
      <trkpt lat="45.16271" lon="6.43733">
        <ele>1576.2002</ele>
        <time>2020-08-12T06:53:38+02:00</time>
      </trkpt>
      <trkpt lat="45.1627" lon="6.43735">
        <ele>1576.2002</ele>
        <time>2020-08-12T06:53:39+02:00</time>
      </trkpt>
      <trkpt lat="45.16269" lon="6.43742">
        <ele>1578.4004</ele>
        <time>2020-08-12T06:53:43+02:00</time>
      </trkpt>
      <trkpt lat="45.16268" lon="6.43744">
        <ele>1578.4004</ele>
        <time>2020-08-12T06:53:44+02:00</time>
      </trkpt>
      <trkpt lat="45.16267" lon="6.4375">
        <ele>1580.7002</ele>
        <time>2020-08-12T06:53:48+02:00</time>
      </trkpt>
      <trkpt lat="45.16267" lon="6.43751">
        <ele>1578.4004</ele>
        <time>2020-08-12T06:53:49+02:00</time>
      </trkpt>
      <trkpt lat="45.16268" lon="6.43757">
        <ele>1582.9004</ele>
        <time>2020-08-12T06:53:53+02:00</time>
      </trkpt>
      <trkpt lat="45.16268" lon="6.43759">
        <ele>1582.9004</ele>
        <time>2020-08-12T06:53:54+02:00</time>
      </trkpt>
      <trkpt lat="45.16268" lon="6.43764">
        <ele>1582.9004</ele>
        <time>2020-08-12T06:53:58+02:00</time>
      </trkpt>
      <trkpt lat="45.16268" lon="6.43764">
        <ele>1582.9004</ele>
        <time>2020-08-12T06:53:59+02:00</time>
      </trkpt>
      <trkpt lat="45.16268" lon="6.43764">
        <ele>1582.9004</ele>
        <time>2020-08-12T06:54:03+02:00</time>
      </trkpt>
      <trkpt lat="45.1627" lon="6.43764">
        <ele>1582.9004</ele>
        <time>2020-08-12T06:54:04+02:00</time>
      </trkpt>
      <trkpt lat="45.16273" lon="6.43764">
        <ele>1582.9004</ele>
        <time>2020-08-12T06:54:08+02:00</time>
      </trkpt>
      <trkpt lat="45.16274" lon="6.43763">
        <ele>1585.2998</ele>
        <time>2020-08-12T06:54:09+02:00</time>
      </trkpt>
      <trkpt lat="45.16278" lon="6.4376">
        <ele>1585.2998</ele>
        <time>2020-08-12T06:54:13+02:00</time>
      </trkpt>
      <trkpt lat="45.16279" lon="6.43759">
        <ele>1585.2998</ele>
        <time>2020-08-12T06:54:14+02:00</time>
      </trkpt>
      <trkpt lat="45.16282" lon="6.43756">
        <ele>1587.7002</ele>
        <time>2020-08-12T06:54:18+02:00</time>
      </trkpt>
      <trkpt lat="45.16283" lon="6.43755">
        <ele>1585.4004</ele>
        <time>2020-08-12T06:54:19+02:00</time>
      </trkpt>
      <trkpt lat="45.16286" lon="6.43753">
        <ele>1587.9004</ele>
        <time>2020-08-12T06:54:23+02:00</time>
      </trkpt>
      <trkpt lat="45.16287" lon="6.43752">
        <ele>1587.9004</ele>
        <time>2020-08-12T06:54:24+02:00</time>
      </trkpt>
      <trkpt lat="45.1629" lon="6.43747">
        <ele>1585.6006</ele>
        <time>2020-08-12T06:54:28+02:00</time>
      </trkpt>
      <trkpt lat="45.1629" lon="6.43745">
        <ele>1585.6006</ele>
        <time>2020-08-12T06:54:29+02:00</time>
      </trkpt>
      <trkpt lat="45.16292" lon="6.4374">
        <ele>1588.1006</ele>
        <time>2020-08-12T06:54:33+02:00</time>
      </trkpt>
      <trkpt lat="45.16293" lon="6.43739">
        <ele>1588.1006</ele>
        <time>2020-08-12T06:54:34+02:00</time>
      </trkpt>
      <trkpt lat="45.16297" lon="6.43735">
        <ele>1585.7002</ele>
        <time>2020-08-12T06:54:38+02:00</time>
      </trkpt>
      <trkpt lat="45.16298" lon="6.43733">
        <ele>1588.2002</ele>
        <time>2020-08-12T06:54:39+02:00</time>
      </trkpt>
      <trkpt lat="45.16302" lon="6.43729">
        <ele>1585.7998</ele>
        <time>2020-08-12T06:54:43+02:00</time>
      </trkpt>
      <trkpt lat="45.16303" lon="6.43728">
        <ele>1585.7998</ele>
        <time>2020-08-12T06:54:44+02:00</time>
      </trkpt>
      <trkpt lat="45.16307" lon="6.43723">
        <ele>1588.2002</ele>
        <time>2020-08-12T06:54:48+02:00</time>
      </trkpt>
      <trkpt lat="45.16308" lon="6.43722">
        <ele>1588.2002</ele>
        <time>2020-08-12T06:54:49+02:00</time>
      </trkpt>
      <trkpt lat="45.16312" lon="6.43717">
        <ele>1588.2002</ele>
        <time>2020-08-12T06:54:53+02:00</time>
      </trkpt>
      <trkpt lat="45.16314" lon="6.43716">
        <ele>1588.2002</ele>
        <time>2020-08-12T06:54:54+02:00</time>
      </trkpt>
      <trkpt lat="45.1632" lon="6.43711">
        <ele>1587.9004</ele>
        <time>2020-08-12T06:54:58+02:00</time>
      </trkpt>
      <trkpt lat="45.16321" lon="6.4371">
        <ele>1587.9004</ele>
        <time>2020-08-12T06:54:59+02:00</time>
      </trkpt>
      <trkpt lat="45.16327" lon="6.43707">
        <ele>1590.4004</ele>
        <time>2020-08-12T06:55:03+02:00</time>
      </trkpt>
      <trkpt lat="45.16329" lon="6.43705">
        <ele>1592.7998</ele>
        <time>2020-08-12T06:55:04+02:00</time>
      </trkpt>
      <trkpt lat="45.16333" lon="6.43698">
        <ele>1589.9004</ele>
        <time>2020-08-12T06:55:08+02:00</time>
      </trkpt>
      <trkpt lat="45.16334" lon="6.43696">
        <ele>1589.9004</ele>
        <time>2020-08-12T06:55:09+02:00</time>
      </trkpt>
      <trkpt lat="45.16338" lon="6.4369">
        <ele>1589.2002</ele>
        <time>2020-08-12T06:55:13+02:00</time>
      </trkpt>
      <trkpt lat="45.16339" lon="6.43689">
        <ele>1589.2002</ele>
        <time>2020-08-12T06:55:14+02:00</time>
      </trkpt>
      <trkpt lat="45.16342" lon="6.43686">
        <ele>1588.2998</ele>
        <time>2020-08-12T06:55:18+02:00</time>
      </trkpt>
      <trkpt lat="45.16344" lon="6.43686">
        <ele>1588.2998</ele>
        <time>2020-08-12T06:55:19+02:00</time>
      </trkpt>
      <trkpt lat="45.16349" lon="6.4369">
        <ele>1593.5</ele>
        <time>2020-08-12T06:55:23+02:00</time>
      </trkpt>
      <trkpt lat="45.1635" lon="6.43692">
        <ele>1593.5</ele>
        <time>2020-08-12T06:55:24+02:00</time>
      </trkpt>
      <trkpt lat="45.16349" lon="6.437">
        <ele>1596.6006</ele>
        <time>2020-08-12T06:55:28+02:00</time>
      </trkpt>
      <trkpt lat="45.16349" lon="6.43702">
        <ele>1596.6006</ele>
        <time>2020-08-12T06:55:29+02:00</time>
      </trkpt>
      <trkpt lat="45.16346" lon="6.43707">
        <ele>1599.6006</ele>
        <time>2020-08-12T06:55:33+02:00</time>
      </trkpt>
      <trkpt lat="45.16346" lon="6.43708">
        <ele>1597.4004</ele>
        <time>2020-08-12T06:55:34+02:00</time>
      </trkpt>
      <trkpt lat="45.16343" lon="6.43713">
        <ele>1600.2998</ele>
        <time>2020-08-12T06:55:38+02:00</time>
      </trkpt>
      <trkpt lat="45.16343" lon="6.43715">
        <ele>1600.2998</ele>
        <time>2020-08-12T06:55:39+02:00</time>
      </trkpt>
      <trkpt lat="45.1634" lon="6.43721">
        <ele>1600.2998</ele>
        <time>2020-08-12T06:55:43+02:00</time>
      </trkpt>
      <trkpt lat="45.1634" lon="6.43723">
        <ele>1600.7002</ele>
        <time>2020-08-12T06:55:44+02:00</time>
      </trkpt>
      <trkpt lat="45.16338" lon="6.4373">
        <ele>1600.7002</ele>
        <time>2020-08-12T06:55:48+02:00</time>
      </trkpt>
      <trkpt lat="45.16337" lon="6.43732">
        <ele>1603.1006</ele>
        <time>2020-08-12T06:55:49+02:00</time>
      </trkpt>
      <trkpt lat="45.16333" lon="6.4374">
        <ele>1603.1006</ele>
        <time>2020-08-12T06:55:53+02:00</time>
      </trkpt>
      <trkpt lat="45.16333" lon="6.43741">
        <ele>1603.1006</ele>
        <time>2020-08-12T06:55:54+02:00</time>
      </trkpt>
      <trkpt lat="45.1633" lon="6.43747">
        <ele>1603.1006</ele>
        <time>2020-08-12T06:55:58+02:00</time>
      </trkpt>
      <trkpt lat="45.1633" lon="6.43749">
        <ele>1605.4004</ele>
        <time>2020-08-12T06:55:59+02:00</time>
      </trkpt>
      <trkpt lat="45.16328" lon="6.43756">
        <ele>1607.7002</ele>
        <time>2020-08-12T06:56:03+02:00</time>
      </trkpt>
      <trkpt lat="45.16327" lon="6.43757">
        <ele>1605.2998</ele>
        <time>2020-08-12T06:56:04+02:00</time>
      </trkpt>
      <trkpt lat="45.16324" lon="6.43762">
        <ele>1605.2998</ele>
        <time>2020-08-12T06:56:08+02:00</time>
      </trkpt>
      <trkpt lat="45.16323" lon="6.43764">
        <ele>1605.2998</ele>
        <time>2020-08-12T06:56:09+02:00</time>
      </trkpt>
      <trkpt lat="45.16321" lon="6.4377">
        <ele>1605.1006</ele>
        <time>2020-08-12T06:56:13+02:00</time>
      </trkpt>
      <trkpt lat="45.16321" lon="6.43772">
        <ele>1605.1006</ele>
        <time>2020-08-12T06:56:14+02:00</time>
      </trkpt>
      <trkpt lat="45.16319" lon="6.4378">
        <ele>1607.4004</ele>
        <time>2020-08-12T06:56:18+02:00</time>
      </trkpt>
      <trkpt lat="45.16319" lon="6.43783">
        <ele>1609.6006</ele>
        <time>2020-08-12T06:56:19+02:00</time>
      </trkpt>
      <trkpt lat="45.16317" lon="6.43791">
        <ele>1611.7998</ele>
        <time>2020-08-12T06:56:23+02:00</time>
      </trkpt>
      <trkpt lat="45.16316" lon="6.43793">
        <ele>1611.7998</ele>
        <time>2020-08-12T06:56:24+02:00</time>
      </trkpt>
      <trkpt lat="45.16313" lon="6.43799">
        <ele>1611.5</ele>
        <time>2020-08-12T06:56:28+02:00</time>
      </trkpt>
      <trkpt lat="45.16312" lon="6.438">
        <ele>1611.5</ele>
        <time>2020-08-12T06:56:29+02:00</time>
      </trkpt>
      <trkpt lat="45.16308" lon="6.43806">
        <ele>1609</ele>
        <time>2020-08-12T06:56:33+02:00</time>
      </trkpt>
      <trkpt lat="45.16307" lon="6.43807">
        <ele>1609</ele>
        <time>2020-08-12T06:56:34+02:00</time>
      </trkpt>
      <trkpt lat="45.16304" lon="6.43813">
        <ele>1608.7002</ele>
        <time>2020-08-12T06:56:38+02:00</time>
      </trkpt>
      <trkpt lat="45.16303" lon="6.43815">
        <ele>1608.7002</ele>
        <time>2020-08-12T06:56:39+02:00</time>
      </trkpt>
      <trkpt lat="45.16298" lon="6.43822">
        <ele>1610.7998</ele>
        <time>2020-08-12T06:56:43+02:00</time>
      </trkpt>
      <trkpt lat="45.16298" lon="6.43824">
        <ele>1610.7998</ele>
        <time>2020-08-12T06:56:44+02:00</time>
      </trkpt>
      <trkpt lat="45.16295" lon="6.43828">
        <ele>1610.4004</ele>
        <time>2020-08-12T06:56:48+02:00</time>
      </trkpt>
      <trkpt lat="45.16294" lon="6.4383">
        <ele>1610.4004</ele>
        <time>2020-08-12T06:56:49+02:00</time>
      </trkpt>
      <trkpt lat="45.16291" lon="6.43836">
        <ele>1610.1006</ele>
        <time>2020-08-12T06:56:53+02:00</time>
      </trkpt>
      <trkpt lat="45.1629" lon="6.43837">
        <ele>1610.1006</ele>
        <time>2020-08-12T06:56:54+02:00</time>
      </trkpt>
      <trkpt lat="45.16288" lon="6.43843">
        <ele>1612.1006</ele>
        <time>2020-08-12T06:56:58+02:00</time>
      </trkpt>
      <trkpt lat="45.16288" lon="6.43845">
        <ele>1612.1006</ele>
        <time>2020-08-12T06:56:59+02:00</time>
      </trkpt>
      <trkpt lat="45.16286" lon="6.43852">
        <ele>1614.1006</ele>
        <time>2020-08-12T06:57:03+02:00</time>
      </trkpt>
      <trkpt lat="45.16285" lon="6.43854">
        <ele>1611.9004</ele>
        <time>2020-08-12T06:57:04+02:00</time>
      </trkpt>
      <trkpt lat="45.1628" lon="6.43862">
        <ele>1613.9004</ele>
        <time>2020-08-12T06:57:08+02:00</time>
      </trkpt>
      <trkpt lat="45.16279" lon="6.43864">
        <ele>1611.7002</ele>
        <time>2020-08-12T06:57:09+02:00</time>
      </trkpt>
      <trkpt lat="45.16276" lon="6.43873">
        <ele>1613.7002</ele>
        <time>2020-08-12T06:57:13+02:00</time>
      </trkpt>
      <trkpt lat="45.16275" lon="6.43874">
        <ele>1613.7002</ele>
        <time>2020-08-12T06:57:14+02:00</time>
      </trkpt>
      <trkpt lat="45.16272" lon="6.4388">
        <ele>1613.5</ele>
        <time>2020-08-12T06:57:18+02:00</time>
      </trkpt>
      <trkpt lat="45.16271" lon="6.43882">
        <ele>1613.5</ele>
        <time>2020-08-12T06:57:19+02:00</time>
      </trkpt>
      <trkpt lat="45.16267" lon="6.43889">
        <ele>1613.2998</ele>
        <time>2020-08-12T06:57:23+02:00</time>
      </trkpt>
      <trkpt lat="45.16266" lon="6.4389">
        <ele>1613.2998</ele>
        <time>2020-08-12T06:57:24+02:00</time>
      </trkpt>
      <trkpt lat="45.16262" lon="6.43897">
        <ele>1615.2998</ele>
        <time>2020-08-12T06:57:28+02:00</time>
      </trkpt>
      <trkpt lat="45.16262" lon="6.43899">
        <ele>1615.2998</ele>
        <time>2020-08-12T06:57:29+02:00</time>
      </trkpt>
      <trkpt lat="45.1626" lon="6.43905">
        <ele>1615.2998</ele>
        <time>2020-08-12T06:57:33+02:00</time>
      </trkpt>
      <trkpt lat="45.16259" lon="6.43908">
        <ele>1615.2998</ele>
        <time>2020-08-12T06:57:34+02:00</time>
      </trkpt>
      <trkpt lat="45.16255" lon="6.43915">
        <ele>1615.5</ele>
        <time>2020-08-12T06:57:38+02:00</time>
      </trkpt>
      <trkpt lat="45.16254" lon="6.43916">
        <ele>1615.5</ele>
        <time>2020-08-12T06:57:39+02:00</time>
      </trkpt>
      <trkpt lat="45.1625" lon="6.43925">
        <ele>1617.6006</ele>
        <time>2020-08-12T06:57:43+02:00</time>
      </trkpt>
      <trkpt lat="45.1625" lon="6.43928">
        <ele>1619.7002</ele>
        <time>2020-08-12T06:57:44+02:00</time>
      </trkpt>
      <trkpt lat="45.16247" lon="6.43939">
        <ele>1620.2002</ele>
        <time>2020-08-12T06:57:48+02:00</time>
      </trkpt>
      <trkpt lat="45.16246" lon="6.43941">
        <ele>1620.2002</ele>
        <time>2020-08-12T06:57:49+02:00</time>
      </trkpt>
      <trkpt lat="45.16242" lon="6.43949">
        <ele>1620.9004</ele>
        <time>2020-08-12T06:57:53+02:00</time>
      </trkpt>
      <trkpt lat="45.16241" lon="6.43952">
        <ele>1620.9004</ele>
        <time>2020-08-12T06:57:54+02:00</time>
      </trkpt>
      <trkpt lat="45.1624" lon="6.43962">
        <ele>1623</ele>
        <time>2020-08-12T06:57:58+02:00</time>
      </trkpt>
      <trkpt lat="45.16239" lon="6.43964">
        <ele>1625.2002</ele>
        <time>2020-08-12T06:57:59+02:00</time>
      </trkpt>
      <trkpt lat="45.16241" lon="6.43974">
        <ele>1627.2998</ele>
        <time>2020-08-12T06:58:03+02:00</time>
      </trkpt>
      <trkpt lat="45.16242" lon="6.43975">
        <ele>1627.2998</ele>
        <time>2020-08-12T06:58:04+02:00</time>
      </trkpt>
      <trkpt lat="45.16244" lon="6.43976">
        <ele>1628.7998</ele>
        <time>2020-08-12T06:58:08+02:00</time>
      </trkpt>
      <trkpt lat="45.16244" lon="6.43975">
        <ele>1628.7998</ele>
        <time>2020-08-12T06:58:09+02:00</time>
      </trkpt>
      <trkpt lat="45.16246" lon="6.4397">
        <ele>1626.6006</ele>
        <time>2020-08-12T06:58:13+02:00</time>
      </trkpt>
      <trkpt lat="45.16247" lon="6.43969">
        <ele>1626.6006</ele>
        <time>2020-08-12T06:58:14+02:00</time>
      </trkpt>
      <trkpt lat="45.16251" lon="6.43965">
        <ele>1628.2002</ele>
        <time>2020-08-12T06:58:18+02:00</time>
      </trkpt>
      <trkpt lat="45.16252" lon="6.43963">
        <ele>1628.2002</ele>
        <time>2020-08-12T06:58:19+02:00</time>
      </trkpt>
      <trkpt lat="45.16256" lon="6.43959">
        <ele>1627.7998</ele>
        <time>2020-08-12T06:58:23+02:00</time>
      </trkpt>
      <trkpt lat="45.16257" lon="6.43959">
        <ele>1627.7998</ele>
        <time>2020-08-12T06:58:24+02:00</time>
      </trkpt>
      <trkpt lat="45.16259" lon="6.43953">
        <ele>1625.7002</ele>
        <time>2020-08-12T06:58:28+02:00</time>
      </trkpt>
      <trkpt lat="45.1626" lon="6.43952">
        <ele>1625.7002</ele>
        <time>2020-08-12T06:58:29+02:00</time>
      </trkpt>
      <trkpt lat="45.16262" lon="6.43946">
        <ele>1627.6006</ele>
        <time>2020-08-12T06:58:33+02:00</time>
      </trkpt>
      <trkpt lat="45.16262" lon="6.43944">
        <ele>1625.5</ele>
        <time>2020-08-12T06:58:34+02:00</time>
      </trkpt>
      <trkpt lat="45.16265" lon="6.4394">
        <ele>1625.5</ele>
        <time>2020-08-12T06:58:38+02:00</time>
      </trkpt>
      <trkpt lat="45.16266" lon="6.43939">
        <ele>1625.5</ele>
        <time>2020-08-12T06:58:39+02:00</time>
      </trkpt>
      <trkpt lat="45.1627" lon="6.43933">
        <ele>1625.5</ele>
        <time>2020-08-12T06:58:43+02:00</time>
      </trkpt>
      <trkpt lat="45.1627" lon="6.43932">
        <ele>1625.5</ele>
        <time>2020-08-12T06:58:44+02:00</time>
      </trkpt>
      <trkpt lat="45.16274" lon="6.43926">
        <ele>1625.7002</ele>
        <time>2020-08-12T06:58:48+02:00</time>
      </trkpt>
      <trkpt lat="45.16275" lon="6.43924">
        <ele>1625.7002</ele>
        <time>2020-08-12T06:58:49+02:00</time>
      </trkpt>
      <trkpt lat="45.16278" lon="6.43917">
        <ele>1623.7002</ele>
        <time>2020-08-12T06:58:53+02:00</time>
      </trkpt>
      <trkpt lat="45.16279" lon="6.43915">
        <ele>1623.7002</ele>
        <time>2020-08-12T06:58:54+02:00</time>
      </trkpt>
      <trkpt lat="45.16283" lon="6.43912">
        <ele>1626</ele>
        <time>2020-08-12T06:58:58+02:00</time>
      </trkpt>
      <trkpt lat="45.16284" lon="6.43911">
        <ele>1626</ele>
        <time>2020-08-12T06:58:59+02:00</time>
      </trkpt>
      <trkpt lat="45.1629" lon="6.43905">
        <ele>1626.2998</ele>
        <time>2020-08-12T06:59:03+02:00</time>
      </trkpt>
      <trkpt lat="45.16291" lon="6.43904">
        <ele>1626.2998</ele>
        <time>2020-08-12T06:59:04+02:00</time>
      </trkpt>
      <trkpt lat="45.16296" lon="6.439">
        <ele>1626.6006</ele>
        <time>2020-08-12T06:59:08+02:00</time>
      </trkpt>
      <trkpt lat="45.16297" lon="6.43899">
        <ele>1626.6006</ele>
        <time>2020-08-12T06:59:09+02:00</time>
      </trkpt>
      <trkpt lat="45.163" lon="6.43894">
        <ele>1628.9004</ele>
        <time>2020-08-12T06:59:13+02:00</time>
      </trkpt>
      <trkpt lat="45.16301" lon="6.43894">
        <ele>1628.9004</ele>
        <time>2020-08-12T06:59:14+02:00</time>
      </trkpt>
      <trkpt lat="45.16304" lon="6.4389">
        <ele>1626.9004</ele>
        <time>2020-08-12T06:59:18+02:00</time>
      </trkpt>
      <trkpt lat="45.16305" lon="6.43889">
        <ele>1629.2002</ele>
        <time>2020-08-12T06:59:19+02:00</time>
      </trkpt>
      <trkpt lat="45.16307" lon="6.43886">
        <ele>1629.2002</ele>
        <time>2020-08-12T06:59:23+02:00</time>
      </trkpt>
      <trkpt lat="45.16308" lon="6.43885">
        <ele>1629.2002</ele>
        <time>2020-08-12T06:59:24+02:00</time>
      </trkpt>
      <trkpt lat="45.16312" lon="6.43884">
        <ele>1629.5</ele>
        <time>2020-08-12T06:59:28+02:00</time>
      </trkpt>
      <trkpt lat="45.16313" lon="6.43883">
        <ele>1629.5</ele>
        <time>2020-08-12T06:59:29+02:00</time>
      </trkpt>
      <trkpt lat="45.16318" lon="6.4388">
        <ele>1631.7998</ele>
        <time>2020-08-12T06:59:33+02:00</time>
      </trkpt>
      <trkpt lat="45.16319" lon="6.43879">
        <ele>1631.7998</ele>
        <time>2020-08-12T06:59:34+02:00</time>
      </trkpt>
      <trkpt lat="45.16323" lon="6.43877">
        <ele>1634.1006</ele>
        <time>2020-08-12T06:59:38+02:00</time>
      </trkpt>
      <trkpt lat="45.16324" lon="6.43877">
        <ele>1634.1006</ele>
        <time>2020-08-12T06:59:39+02:00</time>
      </trkpt>
      <trkpt lat="45.16328" lon="6.43873">
        <ele>1634.4004</ele>
        <time>2020-08-12T06:59:43+02:00</time>
      </trkpt>
      <trkpt lat="45.16329" lon="6.43872">
        <ele>1634.4004</ele>
        <time>2020-08-12T06:59:44+02:00</time>
      </trkpt>
      <trkpt lat="45.16333" lon="6.43869">
        <ele>1634.4004</ele>
        <time>2020-08-12T06:59:48+02:00</time>
      </trkpt>
      <trkpt lat="45.16334" lon="6.43869">
        <ele>1636.6006</ele>
        <time>2020-08-12T06:59:49+02:00</time>
      </trkpt>
      <trkpt lat="45.16339" lon="6.43865">
        <ele>1634.7998</ele>
        <time>2020-08-12T06:59:53+02:00</time>
      </trkpt>
      <trkpt lat="45.1634" lon="6.43864">
        <ele>1634.7998</ele>
        <time>2020-08-12T06:59:54+02:00</time>
      </trkpt>
      <trkpt lat="45.16344" lon="6.43861">
        <ele>1637</ele>
        <time>2020-08-12T06:59:58+02:00</time>
      </trkpt>
      <trkpt lat="45.16345" lon="6.4386">
        <ele>1637</ele>
        <time>2020-08-12T06:59:59+02:00</time>
      </trkpt>
      <trkpt lat="45.16349" lon="6.43858">
        <ele>1637.4004</ele>
        <time>2020-08-12T07:00:03+02:00</time>
      </trkpt>
      <trkpt lat="45.1635" lon="6.43857">
        <ele>1637.4004</ele>
        <time>2020-08-12T07:00:04+02:00</time>
      </trkpt>
      <trkpt lat="45.16353" lon="6.43853">
        <ele>1639.5</ele>
        <time>2020-08-12T07:00:08+02:00</time>
      </trkpt>
      <trkpt lat="45.16354" lon="6.43852">
        <ele>1639.5</ele>
        <time>2020-08-12T07:00:09+02:00</time>
      </trkpt>
      <trkpt lat="45.16357" lon="6.43845">
        <ele>1637.7002</ele>
        <time>2020-08-12T07:00:13+02:00</time>
      </trkpt>
      <trkpt lat="45.16358" lon="6.43843">
        <ele>1637.7002</ele>
        <time>2020-08-12T07:00:14+02:00</time>
      </trkpt>
      <trkpt lat="45.16362" lon="6.43839">
        <ele>1637.9004</ele>
        <time>2020-08-12T07:00:18+02:00</time>
      </trkpt>
      <trkpt lat="45.16363" lon="6.43838">
        <ele>1637.9004</ele>
        <time>2020-08-12T07:00:19+02:00</time>
      </trkpt>
      <trkpt lat="45.16367" lon="6.43833">
        <ele>1639.9004</ele>
        <time>2020-08-12T07:00:23+02:00</time>
      </trkpt>
      <trkpt lat="45.16368" lon="6.43833">
        <ele>1638.1006</ele>
        <time>2020-08-12T07:00:24+02:00</time>
      </trkpt>
      <trkpt lat="45.16373" lon="6.4383">
        <ele>1640.1006</ele>
        <time>2020-08-12T07:00:28+02:00</time>
      </trkpt>
      <trkpt lat="45.16374" lon="6.43829">
        <ele>1640.1006</ele>
        <time>2020-08-12T07:00:29+02:00</time>
      </trkpt>
      <trkpt lat="45.16378" lon="6.43824">
        <ele>1640.1006</ele>
        <time>2020-08-12T07:00:33+02:00</time>
      </trkpt>
      <trkpt lat="45.1638" lon="6.43823">
        <ele>1640.1006</ele>
        <time>2020-08-12T07:00:34+02:00</time>
      </trkpt>
      <trkpt lat="45.16386" lon="6.43825">
        <ele>1643.7002</ele>
        <time>2020-08-12T07:00:38+02:00</time>
      </trkpt>
      <trkpt lat="45.16387" lon="6.43826">
        <ele>1643.7002</ele>
        <time>2020-08-12T07:00:39+02:00</time>
      </trkpt>
      <trkpt lat="45.16389" lon="6.43833">
        <ele>1645.2998</ele>
        <time>2020-08-12T07:00:43+02:00</time>
      </trkpt>
      <trkpt lat="45.16388" lon="6.43835">
        <ele>1645.5</ele>
        <time>2020-08-12T07:00:44+02:00</time>
      </trkpt>
      <trkpt lat="45.16386" lon="6.43843">
        <ele>1647.1006</ele>
        <time>2020-08-12T07:00:48+02:00</time>
      </trkpt>
      <trkpt lat="45.16386" lon="6.43844">
        <ele>1647.1006</ele>
        <time>2020-08-12T07:00:49+02:00</time>
      </trkpt>
      <trkpt lat="45.16383" lon="6.43849">
        <ele>1647.1006</ele>
        <time>2020-08-12T07:00:53+02:00</time>
      </trkpt>
      <trkpt lat="45.16382" lon="6.4385">
        <ele>1645.5</ele>
        <time>2020-08-12T07:00:54+02:00</time>
      </trkpt>
      <trkpt lat="45.16379" lon="6.43855">
        <ele>1647.1006</ele>
        <time>2020-08-12T07:00:58+02:00</time>
      </trkpt>
      <trkpt lat="45.16378" lon="6.43856">
        <ele>1647.1006</ele>
        <time>2020-08-12T07:00:59+02:00</time>
      </trkpt>
      <trkpt lat="45.16375" lon="6.43861">
        <ele>1647</ele>
        <time>2020-08-12T07:01:03+02:00</time>
      </trkpt>
      <trkpt lat="45.16375" lon="6.43862">
        <ele>1647</ele>
        <time>2020-08-12T07:01:04+02:00</time>
      </trkpt>
      <trkpt lat="45.16374" lon="6.43868">
        <ele>1648.6006</ele>
        <time>2020-08-12T07:01:08+02:00</time>
      </trkpt>
      <trkpt lat="45.16374" lon="6.4387">
        <ele>1648.6006</ele>
        <time>2020-08-12T07:01:09+02:00</time>
      </trkpt>
      <trkpt lat="45.16373" lon="6.43876">
        <ele>1648.6006</ele>
        <time>2020-08-12T07:01:13+02:00</time>
      </trkpt>
      <trkpt lat="45.16372" lon="6.43877">
        <ele>1650.1006</ele>
        <time>2020-08-12T07:01:14+02:00</time>
      </trkpt>
      <trkpt lat="45.1637" lon="6.43881">
        <ele>1648.4004</ele>
        <time>2020-08-12T07:01:18+02:00</time>
      </trkpt>
      <trkpt lat="45.1637" lon="6.43883">
        <ele>1648.4004</ele>
        <time>2020-08-12T07:01:19+02:00</time>
      </trkpt>
      <trkpt lat="45.16369" lon="6.43888">
        <ele>1649.9004</ele>
        <time>2020-08-12T07:01:23+02:00</time>
      </trkpt>
      <trkpt lat="45.16369" lon="6.43889">
        <ele>1649.9004</ele>
        <time>2020-08-12T07:01:24+02:00</time>
      </trkpt>
      <trkpt lat="45.16367" lon="6.43894">
        <ele>1651.5</ele>
        <time>2020-08-12T07:01:28+02:00</time>
      </trkpt>
      <trkpt lat="45.16367" lon="6.43895">
        <ele>1651.5</ele>
        <time>2020-08-12T07:01:29+02:00</time>
      </trkpt>
      <trkpt lat="45.16364" lon="6.439">
        <ele>1649.6006</ele>
        <time>2020-08-12T07:01:33+02:00</time>
      </trkpt>
      <trkpt lat="45.16363" lon="6.43901">
        <ele>1649.6006</ele>
        <time>2020-08-12T07:01:34+02:00</time>
      </trkpt>
      <trkpt lat="45.16359" lon="6.43906">
        <ele>1651.2002</ele>
        <time>2020-08-12T07:01:38+02:00</time>
      </trkpt>
      <trkpt lat="45.16358" lon="6.43908">
        <ele>1649.2998</ele>
        <time>2020-08-12T07:01:39+02:00</time>
      </trkpt>
      <trkpt lat="45.16353" lon="6.43914">
        <ele>1650.7998</ele>
        <time>2020-08-12T07:01:43+02:00</time>
      </trkpt>
      <trkpt lat="45.16353" lon="6.43916">
        <ele>1650.7998</ele>
        <time>2020-08-12T07:01:44+02:00</time>
      </trkpt>
      <trkpt lat="45.1635" lon="6.43922">
        <ele>1650.5</ele>
        <time>2020-08-12T07:01:48+02:00</time>
      </trkpt>
      <trkpt lat="45.16349" lon="6.43923">
        <ele>1650.5</ele>
        <time>2020-08-12T07:01:49+02:00</time>
      </trkpt>
      <trkpt lat="45.16347" lon="6.43931">
        <ele>1652.1006</ele>
        <time>2020-08-12T07:01:53+02:00</time>
      </trkpt>
      <trkpt lat="45.16346" lon="6.43932">
        <ele>1650.2002</ele>
        <time>2020-08-12T07:01:54+02:00</time>
      </trkpt>
      <trkpt lat="45.16343" lon="6.4394">
        <ele>1652</ele>
        <time>2020-08-12T07:01:58+02:00</time>
      </trkpt>
      <trkpt lat="45.16342" lon="6.43942">
        <ele>1652</ele>
        <time>2020-08-12T07:01:59+02:00</time>
      </trkpt>
      <trkpt lat="45.16341" lon="6.43949">
        <ele>1653.7002</ele>
        <time>2020-08-12T07:02:03+02:00</time>
      </trkpt>
      <trkpt lat="45.1634" lon="6.43951">
        <ele>1653.7002</ele>
        <time>2020-08-12T07:02:04+02:00</time>
      </trkpt>
      <trkpt lat="45.16338" lon="6.4396">
        <ele>1653.9004</ele>
        <time>2020-08-12T07:02:08+02:00</time>
      </trkpt>
      <trkpt lat="45.16337" lon="6.43963">
        <ele>1655.9004</ele>
        <time>2020-08-12T07:02:09+02:00</time>
      </trkpt>
      <trkpt lat="45.16335" lon="6.43969">
        <ele>1655.9004</ele>
        <time>2020-08-12T07:02:13+02:00</time>
      </trkpt>
      <trkpt lat="45.16334" lon="6.43971">
        <ele>1657.9004</ele>
        <time>2020-08-12T07:02:14+02:00</time>
      </trkpt>
      <trkpt lat="45.16332" lon="6.43978">
        <ele>1656.2002</ele>
        <time>2020-08-12T07:02:18+02:00</time>
      </trkpt>
      <trkpt lat="45.16331" lon="6.4398">
        <ele>1658.4004</ele>
        <time>2020-08-12T07:02:19+02:00</time>
      </trkpt>
      <trkpt lat="45.16329" lon="6.43988">
        <ele>1660.7002</ele>
        <time>2020-08-12T07:02:23+02:00</time>
      </trkpt>
      <trkpt lat="45.16329" lon="6.4399">
        <ele>1660.7002</ele>
        <time>2020-08-12T07:02:24+02:00</time>
      </trkpt>
      <trkpt lat="45.16328" lon="6.43996">
        <ele>1660.7002</ele>
        <time>2020-08-12T07:02:28+02:00</time>
      </trkpt>
      <trkpt lat="45.16329" lon="6.43997">
        <ele>1663</ele>
        <time>2020-08-12T07:02:29+02:00</time>
      </trkpt>
      <trkpt lat="45.16329" lon="6.44005">
        <ele>1665.5</ele>
        <time>2020-08-12T07:02:33+02:00</time>
      </trkpt>
      <trkpt lat="45.1633" lon="6.44007">
        <ele>1665.5</ele>
        <time>2020-08-12T07:02:34+02:00</time>
      </trkpt>
      <trkpt lat="45.16331" lon="6.44013">
        <ele>1665.5</ele>
        <time>2020-08-12T07:02:38+02:00</time>
      </trkpt>
      <trkpt lat="45.16332" lon="6.44013">
        <ele>1665.5</ele>
        <time>2020-08-12T07:02:39+02:00</time>
      </trkpt>
      <trkpt lat="45.16336" lon="6.44012">
        <ele>1667.1006</ele>
        <time>2020-08-12T07:02:43+02:00</time>
      </trkpt>
      <trkpt lat="45.16337" lon="6.44011">
        <ele>1667.1006</ele>
        <time>2020-08-12T07:02:44+02:00</time>
      </trkpt>
      <trkpt lat="45.16343" lon="6.44008">
        <ele>1668.6006</ele>
        <time>2020-08-12T07:02:48+02:00</time>
      </trkpt>
      <trkpt lat="45.16345" lon="6.44007">
        <ele>1668.6006</ele>
        <time>2020-08-12T07:02:49+02:00</time>
      </trkpt>
      <trkpt lat="45.16351" lon="6.44004">
        <ele>1667.7002</ele>
        <time>2020-08-12T07:02:53+02:00</time>
      </trkpt>
      <trkpt lat="45.16352" lon="6.44004">
        <ele>1669.1006</ele>
        <time>2020-08-12T07:02:54+02:00</time>
      </trkpt>
      <trkpt lat="45.16358" lon="6.44005">
        <ele>1671.4004</ele>
        <time>2020-08-12T07:02:58+02:00</time>
      </trkpt>
      <trkpt lat="45.16359" lon="6.44005">
        <ele>1672.7002</ele>
        <time>2020-08-12T07:02:59+02:00</time>
      </trkpt>
      <trkpt lat="45.16364" lon="6.44004">
        <ele>1670.5</ele>
        <time>2020-08-12T07:03:03+02:00</time>
      </trkpt>
      <trkpt lat="45.16366" lon="6.44004">
        <ele>1671.7998</ele>
        <time>2020-08-12T07:03:04+02:00</time>
      </trkpt>
      <trkpt lat="45.16372" lon="6.44003">
        <ele>1673.2002</ele>
        <time>2020-08-12T07:03:08+02:00</time>
      </trkpt>
      <trkpt lat="45.16373" lon="6.44003">
        <ele>1673.2002</ele>
        <time>2020-08-12T07:03:09+02:00</time>
      </trkpt>
      <trkpt lat="45.16379" lon="6.44002">
        <ele>1674.5</ele>
        <time>2020-08-12T07:03:13+02:00</time>
      </trkpt>
      <trkpt lat="45.16381" lon="6.44001">
        <ele>1674.5</ele>
        <time>2020-08-12T07:03:14+02:00</time>
      </trkpt>
      <trkpt lat="45.16387" lon="6.43999">
        <ele>1675.9004</ele>
        <time>2020-08-12T07:03:18+02:00</time>
      </trkpt>
      <trkpt lat="45.16389" lon="6.43998">
        <ele>1677.1006</ele>
        <time>2020-08-12T07:03:19+02:00</time>
      </trkpt>
      <trkpt lat="45.16395" lon="6.43997">
        <ele>1678.4004</ele>
        <time>2020-08-12T07:03:23+02:00</time>
      </trkpt>
      <trkpt lat="45.16396" lon="6.43996">
        <ele>1678.4004</ele>
        <time>2020-08-12T07:03:24+02:00</time>
      </trkpt>
      <trkpt lat="45.16403" lon="6.43995">
        <ele>1677.9004</ele>
        <time>2020-08-12T07:03:28+02:00</time>
      </trkpt>
      <trkpt lat="45.16404" lon="6.43995">
        <ele>1677.9004</ele>
        <time>2020-08-12T07:03:29+02:00</time>
      </trkpt>
      <trkpt lat="45.1641" lon="6.43993">
        <ele>1679</ele>
        <time>2020-08-12T07:03:33+02:00</time>
      </trkpt>
      <trkpt lat="45.16411" lon="6.43992">
        <ele>1679</ele>
        <time>2020-08-12T07:03:34+02:00</time>
      </trkpt>
      <trkpt lat="45.16417" lon="6.43989">
        <ele>1680</ele>
        <time>2020-08-12T07:03:38+02:00</time>
      </trkpt>
      <trkpt lat="45.16418" lon="6.43989">
        <ele>1680</ele>
        <time>2020-08-12T07:03:39+02:00</time>
      </trkpt>
      <trkpt lat="45.16424" lon="6.43988">
        <ele>1680.9004</ele>
        <time>2020-08-12T07:03:43+02:00</time>
      </trkpt>
      <trkpt lat="45.16425" lon="6.43987">
        <ele>1680</ele>
        <time>2020-08-12T07:03:44+02:00</time>
      </trkpt>
      <trkpt lat="45.16431" lon="6.43985">
        <ele>1680.7002</ele>
        <time>2020-08-12T07:03:48+02:00</time>
      </trkpt>
      <trkpt lat="45.16433" lon="6.43985">
        <ele>1680.7002</ele>
        <time>2020-08-12T07:03:49+02:00</time>
      </trkpt>
      <trkpt lat="45.16439" lon="6.43983">
        <ele>1681.2998</ele>
        <time>2020-08-12T07:03:53+02:00</time>
      </trkpt>
      <trkpt lat="45.16441" lon="6.43982">
        <ele>1681.2998</ele>
        <time>2020-08-12T07:03:54+02:00</time>
      </trkpt>
      <trkpt lat="45.16446" lon="6.4398">
        <ele>1681.9004</ele>
        <time>2020-08-12T07:03:58+02:00</time>
      </trkpt>
      <trkpt lat="45.16448" lon="6.43979">
        <ele>1680.2002</ele>
        <time>2020-08-12T07:03:59+02:00</time>
      </trkpt>
      <trkpt lat="45.16453" lon="6.43976">
        <ele>1680.7998</ele>
        <time>2020-08-12T07:04:03+02:00</time>
      </trkpt>
      <trkpt lat="45.16455" lon="6.43976">
        <ele>1680.7998</ele>
        <time>2020-08-12T07:04:04+02:00</time>
      </trkpt>
      <trkpt lat="45.1646" lon="6.43974">
        <ele>1681.2998</ele>
        <time>2020-08-12T07:04:08+02:00</time>
      </trkpt>
      <trkpt lat="45.16461" lon="6.43974">
        <ele>1681.7002</ele>
        <time>2020-08-12T07:04:09+02:00</time>
      </trkpt>
      <trkpt lat="45.16467" lon="6.43972">
        <ele>1682.1006</ele>
        <time>2020-08-12T07:04:13+02:00</time>
      </trkpt>
      <trkpt lat="45.16469" lon="6.43973">
        <ele>1682.1006</ele>
        <time>2020-08-12T07:04:14+02:00</time>
      </trkpt>
      <trkpt lat="45.16475" lon="6.4398">
        <ele>1684.2002</ele>
        <time>2020-08-12T07:04:18+02:00</time>
      </trkpt>
      <trkpt lat="45.16475" lon="6.43983">
        <ele>1684.2002</ele>
        <time>2020-08-12T07:04:19+02:00</time>
      </trkpt>
      <trkpt lat="45.16474" lon="6.43992">
        <ele>1686</ele>
        <time>2020-08-12T07:04:23+02:00</time>
      </trkpt>
      <trkpt lat="45.16473" lon="6.43995">
        <ele>1686</ele>
        <time>2020-08-12T07:04:24+02:00</time>
      </trkpt>
      <trkpt lat="45.1647" lon="6.44003">
        <ele>1687.5</ele>
        <time>2020-08-12T07:04:28+02:00</time>
      </trkpt>
      <trkpt lat="45.16468" lon="6.44004">
        <ele>1687.5</ele>
        <time>2020-08-12T07:04:29+02:00</time>
      </trkpt>
      <trkpt lat="45.16464" lon="6.4401">
        <ele>1688.7998</ele>
        <time>2020-08-12T07:04:33+02:00</time>
      </trkpt>
      <trkpt lat="45.16463" lon="6.44012">
        <ele>1688.7998</ele>
        <time>2020-08-12T07:04:34+02:00</time>
      </trkpt>
      <trkpt lat="45.1646" lon="6.44018">
        <ele>1690.1006</ele>
        <time>2020-08-12T07:04:38+02:00</time>
      </trkpt>
      <trkpt lat="45.16459" lon="6.44019">
        <ele>1690.1006</ele>
        <time>2020-08-12T07:04:39+02:00</time>
      </trkpt>
      <trkpt lat="45.16455" lon="6.44024">
        <ele>1691.2002</ele>
        <time>2020-08-12T07:04:43+02:00</time>
      </trkpt>
      <trkpt lat="45.16454" lon="6.44025">
        <ele>1691.2002</ele>
        <time>2020-08-12T07:04:44+02:00</time>
      </trkpt>
      <trkpt lat="45.1645" lon="6.4403">
        <ele>1691.2002</ele>
        <time>2020-08-12T07:04:48+02:00</time>
      </trkpt>
      <trkpt lat="45.16448" lon="6.44031">
        <ele>1692.2002</ele>
        <time>2020-08-12T07:04:49+02:00</time>
      </trkpt>
      <trkpt lat="45.16443" lon="6.44037">
        <ele>1692.2002</ele>
        <time>2020-08-12T07:04:53+02:00</time>
      </trkpt>
      <trkpt lat="45.16442" lon="6.44038">
        <ele>1691.5</ele>
        <time>2020-08-12T07:04:54+02:00</time>
      </trkpt>
      <trkpt lat="45.16438" lon="6.44045">
        <ele>1693.2998</ele>
        <time>2020-08-12T07:04:58+02:00</time>
      </trkpt>
      <trkpt lat="45.16437" lon="6.44046">
        <ele>1693.2998</ele>
        <time>2020-08-12T07:04:59+02:00</time>
      </trkpt>
      <trkpt lat="45.16433" lon="6.44052">
        <ele>1694.5</ele>
        <time>2020-08-12T07:05:03+02:00</time>
      </trkpt>
      <trkpt lat="45.16432" lon="6.44054">
        <ele>1694.5</ele>
        <time>2020-08-12T07:05:04+02:00</time>
      </trkpt>
      <trkpt lat="45.16427" lon="6.44059">
        <ele>1695.9004</ele>
        <time>2020-08-12T07:05:08+02:00</time>
      </trkpt>
      <trkpt lat="45.16426" lon="6.4406">
        <ele>1695.9004</ele>
        <time>2020-08-12T07:05:09+02:00</time>
      </trkpt>
      <trkpt lat="45.16421" lon="6.44066">
        <ele>1697.5</ele>
        <time>2020-08-12T07:05:13+02:00</time>
      </trkpt>
      <trkpt lat="45.16421" lon="6.44067">
        <ele>1697.5</ele>
        <time>2020-08-12T07:05:14+02:00</time>
      </trkpt>
      <trkpt lat="45.16417" lon="6.44074">
        <ele>1699.2002</ele>
        <time>2020-08-12T07:05:18+02:00</time>
      </trkpt>
      <trkpt lat="45.16416" lon="6.44076">
        <ele>1699.2002</ele>
        <time>2020-08-12T07:05:19+02:00</time>
      </trkpt>
      <trkpt lat="45.16413" lon="6.44081">
        <ele>1699.2002</ele>
        <time>2020-08-12T07:05:23+02:00</time>
      </trkpt>
      <trkpt lat="45.16412" lon="6.44083">
        <ele>1700.9004</ele>
        <time>2020-08-12T07:05:24+02:00</time>
      </trkpt>
      <trkpt lat="45.16409" lon="6.44087">
        <ele>1700.9004</ele>
        <time>2020-08-12T07:05:28+02:00</time>
      </trkpt>
      <trkpt lat="45.16407" lon="6.44089">
        <ele>1700.9004</ele>
        <time>2020-08-12T07:05:29+02:00</time>
      </trkpt>
      <trkpt lat="45.16403" lon="6.44096">
        <ele>1702.7002</ele>
        <time>2020-08-12T07:05:33+02:00</time>
      </trkpt>
      <trkpt lat="45.16402" lon="6.44097">
        <ele>1702.7002</ele>
        <time>2020-08-12T07:05:34+02:00</time>
      </trkpt>
      <trkpt lat="45.16397" lon="6.44104">
        <ele>1704.7998</ele>
        <time>2020-08-12T07:05:38+02:00</time>
      </trkpt>
      <trkpt lat="45.16396" lon="6.44105">
        <ele>1704.7998</ele>
        <time>2020-08-12T07:05:39+02:00</time>
      </trkpt>
      <trkpt lat="45.16392" lon="6.44113">
        <ele>1707</ele>
        <time>2020-08-12T07:05:43+02:00</time>
      </trkpt>
      <trkpt lat="45.16391" lon="6.44115">
        <ele>1707</ele>
        <time>2020-08-12T07:05:44+02:00</time>
      </trkpt>
      <trkpt lat="45.16388" lon="6.44122">
        <ele>1709.2998</ele>
        <time>2020-08-12T07:05:48+02:00</time>
      </trkpt>
      <trkpt lat="45.16387" lon="6.44124">
        <ele>1709.2998</ele>
        <time>2020-08-12T07:05:49+02:00</time>
      </trkpt>
      <trkpt lat="45.16383" lon="6.44132">
        <ele>1711.7998</ele>
        <time>2020-08-12T07:05:53+02:00</time>
      </trkpt>
      <trkpt lat="45.16382" lon="6.44134">
        <ele>1714.2002</ele>
        <time>2020-08-12T07:05:54+02:00</time>
      </trkpt>
      <trkpt lat="45.16378" lon="6.4414">
        <ele>1714.2002</ele>
        <time>2020-08-12T07:05:58+02:00</time>
      </trkpt>
      <trkpt lat="45.16376" lon="6.44142">
        <ele>1714.2002</ele>
        <time>2020-08-12T07:05:59+02:00</time>
      </trkpt>
      <trkpt lat="45.16372" lon="6.44147">
        <ele>1716.5</ele>
        <time>2020-08-12T07:06:03+02:00</time>
      </trkpt>
      <trkpt lat="45.16372" lon="6.44149">
        <ele>1716.5</ele>
        <time>2020-08-12T07:06:04+02:00</time>
      </trkpt>
      <trkpt lat="45.16373" lon="6.44158">
        <ele>1719</ele>
        <time>2020-08-12T07:06:08+02:00</time>
      </trkpt>
      <trkpt lat="45.16373" lon="6.4416">
        <ele>1721.4004</ele>
        <time>2020-08-12T07:06:09+02:00</time>
      </trkpt>
      <trkpt lat="45.16375" lon="6.44161">
        <ele>1721.4004</ele>
        <time>2020-08-12T07:06:13+02:00</time>
      </trkpt>
      <trkpt lat="45.16376" lon="6.4416">
        <ele>1721.4004</ele>
        <time>2020-08-12T07:06:14+02:00</time>
      </trkpt>
      <trkpt lat="45.16381" lon="6.44155">
        <ele>1719.1006</ele>
        <time>2020-08-12T07:06:18+02:00</time>
      </trkpt>
      <trkpt lat="45.16383" lon="6.44154">
        <ele>1719</ele>
        <time>2020-08-12T07:06:19+02:00</time>
      </trkpt>
      <trkpt lat="45.1639" lon="6.44151">
        <ele>1718.9004</ele>
        <time>2020-08-12T07:06:23+02:00</time>
      </trkpt>
      <trkpt lat="45.16391" lon="6.44151">
        <ele>1716.6006</ele>
        <time>2020-08-12T07:06:24+02:00</time>
      </trkpt>
      <trkpt lat="45.16398" lon="6.4415">
        <ele>1716.4004</ele>
        <time>2020-08-12T07:06:28+02:00</time>
      </trkpt>
      <trkpt lat="45.16399" lon="6.4415">
        <ele>1716.4004</ele>
        <time>2020-08-12T07:06:29+02:00</time>
      </trkpt>
      <trkpt lat="45.16405" lon="6.44149">
        <ele>1716.1006</ele>
        <time>2020-08-12T07:06:33+02:00</time>
      </trkpt>
      <trkpt lat="45.16407" lon="6.44149">
        <ele>1716.1006</ele>
        <time>2020-08-12T07:06:34+02:00</time>
      </trkpt>
      <trkpt lat="45.16412" lon="6.44149">
        <ele>1715.9004</ele>
        <time>2020-08-12T07:06:38+02:00</time>
      </trkpt>
      <trkpt lat="45.16414" lon="6.44149">
        <ele>1715.6006</ele>
        <time>2020-08-12T07:06:39+02:00</time>
      </trkpt>
      <trkpt lat="45.1642" lon="6.4415">
        <ele>1715.4004</ele>
        <time>2020-08-12T07:06:43+02:00</time>
      </trkpt>
      <trkpt lat="45.16422" lon="6.44149">
        <ele>1715.4004</ele>
        <time>2020-08-12T07:06:44+02:00</time>
      </trkpt>
      <trkpt lat="45.16428" lon="6.44149">
        <ele>1715.2002</ele>
        <time>2020-08-12T07:06:48+02:00</time>
      </trkpt>
      <trkpt lat="45.16429" lon="6.44149">
        <ele>1715.2002</ele>
        <time>2020-08-12T07:06:49+02:00</time>
      </trkpt>
      <trkpt lat="45.16436" lon="6.44152">
        <ele>1717.1006</ele>
        <time>2020-08-12T07:06:53+02:00</time>
      </trkpt>
      <trkpt lat="45.16437" lon="6.44153">
        <ele>1717</ele>
        <time>2020-08-12T07:06:54+02:00</time>
      </trkpt>
      <trkpt lat="45.16442" lon="6.44153">
        <ele>1717</ele>
        <time>2020-08-12T07:06:58+02:00</time>
      </trkpt>
      <trkpt lat="45.16444" lon="6.44154">
        <ele>1717.1006</ele>
        <time>2020-08-12T07:06:59+02:00</time>
      </trkpt>
      <trkpt lat="45.1645" lon="6.44156">
        <ele>1717.2002</ele>
        <time>2020-08-12T07:07:03+02:00</time>
      </trkpt>
      <trkpt lat="45.16451" lon="6.44157">
        <ele>1717.2002</ele>
        <time>2020-08-12T07:07:04+02:00</time>
      </trkpt>
      <trkpt lat="45.16457" lon="6.4416">
        <ele>1719.2002</ele>
        <time>2020-08-12T07:07:08+02:00</time>
      </trkpt>
      <trkpt lat="45.16458" lon="6.4416">
        <ele>1719.2002</ele>
        <time>2020-08-12T07:07:09+02:00</time>
      </trkpt>
      <trkpt lat="45.16464" lon="6.44163">
        <ele>1719.2998</ele>
        <time>2020-08-12T07:07:13+02:00</time>
      </trkpt>
      <trkpt lat="45.16465" lon="6.44163">
        <ele>1719.2998</ele>
        <time>2020-08-12T07:07:14+02:00</time>
      </trkpt>
      <trkpt lat="45.16472" lon="6.44167">
        <ele>1719.5</ele>
        <time>2020-08-12T07:07:18+02:00</time>
      </trkpt>
      <trkpt lat="45.16473" lon="6.44168">
        <ele>1719.5</ele>
        <time>2020-08-12T07:07:19+02:00</time>
      </trkpt>
      <trkpt lat="45.16474" lon="6.44174">
        <ele>1721.4004</ele>
        <time>2020-08-12T07:07:23+02:00</time>
      </trkpt>
      <trkpt lat="45.16474" lon="6.44175">
        <ele>1721.4004</ele>
        <time>2020-08-12T07:07:24+02:00</time>
      </trkpt>
      <trkpt lat="45.16471" lon="6.4418">
        <ele>1723</ele>
        <time>2020-08-12T07:07:28+02:00</time>
      </trkpt>
      <trkpt lat="45.16471" lon="6.44181">
        <ele>1723</ele>
        <time>2020-08-12T07:07:29+02:00</time>
      </trkpt>
      <trkpt lat="45.16465" lon="6.44185">
        <ele>1722.9004</ele>
        <time>2020-08-12T07:07:33+02:00</time>
      </trkpt>
      <trkpt lat="45.16464" lon="6.44184">
        <ele>1722.9004</ele>
        <time>2020-08-12T07:07:34+02:00</time>
      </trkpt>
      <trkpt lat="45.16459" lon="6.44185">
        <ele>1722.7998</ele>
        <time>2020-08-12T07:07:38+02:00</time>
      </trkpt>
      <trkpt lat="45.16457" lon="6.44185">
        <ele>1724.7002</ele>
        <time>2020-08-12T07:07:39+02:00</time>
      </trkpt>
      <trkpt lat="45.16451" lon="6.44187">
        <ele>1724.6006</ele>
        <time>2020-08-12T07:07:43+02:00</time>
      </trkpt>
      <trkpt lat="45.1645" lon="6.44187">
        <ele>1724.6006</ele>
        <time>2020-08-12T07:07:44+02:00</time>
      </trkpt>
      <trkpt lat="45.16444" lon="6.44189">
        <ele>1724.6006</ele>
        <time>2020-08-12T07:07:48+02:00</time>
      </trkpt>
      <trkpt lat="45.16442" lon="6.4419">
        <ele>1724.6006</ele>
        <time>2020-08-12T07:07:49+02:00</time>
      </trkpt>
      <trkpt lat="45.16436" lon="6.44192">
        <ele>1724.7998</ele>
        <time>2020-08-12T07:07:53+02:00</time>
      </trkpt>
      <trkpt lat="45.16434" lon="6.44193">
        <ele>1724.7998</ele>
        <time>2020-08-12T07:07:54+02:00</time>
      </trkpt>
      <trkpt lat="45.16431" lon="6.44198">
        <ele>1727.1006</ele>
        <time>2020-08-12T07:07:58+02:00</time>
      </trkpt>
      <trkpt lat="45.1643" lon="6.44199">
        <ele>1727.1006</ele>
        <time>2020-08-12T07:07:59+02:00</time>
      </trkpt>
      <trkpt lat="45.16429" lon="6.44205">
        <ele>1729.1006</ele>
        <time>2020-08-12T07:08:03+02:00</time>
      </trkpt>
      <trkpt lat="45.16429" lon="6.44207">
        <ele>1729.1006</ele>
        <time>2020-08-12T07:08:04+02:00</time>
      </trkpt>
      <trkpt lat="45.16434" lon="6.4421">
        <ele>1728.7002</ele>
        <time>2020-08-12T07:08:08+02:00</time>
      </trkpt>
      <trkpt lat="45.16435" lon="6.4421">
        <ele>1728.7002</ele>
        <time>2020-08-12T07:08:09+02:00</time>
      </trkpt>
      <trkpt lat="45.16441" lon="6.4421">
        <ele>1728.5</ele>
        <time>2020-08-12T07:08:13+02:00</time>
      </trkpt>
      <trkpt lat="45.16442" lon="6.4421">
        <ele>1728.5</ele>
        <time>2020-08-12T07:08:14+02:00</time>
      </trkpt>
      <trkpt lat="45.16447" lon="6.44209">
        <ele>1728.4004</ele>
        <time>2020-08-12T07:08:18+02:00</time>
      </trkpt>
      <trkpt lat="45.16449" lon="6.44208">
        <ele>1728.4004</ele>
        <time>2020-08-12T07:08:19+02:00</time>
      </trkpt>
      <trkpt lat="45.16455" lon="6.44208">
        <ele>1728.4004</ele>
        <time>2020-08-12T07:08:23+02:00</time>
      </trkpt>
      <trkpt lat="45.16457" lon="6.44209">
        <ele>1728.4004</ele>
        <time>2020-08-12T07:08:24+02:00</time>
      </trkpt>
      <trkpt lat="45.16463" lon="6.4421">
        <ele>1728.2998</ele>
        <time>2020-08-12T07:08:28+02:00</time>
      </trkpt>
      <trkpt lat="45.16464" lon="6.4421">
        <ele>1728.2998</ele>
        <time>2020-08-12T07:08:29+02:00</time>
      </trkpt>
      <trkpt lat="45.1647" lon="6.44209">
        <ele>1728.2998</ele>
        <time>2020-08-12T07:08:33+02:00</time>
      </trkpt>
      <trkpt lat="45.16472" lon="6.44209">
        <ele>1728.2998</ele>
        <time>2020-08-12T07:08:34+02:00</time>
      </trkpt>
      <trkpt lat="45.16477" lon="6.44209">
        <ele>1728.2998</ele>
        <time>2020-08-12T07:08:38+02:00</time>
      </trkpt>
      <trkpt lat="45.16479" lon="6.44209">
        <ele>1728.2998</ele>
        <time>2020-08-12T07:08:39+02:00</time>
      </trkpt>
      <trkpt lat="45.16485" lon="6.44205">
        <ele>1728.4004</ele>
        <time>2020-08-12T07:08:43+02:00</time>
      </trkpt>
      <trkpt lat="45.16487" lon="6.44205">
        <ele>1728.4004</ele>
        <time>2020-08-12T07:08:44+02:00</time>
      </trkpt>
      <trkpt lat="45.16492" lon="6.44201">
        <ele>1726.9004</ele>
        <time>2020-08-12T07:08:48+02:00</time>
      </trkpt>
      <trkpt lat="45.16493" lon="6.442">
        <ele>1726.9004</ele>
        <time>2020-08-12T07:08:49+02:00</time>
      </trkpt>
      <trkpt lat="45.16498" lon="6.44197">
        <ele>1727.2002</ele>
        <time>2020-08-12T07:08:53+02:00</time>
      </trkpt>
      <trkpt lat="45.16499" lon="6.44196">
        <ele>1727.2002</ele>
        <time>2020-08-12T07:08:54+02:00</time>
      </trkpt>
      <trkpt lat="45.16504" lon="6.44191">
        <ele>1726</ele>
        <time>2020-08-12T07:08:58+02:00</time>
      </trkpt>
      <trkpt lat="45.16505" lon="6.44189">
        <ele>1726</ele>
        <time>2020-08-12T07:08:59+02:00</time>
      </trkpt>
      <trkpt lat="45.1651" lon="6.44185">
        <ele>1725</ele>
        <time>2020-08-12T07:09:03+02:00</time>
      </trkpt>
      <trkpt lat="45.16512" lon="6.44184">
        <ele>1725</ele>
        <time>2020-08-12T07:09:04+02:00</time>
      </trkpt>
      <trkpt lat="45.16518" lon="6.4418">
        <ele>1725.6006</ele>
        <time>2020-08-12T07:09:08+02:00</time>
      </trkpt>
      <trkpt lat="45.1652" lon="6.44178">
        <ele>1725.6006</ele>
        <time>2020-08-12T07:09:09+02:00</time>
      </trkpt>
      <trkpt lat="45.16526" lon="6.44173">
        <ele>1724.7998</ele>
        <time>2020-08-12T07:09:13+02:00</time>
      </trkpt>
      <trkpt lat="45.16528" lon="6.44172">
        <ele>1725.4004</ele>
        <time>2020-08-12T07:09:14+02:00</time>
      </trkpt>
      <trkpt lat="45.16533" lon="6.44166">
        <ele>1724</ele>
        <time>2020-08-12T07:09:18+02:00</time>
      </trkpt>
      <trkpt lat="45.16534" lon="6.44166">
        <ele>1724.7998</ele>
        <time>2020-08-12T07:09:19+02:00</time>
      </trkpt>
      <trkpt lat="45.16541" lon="6.44162">
        <ele>1725.7002</ele>
        <time>2020-08-12T07:09:23+02:00</time>
      </trkpt>
      <trkpt lat="45.16543" lon="6.44162">
        <ele>1725.7002</ele>
        <time>2020-08-12T07:09:24+02:00</time>
      </trkpt>
      <trkpt lat="45.1655" lon="6.44163">
        <ele>1726.5</ele>
        <time>2020-08-12T07:09:28+02:00</time>
      </trkpt>
      <trkpt lat="45.16552" lon="6.44164">
        <ele>1727.2002</ele>
        <time>2020-08-12T07:09:29+02:00</time>
      </trkpt>
      <trkpt lat="45.1656" lon="6.44166">
        <ele>1727.7998</ele>
        <time>2020-08-12T07:09:33+02:00</time>
      </trkpt>
      <trkpt lat="45.16561" lon="6.44166">
        <ele>1727.7998</ele>
        <time>2020-08-12T07:09:34+02:00</time>
      </trkpt>
      <trkpt lat="45.16569" lon="6.44167">
        <ele>1728.5</ele>
        <time>2020-08-12T07:09:38+02:00</time>
      </trkpt>
      <trkpt lat="45.16571" lon="6.44167">
        <ele>1729.1006</ele>
        <time>2020-08-12T07:09:39+02:00</time>
      </trkpt>
      <trkpt lat="45.16579" lon="6.44161">
        <ele>1729.7002</ele>
        <time>2020-08-12T07:09:43+02:00</time>
      </trkpt>
      <trkpt lat="45.16582" lon="6.44158">
        <ele>1728.4004</ele>
        <time>2020-08-12T07:09:44+02:00</time>
      </trkpt>
      <trkpt lat="45.16591" lon="6.44159">
        <ele>1729.5</ele>
        <time>2020-08-12T07:09:48+02:00</time>
      </trkpt>
      <trkpt lat="45.16593" lon="6.4416">
        <ele>1730.9004</ele>
        <time>2020-08-12T07:09:49+02:00</time>
      </trkpt>
      <trkpt lat="45.166" lon="6.44164">
        <ele>1731.2998</ele>
        <time>2020-08-12T07:09:53+02:00</time>
      </trkpt>
      <trkpt lat="45.16601" lon="6.44164">
        <ele>1731.7002</ele>
        <time>2020-08-12T07:09:54+02:00</time>
      </trkpt>
      <trkpt lat="45.16609" lon="6.44166">
        <ele>1731.9004</ele>
        <time>2020-08-12T07:09:58+02:00</time>
      </trkpt>
      <trkpt lat="45.1661" lon="6.44166">
        <ele>1731.9004</ele>
        <time>2020-08-12T07:09:59+02:00</time>
      </trkpt>
      <trkpt lat="45.16618" lon="6.44168">
        <ele>1732</ele>
        <time>2020-08-12T07:10:03+02:00</time>
      </trkpt>
      <trkpt lat="45.1662" lon="6.44168">
        <ele>1733.4004</ele>
        <time>2020-08-12T07:10:04+02:00</time>
      </trkpt>
      <trkpt lat="45.16628" lon="6.4417">
        <ele>1733.4004</ele>
        <time>2020-08-12T07:10:08+02:00</time>
      </trkpt>
      <trkpt lat="45.1663" lon="6.44171">
        <ele>1733.4004</ele>
        <time>2020-08-12T07:10:09+02:00</time>
      </trkpt>
      <trkpt lat="45.16635" lon="6.44173">
        <ele>1733.4004</ele>
        <time>2020-08-12T07:10:13+02:00</time>
      </trkpt>
      <trkpt lat="45.16636" lon="6.44173">
        <ele>1733.4004</ele>
        <time>2020-08-12T07:10:14+02:00</time>
      </trkpt>
      <trkpt lat="45.1664" lon="6.44177">
        <ele>1734.5</ele>
        <time>2020-08-12T07:10:18+02:00</time>
      </trkpt>
      <trkpt lat="45.16642" lon="6.44179">
        <ele>1734.5</ele>
        <time>2020-08-12T07:10:19+02:00</time>
      </trkpt>
      <trkpt lat="45.16649" lon="6.44187">
        <ele>1735.4004</ele>
        <time>2020-08-12T07:10:23+02:00</time>
      </trkpt>
      <trkpt lat="45.16651" lon="6.4419">
        <ele>1734.9004</ele>
        <time>2020-08-12T07:10:24+02:00</time>
      </trkpt>
      <trkpt lat="45.16663" lon="6.44202">
        <ele>1735.9004</ele>
        <time>2020-08-12T07:10:28+02:00</time>
      </trkpt>
      <trkpt lat="45.16666" lon="6.44206">
        <ele>1735.9004</ele>
        <time>2020-08-12T07:10:29+02:00</time>
      </trkpt>
      <trkpt lat="45.1668" lon="6.44227">
        <ele>1735.1006</ele>
        <time>2020-08-12T07:10:33+02:00</time>
      </trkpt>
      <trkpt lat="45.16683" lon="6.44234">
        <ele>1736.4004</ele>
        <time>2020-08-12T07:10:34+02:00</time>
      </trkpt>
      <trkpt lat="45.167" lon="6.44254">
        <ele>1737.1006</ele>
        <time>2020-08-12T07:10:38+02:00</time>
      </trkpt>
      <trkpt lat="45.16703" lon="6.4426">
        <ele>1737.1006</ele>
        <time>2020-08-12T07:10:39+02:00</time>
      </trkpt>
      <trkpt lat="45.16712" lon="6.44277">
        <ele>1737.7998</ele>
        <time>2020-08-12T07:10:43+02:00</time>
      </trkpt>
      <trkpt lat="45.16714" lon="6.44281">
        <ele>1739.5</ele>
        <time>2020-08-12T07:10:44+02:00</time>
      </trkpt>
      <trkpt lat="45.16729" lon="6.44287">
        <ele>1736.4004</ele>
        <time>2020-08-12T07:10:48+02:00</time>
      </trkpt>
      <trkpt lat="45.16734" lon="6.44288">
        <ele>1735.4004</ele>
        <time>2020-08-12T07:10:49+02:00</time>
      </trkpt>
      <trkpt lat="45.16755" lon="6.44293">
        <ele>1734.2002</ele>
        <time>2020-08-12T07:10:53+02:00</time>
      </trkpt>
      <trkpt lat="45.16761" lon="6.44293">
        <ele>1733.2002</ele>
        <time>2020-08-12T07:10:54+02:00</time>
      </trkpt>
      <trkpt lat="45.16785" lon="6.44294">
        <ele>1729.1006</ele>
        <time>2020-08-12T07:10:58+02:00</time>
      </trkpt>
      <trkpt lat="45.16791" lon="6.44296">
        <ele>1728.2998</ele>
        <time>2020-08-12T07:10:59+02:00</time>
      </trkpt>
      <trkpt lat="45.16814" lon="6.443">
        <ele>1728.1006</ele>
        <time>2020-08-12T07:11:03+02:00</time>
      </trkpt>
      <trkpt lat="45.16821" lon="6.44299">
        <ele>1727.9004</ele>
        <time>2020-08-12T07:11:04+02:00</time>
      </trkpt>
      <trkpt lat="45.16846" lon="6.44298">
        <ele>1727.9004</ele>
        <time>2020-08-12T07:11:08+02:00</time>
      </trkpt>
      <trkpt lat="45.1685" lon="6.44299">
        <ele>1728.2002</ele>
        <time>2020-08-12T07:11:09+02:00</time>
      </trkpt>
      <trkpt lat="45.16858" lon="6.44296">
        <ele>1726.7002</ele>
        <time>2020-08-12T07:11:13+02:00</time>
      </trkpt>
      <trkpt lat="45.1686" lon="6.44295">
        <ele>1726.7002</ele>
        <time>2020-08-12T07:11:14+02:00</time>
      </trkpt>
      <trkpt lat="45.16866" lon="6.4429">
        <ele>1727.2998</ele>
        <time>2020-08-12T07:11:18+02:00</time>
      </trkpt>
      <trkpt lat="45.16868" lon="6.44288">
        <ele>1726</ele>
        <time>2020-08-12T07:11:19+02:00</time>
      </trkpt>
      <trkpt lat="45.16874" lon="6.44281">
        <ele>1726.9004</ele>
        <time>2020-08-12T07:11:23+02:00</time>
      </trkpt>
      <trkpt lat="45.16876" lon="6.44281">
        <ele>1726.9004</ele>
        <time>2020-08-12T07:11:24+02:00</time>
      </trkpt>
      <trkpt lat="45.16883" lon="6.44277">
        <ele>1725.9004</ele>
        <time>2020-08-12T07:11:28+02:00</time>
      </trkpt>
      <trkpt lat="45.16885" lon="6.44275">
        <ele>1727</ele>
        <time>2020-08-12T07:11:29+02:00</time>
      </trkpt>
      <trkpt lat="45.16893" lon="6.4427">
        <ele>1726</ele>
        <time>2020-08-12T07:11:33+02:00</time>
      </trkpt>
      <trkpt lat="45.16896" lon="6.44269">
        <ele>1726</ele>
        <time>2020-08-12T07:11:34+02:00</time>
      </trkpt>
      <trkpt lat="45.16905" lon="6.44264">
        <ele>1728.2998</ele>
        <time>2020-08-12T07:11:38+02:00</time>
      </trkpt>
      <trkpt lat="45.16908" lon="6.44264">
        <ele>1728.2998</ele>
        <time>2020-08-12T07:11:39+02:00</time>
      </trkpt>
      <trkpt lat="45.16918" lon="6.44262">
        <ele>1728.4004</ele>
        <time>2020-08-12T07:11:43+02:00</time>
      </trkpt>
      <trkpt lat="45.1692" lon="6.44262">
        <ele>1728.4004</ele>
        <time>2020-08-12T07:11:44+02:00</time>
      </trkpt>
      <trkpt lat="45.1693" lon="6.44262">
        <ele>1730.2998</ele>
        <time>2020-08-12T07:11:48+02:00</time>
      </trkpt>
      <trkpt lat="45.16932" lon="6.44262">
        <ele>1730.2998</ele>
        <time>2020-08-12T07:11:49+02:00</time>
      </trkpt>
      <trkpt lat="45.16939" lon="6.44256">
        <ele>1731.2002</ele>
        <time>2020-08-12T07:11:53+02:00</time>
      </trkpt>
      <trkpt lat="45.1694" lon="6.44254">
        <ele>1732.1006</ele>
        <time>2020-08-12T07:11:54+02:00</time>
      </trkpt>
      <trkpt lat="45.16947" lon="6.44248">
        <ele>1730.7998</ele>
        <time>2020-08-12T07:11:58+02:00</time>
      </trkpt>
      <trkpt lat="45.16949" lon="6.44247">
        <ele>1730.7998</ele>
        <time>2020-08-12T07:11:59+02:00</time>
      </trkpt>
      <trkpt lat="45.16956" lon="6.44242">
        <ele>1729.2998</ele>
        <time>2020-08-12T07:12:03+02:00</time>
      </trkpt>
      <trkpt lat="45.16957" lon="6.44241">
        <ele>1729.7998</ele>
        <time>2020-08-12T07:12:04+02:00</time>
      </trkpt>
      <trkpt lat="45.16965" lon="6.44236">
        <ele>1727.7998</ele>
        <time>2020-08-12T07:12:08+02:00</time>
      </trkpt>
      <trkpt lat="45.16968" lon="6.44235">
        <ele>1727.7998</ele>
        <time>2020-08-12T07:12:09+02:00</time>
      </trkpt>
      <trkpt lat="45.16978" lon="6.44234">
        <ele>1727.9004</ele>
        <time>2020-08-12T07:12:13+02:00</time>
      </trkpt>
      <trkpt lat="45.16981" lon="6.44235">
        <ele>1727.9004</ele>
        <time>2020-08-12T07:12:14+02:00</time>
      </trkpt>
      <trkpt lat="45.16991" lon="6.44236">
        <ele>1727.4004</ele>
        <time>2020-08-12T07:12:18+02:00</time>
      </trkpt>
      <trkpt lat="45.16993" lon="6.44237">
        <ele>1729.6006</ele>
        <time>2020-08-12T07:12:19+02:00</time>
      </trkpt>
      <trkpt lat="45.17003" lon="6.44239">
        <ele>1728.5</ele>
        <time>2020-08-12T07:12:23+02:00</time>
      </trkpt>
      <trkpt lat="45.17006" lon="6.4424">
        <ele>1727.7998</ele>
        <time>2020-08-12T07:12:24+02:00</time>
      </trkpt>
      <trkpt lat="45.17015" lon="6.44245">
        <ele>1727</ele>
        <time>2020-08-12T07:12:28+02:00</time>
      </trkpt>
      <trkpt lat="45.17017" lon="6.44246">
        <ele>1729</ele>
        <time>2020-08-12T07:12:29+02:00</time>
      </trkpt>
      <trkpt lat="45.17025" lon="6.44251">
        <ele>1727.1006</ele>
        <time>2020-08-12T07:12:33+02:00</time>
      </trkpt>
      <trkpt lat="45.17027" lon="6.44253">
        <ele>1727.1006</ele>
        <time>2020-08-12T07:12:34+02:00</time>
      </trkpt>
      <trkpt lat="45.17034" lon="6.44265">
        <ele>1729.9004</ele>
        <time>2020-08-12T07:12:38+02:00</time>
      </trkpt>
      <trkpt lat="45.17036" lon="6.44267">
        <ele>1729.9004</ele>
        <time>2020-08-12T07:12:39+02:00</time>
      </trkpt>
      <trkpt lat="45.17042" lon="6.44281">
        <ele>1731.1006</ele>
        <time>2020-08-12T07:12:43+02:00</time>
      </trkpt>
      <trkpt lat="45.17044" lon="6.44284">
        <ele>1731.1006</ele>
        <time>2020-08-12T07:12:44+02:00</time>
      </trkpt>
      <trkpt lat="45.17052" lon="6.44298">
        <ele>1733.4004</ele>
        <time>2020-08-12T07:12:48+02:00</time>
      </trkpt>
      <trkpt lat="45.17054" lon="6.44302">
        <ele>1733.4004</ele>
        <time>2020-08-12T07:12:49+02:00</time>
      </trkpt>
      <trkpt lat="45.17067" lon="6.44318">
        <ele>1732.4004</ele>
        <time>2020-08-12T07:12:53+02:00</time>
      </trkpt>
      <trkpt lat="45.17072" lon="6.44321">
        <ele>1732.4004</ele>
        <time>2020-08-12T07:12:54+02:00</time>
      </trkpt>
      <trkpt lat="45.17089" lon="6.44336">
        <ele>1731.9004</ele>
        <time>2020-08-12T07:12:58+02:00</time>
      </trkpt>
      <trkpt lat="45.17094" lon="6.44341">
        <ele>1732.6006</ele>
        <time>2020-08-12T07:12:59+02:00</time>
      </trkpt>
      <trkpt lat="45.17115" lon="6.44348">
        <ele>1729.7998</ele>
        <time>2020-08-12T07:13:03+02:00</time>
      </trkpt>
      <trkpt lat="45.17119" lon="6.44347">
        <ele>1729.7998</ele>
        <time>2020-08-12T07:13:04+02:00</time>
      </trkpt>
      <trkpt lat="45.17129" lon="6.44344">
        <ele>1728.6006</ele>
        <time>2020-08-12T07:13:08+02:00</time>
      </trkpt>
      <trkpt lat="45.1713" lon="6.44344">
        <ele>1728.6006</ele>
        <time>2020-08-12T07:13:09+02:00</time>
      </trkpt>
      <trkpt lat="45.17137" lon="6.44348">
        <ele>1728.1006</ele>
        <time>2020-08-12T07:13:13+02:00</time>
      </trkpt>
      <trkpt lat="45.17138" lon="6.44349">
        <ele>1729.5</ele>
        <time>2020-08-12T07:13:14+02:00</time>
      </trkpt>
      <trkpt lat="45.17146" lon="6.44352">
        <ele>1728.7002</ele>
        <time>2020-08-12T07:13:18+02:00</time>
      </trkpt>
      <trkpt lat="45.17148" lon="6.44353">
        <ele>1728.7002</ele>
        <time>2020-08-12T07:13:19+02:00</time>
      </trkpt>
      <trkpt lat="45.17155" lon="6.44357">
        <ele>1728.4004</ele>
        <time>2020-08-12T07:13:23+02:00</time>
      </trkpt>
      <trkpt lat="45.17156" lon="6.44358">
        <ele>1729.7998</ele>
        <time>2020-08-12T07:13:24+02:00</time>
      </trkpt>
      <trkpt lat="45.17162" lon="6.44363">
        <ele>1729.5</ele>
        <time>2020-08-12T07:13:28+02:00</time>
      </trkpt>
      <trkpt lat="45.17163" lon="6.44364">
        <ele>1729.2002</ele>
        <time>2020-08-12T07:13:29+02:00</time>
      </trkpt>
      <trkpt lat="45.1717" lon="6.44367">
        <ele>1730.2998</ele>
        <time>2020-08-12T07:13:33+02:00</time>
      </trkpt>
      <trkpt lat="45.17172" lon="6.44367">
        <ele>1730.2998</ele>
        <time>2020-08-12T07:13:34+02:00</time>
      </trkpt>
      <trkpt lat="45.17178" lon="6.4437">
        <ele>1730.1006</ele>
        <time>2020-08-12T07:13:38+02:00</time>
      </trkpt>
      <trkpt lat="45.1718" lon="6.44371">
        <ele>1730.1006</ele>
        <time>2020-08-12T07:13:39+02:00</time>
      </trkpt>
      <trkpt lat="45.17187" lon="6.44376">
        <ele>1731.1006</ele>
        <time>2020-08-12T07:13:43+02:00</time>
      </trkpt>
      <trkpt lat="45.17188" lon="6.44378">
        <ele>1730.7002</ele>
        <time>2020-08-12T07:13:44+02:00</time>
      </trkpt>
      <trkpt lat="45.17192" lon="6.44386">
        <ele>1731.9004</ele>
        <time>2020-08-12T07:13:48+02:00</time>
      </trkpt>
      <trkpt lat="45.17193" lon="6.44388">
        <ele>1731.9004</ele>
        <time>2020-08-12T07:13:49+02:00</time>
      </trkpt>
      <trkpt lat="45.17196" lon="6.44397">
        <ele>1732.5</ele>
        <time>2020-08-12T07:13:53+02:00</time>
      </trkpt>
      <trkpt lat="45.17196" lon="6.44399">
        <ele>1732.5</ele>
        <time>2020-08-12T07:13:54+02:00</time>
      </trkpt>
      <trkpt lat="45.17198" lon="6.44409">
        <ele>1735.1006</ele>
        <time>2020-08-12T07:13:58+02:00</time>
      </trkpt>
      <trkpt lat="45.17199" lon="6.44411">
        <ele>1735.1006</ele>
        <time>2020-08-12T07:13:59+02:00</time>
      </trkpt>
      <trkpt lat="45.172" lon="6.44415">
        <ele>1734.6006</ele>
        <time>2020-08-12T07:14:03+02:00</time>
      </trkpt>
      <trkpt lat="45.172" lon="6.44416">
        <ele>1734.6006</ele>
        <time>2020-08-12T07:14:04+02:00</time>
      </trkpt>
      <trkpt lat="45.17201" lon="6.44423">
        <ele>1736</ele>
        <time>2020-08-12T07:14:08+02:00</time>
      </trkpt>
      <trkpt lat="45.17201" lon="6.44424">
        <ele>1736</ele>
        <time>2020-08-12T07:14:09+02:00</time>
      </trkpt>
      <trkpt lat="45.17203" lon="6.44428">
        <ele>1737.4004</ele>
        <time>2020-08-12T07:14:13+02:00</time>
      </trkpt>
      <trkpt lat="45.17203" lon="6.44429">
        <ele>1737.4004</ele>
        <time>2020-08-12T07:14:14+02:00</time>
      </trkpt>
      <trkpt lat="45.17206" lon="6.44434">
        <ele>1737</ele>
        <time>2020-08-12T07:14:18+02:00</time>
      </trkpt>
      <trkpt lat="45.17207" lon="6.44435">
        <ele>1738.5</ele>
        <time>2020-08-12T07:14:19+02:00</time>
      </trkpt>
      <trkpt lat="45.17211" lon="6.4444">
        <ele>1738.5</ele>
        <time>2020-08-12T07:14:23+02:00</time>
      </trkpt>
      <trkpt lat="45.17212" lon="6.44441">
        <ele>1738</ele>
        <time>2020-08-12T07:14:24+02:00</time>
      </trkpt>
      <trkpt lat="45.17218" lon="6.44444">
        <ele>1738.9004</ele>
        <time>2020-08-12T07:14:28+02:00</time>
      </trkpt>
      <trkpt lat="45.17219" lon="6.44445">
        <ele>1738.9004</ele>
        <time>2020-08-12T07:14:29+02:00</time>
      </trkpt>
      <trkpt lat="45.17225" lon="6.44447">
        <ele>1738.2998</ele>
        <time>2020-08-12T07:14:33+02:00</time>
      </trkpt>
      <trkpt lat="45.17227" lon="6.44448">
        <ele>1738.2998</ele>
        <time>2020-08-12T07:14:34+02:00</time>
      </trkpt>
      <trkpt lat="45.17237" lon="6.44454">
        <ele>1738.5</ele>
        <time>2020-08-12T07:14:38+02:00</time>
      </trkpt>
      <trkpt lat="45.17238" lon="6.44456">
        <ele>1738.5</ele>
        <time>2020-08-12T07:14:39+02:00</time>
      </trkpt>
      <trkpt lat="45.17245" lon="6.44468">
        <ele>1739.2998</ele>
        <time>2020-08-12T07:14:43+02:00</time>
      </trkpt>
      <trkpt lat="45.17247" lon="6.44471">
        <ele>1740.7002</ele>
        <time>2020-08-12T07:14:44+02:00</time>
      </trkpt>
      <trkpt lat="45.17257" lon="6.44482">
        <ele>1740.5</ele>
        <time>2020-08-12T07:14:48+02:00</time>
      </trkpt>
      <trkpt lat="45.17259" lon="6.44484">
        <ele>1740.5</ele>
        <time>2020-08-12T07:14:49+02:00</time>
      </trkpt>
      <trkpt lat="45.17265" lon="6.44492">
        <ele>1741.2002</ele>
        <time>2020-08-12T07:14:53+02:00</time>
      </trkpt>
      <trkpt lat="45.17266" lon="6.44494">
        <ele>1740.6006</ele>
        <time>2020-08-12T07:14:54+02:00</time>
      </trkpt>
      <trkpt lat="45.17274" lon="6.44499">
        <ele>1741.5</ele>
        <time>2020-08-12T07:14:58+02:00</time>
      </trkpt>
      <trkpt lat="45.17277" lon="6.445">
        <ele>1741.5</ele>
        <time>2020-08-12T07:14:59+02:00</time>
      </trkpt>
      <trkpt lat="45.17288" lon="6.44501">
        <ele>1740.4004</ele>
        <time>2020-08-12T07:15:03+02:00</time>
      </trkpt>
      <trkpt lat="45.17292" lon="6.44501">
        <ele>1739.7998</ele>
        <time>2020-08-12T07:15:04+02:00</time>
      </trkpt>
      <trkpt lat="45.17306" lon="6.44503">
        <ele>1739.9004</ele>
        <time>2020-08-12T07:15:08+02:00</time>
      </trkpt>
      <trkpt lat="45.1731" lon="6.44504">
        <ele>1739.2002</ele>
        <time>2020-08-12T07:15:09+02:00</time>
      </trkpt>
      <trkpt lat="45.17334" lon="6.44514">
        <ele>1738.2002</ele>
        <time>2020-08-12T07:15:13+02:00</time>
      </trkpt>
      <trkpt lat="45.1734" lon="6.44517">
        <ele>1737.5</ele>
        <time>2020-08-12T07:15:14+02:00</time>
      </trkpt>
      <trkpt lat="45.17365" lon="6.44524">
        <ele>1735.9004</ele>
        <time>2020-08-12T07:15:18+02:00</time>
      </trkpt>
      <trkpt lat="45.17371" lon="6.44526">
        <ele>1735.2998</ele>
        <time>2020-08-12T07:15:19+02:00</time>
      </trkpt>
      <trkpt lat="45.17392" lon="6.4454">
        <ele>1737.7998</ele>
        <time>2020-08-12T07:15:23+02:00</time>
      </trkpt>
      <trkpt lat="45.17399" lon="6.44547">
        <ele>1739.5</ele>
        <time>2020-08-12T07:15:24+02:00</time>
      </trkpt>
      <trkpt lat="45.17412" lon="6.44559">
        <ele>1740.4004</ele>
        <time>2020-08-12T07:15:28+02:00</time>
      </trkpt>
      <trkpt lat="45.17415" lon="6.4456">
        <ele>1740.4004</ele>
        <time>2020-08-12T07:15:29+02:00</time>
      </trkpt>
      <trkpt lat="45.1742" lon="6.44563">
        <ele>1742.5</ele>
        <time>2020-08-12T07:15:33+02:00</time>
      </trkpt>
      <trkpt lat="45.1742" lon="6.44564">
        <ele>1742.5</ele>
        <time>2020-08-12T07:15:34+02:00</time>
      </trkpt>
      <trkpt lat="45.17421" lon="6.44567">
        <ele>1742.5</ele>
        <time>2020-08-12T07:15:38+02:00</time>
      </trkpt>
      <trkpt lat="45.17421" lon="6.44567">
        <ele>1742.5</ele>
        <time>2020-08-12T07:15:39+02:00</time>
      </trkpt>
      <trkpt lat="45.17425" lon="6.44573">
        <ele>1744.7998</ele>
        <time>2020-08-12T07:15:43+02:00</time>
      </trkpt>
      <trkpt lat="45.17425" lon="6.44575">
        <ele>1744.7998</ele>
        <time>2020-08-12T07:15:44+02:00</time>
      </trkpt>
      <trkpt lat="45.17426" lon="6.44577">
        <ele>1744.7998</ele>
        <time>2020-08-12T07:15:48+02:00</time>
      </trkpt>
      <trkpt lat="45.17426" lon="6.44577">
        <ele>1744.7998</ele>
        <time>2020-08-12T07:15:49+02:00</time>
      </trkpt>
      <trkpt lat="45.17428" lon="6.44579">
        <ele>1744.7998</ele>
        <time>2020-08-12T07:15:53+02:00</time>
      </trkpt>
      <trkpt lat="45.17429" lon="6.4458">
        <ele>1744.7998</ele>
        <time>2020-08-12T07:15:54+02:00</time>
      </trkpt>
      <trkpt lat="45.17434" lon="6.44576">
        <ele>1744.4004</ele>
        <time>2020-08-12T07:15:58+02:00</time>
      </trkpt>
      <trkpt lat="45.17436" lon="6.44575">
        <ele>1744.1006</ele>
        <time>2020-08-12T07:15:59+02:00</time>
      </trkpt>
      <trkpt lat="45.17449" lon="6.44574">
        <ele>1743.6006</ele>
        <time>2020-08-12T07:16:03+02:00</time>
      </trkpt>
      <trkpt lat="45.17454" lon="6.44573">
        <ele>1743.2998</ele>
        <time>2020-08-12T07:16:04+02:00</time>
      </trkpt>
      <trkpt lat="45.17473" lon="6.44572">
        <ele>1742.6006</ele>
        <time>2020-08-12T07:16:08+02:00</time>
      </trkpt>
      <trkpt lat="45.17477" lon="6.44572">
        <ele>1742.6006</ele>
        <time>2020-08-12T07:16:09+02:00</time>
      </trkpt>
      <trkpt lat="45.17488" lon="6.44568">
        <ele>1738.7002</ele>
        <time>2020-08-12T07:16:13+02:00</time>
      </trkpt>
      <trkpt lat="45.17491" lon="6.44567">
        <ele>1738.2998</ele>
        <time>2020-08-12T07:16:14+02:00</time>
      </trkpt>
      <trkpt lat="45.17503" lon="6.4456">
        <ele>1734.1006</ele>
        <time>2020-08-12T07:16:18+02:00</time>
      </trkpt>
      <trkpt lat="45.17507" lon="6.44559">
        <ele>1734.1006</ele>
        <time>2020-08-12T07:16:19+02:00</time>
      </trkpt>
      <trkpt lat="45.17517" lon="6.44555">
        <ele>1733.2002</ele>
        <time>2020-08-12T07:16:23+02:00</time>
      </trkpt>
      <trkpt lat="45.17518" lon="6.44554">
        <ele>1729.7998</ele>
        <time>2020-08-12T07:16:24+02:00</time>
      </trkpt>
      <trkpt lat="45.17524" lon="6.4455">
        <ele>1729.4004</ele>
        <time>2020-08-12T07:16:28+02:00</time>
      </trkpt>
      <trkpt lat="45.17525" lon="6.44549">
        <ele>1729.4004</ele>
        <time>2020-08-12T07:16:29+02:00</time>
      </trkpt>
      <trkpt lat="45.17532" lon="6.44549">
        <ele>1728.5</ele>
        <time>2020-08-12T07:16:33+02:00</time>
      </trkpt>
      <trkpt lat="45.17534" lon="6.4455">
        <ele>1728.5</ele>
        <time>2020-08-12T07:16:34+02:00</time>
      </trkpt>
      <trkpt lat="45.17544" lon="6.44549">
        <ele>1728.1006</ele>
        <time>2020-08-12T07:16:38+02:00</time>
      </trkpt>
      <trkpt lat="45.17546" lon="6.44549">
        <ele>1727.7998</ele>
        <time>2020-08-12T07:16:39+02:00</time>
      </trkpt>
      <trkpt lat="45.17554" lon="6.44553">
        <ele>1727.4004</ele>
        <time>2020-08-12T07:16:43+02:00</time>
      </trkpt>
      <trkpt lat="45.17556" lon="6.44554">
        <ele>1726.9004</ele>
        <time>2020-08-12T07:16:44+02:00</time>
      </trkpt>
      <trkpt lat="45.17565" lon="6.44558">
        <ele>1729.2998</ele>
        <time>2020-08-12T07:16:48+02:00</time>
      </trkpt>
      <trkpt lat="45.17568" lon="6.44559">
        <ele>1729.2998</ele>
        <time>2020-08-12T07:16:49+02:00</time>
      </trkpt>
      <trkpt lat="45.1758" lon="6.44561">
        <ele>1728</ele>
        <time>2020-08-12T07:16:53+02:00</time>
      </trkpt>
      <trkpt lat="45.17583" lon="6.44561">
        <ele>1727.4004</ele>
        <time>2020-08-12T07:16:54+02:00</time>
      </trkpt>
      <trkpt lat="45.17591" lon="6.44554">
        <ele>1724.1006</ele>
        <time>2020-08-12T07:16:58+02:00</time>
      </trkpt>
      <trkpt lat="45.17593" lon="6.44552">
        <ele>1723.7002</ele>
        <time>2020-08-12T07:16:59+02:00</time>
      </trkpt>
      <trkpt lat="45.176" lon="6.44552">
        <ele>1723.2998</ele>
        <time>2020-08-12T07:17:03+02:00</time>
      </trkpt>
      <trkpt lat="45.17601" lon="6.44553">
        <ele>1723.2998</ele>
        <time>2020-08-12T07:17:04+02:00</time>
      </trkpt>
      <trkpt lat="45.17606" lon="6.44548">
        <ele>1722.9004</ele>
        <time>2020-08-12T07:17:08+02:00</time>
      </trkpt>
      <trkpt lat="45.17608" lon="6.44547">
        <ele>1722.9004</ele>
        <time>2020-08-12T07:17:09+02:00</time>
      </trkpt>
      <trkpt lat="45.17612" lon="6.44543">
        <ele>1720.2998</ele>
        <time>2020-08-12T07:17:13+02:00</time>
      </trkpt>
      <trkpt lat="45.17613" lon="6.44541">
        <ele>1720.2998</ele>
        <time>2020-08-12T07:17:14+02:00</time>
      </trkpt>
      <trkpt lat="45.17619" lon="6.44535">
        <ele>1717.9004</ele>
        <time>2020-08-12T07:17:18+02:00</time>
      </trkpt>
      <trkpt lat="45.1762" lon="6.44533">
        <ele>1717.9004</ele>
        <time>2020-08-12T07:17:19+02:00</time>
      </trkpt>
      <trkpt lat="45.17622" lon="6.44528">
        <ele>1715.7002</ele>
        <time>2020-08-12T07:17:23+02:00</time>
      </trkpt>
      <trkpt lat="45.17623" lon="6.44526">
        <ele>1715.7002</ele>
        <time>2020-08-12T07:17:24+02:00</time>
      </trkpt>
      <trkpt lat="45.17626" lon="6.44521">
        <ele>1715.7002</ele>
        <time>2020-08-12T07:17:28+02:00</time>
      </trkpt>
      <trkpt lat="45.17627" lon="6.44519">
        <ele>1713.6006</ele>
        <time>2020-08-12T07:17:29+02:00</time>
      </trkpt>
      <trkpt lat="45.17632" lon="6.44512">
        <ele>1713.7998</ele>
        <time>2020-08-12T07:17:33+02:00</time>
      </trkpt>
      <trkpt lat="45.17633" lon="6.4451">
        <ele>1711.7998</ele>
        <time>2020-08-12T07:17:34+02:00</time>
      </trkpt>
      <trkpt lat="45.17636" lon="6.44499">
        <ele>1710.2998</ele>
        <time>2020-08-12T07:17:38+02:00</time>
      </trkpt>
      <trkpt lat="45.17637" lon="6.44497">
        <ele>1710.2998</ele>
        <time>2020-08-12T07:17:39+02:00</time>
      </trkpt>
      <trkpt lat="45.17641" lon="6.44491">
        <ele>1709</ele>
        <time>2020-08-12T07:17:43+02:00</time>
      </trkpt>
      <trkpt lat="45.17643" lon="6.4449">
        <ele>1709</ele>
        <time>2020-08-12T07:17:44+02:00</time>
      </trkpt>
      <trkpt lat="45.17648" lon="6.44484">
        <ele>1707.7002</ele>
        <time>2020-08-12T07:17:48+02:00</time>
      </trkpt>
      <trkpt lat="45.17648" lon="6.44484">
        <ele>1707.7002</ele>
        <time>2020-08-12T07:17:49+02:00</time>
      </trkpt>
      <trkpt lat="45.1765" lon="6.44484">
        <ele>1707.7002</ele>
        <time>2020-08-12T07:17:53+02:00</time>
      </trkpt>
      <trkpt lat="45.1765" lon="6.44484">
        <ele>1707.7002</ele>
        <time>2020-08-12T07:17:54+02:00</time>
      </trkpt>
      <trkpt lat="45.17651" lon="6.44481">
        <ele>1707.7002</ele>
        <time>2020-08-12T07:17:58+02:00</time>
      </trkpt>
      <trkpt lat="45.17652" lon="6.4448">
        <ele>1707.7002</ele>
        <time>2020-08-12T07:17:59+02:00</time>
      </trkpt>
      <trkpt lat="45.17657" lon="6.44475">
        <ele>1706.5</ele>
        <time>2020-08-12T07:18:03+02:00</time>
      </trkpt>
      <trkpt lat="45.17658" lon="6.44475">
        <ele>1706.5</ele>
        <time>2020-08-12T07:18:04+02:00</time>
      </trkpt>
      <trkpt lat="45.17659" lon="6.44472">
        <ele>1706.5</ele>
        <time>2020-08-12T07:18:08+02:00</time>
      </trkpt>
      <trkpt lat="45.1766" lon="6.44471">
        <ele>1706.9004</ele>
        <time>2020-08-12T07:18:09+02:00</time>
      </trkpt>
      <trkpt lat="45.17664" lon="6.44467">
        <ele>1705.2998</ele>
        <time>2020-08-12T07:18:13+02:00</time>
      </trkpt>
      <trkpt lat="45.17665" lon="6.44467">
        <ele>1705.2998</ele>
        <time>2020-08-12T07:18:14+02:00</time>
      </trkpt>
      <trkpt lat="45.1767" lon="6.44464">
        <ele>1705.9004</ele>
        <time>2020-08-12T07:18:18+02:00</time>
      </trkpt>
      <trkpt lat="45.17672" lon="6.44463">
        <ele>1706.6006</ele>
        <time>2020-08-12T07:18:19+02:00</time>
      </trkpt>
      <trkpt lat="45.1768" lon="6.44459">
        <ele>1705.7998</ele>
        <time>2020-08-12T07:18:23+02:00</time>
      </trkpt>
      <trkpt lat="45.17682" lon="6.44458">
        <ele>1705.7998</ele>
        <time>2020-08-12T07:18:24+02:00</time>
      </trkpt>
      <trkpt lat="45.1769" lon="6.44452">
        <ele>1707.2998</ele>
        <time>2020-08-12T07:18:28+02:00</time>
      </trkpt>
      <trkpt lat="45.17693" lon="6.4445">
        <ele>1705.6006</ele>
        <time>2020-08-12T07:18:29+02:00</time>
      </trkpt>
      <trkpt lat="45.17703" lon="6.44446">
        <ele>1707.1006</ele>
        <time>2020-08-12T07:18:33+02:00</time>
      </trkpt>
      <trkpt lat="45.17705" lon="6.44445">
        <ele>1707.1006</ele>
        <time>2020-08-12T07:18:34+02:00</time>
      </trkpt>
      <trkpt lat="45.17711" lon="6.44442">
        <ele>1706.1006</ele>
        <time>2020-08-12T07:18:38+02:00</time>
      </trkpt>
      <trkpt lat="45.17712" lon="6.44441">
        <ele>1706.1006</ele>
        <time>2020-08-12T07:18:39+02:00</time>
      </trkpt>
      <trkpt lat="45.17721" lon="6.44437">
        <ele>1707.6006</ele>
        <time>2020-08-12T07:18:43+02:00</time>
      </trkpt>
      <trkpt lat="45.17723" lon="6.44436">
        <ele>1707.6006</ele>
        <time>2020-08-12T07:18:44+02:00</time>
      </trkpt>
      <trkpt lat="45.17728" lon="6.44432">
        <ele>1706.5</ele>
        <time>2020-08-12T07:18:48+02:00</time>
      </trkpt>
      <trkpt lat="45.1773" lon="6.44431">
        <ele>1706.5</ele>
        <time>2020-08-12T07:18:49+02:00</time>
      </trkpt>
      <trkpt lat="45.17737" lon="6.44427">
        <ele>1707.2998</ele>
        <time>2020-08-12T07:18:53+02:00</time>
      </trkpt>
      <trkpt lat="45.17739" lon="6.44426">
        <ele>1708</ele>
        <time>2020-08-12T07:18:54+02:00</time>
      </trkpt>
      <trkpt lat="45.17745" lon="6.44423">
        <ele>1706.7002</ele>
        <time>2020-08-12T07:18:58+02:00</time>
      </trkpt>
      <trkpt lat="45.17747" lon="6.44423">
        <ele>1706.7002</ele>
        <time>2020-08-12T07:18:59+02:00</time>
      </trkpt>
      <trkpt lat="45.17753" lon="6.44419">
        <ele>1707.5</ele>
        <time>2020-08-12T07:19:03+02:00</time>
      </trkpt>
      <trkpt lat="45.17754" lon="6.44419">
        <ele>1707.5</ele>
        <time>2020-08-12T07:19:04+02:00</time>
      </trkpt>
      <trkpt lat="45.17761" lon="6.44414">
        <ele>1706.1006</ele>
        <time>2020-08-12T07:19:08+02:00</time>
      </trkpt>
      <trkpt lat="45.17763" lon="6.44413">
        <ele>1706.7998</ele>
        <time>2020-08-12T07:19:09+02:00</time>
      </trkpt>
      <trkpt lat="45.17769" lon="6.44409">
        <ele>1707.7002</ele>
        <time>2020-08-12T07:19:13+02:00</time>
      </trkpt>
      <trkpt lat="45.1777" lon="6.44408">
        <ele>1705.4004</ele>
        <time>2020-08-12T07:19:14+02:00</time>
      </trkpt>
      <trkpt lat="45.17777" lon="6.44403">
        <ele>1706.2002</ele>
        <time>2020-08-12T07:19:18+02:00</time>
      </trkpt>
      <trkpt lat="45.17779" lon="6.44402">
        <ele>1706.2002</ele>
        <time>2020-08-12T07:19:19+02:00</time>
      </trkpt>
      <trkpt lat="45.17782" lon="6.44401">
        <ele>1707</ele>
        <time>2020-08-12T07:19:23+02:00</time>
      </trkpt>
      <trkpt lat="45.17783" lon="6.44401">
        <ele>1707</ele>
        <time>2020-08-12T07:19:24+02:00</time>
      </trkpt>
      <trkpt lat="45.17788" lon="6.44395">
        <ele>1705.5</ele>
        <time>2020-08-12T07:19:28+02:00</time>
      </trkpt>
      <trkpt lat="45.17791" lon="6.44393">
        <ele>1705.5</ele>
        <time>2020-08-12T07:19:29+02:00</time>
      </trkpt>
      <trkpt lat="45.178" lon="6.4439">
        <ele>1704.5</ele>
        <time>2020-08-12T07:19:33+02:00</time>
      </trkpt>
      <trkpt lat="45.17802" lon="6.4439">
        <ele>1704.5</ele>
        <time>2020-08-12T07:19:34+02:00</time>
      </trkpt>
      <trkpt lat="45.17809" lon="6.4439">
        <ele>1705.1006</ele>
        <time>2020-08-12T07:19:38+02:00</time>
      </trkpt>
      <trkpt lat="45.1781" lon="6.4439">
        <ele>1705.1006</ele>
        <time>2020-08-12T07:19:39+02:00</time>
      </trkpt>
      <trkpt lat="45.17817" lon="6.44391">
        <ele>1708.7002</ele>
        <time>2020-08-12T07:19:43+02:00</time>
      </trkpt>
      <trkpt lat="45.17819" lon="6.44392">
        <ele>1708.7002</ele>
        <time>2020-08-12T07:19:44+02:00</time>
      </trkpt>
      <trkpt lat="45.17832" lon="6.44393">
        <ele>1709.5</ele>
        <time>2020-08-12T07:19:48+02:00</time>
      </trkpt>
      <trkpt lat="45.17835" lon="6.44394">
        <ele>1709.7002</ele>
        <time>2020-08-12T07:19:49+02:00</time>
      </trkpt>
      <trkpt lat="45.17845" lon="6.44394">
        <ele>1709.9004</ele>
        <time>2020-08-12T07:19:53+02:00</time>
      </trkpt>
      <trkpt lat="45.17847" lon="6.44392">
        <ele>1709.9004</ele>
        <time>2020-08-12T07:19:54+02:00</time>
      </trkpt>
      <trkpt lat="45.17857" lon="6.44391">
        <ele>1707.4004</ele>
        <time>2020-08-12T07:19:58+02:00</time>
      </trkpt>
      <trkpt lat="45.17858" lon="6.44392">
        <ele>1709.9004</ele>
        <time>2020-08-12T07:19:59+02:00</time>
      </trkpt>
      <trkpt lat="45.17864" lon="6.44393">
        <ele>1709.9004</ele>
        <time>2020-08-12T07:20:03+02:00</time>
      </trkpt>
      <trkpt lat="45.17866" lon="6.44394">
        <ele>1709.7998</ele>
        <time>2020-08-12T07:20:04+02:00</time>
      </trkpt>
      <trkpt lat="45.17873" lon="6.4439">
        <ele>1707.2002</ele>
        <time>2020-08-12T07:20:08+02:00</time>
      </trkpt>
      <trkpt lat="45.17876" lon="6.44389">
        <ele>1707.2002</ele>
        <time>2020-08-12T07:20:09+02:00</time>
      </trkpt>
      <trkpt lat="45.17887" lon="6.44384">
        <ele>1706.9004</ele>
        <time>2020-08-12T07:20:13+02:00</time>
      </trkpt>
      <trkpt lat="45.17889" lon="6.44383">
        <ele>1706.7002</ele>
        <time>2020-08-12T07:20:14+02:00</time>
      </trkpt>
      <trkpt lat="45.17895" lon="6.4438">
        <ele>1703.7998</ele>
        <time>2020-08-12T07:20:18+02:00</time>
      </trkpt>
      <trkpt lat="45.17896" lon="6.4438">
        <ele>1703.7998</ele>
        <time>2020-08-12T07:20:19+02:00</time>
      </trkpt>
      <trkpt lat="45.17902" lon="6.44381">
        <ele>1703.4004</ele>
        <time>2020-08-12T07:20:23+02:00</time>
      </trkpt>
      <trkpt lat="45.17903" lon="6.4438">
        <ele>1703.4004</ele>
        <time>2020-08-12T07:20:24+02:00</time>
      </trkpt>
      <trkpt lat="45.17906" lon="6.44378">
        <ele>1703.4004</ele>
        <time>2020-08-12T07:20:28+02:00</time>
      </trkpt>
      <trkpt lat="45.17907" lon="6.44377">
        <ele>1703.4004</ele>
        <time>2020-08-12T07:20:29+02:00</time>
      </trkpt>
      <trkpt lat="45.17911" lon="6.44374">
        <ele>1703.1006</ele>
        <time>2020-08-12T07:20:33+02:00</time>
      </trkpt>
      <trkpt lat="45.17912" lon="6.44375">
        <ele>1703.1006</ele>
        <time>2020-08-12T07:20:34+02:00</time>
      </trkpt>
      <trkpt lat="45.17917" lon="6.44377">
        <ele>1702.6006</ele>
        <time>2020-08-12T07:20:38+02:00</time>
      </trkpt>
      <trkpt lat="45.17918" lon="6.44376">
        <ele>1702.6006</ele>
        <time>2020-08-12T07:20:39+02:00</time>
      </trkpt>
      <trkpt lat="45.17921" lon="6.44374">
        <ele>1702.2002</ele>
        <time>2020-08-12T07:20:43+02:00</time>
      </trkpt>
      <trkpt lat="45.17922" lon="6.44375">
        <ele>1702.2002</ele>
        <time>2020-08-12T07:20:44+02:00</time>
      </trkpt>
      <trkpt lat="45.17926" lon="6.44377">
        <ele>1701.7002</ele>
        <time>2020-08-12T07:20:48+02:00</time>
      </trkpt>
      <trkpt lat="45.17926" lon="6.44377">
        <ele>1701.7002</ele>
        <time>2020-08-12T07:20:49+02:00</time>
      </trkpt>
      <trkpt lat="45.17927" lon="6.4438">
        <ele>1701.7002</ele>
        <time>2020-08-12T07:20:53+02:00</time>
      </trkpt>
      <trkpt lat="45.17928" lon="6.4438">
        <ele>1701.7002</ele>
        <time>2020-08-12T07:20:54+02:00</time>
      </trkpt>
      <trkpt lat="45.1793" lon="6.4438">
        <ele>1701.7002</ele>
        <time>2020-08-12T07:20:58+02:00</time>
      </trkpt>
      <trkpt lat="45.17931" lon="6.44381">
        <ele>1701.7002</ele>
        <time>2020-08-12T07:20:59+02:00</time>
      </trkpt>
      <trkpt lat="45.17933" lon="6.44382">
        <ele>1701.2002</ele>
        <time>2020-08-12T07:21:03+02:00</time>
      </trkpt>
      <trkpt lat="45.17934" lon="6.44381">
        <ele>1701.2002</ele>
        <time>2020-08-12T07:21:04+02:00</time>
      </trkpt>
      <trkpt lat="45.17937" lon="6.4438">
        <ele>1701.2002</ele>
        <time>2020-08-12T07:21:08+02:00</time>
      </trkpt>
      <trkpt lat="45.17938" lon="6.4438">
        <ele>1700.5</ele>
        <time>2020-08-12T07:21:09+02:00</time>
      </trkpt>
      <trkpt lat="45.17943" lon="6.44378">
        <ele>1700.5</ele>
        <time>2020-08-12T07:21:13+02:00</time>
      </trkpt>
      <trkpt lat="45.17944" lon="6.44377">
        <ele>1699.7998</ele>
        <time>2020-08-12T07:21:14+02:00</time>
      </trkpt>
      <trkpt lat="45.17949" lon="6.44376">
        <ele>1699.7998</ele>
        <time>2020-08-12T07:21:18+02:00</time>
      </trkpt>
      <trkpt lat="45.17951" lon="6.44376">
        <ele>1699</ele>
        <time>2020-08-12T07:21:19+02:00</time>
      </trkpt>
      <trkpt lat="45.17958" lon="6.44378">
        <ele>1698.2002</ele>
        <time>2020-08-12T07:21:23+02:00</time>
      </trkpt>
      <trkpt lat="45.17959" lon="6.44378">
        <ele>1698.2002</ele>
        <time>2020-08-12T07:21:24+02:00</time>
      </trkpt>
      <trkpt lat="45.17964" lon="6.44377">
        <ele>1697.4004</ele>
        <time>2020-08-12T07:21:28+02:00</time>
      </trkpt>
      <trkpt lat="45.17966" lon="6.44377">
        <ele>1697.4004</ele>
        <time>2020-08-12T07:21:29+02:00</time>
      </trkpt>
      <trkpt lat="45.17972" lon="6.44373">
        <ele>1693.6006</ele>
        <time>2020-08-12T07:21:33+02:00</time>
      </trkpt>
      <trkpt lat="45.17973" lon="6.44372">
        <ele>1693.6006</ele>
        <time>2020-08-12T07:21:34+02:00</time>
      </trkpt>
      <trkpt lat="45.1798" lon="6.4437">
        <ele>1692</ele>
        <time>2020-08-12T07:21:38+02:00</time>
      </trkpt>
      <trkpt lat="45.17982" lon="6.44369">
        <ele>1692</ele>
        <time>2020-08-12T07:21:39+02:00</time>
      </trkpt>
      <trkpt lat="45.17987" lon="6.44369">
        <ele>1691.2002</ele>
        <time>2020-08-12T07:21:43+02:00</time>
      </trkpt>
      <trkpt lat="45.17988" lon="6.44369">
        <ele>1691.2002</ele>
        <time>2020-08-12T07:21:44+02:00</time>
      </trkpt>
      <trkpt lat="45.17992" lon="6.44367">
        <ele>1691.2002</ele>
        <time>2020-08-12T07:21:48+02:00</time>
      </trkpt>
      <trkpt lat="45.17993" lon="6.44368">
        <ele>1690.5</ele>
        <time>2020-08-12T07:21:49+02:00</time>
      </trkpt>
      <trkpt lat="45.17996" lon="6.44371">
        <ele>1690.5</ele>
        <time>2020-08-12T07:21:53+02:00</time>
      </trkpt>
      <trkpt lat="45.17997" lon="6.44372">
        <ele>1690.5</ele>
        <time>2020-08-12T07:21:54+02:00</time>
      </trkpt>
      <trkpt lat="45.18" lon="6.44374">
        <ele>1689.9004</ele>
        <time>2020-08-12T07:21:58+02:00</time>
      </trkpt>
      <trkpt lat="45.18001" lon="6.44373">
        <ele>1689.9004</ele>
        <time>2020-08-12T07:21:59+02:00</time>
      </trkpt>
      <trkpt lat="45.18004" lon="6.44377">
        <ele>1692.6006</ele>
        <time>2020-08-12T07:22:03+02:00</time>
      </trkpt>
      <trkpt lat="45.18005" lon="6.44378">
        <ele>1692.6006</ele>
        <time>2020-08-12T07:22:04+02:00</time>
      </trkpt>
      <trkpt lat="45.18009" lon="6.44379">
        <ele>1692.6006</ele>
        <time>2020-08-12T07:22:08+02:00</time>
      </trkpt>
      <trkpt lat="45.1801" lon="6.44379">
        <ele>1692.2002</ele>
        <time>2020-08-12T07:22:09+02:00</time>
      </trkpt>
      <trkpt lat="45.18014" lon="6.4438">
        <ele>1692.2002</ele>
        <time>2020-08-12T07:22:13+02:00</time>
      </trkpt>
      <trkpt lat="45.18015" lon="6.4438">
        <ele>1692.2002</ele>
        <time>2020-08-12T07:22:14+02:00</time>
      </trkpt>
      <trkpt lat="45.1802" lon="6.4438">
        <ele>1691.9004</ele>
        <time>2020-08-12T07:22:18+02:00</time>
      </trkpt>
      <trkpt lat="45.18021" lon="6.4438">
        <ele>1691.9004</ele>
        <time>2020-08-12T07:22:19+02:00</time>
      </trkpt>
      <trkpt lat="45.18025" lon="6.44377">
        <ele>1691.6006</ele>
        <time>2020-08-12T07:22:23+02:00</time>
      </trkpt>
      <trkpt lat="45.18026" lon="6.44377">
        <ele>1691.6006</ele>
        <time>2020-08-12T07:22:24+02:00</time>
      </trkpt>
      <trkpt lat="45.1803" lon="6.44376">
        <ele>1691.2002</ele>
        <time>2020-08-12T07:22:28+02:00</time>
      </trkpt>
      <trkpt lat="45.18031" lon="6.44375">
        <ele>1691.2002</ele>
        <time>2020-08-12T07:22:29+02:00</time>
      </trkpt>
      <trkpt lat="45.18035" lon="6.44373">
        <ele>1687.6006</ele>
        <time>2020-08-12T07:22:33+02:00</time>
      </trkpt>
      <trkpt lat="45.18036" lon="6.44372">
        <ele>1687.6006</ele>
        <time>2020-08-12T07:22:34+02:00</time>
      </trkpt>
      <trkpt lat="45.18043" lon="6.44372">
        <ele>1687.2998</ele>
        <time>2020-08-12T07:22:38+02:00</time>
      </trkpt>
      <trkpt lat="45.18045" lon="6.44372">
        <ele>1687.2998</ele>
        <time>2020-08-12T07:22:39+02:00</time>
      </trkpt>
      <trkpt lat="45.18049" lon="6.44374">
        <ele>1687.1006</ele>
        <time>2020-08-12T07:22:43+02:00</time>
      </trkpt>
      <trkpt lat="45.1805" lon="6.44374">
        <ele>1690.4004</ele>
        <time>2020-08-12T07:22:44+02:00</time>
      </trkpt>
      <trkpt lat="45.18053" lon="6.44377">
        <ele>1690.2002</ele>
        <time>2020-08-12T07:22:48+02:00</time>
      </trkpt>
      <trkpt lat="45.18054" lon="6.44377">
        <ele>1690.2002</ele>
        <time>2020-08-12T07:22:49+02:00</time>
      </trkpt>
      <trkpt lat="45.18056" lon="6.44379">
        <ele>1690.2002</ele>
        <time>2020-08-12T07:22:53+02:00</time>
      </trkpt>
      <trkpt lat="45.18056" lon="6.44379">
        <ele>1690.2002</ele>
        <time>2020-08-12T07:22:54+02:00</time>
      </trkpt>
      <trkpt lat="45.1806" lon="6.44383">
        <ele>1693.2998</ele>
        <time>2020-08-12T07:22:58+02:00</time>
      </trkpt>
      <trkpt lat="45.1806" lon="6.44384">
        <ele>1693.2998</ele>
        <time>2020-08-12T07:22:59+02:00</time>
      </trkpt>
      <trkpt lat="45.18063" lon="6.44384">
        <ele>1693.2998</ele>
        <time>2020-08-12T07:23:03+02:00</time>
      </trkpt>
      <trkpt lat="45.18063" lon="6.44384">
        <ele>1693.2998</ele>
        <time>2020-08-12T07:23:04+02:00</time>
      </trkpt>
      <trkpt lat="45.18066" lon="6.44384">
        <ele>1693.1006</ele>
        <time>2020-08-12T07:23:08+02:00</time>
      </trkpt>
      <trkpt lat="45.18066" lon="6.44384">
        <ele>1693.1006</ele>
        <time>2020-08-12T07:23:09+02:00</time>
      </trkpt>
      <trkpt lat="45.18069" lon="6.44386">
        <ele>1693.1006</ele>
        <time>2020-08-12T07:23:13+02:00</time>
      </trkpt>
      <trkpt lat="45.1807" lon="6.44386">
        <ele>1693.1006</ele>
        <time>2020-08-12T07:23:14+02:00</time>
      </trkpt>
      <trkpt lat="45.18073" lon="6.44386">
        <ele>1693</ele>
        <time>2020-08-12T07:23:18+02:00</time>
      </trkpt>
      <trkpt lat="45.18073" lon="6.44385">
        <ele>1693</ele>
        <time>2020-08-12T07:23:19+02:00</time>
      </trkpt>
      <trkpt lat="45.18074" lon="6.44385">
        <ele>1693</ele>
        <time>2020-08-12T07:23:23+02:00</time>
      </trkpt>
      <trkpt lat="45.18074" lon="6.44384">
        <ele>1693</ele>
        <time>2020-08-12T07:23:24+02:00</time>
      </trkpt>
      <trkpt lat="45.18075" lon="6.44383">
        <ele>1693</ele>
        <time>2020-08-12T07:23:28+02:00</time>
      </trkpt>
      <trkpt lat="45.18075" lon="6.44382">
        <ele>1689.7998</ele>
        <time>2020-08-12T07:23:29+02:00</time>
      </trkpt>
      <trkpt lat="45.1808" lon="6.44382">
        <ele>1689.7002</ele>
        <time>2020-08-12T07:23:33+02:00</time>
      </trkpt>
      <trkpt lat="45.18081" lon="6.44382">
        <ele>1689.7002</ele>
        <time>2020-08-12T07:23:34+02:00</time>
      </trkpt>
      <trkpt lat="45.18085" lon="6.44383">
        <ele>1692.7002</ele>
        <time>2020-08-12T07:23:38+02:00</time>
      </trkpt>
      <trkpt lat="45.18086" lon="6.44383">
        <ele>1692.7002</ele>
        <time>2020-08-12T07:23:39+02:00</time>
      </trkpt>
      <trkpt lat="45.18088" lon="6.44383">
        <ele>1692.7002</ele>
        <time>2020-08-12T07:23:43+02:00</time>
      </trkpt>
      <trkpt lat="45.18089" lon="6.44383">
        <ele>1692.5</ele>
        <time>2020-08-12T07:23:44+02:00</time>
      </trkpt>
      <trkpt lat="45.18094" lon="6.44381">
        <ele>1689.5</ele>
        <time>2020-08-12T07:23:48+02:00</time>
      </trkpt>
      <trkpt lat="45.18095" lon="6.44382">
        <ele>1689.4004</ele>
        <time>2020-08-12T07:23:49+02:00</time>
      </trkpt>
      <trkpt lat="45.18101" lon="6.44383">
        <ele>1692.2998</ele>
        <time>2020-08-12T07:23:53+02:00</time>
      </trkpt>
      <trkpt lat="45.18103" lon="6.44383">
        <ele>1692.2998</ele>
        <time>2020-08-12T07:23:54+02:00</time>
      </trkpt>
      <trkpt lat="45.18107" lon="6.44383">
        <ele>1692.2998</ele>
        <time>2020-08-12T07:23:58+02:00</time>
      </trkpt>
      <trkpt lat="45.18108" lon="6.44382">
        <ele>1689.2002</ele>
        <time>2020-08-12T07:23:59+02:00</time>
      </trkpt>
      <trkpt lat="45.18113" lon="6.44379">
        <ele>1689.1006</ele>
        <time>2020-08-12T07:24:03+02:00</time>
      </trkpt>
      <trkpt lat="45.18114" lon="6.44379">
        <ele>1689.1006</ele>
        <time>2020-08-12T07:24:04+02:00</time>
      </trkpt>
      <trkpt lat="45.1812" lon="6.44384">
        <ele>1692</ele>
        <time>2020-08-12T07:24:08+02:00</time>
      </trkpt>
      <trkpt lat="45.18121" lon="6.44385">
        <ele>1692</ele>
        <time>2020-08-12T07:24:09+02:00</time>
      </trkpt>
      <trkpt lat="45.18122" lon="6.44387">
        <ele>1692</ele>
        <time>2020-08-12T07:24:13+02:00</time>
      </trkpt>
      <trkpt lat="45.18123" lon="6.44387">
        <ele>1692</ele>
        <time>2020-08-12T07:24:14+02:00</time>
      </trkpt>
      <trkpt lat="45.18126" lon="6.4439">
        <ele>1692</ele>
        <time>2020-08-12T07:24:18+02:00</time>
      </trkpt>
      <trkpt lat="45.18126" lon="6.44392">
        <ele>1694.9004</ele>
        <time>2020-08-12T07:24:19+02:00</time>
      </trkpt>
      <trkpt lat="45.18128" lon="6.44394">
        <ele>1694.9004</ele>
        <time>2020-08-12T07:24:23+02:00</time>
      </trkpt>
      <trkpt lat="45.18129" lon="6.44394">
        <ele>1694.9004</ele>
        <time>2020-08-12T07:24:24+02:00</time>
      </trkpt>
      <trkpt lat="45.18133" lon="6.44396">
        <ele>1694.7998</ele>
        <time>2020-08-12T07:24:28+02:00</time>
      </trkpt>
      <trkpt lat="45.18133" lon="6.44396">
        <ele>1694.7998</ele>
        <time>2020-08-12T07:24:29+02:00</time>
      </trkpt>
      <trkpt lat="45.18134" lon="6.44395">
        <ele>1694.7998</ele>
        <time>2020-08-12T07:24:33+02:00</time>
      </trkpt>
      <trkpt lat="45.18134" lon="6.44394">
        <ele>1694.7998</ele>
        <time>2020-08-12T07:24:34+02:00</time>
      </trkpt>
      <trkpt lat="45.18135" lon="6.44392">
        <ele>1694.7998</ele>
        <time>2020-08-12T07:24:38+02:00</time>
      </trkpt>
      <trkpt lat="45.18135" lon="6.44391">
        <ele>1694.7998</ele>
        <time>2020-08-12T07:24:39+02:00</time>
      </trkpt>
      <trkpt lat="45.18138" lon="6.44389">
        <ele>1691.7998</ele>
        <time>2020-08-12T07:24:43+02:00</time>
      </trkpt>
      <trkpt lat="45.18139" lon="6.44389">
        <ele>1691.7998</ele>
        <time>2020-08-12T07:24:44+02:00</time>
      </trkpt>
      <trkpt lat="45.1814" lon="6.44388">
        <ele>1691.7998</ele>
        <time>2020-08-12T07:24:48+02:00</time>
      </trkpt>
      <trkpt lat="45.1814" lon="6.44388">
        <ele>1691.7998</ele>
        <time>2020-08-12T07:24:49+02:00</time>
      </trkpt>
      <trkpt lat="45.1814" lon="6.44387">
        <ele>1691.7998</ele>
        <time>2020-08-12T07:24:53+02:00</time>
      </trkpt>
      <trkpt lat="45.1814" lon="6.44387">
        <ele>1691.7998</ele>
        <time>2020-08-12T07:24:54+02:00</time>
      </trkpt>
      <trkpt lat="45.18145" lon="6.44388">
        <ele>1691.7998</ele>
        <time>2020-08-12T07:24:58+02:00</time>
      </trkpt>
      <trkpt lat="45.18147" lon="6.44388">
        <ele>1691.7998</ele>
        <time>2020-08-12T07:24:59+02:00</time>
      </trkpt>
      <trkpt lat="45.18153" lon="6.44389">
        <ele>1691.7002</ele>
        <time>2020-08-12T07:25:03+02:00</time>
      </trkpt>
      <trkpt lat="45.18154" lon="6.44389">
        <ele>1691.7002</ele>
        <time>2020-08-12T07:25:04+02:00</time>
      </trkpt>
      <trkpt lat="45.18159" lon="6.44389">
        <ele>1691.7002</ele>
        <time>2020-08-12T07:25:08+02:00</time>
      </trkpt>
      <trkpt lat="45.1816" lon="6.4439">
        <ele>1691.7002</ele>
        <time>2020-08-12T07:25:09+02:00</time>
      </trkpt>
      <trkpt lat="45.18166" lon="6.44394">
        <ele>1694.7998</ele>
        <time>2020-08-12T07:25:13+02:00</time>
      </trkpt>
      <trkpt lat="45.18167" lon="6.44395">
        <ele>1694.7998</ele>
        <time>2020-08-12T07:25:14+02:00</time>
      </trkpt>
      <trkpt lat="45.1817" lon="6.44397">
        <ele>1695.1006</ele>
        <time>2020-08-12T07:25:18+02:00</time>
      </trkpt>
      <trkpt lat="45.1817" lon="6.44397">
        <ele>1695.1006</ele>
        <time>2020-08-12T07:25:19+02:00</time>
      </trkpt>
      <trkpt lat="45.18172" lon="6.44396">
        <ele>1695.1006</ele>
        <time>2020-08-12T07:25:23+02:00</time>
      </trkpt>
      <trkpt lat="45.18173" lon="6.44397">
        <ele>1695.1006</ele>
        <time>2020-08-12T07:25:24+02:00</time>
      </trkpt>
      <trkpt lat="45.18172" lon="6.44398">
        <ele>1695.1006</ele>
        <time>2020-08-12T07:25:28+02:00</time>
      </trkpt>
      <trkpt lat="45.18173" lon="6.44399">
        <ele>1695.1006</ele>
        <time>2020-08-12T07:25:29+02:00</time>
      </trkpt>
      <trkpt lat="45.18176" lon="6.44403">
        <ele>1698.2998</ele>
        <time>2020-08-12T07:25:33+02:00</time>
      </trkpt>
      <trkpt lat="45.18177" lon="6.44404">
        <ele>1698.2998</ele>
        <time>2020-08-12T07:25:34+02:00</time>
      </trkpt>
      <trkpt lat="45.1818" lon="6.44408">
        <ele>1698.7002</ele>
        <time>2020-08-12T07:25:38+02:00</time>
      </trkpt>
      <trkpt lat="45.18181" lon="6.44408">
        <ele>1698.7002</ele>
        <time>2020-08-12T07:25:39+02:00</time>
      </trkpt>
      <trkpt lat="45.18186" lon="6.44406">
        <ele>1699.1006</ele>
        <time>2020-08-12T07:25:43+02:00</time>
      </trkpt>
      <trkpt lat="45.18186" lon="6.44405">
        <ele>1699.1006</ele>
        <time>2020-08-12T07:25:44+02:00</time>
      </trkpt>
      <trkpt lat="45.18191" lon="6.44404">
        <ele>1699.1006</ele>
        <time>2020-08-12T07:25:48+02:00</time>
      </trkpt>
      <trkpt lat="45.18191" lon="6.44404">
        <ele>1699.1006</ele>
        <time>2020-08-12T07:25:49+02:00</time>
      </trkpt>
      <trkpt lat="45.18192" lon="6.44402">
        <ele>1699.5</ele>
        <time>2020-08-12T07:25:53+02:00</time>
      </trkpt>
      <trkpt lat="45.18193" lon="6.44402">
        <ele>1699.5</ele>
        <time>2020-08-12T07:25:54+02:00</time>
      </trkpt>
      <trkpt lat="45.18197" lon="6.44402">
        <ele>1699.5</ele>
        <time>2020-08-12T07:25:58+02:00</time>
      </trkpt>
      <trkpt lat="45.18197" lon="6.44401">
        <ele>1699.5</ele>
        <time>2020-08-12T07:25:59+02:00</time>
      </trkpt>
      <trkpt lat="45.18199" lon="6.44402">
        <ele>1699.9004</ele>
        <time>2020-08-12T07:26:03+02:00</time>
      </trkpt>
      <trkpt lat="45.18199" lon="6.44402">
        <ele>1699.9004</ele>
        <time>2020-08-12T07:26:04+02:00</time>
      </trkpt>
      <trkpt lat="45.18202" lon="6.44402">
        <ele>1699.9004</ele>
        <time>2020-08-12T07:26:08+02:00</time>
      </trkpt>
      <trkpt lat="45.18203" lon="6.44401">
        <ele>1699.9004</ele>
        <time>2020-08-12T07:26:09+02:00</time>
      </trkpt>
      <trkpt lat="45.18207" lon="6.44401">
        <ele>1700.2998</ele>
        <time>2020-08-12T07:26:13+02:00</time>
      </trkpt>
      <trkpt lat="45.18208" lon="6.44401">
        <ele>1700.2998</ele>
        <time>2020-08-12T07:26:14+02:00</time>
      </trkpt>
      <trkpt lat="45.18212" lon="6.44402">
        <ele>1700.6006</ele>
        <time>2020-08-12T07:26:18+02:00</time>
      </trkpt>
      <trkpt lat="45.18213" lon="6.44402">
        <ele>1700.6006</ele>
        <time>2020-08-12T07:26:19+02:00</time>
      </trkpt>
      <trkpt lat="45.18214" lon="6.44403">
        <ele>1700.6006</ele>
        <time>2020-08-12T07:26:23+02:00</time>
      </trkpt>
      <trkpt lat="45.18214" lon="6.44403">
        <ele>1700.6006</ele>
        <time>2020-08-12T07:26:24+02:00</time>
      </trkpt>
      <trkpt lat="45.18217" lon="6.44403">
        <ele>1700.9004</ele>
        <time>2020-08-12T07:26:28+02:00</time>
      </trkpt>
      <trkpt lat="45.18218" lon="6.44403">
        <ele>1700.9004</ele>
        <time>2020-08-12T07:26:29+02:00</time>
      </trkpt>
      <trkpt lat="45.18223" lon="6.44404">
        <ele>1701.2002</ele>
        <time>2020-08-12T07:26:33+02:00</time>
      </trkpt>
      <trkpt lat="45.18224" lon="6.44404">
        <ele>1701.2002</ele>
        <time>2020-08-12T07:26:34+02:00</time>
      </trkpt>
      <trkpt lat="45.18227" lon="6.44403">
        <ele>1701.2002</ele>
        <time>2020-08-12T07:26:38+02:00</time>
      </trkpt>
      <trkpt lat="45.18228" lon="6.44403">
        <ele>1701.2002</ele>
        <time>2020-08-12T07:26:39+02:00</time>
      </trkpt>
      <trkpt lat="45.18232" lon="6.44402">
        <ele>1701.5</ele>
        <time>2020-08-12T07:26:43+02:00</time>
      </trkpt>
      <trkpt lat="45.18233" lon="6.44401">
        <ele>1701.5</ele>
        <time>2020-08-12T07:26:44+02:00</time>
      </trkpt>
      <trkpt lat="45.18237" lon="6.444">
        <ele>1701.7002</ele>
        <time>2020-08-12T07:26:48+02:00</time>
      </trkpt>
      <trkpt lat="45.18237" lon="6.444">
        <ele>1701.7002</ele>
        <time>2020-08-12T07:26:49+02:00</time>
      </trkpt>
      <trkpt lat="45.18238" lon="6.44401">
        <ele>1701.7002</ele>
        <time>2020-08-12T07:26:53+02:00</time>
      </trkpt>
      <trkpt lat="45.18239" lon="6.44401">
        <ele>1701.7002</ele>
        <time>2020-08-12T07:26:54+02:00</time>
      </trkpt>
      <trkpt lat="45.18244" lon="6.44401">
        <ele>1701.9004</ele>
        <time>2020-08-12T07:26:58+02:00</time>
      </trkpt>
      <trkpt lat="45.18246" lon="6.44402">
        <ele>1701.9004</ele>
        <time>2020-08-12T07:26:59+02:00</time>
      </trkpt>
      <trkpt lat="45.1825" lon="6.44401">
        <ele>1702</ele>
        <time>2020-08-12T07:27:03+02:00</time>
      </trkpt>
      <trkpt lat="45.18251" lon="6.44402">
        <ele>1702</ele>
        <time>2020-08-12T07:27:04+02:00</time>
      </trkpt>
      <trkpt lat="45.18255" lon="6.44404">
        <ele>1702.1006</ele>
        <time>2020-08-12T07:27:08+02:00</time>
      </trkpt>
      <trkpt lat="45.18256" lon="6.44405">
        <ele>1702.1006</ele>
        <time>2020-08-12T07:27:09+02:00</time>
      </trkpt>
      <trkpt lat="45.18259" lon="6.44406">
        <ele>1702</ele>
        <time>2020-08-12T07:27:13+02:00</time>
      </trkpt>
      <trkpt lat="45.1826" lon="6.44407">
        <ele>1702</ele>
        <time>2020-08-12T07:27:14+02:00</time>
      </trkpt>
      <trkpt lat="45.18266" lon="6.44408">
        <ele>1701.9004</ele>
        <time>2020-08-12T07:27:18+02:00</time>
      </trkpt>
      <trkpt lat="45.18267" lon="6.44408">
        <ele>1701.9004</ele>
        <time>2020-08-12T07:27:19+02:00</time>
      </trkpt>
      <trkpt lat="45.18273" lon="6.4441">
        <ele>1705.1006</ele>
        <time>2020-08-12T07:27:23+02:00</time>
      </trkpt>
      <trkpt lat="45.18274" lon="6.4441">
        <ele>1705.1006</ele>
        <time>2020-08-12T07:27:24+02:00</time>
      </trkpt>
      <trkpt lat="45.18281" lon="6.4441">
        <ele>1705.1006</ele>
        <time>2020-08-12T07:27:28+02:00</time>
      </trkpt>
      <trkpt lat="45.18283" lon="6.44411">
        <ele>1705.2998</ele>
        <time>2020-08-12T07:27:29+02:00</time>
      </trkpt>
      <trkpt lat="45.18289" lon="6.44413">
        <ele>1705.5</ele>
        <time>2020-08-12T07:27:33+02:00</time>
      </trkpt>
      <trkpt lat="45.1829" lon="6.44414">
        <ele>1705.5</ele>
        <time>2020-08-12T07:27:34+02:00</time>
      </trkpt>
      <trkpt lat="45.18294" lon="6.44419">
        <ele>1708.7002</ele>
        <time>2020-08-12T07:27:38+02:00</time>
      </trkpt>
      <trkpt lat="45.18296" lon="6.4442">
        <ele>1708.9004</ele>
        <time>2020-08-12T07:27:39+02:00</time>
      </trkpt>
      <trkpt lat="45.18302" lon="6.44423">
        <ele>1709.2998</ele>
        <time>2020-08-12T07:27:43+02:00</time>
      </trkpt>
      <trkpt lat="45.18303" lon="6.44424">
        <ele>1709.2998</ele>
        <time>2020-08-12T07:27:44+02:00</time>
      </trkpt>
      <trkpt lat="45.18307" lon="6.44429">
        <ele>1712.7998</ele>
        <time>2020-08-12T07:27:48+02:00</time>
      </trkpt>
      <trkpt lat="45.18309" lon="6.44429">
        <ele>1712.7998</ele>
        <time>2020-08-12T07:27:49+02:00</time>
      </trkpt>
      <trkpt lat="45.18316" lon="6.44429">
        <ele>1713.1006</ele>
        <time>2020-08-12T07:27:53+02:00</time>
      </trkpt>
      <trkpt lat="45.18317" lon="6.44429">
        <ele>1713.1006</ele>
        <time>2020-08-12T07:27:54+02:00</time>
      </trkpt>
      <trkpt lat="45.18323" lon="6.4443">
        <ele>1713.4004</ele>
        <time>2020-08-12T07:27:58+02:00</time>
      </trkpt>
      <trkpt lat="45.18324" lon="6.4443">
        <ele>1713.4004</ele>
        <time>2020-08-12T07:27:59+02:00</time>
      </trkpt>
      <trkpt lat="45.18331" lon="6.4443">
        <ele>1713.7002</ele>
        <time>2020-08-12T07:28:03+02:00</time>
      </trkpt>
      <trkpt lat="45.18332" lon="6.44431">
        <ele>1714.1006</ele>
        <time>2020-08-12T07:28:04+02:00</time>
      </trkpt>
      <trkpt lat="45.18337" lon="6.44434">
        <ele>1714.1006</ele>
        <time>2020-08-12T07:28:08+02:00</time>
      </trkpt>
      <trkpt lat="45.18338" lon="6.44434">
        <ele>1714.4004</ele>
        <time>2020-08-12T07:28:09+02:00</time>
      </trkpt>
      <trkpt lat="45.18342" lon="6.44437">
        <ele>1717.4004</ele>
        <time>2020-08-12T07:28:13+02:00</time>
      </trkpt>
      <trkpt lat="45.18344" lon="6.44437">
        <ele>1717.7002</ele>
        <time>2020-08-12T07:28:14+02:00</time>
      </trkpt>
      <trkpt lat="45.18349" lon="6.44439">
        <ele>1718</ele>
        <time>2020-08-12T07:28:18+02:00</time>
      </trkpt>
      <trkpt lat="45.1835" lon="6.44439">
        <ele>1718</ele>
        <time>2020-08-12T07:28:19+02:00</time>
      </trkpt>
      <trkpt lat="45.18355" lon="6.4444">
        <ele>1718.2002</ele>
        <time>2020-08-12T07:28:23+02:00</time>
      </trkpt>
      <trkpt lat="45.18356" lon="6.4444">
        <ele>1718.2002</ele>
        <time>2020-08-12T07:28:24+02:00</time>
      </trkpt>
      <trkpt lat="45.18362" lon="6.44438">
        <ele>1718.5</ele>
        <time>2020-08-12T07:28:28+02:00</time>
      </trkpt>
      <trkpt lat="45.18364" lon="6.44438">
        <ele>1718.5</ele>
        <time>2020-08-12T07:28:29+02:00</time>
      </trkpt>
      <trkpt lat="45.18371" lon="6.44439">
        <ele>1718.9004</ele>
        <time>2020-08-12T07:28:33+02:00</time>
      </trkpt>
      <trkpt lat="45.18373" lon="6.44439">
        <ele>1719.2002</ele>
        <time>2020-08-12T07:28:34+02:00</time>
      </trkpt>
      <trkpt lat="45.1838" lon="6.44437">
        <ele>1719.6006</ele>
        <time>2020-08-12T07:28:38+02:00</time>
      </trkpt>
      <trkpt lat="45.18382" lon="6.44436">
        <ele>1719.6006</ele>
        <time>2020-08-12T07:28:39+02:00</time>
      </trkpt>
      <trkpt lat="45.18389" lon="6.44436">
        <ele>1719.9004</ele>
        <time>2020-08-12T07:28:43+02:00</time>
      </trkpt>
      <trkpt lat="45.18391" lon="6.44436">
        <ele>1719.9004</ele>
        <time>2020-08-12T07:28:44+02:00</time>
      </trkpt>
      <trkpt lat="45.18399" lon="6.44434">
        <ele>1720.6006</ele>
        <time>2020-08-12T07:28:48+02:00</time>
      </trkpt>
      <trkpt lat="45.18401" lon="6.44433">
        <ele>1717.4004</ele>
        <time>2020-08-12T07:28:49+02:00</time>
      </trkpt>
      <trkpt lat="45.1841" lon="6.44431">
        <ele>1718.1006</ele>
        <time>2020-08-12T07:28:53+02:00</time>
      </trkpt>
      <trkpt lat="45.18413" lon="6.44431">
        <ele>1718.1006</ele>
        <time>2020-08-12T07:28:54+02:00</time>
      </trkpt>
      <trkpt lat="45.18419" lon="6.44431">
        <ele>1718.6006</ele>
        <time>2020-08-12T07:28:58+02:00</time>
      </trkpt>
      <trkpt lat="45.1842" lon="6.44431">
        <ele>1718.6006</ele>
        <time>2020-08-12T07:28:59+02:00</time>
      </trkpt>
      <trkpt lat="45.18428" lon="6.44428">
        <ele>1719.4004</ele>
        <time>2020-08-12T07:29:03+02:00</time>
      </trkpt>
      <trkpt lat="45.18431" lon="6.44426">
        <ele>1719.4004</ele>
        <time>2020-08-12T07:29:04+02:00</time>
      </trkpt>
      <trkpt lat="45.18443" lon="6.44422">
        <ele>1717</ele>
        <time>2020-08-12T07:29:08+02:00</time>
      </trkpt>
      <trkpt lat="45.18446" lon="6.44421">
        <ele>1717.2998</ele>
        <time>2020-08-12T07:29:09+02:00</time>
      </trkpt>
      <trkpt lat="45.18461" lon="6.44416">
        <ele>1714.6006</ele>
        <time>2020-08-12T07:29:13+02:00</time>
      </trkpt>
      <trkpt lat="45.18465" lon="6.44416">
        <ele>1714.7998</ele>
        <time>2020-08-12T07:29:14+02:00</time>
      </trkpt>
      <trkpt lat="45.18475" lon="6.44413">
        <ele>1715</ele>
        <time>2020-08-12T07:29:18+02:00</time>
      </trkpt>
      <trkpt lat="45.18476" lon="6.44413">
        <ele>1715.2002</ele>
        <time>2020-08-12T07:29:19+02:00</time>
      </trkpt>
      <trkpt lat="45.18476" lon="6.44412">
        <ele>1715.2002</ele>
        <time>2020-08-12T07:29:23+02:00</time>
      </trkpt>
      <trkpt lat="45.18477" lon="6.44412">
        <ele>1715.2002</ele>
        <time>2020-08-12T07:29:24+02:00</time>
      </trkpt>
      <trkpt lat="45.18484" lon="6.44409">
        <ele>1715.5</ele>
        <time>2020-08-12T07:29:28+02:00</time>
      </trkpt>
      <trkpt lat="45.18485" lon="6.44409">
        <ele>1715.5</ele>
        <time>2020-08-12T07:29:29+02:00</time>
      </trkpt>
      <trkpt lat="45.18489" lon="6.44407">
        <ele>1712.5</ele>
        <time>2020-08-12T07:29:33+02:00</time>
      </trkpt>
      <trkpt lat="45.18491" lon="6.44407">
        <ele>1712.5</ele>
        <time>2020-08-12T07:29:34+02:00</time>
      </trkpt>
      <trkpt lat="45.185" lon="6.44406">
        <ele>1712.7998</ele>
        <time>2020-08-12T07:29:38+02:00</time>
      </trkpt>
      <trkpt lat="45.18502" lon="6.44405">
        <ele>1713.1006</ele>
        <time>2020-08-12T07:29:39+02:00</time>
      </trkpt>
      <trkpt lat="45.18517" lon="6.44398">
        <ele>1710.4004</ele>
        <time>2020-08-12T07:29:43+02:00</time>
      </trkpt>
      <trkpt lat="45.1852" lon="6.44397">
        <ele>1710.7002</ele>
        <time>2020-08-12T07:29:44+02:00</time>
      </trkpt>
      <trkpt lat="45.1853" lon="6.44401">
        <ele>1714.2002</ele>
        <time>2020-08-12T07:29:48+02:00</time>
      </trkpt>
      <trkpt lat="45.18533" lon="6.44401">
        <ele>1714.6006</ele>
        <time>2020-08-12T07:29:49+02:00</time>
      </trkpt>
      <trkpt lat="45.18545" lon="6.44394">
        <ele>1712</ele>
        <time>2020-08-12T07:29:53+02:00</time>
      </trkpt>
      <trkpt lat="45.18549" lon="6.44392">
        <ele>1712.4004</ele>
        <time>2020-08-12T07:29:54+02:00</time>
      </trkpt>
      <trkpt lat="45.18562" lon="6.44387">
        <ele>1709.9004</ele>
        <time>2020-08-12T07:29:58+02:00</time>
      </trkpt>
      <trkpt lat="45.18566" lon="6.44387">
        <ele>1709.9004</ele>
        <time>2020-08-12T07:29:59+02:00</time>
      </trkpt>
      <trkpt lat="45.18576" lon="6.44382">
        <ele>1707.7002</ele>
        <time>2020-08-12T07:30:03+02:00</time>
      </trkpt>
      <trkpt lat="45.18579" lon="6.44381">
        <ele>1707.7002</ele>
        <time>2020-08-12T07:30:04+02:00</time>
      </trkpt>
      <trkpt lat="45.18586" lon="6.44377">
        <ele>1709</ele>
        <time>2020-08-12T07:30:08+02:00</time>
      </trkpt>
      <trkpt lat="45.18587" lon="6.44377">
        <ele>1709</ele>
        <time>2020-08-12T07:30:09+02:00</time>
      </trkpt>
      <trkpt lat="45.18596" lon="6.44376">
        <ele>1709.7998</ele>
        <time>2020-08-12T07:30:13+02:00</time>
      </trkpt>
      <trkpt lat="45.18599" lon="6.44376">
        <ele>1710.5</ele>
        <time>2020-08-12T07:30:14+02:00</time>
      </trkpt>
      <trkpt lat="45.18606" lon="6.44372">
        <ele>1707.9004</ele>
        <time>2020-08-12T07:30:18+02:00</time>
      </trkpt>
      <trkpt lat="45.18607" lon="6.44371">
        <ele>1707.9004</ele>
        <time>2020-08-12T07:30:19+02:00</time>
      </trkpt>
      <trkpt lat="45.18614" lon="6.44367">
        <ele>1708.6006</ele>
        <time>2020-08-12T07:30:23+02:00</time>
      </trkpt>
      <trkpt lat="45.18616" lon="6.44367">
        <ele>1709.1006</ele>
        <time>2020-08-12T07:30:24+02:00</time>
      </trkpt>
      <trkpt lat="45.18625" lon="6.44361">
        <ele>1706.2998</ele>
        <time>2020-08-12T07:30:28+02:00</time>
      </trkpt>
      <trkpt lat="45.18627" lon="6.44359">
        <ele>1706.2998</ele>
        <time>2020-08-12T07:30:29+02:00</time>
      </trkpt>
      <trkpt lat="45.18635" lon="6.44353">
        <ele>1704.1006</ele>
        <time>2020-08-12T07:30:33+02:00</time>
      </trkpt>
      <trkpt lat="45.18637" lon="6.44353">
        <ele>1704.1006</ele>
        <time>2020-08-12T07:30:34+02:00</time>
      </trkpt>
      <trkpt lat="45.18644" lon="6.44347">
        <ele>1701.2002</ele>
        <time>2020-08-12T07:30:38+02:00</time>
      </trkpt>
      <trkpt lat="45.18646" lon="6.44344">
        <ele>1701.7002</ele>
        <time>2020-08-12T07:30:39+02:00</time>
      </trkpt>
      <trkpt lat="45.18653" lon="6.44334">
        <ele>1698.5</ele>
        <time>2020-08-12T07:30:43+02:00</time>
      </trkpt>
      <trkpt lat="45.18655" lon="6.44332">
        <ele>1698.5</ele>
        <time>2020-08-12T07:30:44+02:00</time>
      </trkpt>
      <trkpt lat="45.18661" lon="6.44328">
        <ele>1695.2002</ele>
        <time>2020-08-12T07:30:48+02:00</time>
      </trkpt>
      <trkpt lat="45.18663" lon="6.44327">
        <ele>1695.2002</ele>
        <time>2020-08-12T07:30:49+02:00</time>
      </trkpt>
      <trkpt lat="45.18673" lon="6.44323">
        <ele>1696</ele>
        <time>2020-08-12T07:30:53+02:00</time>
      </trkpt>
      <trkpt lat="45.18673" lon="6.44323">
        <ele>1696</ele>
        <time>2020-08-12T07:30:54+02:00</time>
      </trkpt>
      <trkpt lat="45.18675" lon="6.44324">
        <ele>1696</ele>
        <time>2020-08-12T07:30:58+02:00</time>
      </trkpt>
      <trkpt lat="45.18675" lon="6.44323">
        <ele>1696</ele>
        <time>2020-08-12T07:30:59+02:00</time>
      </trkpt>
      <trkpt lat="45.18676" lon="6.44321">
        <ele>1692.5</ele>
        <time>2020-08-12T07:31:03+02:00</time>
      </trkpt>
      <trkpt lat="45.18676" lon="6.4432">
        <ele>1692.5</ele>
        <time>2020-08-12T07:31:04+02:00</time>
      </trkpt>
      <trkpt lat="45.18679" lon="6.44316">
        <ele>1692.5</ele>
        <time>2020-08-12T07:31:08+02:00</time>
      </trkpt>
      <trkpt lat="45.1868" lon="6.44316">
        <ele>1692.5</ele>
        <time>2020-08-12T07:31:09+02:00</time>
      </trkpt>
      <trkpt lat="45.18684" lon="6.44317">
        <ele>1692.9004</ele>
        <time>2020-08-12T07:31:13+02:00</time>
      </trkpt>
      <trkpt lat="45.18685" lon="6.44318">
        <ele>1692.9004</ele>
        <time>2020-08-12T07:31:14+02:00</time>
      </trkpt>
      <trkpt lat="45.18686" lon="6.44318">
        <ele>1692.9004</ele>
        <time>2020-08-12T07:31:18+02:00</time>
      </trkpt>
      <trkpt lat="45.18688" lon="6.44317">
        <ele>1692.9004</ele>
        <time>2020-08-12T07:31:19+02:00</time>
      </trkpt>
      <trkpt lat="45.18698" lon="6.44308">
        <ele>1689.7998</ele>
        <time>2020-08-12T07:31:23+02:00</time>
      </trkpt>
      <trkpt lat="45.18701" lon="6.44307">
        <ele>1690.2002</ele>
        <time>2020-08-12T07:31:24+02:00</time>
      </trkpt>
      <trkpt lat="45.18714" lon="6.44302">
        <ele>1687</ele>
        <time>2020-08-12T07:31:28+02:00</time>
      </trkpt>
      <trkpt lat="45.18716" lon="6.44301">
        <ele>1687</ele>
        <time>2020-08-12T07:31:29+02:00</time>
      </trkpt>
      <trkpt lat="45.18724" lon="6.44296">
        <ele>1683.2998</ele>
        <time>2020-08-12T07:31:33+02:00</time>
      </trkpt>
      <trkpt lat="45.18726" lon="6.44294">
        <ele>1683.5</ele>
        <time>2020-08-12T07:31:34+02:00</time>
      </trkpt>
      <trkpt lat="45.18733" lon="6.4429">
        <ele>1683.6006</ele>
        <time>2020-08-12T07:31:38+02:00</time>
      </trkpt>
      <trkpt lat="45.18735" lon="6.44291">
        <ele>1683.6006</ele>
        <time>2020-08-12T07:31:39+02:00</time>
      </trkpt>
      <trkpt lat="45.18744" lon="6.44294">
        <ele>1683.4004</ele>
        <time>2020-08-12T07:31:43+02:00</time>
      </trkpt>
      <trkpt lat="45.18747" lon="6.44293">
        <ele>1683.4004</ele>
        <time>2020-08-12T07:31:44+02:00</time>
      </trkpt>
      <trkpt lat="45.18755" lon="6.4429">
        <ele>1682.7002</ele>
        <time>2020-08-12T07:31:48+02:00</time>
      </trkpt>
      <trkpt lat="45.18757" lon="6.44291">
        <ele>1682.7002</ele>
        <time>2020-08-12T07:31:49+02:00</time>
      </trkpt>
      <trkpt lat="45.18769" lon="6.4429">
        <ele>1681.7998</ele>
        <time>2020-08-12T07:31:53+02:00</time>
      </trkpt>
      <trkpt lat="45.18771" lon="6.4429">
        <ele>1681.7998</ele>
        <time>2020-08-12T07:31:54+02:00</time>
      </trkpt>
      <trkpt lat="45.18782" lon="6.44293">
        <ele>1680.6006</ele>
        <time>2020-08-12T07:31:58+02:00</time>
      </trkpt>
      <trkpt lat="45.18785" lon="6.44293">
        <ele>1680</ele>
        <time>2020-08-12T07:31:59+02:00</time>
      </trkpt>
      <trkpt lat="45.18796" lon="6.44292">
        <ele>1679.2998</ele>
        <time>2020-08-12T07:32:03+02:00</time>
      </trkpt>
      <trkpt lat="45.18799" lon="6.44293">
        <ele>1678.7002</ele>
        <time>2020-08-12T07:32:04+02:00</time>
      </trkpt>
      <trkpt lat="45.18808" lon="6.44294">
        <ele>1678.1006</ele>
        <time>2020-08-12T07:32:08+02:00</time>
      </trkpt>
      <trkpt lat="45.18811" lon="6.44293">
        <ele>1677.5</ele>
        <time>2020-08-12T07:32:09+02:00</time>
      </trkpt>
      <trkpt lat="45.18822" lon="6.44291">
        <ele>1676.4004</ele>
        <time>2020-08-12T07:32:13+02:00</time>
      </trkpt>
      <trkpt lat="45.18825" lon="6.44291">
        <ele>1676.4004</ele>
        <time>2020-08-12T07:32:14+02:00</time>
      </trkpt>
      <trkpt lat="45.18832" lon="6.44292">
        <ele>1675.9004</ele>
        <time>2020-08-12T07:32:18+02:00</time>
      </trkpt>
      <trkpt lat="45.18833" lon="6.44291">
        <ele>1675.5</ele>
        <time>2020-08-12T07:32:19+02:00</time>
      </trkpt>
      <trkpt lat="45.1884" lon="6.44289">
        <ele>1675.2002</ele>
        <time>2020-08-12T07:32:23+02:00</time>
      </trkpt>
      <trkpt lat="45.18842" lon="6.44288">
        <ele>1675.2002</ele>
        <time>2020-08-12T07:32:24+02:00</time>
      </trkpt>
      <trkpt lat="45.18849" lon="6.44286">
        <ele>1672</ele>
        <time>2020-08-12T07:32:28+02:00</time>
      </trkpt>
      <trkpt lat="45.18851" lon="6.44284">
        <ele>1672</ele>
        <time>2020-08-12T07:32:29+02:00</time>
      </trkpt>
      <trkpt lat="45.18857" lon="6.44279">
        <ele>1669.2998</ele>
        <time>2020-08-12T07:32:33+02:00</time>
      </trkpt>
      <trkpt lat="45.18858" lon="6.44277">
        <ele>1669.7002</ele>
        <time>2020-08-12T07:32:34+02:00</time>
      </trkpt>
      <trkpt lat="45.18864" lon="6.44275">
        <ele>1670.2002</ele>
        <time>2020-08-12T07:32:38+02:00</time>
      </trkpt>
      <trkpt lat="45.18865" lon="6.44274">
        <ele>1670.2002</ele>
        <time>2020-08-12T07:32:39+02:00</time>
      </trkpt>
      <trkpt lat="45.18872" lon="6.4427">
        <ele>1667.7998</ele>
        <time>2020-08-12T07:32:43+02:00</time>
      </trkpt>
      <trkpt lat="45.18874" lon="6.4427">
        <ele>1667.7998</ele>
        <time>2020-08-12T07:32:44+02:00</time>
      </trkpt>
      <trkpt lat="45.18881" lon="6.44269">
        <ele>1668.9004</ele>
        <time>2020-08-12T07:32:48+02:00</time>
      </trkpt>
      <trkpt lat="45.18883" lon="6.44269">
        <ele>1668.9004</ele>
        <time>2020-08-12T07:32:49+02:00</time>
      </trkpt>
      <trkpt lat="45.18891" lon="6.44264">
        <ele>1669.5</ele>
        <time>2020-08-12T07:32:53+02:00</time>
      </trkpt>
      <trkpt lat="45.18893" lon="6.44262">
        <ele>1666.7998</ele>
        <time>2020-08-12T07:32:54+02:00</time>
      </trkpt>
      <trkpt lat="45.18902" lon="6.44257">
        <ele>1667.7998</ele>
        <time>2020-08-12T07:32:58+02:00</time>
      </trkpt>
      <trkpt lat="45.18904" lon="6.44256">
        <ele>1667.7998</ele>
        <time>2020-08-12T07:32:59+02:00</time>
      </trkpt>
      <trkpt lat="45.18911" lon="6.44253">
        <ele>1665.5</ele>
        <time>2020-08-12T07:33:03+02:00</time>
      </trkpt>
      <trkpt lat="45.18914" lon="6.44252">
        <ele>1665.7002</ele>
        <time>2020-08-12T07:33:04+02:00</time>
      </trkpt>
      <trkpt lat="45.18923" lon="6.4425">
        <ele>1665.9004</ele>
        <time>2020-08-12T07:33:08+02:00</time>
      </trkpt>
      <trkpt lat="45.18925" lon="6.4425">
        <ele>1665.9004</ele>
        <time>2020-08-12T07:33:09+02:00</time>
      </trkpt>
      <trkpt lat="45.18934" lon="6.44249">
        <ele>1665.7998</ele>
        <time>2020-08-12T07:33:13+02:00</time>
      </trkpt>
      <trkpt lat="45.18936" lon="6.44248">
        <ele>1665.7002</ele>
        <time>2020-08-12T07:33:14+02:00</time>
      </trkpt>
      <trkpt lat="45.18949" lon="6.44246">
        <ele>1665.1006</ele>
        <time>2020-08-12T07:33:18+02:00</time>
      </trkpt>
      <trkpt lat="45.18952" lon="6.44246">
        <ele>1665.1006</ele>
        <time>2020-08-12T07:33:19+02:00</time>
      </trkpt>
      <trkpt lat="45.18967" lon="6.44246">
        <ele>1663.5</ele>
        <time>2020-08-12T07:33:23+02:00</time>
      </trkpt>
      <trkpt lat="45.18973" lon="6.44247">
        <ele>1662.6006</ele>
        <time>2020-08-12T07:33:24+02:00</time>
      </trkpt>
      <trkpt lat="45.18993" lon="6.44253">
        <ele>1659.6006</ele>
        <time>2020-08-12T07:33:28+02:00</time>
      </trkpt>
      <trkpt lat="45.18996" lon="6.44255">
        <ele>1661.7998</ele>
        <time>2020-08-12T07:33:29+02:00</time>
      </trkpt>
      <trkpt lat="45.19005" lon="6.44257">
        <ele>1659.5</ele>
        <time>2020-08-12T07:33:33+02:00</time>
      </trkpt>
      <trkpt lat="45.19007" lon="6.44258">
        <ele>1659.5</ele>
        <time>2020-08-12T07:33:34+02:00</time>
      </trkpt>
      <trkpt lat="45.19019" lon="6.4426">
        <ele>1657.4004</ele>
        <time>2020-08-12T07:33:38+02:00</time>
      </trkpt>
      <trkpt lat="45.19023" lon="6.44261">
        <ele>1656.2998</ele>
        <time>2020-08-12T07:33:39+02:00</time>
      </trkpt>
      <trkpt lat="45.19043" lon="6.44267">
        <ele>1655.1006</ele>
        <time>2020-08-12T07:33:43+02:00</time>
      </trkpt>
      <trkpt lat="45.19046" lon="6.44269">
        <ele>1654.1006</ele>
        <time>2020-08-12T07:33:44+02:00</time>
      </trkpt>
      <trkpt lat="45.19057" lon="6.44273">
        <ele>1653.2998</ele>
        <time>2020-08-12T07:33:48+02:00</time>
      </trkpt>
      <trkpt lat="45.1906" lon="6.44273">
        <ele>1653.2998</ele>
        <time>2020-08-12T07:33:49+02:00</time>
      </trkpt>
      <trkpt lat="45.19065" lon="6.44276">
        <ele>1652</ele>
        <time>2020-08-12T07:33:53+02:00</time>
      </trkpt>
      <trkpt lat="45.19065" lon="6.44276">
        <ele>1652</ele>
        <time>2020-08-12T07:33:54+02:00</time>
      </trkpt>
      <trkpt lat="45.19067" lon="6.44274">
        <ele>1652</ele>
        <time>2020-08-12T07:33:58+02:00</time>
      </trkpt>
      <trkpt lat="45.19068" lon="6.44273">
        <ele>1652</ele>
        <time>2020-08-12T07:33:59+02:00</time>
      </trkpt>
      <trkpt lat="45.19069" lon="6.44273">
        <ele>1652</ele>
        <time>2020-08-12T07:34:03+02:00</time>
      </trkpt>
      <trkpt lat="45.19069" lon="6.44273">
        <ele>1650.7998</ele>
        <time>2020-08-12T07:34:04+02:00</time>
      </trkpt>
      <trkpt lat="45.19071" lon="6.44274">
        <ele>1650.7998</ele>
        <time>2020-08-12T07:34:08+02:00</time>
      </trkpt>
      <trkpt lat="45.19071" lon="6.44275">
        <ele>1650.7998</ele>
        <time>2020-08-12T07:34:09+02:00</time>
      </trkpt>
      <trkpt lat="45.19073" lon="6.44278">
        <ele>1650.7998</ele>
        <time>2020-08-12T07:34:13+02:00</time>
      </trkpt>
      <trkpt lat="45.19073" lon="6.44278">
        <ele>1650.7998</ele>
        <time>2020-08-12T07:34:14+02:00</time>
      </trkpt>
      <trkpt lat="45.19073" lon="6.44278">
        <ele>1650.7998</ele>
        <time>2020-08-12T07:34:18+02:00</time>
      </trkpt>
      <trkpt lat="45.19073" lon="6.44278">
        <ele>1650.7998</ele>
        <time>2020-08-12T07:34:19+02:00</time>
      </trkpt>
      <trkpt lat="45.19073" lon="6.44278">
        <ele>1650.7998</ele>
        <time>2020-08-12T07:34:23+02:00</time>
      </trkpt>
      <trkpt lat="45.19073" lon="6.44278">
        <ele>1650.7998</ele>
        <time>2020-08-12T07:34:24+02:00</time>
      </trkpt>
      <trkpt lat="45.19073" lon="6.44278">
        <ele>1650.7998</ele>
        <time>2020-08-12T07:34:28+02:00</time>
      </trkpt>
      <trkpt lat="45.19073" lon="6.44278">
        <ele>1650.7998</ele>
        <time>2020-08-12T07:34:29+02:00</time>
      </trkpt>
      <trkpt lat="45.19073" lon="6.44279">
        <ele>1650.7998</ele>
        <time>2020-08-12T07:34:33+02:00</time>
      </trkpt>
      <trkpt lat="45.19074" lon="6.4428">
        <ele>1651.9004</ele>
        <time>2020-08-12T07:34:34+02:00</time>
      </trkpt>
      <trkpt lat="45.19074" lon="6.44281">
        <ele>1651.9004</ele>
        <time>2020-08-12T07:34:38+02:00</time>
      </trkpt>
      <trkpt lat="45.19073" lon="6.44282">
        <ele>1651.9004</ele>
        <time>2020-08-12T07:34:39+02:00</time>
      </trkpt>
      <trkpt lat="45.19071" lon="6.44289">
        <ele>1652.9004</ele>
        <time>2020-08-12T07:34:43+02:00</time>
      </trkpt>
      <trkpt lat="45.19071" lon="6.44291">
        <ele>1652.9004</ele>
        <time>2020-08-12T07:34:44+02:00</time>
      </trkpt>
      <trkpt lat="45.19068" lon="6.44299">
        <ele>1655.4004</ele>
        <time>2020-08-12T07:34:48+02:00</time>
      </trkpt>
      <trkpt lat="45.19067" lon="6.44301">
        <ele>1655.4004</ele>
        <time>2020-08-12T07:34:49+02:00</time>
      </trkpt>
      <trkpt lat="45.19063" lon="6.44309">
        <ele>1658</ele>
        <time>2020-08-12T07:34:53+02:00</time>
      </trkpt>
      <trkpt lat="45.19062" lon="6.44311">
        <ele>1658</ele>
        <time>2020-08-12T07:34:54+02:00</time>
      </trkpt>
      <trkpt lat="45.19058" lon="6.44321">
        <ele>1659.1006</ele>
        <time>2020-08-12T07:34:58+02:00</time>
      </trkpt>
      <trkpt lat="45.19058" lon="6.44324">
        <ele>1660.1006</ele>
        <time>2020-08-12T07:34:59+02:00</time>
      </trkpt>
      <trkpt lat="45.19057" lon="6.44335">
        <ele>1662.7998</ele>
        <time>2020-08-12T07:35:03+02:00</time>
      </trkpt>
      <trkpt lat="45.19056" lon="6.44337">
        <ele>1662.7998</ele>
        <time>2020-08-12T07:35:04+02:00</time>
      </trkpt>
      <trkpt lat="45.19055" lon="6.44349">
        <ele>1664.7998</ele>
        <time>2020-08-12T07:35:08+02:00</time>
      </trkpt>
      <trkpt lat="45.19055" lon="6.44351">
        <ele>1664.7998</ele>
        <time>2020-08-12T07:35:09+02:00</time>
      </trkpt>
      <trkpt lat="45.19056" lon="6.44361">
        <ele>1665.7998</ele>
        <time>2020-08-12T07:35:13+02:00</time>
      </trkpt>
      <trkpt lat="45.19056" lon="6.44364">
        <ele>1665.7998</ele>
        <time>2020-08-12T07:35:14+02:00</time>
      </trkpt>
      <trkpt lat="45.19054" lon="6.44374">
        <ele>1666.9004</ele>
        <time>2020-08-12T07:35:18+02:00</time>
      </trkpt>
      <trkpt lat="45.19054" lon="6.44376">
        <ele>1667.7998</ele>
        <time>2020-08-12T07:35:19+02:00</time>
      </trkpt>
      <trkpt lat="45.19051" lon="6.44384">
        <ele>1668.7998</ele>
        <time>2020-08-12T07:35:23+02:00</time>
      </trkpt>
      <trkpt lat="45.1905" lon="6.44387">
        <ele>1671.2002</ele>
        <time>2020-08-12T07:35:24+02:00</time>
      </trkpt>
      <trkpt lat="45.19046" lon="6.44396">
        <ele>1672.1006</ele>
        <time>2020-08-12T07:35:28+02:00</time>
      </trkpt>
      <trkpt lat="45.19044" lon="6.44398">
        <ele>1674.7002</ele>
        <time>2020-08-12T07:35:29+02:00</time>
      </trkpt>
      <trkpt lat="45.1904" lon="6.44409">
        <ele>1676.5</ele>
        <time>2020-08-12T07:35:33+02:00</time>
      </trkpt>
      <trkpt lat="45.19039" lon="6.44411">
        <ele>1676.5</ele>
        <time>2020-08-12T07:35:34+02:00</time>
      </trkpt>
      <trkpt lat="45.19036" lon="6.4442">
        <ele>1680.2002</ele>
        <time>2020-08-12T07:35:38+02:00</time>
      </trkpt>
      <trkpt lat="45.19035" lon="6.44423">
        <ele>1680.2002</ele>
        <time>2020-08-12T07:35:39+02:00</time>
      </trkpt>
      <trkpt lat="45.19033" lon="6.44433">
        <ele>1681.1006</ele>
        <time>2020-08-12T07:35:43+02:00</time>
      </trkpt>
      <trkpt lat="45.19032" lon="6.44436">
        <ele>1685.1006</ele>
        <time>2020-08-12T07:35:44+02:00</time>
      </trkpt>
      <trkpt lat="45.19033" lon="6.44448">
        <ele>1683</ele>
        <time>2020-08-12T07:35:48+02:00</time>
      </trkpt>
      <trkpt lat="45.19033" lon="6.44452">
        <ele>1683.9004</ele>
        <time>2020-08-12T07:35:49+02:00</time>
      </trkpt>
      <trkpt lat="45.19035" lon="6.44465">
        <ele>1684.7998</ele>
        <time>2020-08-12T07:35:53+02:00</time>
      </trkpt>
      <trkpt lat="45.19035" lon="6.44467">
        <ele>1684.7998</ele>
        <time>2020-08-12T07:35:54+02:00</time>
      </trkpt>
      <trkpt lat="45.19035" lon="6.44475">
        <ele>1685.5</ele>
        <time>2020-08-12T07:35:58+02:00</time>
      </trkpt>
      <trkpt lat="45.19035" lon="6.44478">
        <ele>1686.2002</ele>
        <time>2020-08-12T07:35:59+02:00</time>
      </trkpt>
      <trkpt lat="45.19033" lon="6.4449">
        <ele>1686.7002</ele>
        <time>2020-08-12T07:36:03+02:00</time>
      </trkpt>
      <trkpt lat="45.19033" lon="6.44492">
        <ele>1686.7002</ele>
        <time>2020-08-12T07:36:04+02:00</time>
      </trkpt>
      <trkpt lat="45.19031" lon="6.44503">
        <ele>1690.7998</ele>
        <time>2020-08-12T07:36:08+02:00</time>
      </trkpt>
      <trkpt lat="45.19031" lon="6.44506">
        <ele>1690.7998</ele>
        <time>2020-08-12T07:36:09+02:00</time>
      </trkpt>
      <trkpt lat="45.1903" lon="6.44517">
        <ele>1691.2002</ele>
        <time>2020-08-12T07:36:13+02:00</time>
      </trkpt>
      <trkpt lat="45.1903" lon="6.4452">
        <ele>1691.2002</ele>
        <time>2020-08-12T07:36:14+02:00</time>
      </trkpt>
      <trkpt lat="45.19027" lon="6.4453">
        <ele>1691.7002</ele>
        <time>2020-08-12T07:36:18+02:00</time>
      </trkpt>
      <trkpt lat="45.19026" lon="6.44532">
        <ele>1695.4004</ele>
        <time>2020-08-12T07:36:19+02:00</time>
      </trkpt>
      <trkpt lat="45.19024" lon="6.44544">
        <ele>1695.7002</ele>
        <time>2020-08-12T07:36:23+02:00</time>
      </trkpt>
      <trkpt lat="45.19024" lon="6.44547">
        <ele>1695.9004</ele>
        <time>2020-08-12T07:36:24+02:00</time>
      </trkpt>
      <trkpt lat="45.19024" lon="6.44557">
        <ele>1696.1006</ele>
        <time>2020-08-12T07:36:28+02:00</time>
      </trkpt>
      <trkpt lat="45.19023" lon="6.44559">
        <ele>1696.1006</ele>
        <time>2020-08-12T07:36:29+02:00</time>
      </trkpt>
      <trkpt lat="45.19024" lon="6.44571">
        <ele>1696.2002</ele>
        <time>2020-08-12T07:36:33+02:00</time>
      </trkpt>
      <trkpt lat="45.19025" lon="6.44574">
        <ele>1696.2002</ele>
        <time>2020-08-12T07:36:34+02:00</time>
      </trkpt>
      <trkpt lat="45.19027" lon="6.44582">
        <ele>1692.2998</ele>
        <time>2020-08-12T07:36:38+02:00</time>
      </trkpt>
      <trkpt lat="45.19028" lon="6.44584">
        <ele>1692.2998</ele>
        <time>2020-08-12T07:36:39+02:00</time>
      </trkpt>
      <trkpt lat="45.19029" lon="6.44595">
        <ele>1692.2002</ele>
        <time>2020-08-12T07:36:43+02:00</time>
      </trkpt>
      <trkpt lat="45.19029" lon="6.44597">
        <ele>1692.1006</ele>
        <time>2020-08-12T07:36:44+02:00</time>
      </trkpt>
      <trkpt lat="45.19029" lon="6.44607">
        <ele>1692</ele>
        <time>2020-08-12T07:36:48+02:00</time>
      </trkpt>
      <trkpt lat="45.19029" lon="6.44609">
        <ele>1692</ele>
        <time>2020-08-12T07:36:49+02:00</time>
      </trkpt>
      <trkpt lat="45.19028" lon="6.44617">
        <ele>1691.9004</ele>
        <time>2020-08-12T07:36:53+02:00</time>
      </trkpt>
      <trkpt lat="45.19027" lon="6.44619">
        <ele>1691.9004</ele>
        <time>2020-08-12T07:36:54+02:00</time>
      </trkpt>
      <trkpt lat="45.19024" lon="6.44629">
        <ele>1695.6006</ele>
        <time>2020-08-12T07:36:58+02:00</time>
      </trkpt>
      <trkpt lat="45.19022" lon="6.44632">
        <ele>1695.6006</ele>
        <time>2020-08-12T07:36:59+02:00</time>
      </trkpt>
      <trkpt lat="45.19018" lon="6.44642">
        <ele>1699.2998</ele>
        <time>2020-08-12T07:37:03+02:00</time>
      </trkpt>
      <trkpt lat="45.19017" lon="6.44644">
        <ele>1699.2998</ele>
        <time>2020-08-12T07:37:04+02:00</time>
      </trkpt>
      <trkpt lat="45.19013" lon="6.44652">
        <ele>1702.9004</ele>
        <time>2020-08-12T07:37:08+02:00</time>
      </trkpt>
      <trkpt lat="45.19012" lon="6.44655">
        <ele>1702.9004</ele>
        <time>2020-08-12T07:37:09+02:00</time>
      </trkpt>
      <trkpt lat="45.19007" lon="6.44663">
        <ele>1706.4004</ele>
        <time>2020-08-12T07:37:13+02:00</time>
      </trkpt>
      <trkpt lat="45.19007" lon="6.44666">
        <ele>1706.4004</ele>
        <time>2020-08-12T07:37:14+02:00</time>
      </trkpt>
      <trkpt lat="45.19003" lon="6.44675">
        <ele>1706.5</ele>
        <time>2020-08-12T07:37:18+02:00</time>
      </trkpt>
      <trkpt lat="45.19002" lon="6.44677">
        <ele>1710.2002</ele>
        <time>2020-08-12T07:37:19+02:00</time>
      </trkpt>
      <trkpt lat="45.18998" lon="6.44686">
        <ele>1710.4004</ele>
        <time>2020-08-12T07:37:23+02:00</time>
      </trkpt>
      <trkpt lat="45.18997" lon="6.44688">
        <ele>1710.4004</ele>
        <time>2020-08-12T07:37:24+02:00</time>
      </trkpt>
      <trkpt lat="45.18994" lon="6.44698">
        <ele>1714.2998</ele>
        <time>2020-08-12T07:37:28+02:00</time>
      </trkpt>
      <trkpt lat="45.18994" lon="6.447">
        <ele>1714.2998</ele>
        <time>2020-08-12T07:37:29+02:00</time>
      </trkpt>
      <trkpt lat="45.18992" lon="6.44707">
        <ele>1714.7002</ele>
        <time>2020-08-12T07:37:33+02:00</time>
      </trkpt>
      <trkpt lat="45.18992" lon="6.44709">
        <ele>1715</ele>
        <time>2020-08-12T07:37:34+02:00</time>
      </trkpt>
      <trkpt lat="45.18993" lon="6.44718">
        <ele>1715.5</ele>
        <time>2020-08-12T07:37:38+02:00</time>
      </trkpt>
      <trkpt lat="45.18994" lon="6.4472">
        <ele>1715.5</ele>
        <time>2020-08-12T07:37:39+02:00</time>
      </trkpt>
      <trkpt lat="45.18994" lon="6.44729">
        <ele>1716</ele>
        <time>2020-08-12T07:37:43+02:00</time>
      </trkpt>
      <trkpt lat="45.18994" lon="6.44731">
        <ele>1716</ele>
        <time>2020-08-12T07:37:44+02:00</time>
      </trkpt>
      <trkpt lat="45.18994" lon="6.4474">
        <ele>1716.6006</ele>
        <time>2020-08-12T07:37:48+02:00</time>
      </trkpt>
      <trkpt lat="45.18994" lon="6.44742">
        <ele>1716.6006</ele>
        <time>2020-08-12T07:37:49+02:00</time>
      </trkpt>
      <trkpt lat="45.18997" lon="6.4475">
        <ele>1713.2002</ele>
        <time>2020-08-12T07:37:53+02:00</time>
      </trkpt>
      <trkpt lat="45.18997" lon="6.44752">
        <ele>1713.7998</ele>
        <time>2020-08-12T07:37:54+02:00</time>
      </trkpt>
      <trkpt lat="45.19001" lon="6.44762">
        <ele>1714.4004</ele>
        <time>2020-08-12T07:37:58+02:00</time>
      </trkpt>
      <trkpt lat="45.19002" lon="6.44764">
        <ele>1714.4004</ele>
        <time>2020-08-12T07:37:59+02:00</time>
      </trkpt>
      <trkpt lat="45.19005" lon="6.44771">
        <ele>1710.7998</ele>
        <time>2020-08-12T07:38:03+02:00</time>
      </trkpt>
      <trkpt lat="45.19006" lon="6.44773">
        <ele>1710.7998</ele>
        <time>2020-08-12T07:38:04+02:00</time>
      </trkpt>
      <trkpt lat="45.19006" lon="6.44782">
        <ele>1711.4004</ele>
        <time>2020-08-12T07:38:08+02:00</time>
      </trkpt>
      <trkpt lat="45.19007" lon="6.44785">
        <ele>1711.4004</ele>
        <time>2020-08-12T07:38:09+02:00</time>
      </trkpt>
      <trkpt lat="45.19006" lon="6.44793">
        <ele>1712.2002</ele>
        <time>2020-08-12T07:38:13+02:00</time>
      </trkpt>
      <trkpt lat="45.19006" lon="6.44796">
        <ele>1713.1006</ele>
        <time>2020-08-12T07:38:14+02:00</time>
      </trkpt>
      <trkpt lat="45.19006" lon="6.44804">
        <ele>1714.1006</ele>
        <time>2020-08-12T07:38:18+02:00</time>
      </trkpt>
      <trkpt lat="45.19006" lon="6.44807">
        <ele>1714.1006</ele>
        <time>2020-08-12T07:38:19+02:00</time>
      </trkpt>
      <trkpt lat="45.19009" lon="6.4482">
        <ele>1710</ele>
        <time>2020-08-12T07:38:23+02:00</time>
      </trkpt>
      <trkpt lat="45.19009" lon="6.44822">
        <ele>1710.9004</ele>
        <time>2020-08-12T07:38:24+02:00</time>
      </trkpt>
      <trkpt lat="45.1901" lon="6.44832">
        <ele>1711.7998</ele>
        <time>2020-08-12T07:38:28+02:00</time>
      </trkpt>
      <trkpt lat="45.1901" lon="6.44834">
        <ele>1711.7998</ele>
        <time>2020-08-12T07:38:29+02:00</time>
      </trkpt>
      <trkpt lat="45.1901" lon="6.44843">
        <ele>1712.7002</ele>
        <time>2020-08-12T07:38:33+02:00</time>
      </trkpt>
      <trkpt lat="45.19011" lon="6.44845">
        <ele>1712.7002</ele>
        <time>2020-08-12T07:38:34+02:00</time>
      </trkpt>
      <trkpt lat="45.19013" lon="6.44854">
        <ele>1713.6006</ele>
        <time>2020-08-12T07:38:38+02:00</time>
      </trkpt>
      <trkpt lat="45.19014" lon="6.44856">
        <ele>1714.5</ele>
        <time>2020-08-12T07:38:39+02:00</time>
      </trkpt>
      <trkpt lat="45.19015" lon="6.44867">
        <ele>1709.2998</ele>
        <time>2020-08-12T07:38:43+02:00</time>
      </trkpt>
      <trkpt lat="45.19015" lon="6.4487">
        <ele>1709.2998</ele>
        <time>2020-08-12T07:38:44+02:00</time>
      </trkpt>
      <trkpt lat="45.19014" lon="6.44883">
        <ele>1717.7002</ele>
        <time>2020-08-12T07:38:48+02:00</time>
      </trkpt>
      <trkpt lat="45.19014" lon="6.44886">
        <ele>1717.7002</ele>
        <time>2020-08-12T07:38:49+02:00</time>
      </trkpt>
      <trkpt lat="45.19011" lon="6.44898">
        <ele>1720.2998</ele>
        <time>2020-08-12T07:38:53+02:00</time>
      </trkpt>
      <trkpt lat="45.19011" lon="6.44901">
        <ele>1720.2998</ele>
        <time>2020-08-12T07:38:54+02:00</time>
      </trkpt>
      <trkpt lat="45.19007" lon="6.44911">
        <ele>1728</ele>
        <time>2020-08-12T07:38:58+02:00</time>
      </trkpt>
      <trkpt lat="45.19006" lon="6.44914">
        <ele>1728</ele>
        <time>2020-08-12T07:38:59+02:00</time>
      </trkpt>
      <trkpt lat="45.19006" lon="6.44923">
        <ele>1731</ele>
        <time>2020-08-12T07:39:03+02:00</time>
      </trkpt>
      <trkpt lat="45.19005" lon="6.44926">
        <ele>1731</ele>
        <time>2020-08-12T07:39:04+02:00</time>
      </trkpt>
      <trkpt lat="45.19003" lon="6.44934">
        <ele>1732.5</ele>
        <time>2020-08-12T07:39:08+02:00</time>
      </trkpt>
      <trkpt lat="45.19003" lon="6.44937">
        <ele>1732.5</ele>
        <time>2020-08-12T07:39:09+02:00</time>
      </trkpt>
      <trkpt lat="45.19002" lon="6.44947">
        <ele>1739.7998</ele>
        <time>2020-08-12T07:39:13+02:00</time>
      </trkpt>
      <trkpt lat="45.19003" lon="6.44949">
        <ele>1734.1006</ele>
        <time>2020-08-12T07:39:14+02:00</time>
      </trkpt>
      <trkpt lat="45.19005" lon="6.44957">
        <ele>1735.6006</ele>
        <time>2020-08-12T07:39:18+02:00</time>
      </trkpt>
      <trkpt lat="45.19005" lon="6.44959">
        <ele>1737.1006</ele>
        <time>2020-08-12T07:39:19+02:00</time>
      </trkpt>
      <trkpt lat="45.19007" lon="6.44968">
        <ele>1738.5</ele>
        <time>2020-08-12T07:39:23+02:00</time>
      </trkpt>
      <trkpt lat="45.19007" lon="6.4497">
        <ele>1738.5</ele>
        <time>2020-08-12T07:39:24+02:00</time>
      </trkpt>
      <trkpt lat="45.19008" lon="6.44979">
        <ele>1739.9004</ele>
        <time>2020-08-12T07:39:28+02:00</time>
      </trkpt>
      <trkpt lat="45.19008" lon="6.44982">
        <ele>1739.9004</ele>
        <time>2020-08-12T07:39:29+02:00</time>
      </trkpt>
      <trkpt lat="45.19009" lon="6.44991">
        <ele>1735.6006</ele>
        <time>2020-08-12T07:39:33+02:00</time>
      </trkpt>
      <trkpt lat="45.19009" lon="6.44994">
        <ele>1737</ele>
        <time>2020-08-12T07:39:34+02:00</time>
      </trkpt>
      <trkpt lat="45.19009" lon="6.45003">
        <ele>1738.2002</ele>
        <time>2020-08-12T07:39:38+02:00</time>
      </trkpt>
      <trkpt lat="45.19009" lon="6.45005">
        <ele>1738.2002</ele>
        <time>2020-08-12T07:39:39+02:00</time>
      </trkpt>
      <trkpt lat="45.19008" lon="6.45014">
        <ele>1744.9004</ele>
        <time>2020-08-12T07:39:43+02:00</time>
      </trkpt>
      <trkpt lat="45.19007" lon="6.45017">
        <ele>1744.9004</ele>
        <time>2020-08-12T07:39:44+02:00</time>
      </trkpt>
      <trkpt lat="45.19007" lon="6.45028">
        <ele>1746.7998</ele>
        <time>2020-08-12T07:39:48+02:00</time>
      </trkpt>
      <trkpt lat="45.19007" lon="6.45031">
        <ele>1746.7998</ele>
        <time>2020-08-12T07:39:49+02:00</time>
      </trkpt>
      <trkpt lat="45.19009" lon="6.45041">
        <ele>1741.7998</ele>
        <time>2020-08-12T07:39:53+02:00</time>
      </trkpt>
      <trkpt lat="45.19009" lon="6.45044">
        <ele>1742.2998</ele>
        <time>2020-08-12T07:39:54+02:00</time>
      </trkpt>
      <trkpt lat="45.19008" lon="6.45054">
        <ele>1748</ele>
        <time>2020-08-12T07:39:58+02:00</time>
      </trkpt>
      <trkpt lat="45.19009" lon="6.45056">
        <ele>1742.7002</ele>
        <time>2020-08-12T07:39:59+02:00</time>
      </trkpt>
      <trkpt lat="45.1901" lon="6.45064">
        <ele>1743</ele>
        <time>2020-08-12T07:40:03+02:00</time>
      </trkpt>
      <trkpt lat="45.1901" lon="6.45065">
        <ele>1743</ele>
        <time>2020-08-12T07:40:04+02:00</time>
      </trkpt>
      <trkpt lat="45.19013" lon="6.45072">
        <ele>1743.2002</ele>
        <time>2020-08-12T07:40:08+02:00</time>
      </trkpt>
      <trkpt lat="45.19013" lon="6.45074">
        <ele>1743.2002</ele>
        <time>2020-08-12T07:40:09+02:00</time>
      </trkpt>
      <trkpt lat="45.19016" lon="6.45079">
        <ele>1738.6006</ele>
        <time>2020-08-12T07:40:13+02:00</time>
      </trkpt>
      <trkpt lat="45.19017" lon="6.4508">
        <ele>1738.6006</ele>
        <time>2020-08-12T07:40:14+02:00</time>
      </trkpt>
      <trkpt lat="45.19019" lon="6.4509">
        <ele>1739</ele>
        <time>2020-08-12T07:40:18+02:00</time>
      </trkpt>
      <trkpt lat="45.1902" lon="6.45092">
        <ele>1739</ele>
        <time>2020-08-12T07:40:19+02:00</time>
      </trkpt>
      <trkpt lat="45.19021" lon="6.45101">
        <ele>1735</ele>
        <time>2020-08-12T07:40:23+02:00</time>
      </trkpt>
      <trkpt lat="45.19021" lon="6.45104">
        <ele>1735.6006</ele>
        <time>2020-08-12T07:40:24+02:00</time>
      </trkpt>
      <trkpt lat="45.19023" lon="6.45112">
        <ele>1736.2002</ele>
        <time>2020-08-12T07:40:28+02:00</time>
      </trkpt>
      <trkpt lat="45.19023" lon="6.45114">
        <ele>1736.2002</ele>
        <time>2020-08-12T07:40:29+02:00</time>
      </trkpt>
      <trkpt lat="45.19026" lon="6.45121">
        <ele>1736.4004</ele>
        <time>2020-08-12T07:40:33+02:00</time>
      </trkpt>
      <trkpt lat="45.19026" lon="6.45123">
        <ele>1736.4004</ele>
        <time>2020-08-12T07:40:34+02:00</time>
      </trkpt>
      <trkpt lat="45.1903" lon="6.45132">
        <ele>1732.9004</ele>
        <time>2020-08-12T07:40:38+02:00</time>
      </trkpt>
      <trkpt lat="45.19031" lon="6.45134">
        <ele>1732.9004</ele>
        <time>2020-08-12T07:40:39+02:00</time>
      </trkpt>
      <trkpt lat="45.19035" lon="6.45139">
        <ele>1729.5</ele>
        <time>2020-08-12T07:40:43+02:00</time>
      </trkpt>
      <trkpt lat="45.19036" lon="6.45141">
        <ele>1729.5</ele>
        <time>2020-08-12T07:40:44+02:00</time>
      </trkpt>
      <trkpt lat="45.1904" lon="6.45148">
        <ele>1726.1006</ele>
        <time>2020-08-12T07:40:48+02:00</time>
      </trkpt>
      <trkpt lat="45.19041" lon="6.45149">
        <ele>1726.1006</ele>
        <time>2020-08-12T07:40:49+02:00</time>
      </trkpt>
      <trkpt lat="45.19045" lon="6.45156">
        <ele>1722.7002</ele>
        <time>2020-08-12T07:40:53+02:00</time>
      </trkpt>
      <trkpt lat="45.19046" lon="6.45158">
        <ele>1722.7002</ele>
        <time>2020-08-12T07:40:54+02:00</time>
      </trkpt>
      <trkpt lat="45.1905" lon="6.45167">
        <ele>1722.9004</ele>
        <time>2020-08-12T07:40:58+02:00</time>
      </trkpt>
      <trkpt lat="45.19051" lon="6.45169">
        <ele>1719.2998</ele>
        <time>2020-08-12T07:40:59+02:00</time>
      </trkpt>
      <trkpt lat="45.19055" lon="6.45177">
        <ele>1719.6006</ele>
        <time>2020-08-12T07:41:03+02:00</time>
      </trkpt>
      <trkpt lat="45.19055" lon="6.45179">
        <ele>1719.6006</ele>
        <time>2020-08-12T07:41:04+02:00</time>
      </trkpt>
      <trkpt lat="45.19051" lon="6.45189">
        <ele>1722.7998</ele>
        <time>2020-08-12T07:41:08+02:00</time>
      </trkpt>
      <trkpt lat="45.19049" lon="6.45191">
        <ele>1722.7002</ele>
        <time>2020-08-12T07:41:09+02:00</time>
      </trkpt>
      <trkpt lat="45.19044" lon="6.45199">
        <ele>1725.1006</ele>
        <time>2020-08-12T07:41:13+02:00</time>
      </trkpt>
      <trkpt lat="45.19043" lon="6.45201">
        <ele>1725.1006</ele>
        <time>2020-08-12T07:41:14+02:00</time>
      </trkpt>
      <trkpt lat="45.19039" lon="6.4521">
        <ele>1724.6006</ele>
        <time>2020-08-12T07:41:18+02:00</time>
      </trkpt>
      <trkpt lat="45.19039" lon="6.45212">
        <ele>1724.6006</ele>
        <time>2020-08-12T07:41:19+02:00</time>
      </trkpt>
      <trkpt lat="45.19037" lon="6.45222">
        <ele>1726.2998</ele>
        <time>2020-08-12T07:41:23+02:00</time>
      </trkpt>
      <trkpt lat="45.19036" lon="6.45224">
        <ele>1725.5</ele>
        <time>2020-08-12T07:41:24+02:00</time>
      </trkpt>
      <trkpt lat="45.19033" lon="6.45233">
        <ele>1724.4004</ele>
        <time>2020-08-12T07:41:28+02:00</time>
      </trkpt>
      <trkpt lat="45.19031" lon="6.45236">
        <ele>1726.7998</ele>
        <time>2020-08-12T07:41:29+02:00</time>
      </trkpt>
      <trkpt lat="45.19025" lon="6.45244">
        <ele>1728</ele>
        <time>2020-08-12T07:41:33+02:00</time>
      </trkpt>
      <trkpt lat="45.19022" lon="6.45246">
        <ele>1728</ele>
        <time>2020-08-12T07:41:34+02:00</time>
      </trkpt>
      <trkpt lat="45.19014" lon="6.45254">
        <ele>1732</ele>
        <time>2020-08-12T07:41:38+02:00</time>
      </trkpt>
      <trkpt lat="45.19012" lon="6.45256">
        <ele>1732</ele>
        <time>2020-08-12T07:41:39+02:00</time>
      </trkpt>
      <trkpt lat="45.19003" lon="6.45265">
        <ele>1733.7002</ele>
        <time>2020-08-12T07:41:43+02:00</time>
      </trkpt>
      <trkpt lat="45.19002" lon="6.45269">
        <ele>1735.7002</ele>
        <time>2020-08-12T07:41:44+02:00</time>
      </trkpt>
      <trkpt lat="45.18999" lon="6.45282">
        <ele>1734.5</ele>
        <time>2020-08-12T07:41:48+02:00</time>
      </trkpt>
      <trkpt lat="45.18998" lon="6.45284">
        <ele>1733.2002</ele>
        <time>2020-08-12T07:41:49+02:00</time>
      </trkpt>
      <trkpt lat="45.18991" lon="6.45292">
        <ele>1736.7002</ele>
        <time>2020-08-12T07:41:53+02:00</time>
      </trkpt>
      <trkpt lat="45.18989" lon="6.45294">
        <ele>1739</ele>
        <time>2020-08-12T07:41:54+02:00</time>
      </trkpt>
      <trkpt lat="45.18981" lon="6.45304">
        <ele>1741.5</ele>
        <time>2020-08-12T07:41:58+02:00</time>
      </trkpt>
      <trkpt lat="45.1898" lon="6.45307">
        <ele>1741.5</ele>
        <time>2020-08-12T07:41:59+02:00</time>
      </trkpt>
      <trkpt lat="45.18972" lon="6.45317">
        <ele>1744</ele>
        <time>2020-08-12T07:42:03+02:00</time>
      </trkpt>
      <trkpt lat="45.18971" lon="6.45321">
        <ele>1746.6006</ele>
        <time>2020-08-12T07:42:04+02:00</time>
      </trkpt>
      <trkpt lat="45.18965" lon="6.45334">
        <ele>1749.2002</ele>
        <time>2020-08-12T07:42:08+02:00</time>
      </trkpt>
      <trkpt lat="45.18964" lon="6.45337">
        <ele>1748.2002</ele>
        <time>2020-08-12T07:42:09+02:00</time>
      </trkpt>
      <trkpt lat="45.18958" lon="6.45349">
        <ele>1750.9004</ele>
        <time>2020-08-12T07:42:13+02:00</time>
      </trkpt>
      <trkpt lat="45.18957" lon="6.45352">
        <ele>1750.9004</ele>
        <time>2020-08-12T07:42:14+02:00</time>
      </trkpt>
      <trkpt lat="45.18952" lon="6.45366">
        <ele>1752.9004</ele>
        <time>2020-08-12T07:42:18+02:00</time>
      </trkpt>
      <trkpt lat="45.18951" lon="6.45368">
        <ele>1752.9004</ele>
        <time>2020-08-12T07:42:19+02:00</time>
      </trkpt>
      <trkpt lat="45.18945" lon="6.45379">
        <ele>1755.2002</ele>
        <time>2020-08-12T07:42:23+02:00</time>
      </trkpt>
      <trkpt lat="45.18944" lon="6.45382">
        <ele>1755.2002</ele>
        <time>2020-08-12T07:42:24+02:00</time>
      </trkpt>
      <trkpt lat="45.18938" lon="6.45397">
        <ele>1757.6006</ele>
        <time>2020-08-12T07:42:28+02:00</time>
      </trkpt>
      <trkpt lat="45.18937" lon="6.45401">
        <ele>1757.6006</ele>
        <time>2020-08-12T07:42:29+02:00</time>
      </trkpt>
      <trkpt lat="45.18936" lon="6.45417">
        <ele>1760.5</ele>
        <time>2020-08-12T07:42:33+02:00</time>
      </trkpt>
      <trkpt lat="45.18935" lon="6.45422">
        <ele>1760.6006</ele>
        <time>2020-08-12T07:42:34+02:00</time>
      </trkpt>
      <trkpt lat="45.18933" lon="6.45435">
        <ele>1760.7002</ele>
        <time>2020-08-12T07:42:38+02:00</time>
      </trkpt>
      <trkpt lat="45.18933" lon="6.45438">
        <ele>1760.7002</ele>
        <time>2020-08-12T07:42:39+02:00</time>
      </trkpt>
      <trkpt lat="45.18933" lon="6.45449">
        <ele>1760.9004</ele>
        <time>2020-08-12T07:42:43+02:00</time>
      </trkpt>
      <trkpt lat="45.18934" lon="6.45452">
        <ele>1760.9004</ele>
        <time>2020-08-12T07:42:44+02:00</time>
      </trkpt>
      <trkpt lat="45.1894" lon="6.45463">
        <ele>1758.1006</ele>
        <time>2020-08-12T07:42:48+02:00</time>
      </trkpt>
      <trkpt lat="45.18942" lon="6.45466">
        <ele>1758.2002</ele>
        <time>2020-08-12T07:42:49+02:00</time>
      </trkpt>
      <trkpt lat="45.18951" lon="6.45477">
        <ele>1752.7998</ele>
        <time>2020-08-12T07:42:53+02:00</time>
      </trkpt>
      <trkpt lat="45.18953" lon="6.45479">
        <ele>1752.7998</ele>
        <time>2020-08-12T07:42:54+02:00</time>
      </trkpt>
      <trkpt lat="45.18962" lon="6.45488">
        <ele>1747.6006</ele>
        <time>2020-08-12T07:42:58+02:00</time>
      </trkpt>
      <trkpt lat="45.18964" lon="6.45491">
        <ele>1748.2002</ele>
        <time>2020-08-12T07:42:59+02:00</time>
      </trkpt>
      <trkpt lat="45.18972" lon="6.455">
        <ele>1743.1006</ele>
        <time>2020-08-12T07:43:03+02:00</time>
      </trkpt>
      <trkpt lat="45.18974" lon="6.45503">
        <ele>1743.1006</ele>
        <time>2020-08-12T07:43:04+02:00</time>
      </trkpt>
      <trkpt lat="45.18981" lon="6.4551">
        <ele>1740.7002</ele>
        <time>2020-08-12T07:43:08+02:00</time>
      </trkpt>
      <trkpt lat="45.18984" lon="6.45512">
        <ele>1740.7002</ele>
        <time>2020-08-12T07:43:09+02:00</time>
      </trkpt>
      <trkpt lat="45.18994" lon="6.4552">
        <ele>1735.6006</ele>
        <time>2020-08-12T07:43:13+02:00</time>
      </trkpt>
      <trkpt lat="45.18996" lon="6.45523">
        <ele>1735.6006</ele>
        <time>2020-08-12T07:43:14+02:00</time>
      </trkpt>
      <trkpt lat="45.19004" lon="6.45536">
        <ele>1731.2002</ele>
        <time>2020-08-12T07:43:18+02:00</time>
      </trkpt>
      <trkpt lat="45.19006" lon="6.45539">
        <ele>1731.2002</ele>
        <time>2020-08-12T07:43:19+02:00</time>
      </trkpt>
      <trkpt lat="45.19016" lon="6.45553">
        <ele>1726.9004</ele>
        <time>2020-08-12T07:43:23+02:00</time>
      </trkpt>
      <trkpt lat="45.19018" lon="6.45558">
        <ele>1726.9004</ele>
        <time>2020-08-12T07:43:24+02:00</time>
      </trkpt>
      <trkpt lat="45.19023" lon="6.45572">
        <ele>1725</ele>
        <time>2020-08-12T07:43:28+02:00</time>
      </trkpt>
      <trkpt lat="45.19023" lon="6.45574">
        <ele>1725</ele>
        <time>2020-08-12T07:43:29+02:00</time>
      </trkpt>
      <trkpt lat="45.19025" lon="6.45583">
        <ele>1725</ele>
        <time>2020-08-12T07:43:33+02:00</time>
      </trkpt>
      <trkpt lat="45.19024" lon="6.45586">
        <ele>1724.7998</ele>
        <time>2020-08-12T07:43:34+02:00</time>
      </trkpt>
      <trkpt lat="45.1902" lon="6.45605">
        <ele>1726</ele>
        <time>2020-08-12T07:43:38+02:00</time>
      </trkpt>
      <trkpt lat="45.19018" lon="6.4561">
        <ele>1725.2002</ele>
        <time>2020-08-12T07:43:39+02:00</time>
      </trkpt>
      <trkpt lat="45.19011" lon="6.45634">
        <ele>1725.1006</ele>
        <time>2020-08-12T07:43:43+02:00</time>
      </trkpt>
      <trkpt lat="45.19009" lon="6.45641">
        <ele>1724</ele>
        <time>2020-08-12T07:43:44+02:00</time>
      </trkpt>
      <trkpt lat="45.19003" lon="6.45671">
        <ele>1720</ele>
        <time>2020-08-12T07:43:48+02:00</time>
      </trkpt>
      <trkpt lat="45.19" lon="6.45679">
        <ele>1720.1006</ele>
        <time>2020-08-12T07:43:49+02:00</time>
      </trkpt>
      <trkpt lat="45.18988" lon="6.45712">
        <ele>1719.5</ele>
        <time>2020-08-12T07:43:53+02:00</time>
      </trkpt>
      <trkpt lat="45.18987" lon="6.45721">
        <ele>1718.2998</ele>
        <time>2020-08-12T07:43:54+02:00</time>
      </trkpt>
      <trkpt lat="45.1899" lon="6.45759">
        <ele>1712.7002</ele>
        <time>2020-08-12T07:43:58+02:00</time>
      </trkpt>
      <trkpt lat="45.18989" lon="6.45769">
        <ele>1711.6006</ele>
        <time>2020-08-12T07:43:59+02:00</time>
      </trkpt>
      <trkpt lat="45.18979" lon="6.45806">
        <ele>1709.6006</ele>
        <time>2020-08-12T07:44:03+02:00</time>
      </trkpt>
      <trkpt lat="45.18976" lon="6.45814">
        <ele>1710.4004</ele>
        <time>2020-08-12T07:44:04+02:00</time>
      </trkpt>
      <trkpt lat="45.18971" lon="6.45844">
        <ele>1708.6006</ele>
        <time>2020-08-12T07:44:08+02:00</time>
      </trkpt>
      <trkpt lat="45.18971" lon="6.45852">
        <ele>1707.7002</ele>
        <time>2020-08-12T07:44:09+02:00</time>
      </trkpt>
      <trkpt lat="45.18973" lon="6.45887">
        <ele>1703.5</ele>
        <time>2020-08-12T07:44:13+02:00</time>
      </trkpt>
      <trkpt lat="45.18973" lon="6.45894">
        <ele>1702.9004</ele>
        <time>2020-08-12T07:44:14+02:00</time>
      </trkpt>
      <trkpt lat="45.1898" lon="6.45916">
        <ele>1700.4004</ele>
        <time>2020-08-12T07:44:18+02:00</time>
      </trkpt>
      <trkpt lat="45.18983" lon="6.45923">
        <ele>1699.7998</ele>
        <time>2020-08-12T07:44:19+02:00</time>
      </trkpt>
      <trkpt lat="45.18995" lon="6.45952">
        <ele>1695.2998</ele>
        <time>2020-08-12T07:44:23+02:00</time>
      </trkpt>
      <trkpt lat="45.18998" lon="6.45963">
        <ele>1692.2002</ele>
        <time>2020-08-12T07:44:24+02:00</time>
      </trkpt>
      <trkpt lat="45.19004" lon="6.45996">
        <ele>1687.2002</ele>
        <time>2020-08-12T07:44:28+02:00</time>
      </trkpt>
      <trkpt lat="45.19004" lon="6.46004">
        <ele>1685.7002</ele>
        <time>2020-08-12T07:44:29+02:00</time>
      </trkpt>
      <trkpt lat="45.18995" lon="6.46024">
        <ele>1683.7998</ele>
        <time>2020-08-12T07:44:33+02:00</time>
      </trkpt>
      <trkpt lat="45.18993" lon="6.46028">
        <ele>1683.7998</ele>
        <time>2020-08-12T07:44:34+02:00</time>
      </trkpt>
      <trkpt lat="45.18979" lon="6.46046">
        <ele>1683.1006</ele>
        <time>2020-08-12T07:44:38+02:00</time>
      </trkpt>
      <trkpt lat="45.18974" lon="6.46052">
        <ele>1682.7998</ele>
        <time>2020-08-12T07:44:39+02:00</time>
      </trkpt>
      <trkpt lat="45.18956" lon="6.46073">
        <ele>1684.9004</ele>
        <time>2020-08-12T07:44:43+02:00</time>
      </trkpt>
      <trkpt lat="45.18952" lon="6.46078">
        <ele>1685.4004</ele>
        <time>2020-08-12T07:44:44+02:00</time>
      </trkpt>
      <trkpt lat="45.18939" lon="6.46108">
        <ele>1682.6006</ele>
        <time>2020-08-12T07:44:48+02:00</time>
      </trkpt>
      <trkpt lat="45.18938" lon="6.46117">
        <ele>1680.2998</ele>
        <time>2020-08-12T07:44:49+02:00</time>
      </trkpt>
      <trkpt lat="45.18935" lon="6.46147">
        <ele>1676.2998</ele>
        <time>2020-08-12T07:44:53+02:00</time>
      </trkpt>
      <trkpt lat="45.18935" lon="6.46153">
        <ele>1674</ele>
        <time>2020-08-12T07:44:54+02:00</time>
      </trkpt>
      <trkpt lat="45.18931" lon="6.46176">
        <ele>1669.2002</ele>
        <time>2020-08-12T07:44:58+02:00</time>
      </trkpt>
      <trkpt lat="45.1893" lon="6.46181">
        <ele>1670</ele>
        <time>2020-08-12T07:44:59+02:00</time>
      </trkpt>
      <trkpt lat="45.18919" lon="6.46205">
        <ele>1665.7998</ele>
        <time>2020-08-12T07:45:03+02:00</time>
      </trkpt>
      <trkpt lat="45.18915" lon="6.46213">
        <ele>1666.4004</ele>
        <time>2020-08-12T07:45:04+02:00</time>
      </trkpt>
      <trkpt lat="45.18896" lon="6.46243">
        <ele>1667.9004</ele>
        <time>2020-08-12T07:45:08+02:00</time>
      </trkpt>
      <trkpt lat="45.1889" lon="6.46247">
        <ele>1668.1006</ele>
        <time>2020-08-12T07:45:09+02:00</time>
      </trkpt>
      <trkpt lat="45.1887" lon="6.46255">
        <ele>1672.9004</ele>
        <time>2020-08-12T07:45:13+02:00</time>
      </trkpt>
      <trkpt lat="45.18865" lon="6.46257">
        <ele>1675</ele>
        <time>2020-08-12T07:45:14+02:00</time>
      </trkpt>
      <trkpt lat="45.18845" lon="6.46266">
        <ele>1677.7998</ele>
        <time>2020-08-12T07:45:18+02:00</time>
      </trkpt>
      <trkpt lat="45.18841" lon="6.46269">
        <ele>1679.4004</ele>
        <time>2020-08-12T07:45:19+02:00</time>
      </trkpt>
      <trkpt lat="45.18822" lon="6.46282">
        <ele>1677.6006</ele>
        <time>2020-08-12T07:45:23+02:00</time>
      </trkpt>
      <trkpt lat="45.18817" lon="6.46286">
        <ele>1678.7998</ele>
        <time>2020-08-12T07:45:24+02:00</time>
      </trkpt>
      <trkpt lat="45.18793" lon="6.46299">
        <ele>1677.2002</ele>
        <time>2020-08-12T07:45:28+02:00</time>
      </trkpt>
      <trkpt lat="45.18788" lon="6.46303">
        <ele>1678.2002</ele>
        <time>2020-08-12T07:45:29+02:00</time>
      </trkpt>
      <trkpt lat="45.18768" lon="6.46322">
        <ele>1671.2998</ele>
        <time>2020-08-12T07:45:33+02:00</time>
      </trkpt>
      <trkpt lat="45.18764" lon="6.46329">
        <ele>1672</ele>
        <time>2020-08-12T07:45:34+02:00</time>
      </trkpt>
      <trkpt lat="45.1875" lon="6.46357">
        <ele>1660.6006</ele>
        <time>2020-08-12T07:45:38+02:00</time>
      </trkpt>
      <trkpt lat="45.18746" lon="6.46364">
        <ele>1661.2002</ele>
        <time>2020-08-12T07:45:39+02:00</time>
      </trkpt>
      <trkpt lat="45.18731" lon="6.46384">
        <ele>1655</ele>
        <time>2020-08-12T07:45:43+02:00</time>
      </trkpt>
      <trkpt lat="45.18727" lon="6.46388">
        <ele>1656</ele>
        <time>2020-08-12T07:45:44+02:00</time>
      </trkpt>
      <trkpt lat="45.18716" lon="6.4639">
        <ele>1658.1006</ele>
        <time>2020-08-12T07:45:48+02:00</time>
      </trkpt>
      <trkpt lat="45.18716" lon="6.4639">
        <ele>1658.1006</ele>
        <time>2020-08-12T07:45:49+02:00</time>
      </trkpt>
      <trkpt lat="45.18716" lon="6.4639">
        <ele>1658.1006</ele>
        <time>2020-08-12T07:45:53+02:00</time>
      </trkpt>
      <trkpt lat="45.18716" lon="6.4639">
        <ele>1658.1006</ele>
        <time>2020-08-12T07:45:54+02:00</time>
      </trkpt>
      <trkpt lat="45.18713" lon="6.46391">
        <ele>1655.9004</ele>
        <time>2020-08-12T07:45:58+02:00</time>
      </trkpt>
      <trkpt lat="45.18712" lon="6.46392">
        <ele>1657.1006</ele>
        <time>2020-08-12T07:45:59+02:00</time>
      </trkpt>
      <trkpt lat="45.18711" lon="6.46393">
        <ele>1657.1006</ele>
        <time>2020-08-12T07:46:04+02:00</time>
      </trkpt>
      <trkpt lat="45.18711" lon="6.46393">
        <ele>1657.1006</ele>
        <time>2020-08-12T07:46:08+02:00</time>
      </trkpt>
      <trkpt lat="45.18711" lon="6.46393">
        <ele>1657.1006</ele>
        <time>2020-08-12T07:46:09+02:00</time>
      </trkpt>
      <trkpt lat="45.18711" lon="6.46393">
        <ele>1657.1006</ele>
        <time>2020-08-12T07:46:14+02:00</time>
      </trkpt>
      <trkpt lat="45.18711" lon="6.46393">
        <ele>1657.1006</ele>
        <time>2020-08-12T07:46:18+02:00</time>
      </trkpt>
      <trkpt lat="45.18711" lon="6.46393">
        <ele>1657.1006</ele>
        <time>2020-08-12T07:46:19+02:00</time>
      </trkpt>
      <trkpt lat="45.18711" lon="6.46393">
        <ele>1657.1006</ele>
        <time>2020-08-12T07:46:23+02:00</time>
      </trkpt>
      <trkpt lat="45.18711" lon="6.46393">
        <ele>1657.1006</ele>
        <time>2020-08-12T07:46:24+02:00</time>
      </trkpt>
      <trkpt lat="45.18711" lon="6.46393">
        <ele>1657.1006</ele>
        <time>2020-08-12T07:46:28+02:00</time>
      </trkpt>
      <trkpt lat="45.1871" lon="6.46393">
        <ele>1657.1006</ele>
        <time>2020-08-12T07:46:29+02:00</time>
      </trkpt>
      <trkpt lat="45.18703" lon="6.464">
        <ele>1656.1006</ele>
        <time>2020-08-12T07:46:33+02:00</time>
      </trkpt>
      <trkpt lat="45.18701" lon="6.46402">
        <ele>1656.1006</ele>
        <time>2020-08-12T07:46:34+02:00</time>
      </trkpt>
      <trkpt lat="45.18691" lon="6.46423">
        <ele>1654.7002</ele>
        <time>2020-08-12T07:46:38+02:00</time>
      </trkpt>
      <trkpt lat="45.18689" lon="6.46429">
        <ele>1652.7002</ele>
        <time>2020-08-12T07:46:39+02:00</time>
      </trkpt>
      <trkpt lat="45.18684" lon="6.46455">
        <ele>1648.9004</ele>
        <time>2020-08-12T07:46:43+02:00</time>
      </trkpt>
      <trkpt lat="45.18684" lon="6.46463">
        <ele>1647.1006</ele>
        <time>2020-08-12T07:46:44+02:00</time>
      </trkpt>
      <trkpt lat="45.18682" lon="6.46497">
        <ele>1639.7002</ele>
        <time>2020-08-12T07:46:48+02:00</time>
      </trkpt>
      <trkpt lat="45.18681" lon="6.46506">
        <ele>1639.7002</ele>
        <time>2020-08-12T07:46:49+02:00</time>
      </trkpt>
      <trkpt lat="45.18679" lon="6.46542">
        <ele>1632.4004</ele>
        <time>2020-08-12T07:46:53+02:00</time>
      </trkpt>
      <trkpt lat="45.18678" lon="6.46552">
        <ele>1630.7002</ele>
        <time>2020-08-12T07:46:54+02:00</time>
      </trkpt>
      <trkpt lat="45.18671" lon="6.46591">
        <ele>1624.6006</ele>
        <time>2020-08-12T07:46:58+02:00</time>
      </trkpt>
      <trkpt lat="45.18669" lon="6.46599">
        <ele>1625.2002</ele>
        <time>2020-08-12T07:46:59+02:00</time>
      </trkpt>
      <trkpt lat="45.18662" lon="6.46636">
        <ele>1622.4004</ele>
        <time>2020-08-12T07:47:03+02:00</time>
      </trkpt>
      <trkpt lat="45.18662" lon="6.46647">
        <ele>1621.5</ele>
        <time>2020-08-12T07:47:04+02:00</time>
      </trkpt>
      <trkpt lat="45.18663" lon="6.46686">
        <ele>1616.4004</ele>
        <time>2020-08-12T07:47:08+02:00</time>
      </trkpt>
      <trkpt lat="45.18663" lon="6.46694">
        <ele>1615.1006</ele>
        <time>2020-08-12T07:47:09+02:00</time>
      </trkpt>
      <trkpt lat="45.18656" lon="6.46719">
        <ele>1611.9004</ele>
        <time>2020-08-12T07:47:13+02:00</time>
      </trkpt>
      <trkpt lat="45.18653" lon="6.46722">
        <ele>1611.9004</ele>
        <time>2020-08-12T07:47:14+02:00</time>
      </trkpt>
      <trkpt lat="45.1864" lon="6.46736">
        <ele>1611.7002</ele>
        <time>2020-08-12T07:47:18+02:00</time>
      </trkpt>
      <trkpt lat="45.18636" lon="6.46739">
        <ele>1613.7002</ele>
        <time>2020-08-12T07:47:19+02:00</time>
      </trkpt>
      <trkpt lat="45.18629" lon="6.4675">
        <ele>1613.4004</ele>
        <time>2020-08-12T07:47:23+02:00</time>
      </trkpt>
      <trkpt lat="45.18628" lon="6.46751">
        <ele>1613.4004</ele>
        <time>2020-08-12T07:47:24+02:00</time>
      </trkpt>
      <trkpt lat="45.18625" lon="6.46748">
        <ele>1615.4004</ele>
        <time>2020-08-12T07:47:28+02:00</time>
      </trkpt>
      <trkpt lat="45.18626" lon="6.46747">
        <ele>1615.4004</ele>
        <time>2020-08-12T07:47:29+02:00</time>
      </trkpt>
      <trkpt lat="45.18633" lon="6.46742">
        <ele>1613.7002</ele>
        <time>2020-08-12T07:47:33+02:00</time>
      </trkpt>
      <trkpt lat="45.18638" lon="6.46741">
        <ele>1613.7002</ele>
        <time>2020-08-12T07:47:34+02:00</time>
      </trkpt>
      <trkpt lat="45.18651" lon="6.46735">
        <ele>1609.7998</ele>
        <time>2020-08-12T07:47:38+02:00</time>
      </trkpt>
      <trkpt lat="45.18653" lon="6.46733">
        <ele>1610</ele>
        <time>2020-08-12T07:47:39+02:00</time>
      </trkpt>
      <trkpt lat="45.18665" lon="6.46718">
        <ele>1608.2002</ele>
        <time>2020-08-12T07:47:43+02:00</time>
      </trkpt>
      <trkpt lat="45.1867" lon="6.46711">
        <ele>1608.2002</ele>
        <time>2020-08-12T07:47:44+02:00</time>
      </trkpt>
      <trkpt lat="45.18687" lon="6.46685">
        <ele>1609.6006</ele>
        <time>2020-08-12T07:47:48+02:00</time>
      </trkpt>
      <trkpt lat="45.18691" lon="6.46678">
        <ele>1609</ele>
        <time>2020-08-12T07:47:49+02:00</time>
      </trkpt>
      <trkpt lat="45.18713" lon="6.46648">
        <ele>1606.5</ele>
        <time>2020-08-12T07:47:53+02:00</time>
      </trkpt>
      <trkpt lat="45.18718" lon="6.46641">
        <ele>1604.7998</ele>
        <time>2020-08-12T07:47:54+02:00</time>
      </trkpt>
      <trkpt lat="45.18746" lon="6.46616">
        <ele>1601.1006</ele>
        <time>2020-08-12T07:47:58+02:00</time>
      </trkpt>
      <trkpt lat="45.18753" lon="6.46609">
        <ele>1600.4004</ele>
        <time>2020-08-12T07:47:59+02:00</time>
      </trkpt>
      <trkpt lat="45.18774" lon="6.46581">
        <ele>1596.6006</ele>
        <time>2020-08-12T07:48:03+02:00</time>
      </trkpt>
      <trkpt lat="45.18777" lon="6.46576">
        <ele>1597.7998</ele>
        <time>2020-08-12T07:48:04+02:00</time>
      </trkpt>
      <trkpt lat="45.18786" lon="6.46552">
        <ele>1598.2002</ele>
        <time>2020-08-12T07:48:08+02:00</time>
      </trkpt>
      <trkpt lat="45.18786" lon="6.46548">
        <ele>1598.2002</ele>
        <time>2020-08-12T07:48:09+02:00</time>
      </trkpt>
      <trkpt lat="45.18793" lon="6.46536">
        <ele>1599.7002</ele>
        <time>2020-08-12T07:48:13+02:00</time>
      </trkpt>
      <trkpt lat="45.18793" lon="6.46535">
        <ele>1599.7002</ele>
        <time>2020-08-12T07:48:14+02:00</time>
      </trkpt>
      <trkpt lat="45.18792" lon="6.46543">
        <ele>1598</ele>
        <time>2020-08-12T07:48:18+02:00</time>
      </trkpt>
      <trkpt lat="45.18792" lon="6.46546">
        <ele>1596.4004</ele>
        <time>2020-08-12T07:48:19+02:00</time>
      </trkpt>
      <trkpt lat="45.18793" lon="6.46572">
        <ele>1592.5</ele>
        <time>2020-08-12T07:48:23+02:00</time>
      </trkpt>
      <trkpt lat="45.18793" lon="6.4658">
        <ele>1591.4004</ele>
        <time>2020-08-12T07:48:24+02:00</time>
      </trkpt>
      <trkpt lat="45.1879" lon="6.46614">
        <ele>1589.4004</ele>
        <time>2020-08-12T07:48:28+02:00</time>
      </trkpt>
      <trkpt lat="45.18788" lon="6.46622">
        <ele>1589.4004</ele>
        <time>2020-08-12T07:48:29+02:00</time>
      </trkpt>
      <trkpt lat="45.1878" lon="6.46646">
        <ele>1588.2998</ele>
        <time>2020-08-12T07:48:33+02:00</time>
      </trkpt>
      <trkpt lat="45.18778" lon="6.46652">
        <ele>1587.2998</ele>
        <time>2020-08-12T07:48:34+02:00</time>
      </trkpt>
      <trkpt lat="45.18771" lon="6.4667">
        <ele>1588.1006</ele>
        <time>2020-08-12T07:48:38+02:00</time>
      </trkpt>
      <trkpt lat="45.18769" lon="6.46674">
        <ele>1586.6006</ele>
        <time>2020-08-12T07:48:39+02:00</time>
      </trkpt>
      <trkpt lat="45.18758" lon="6.46692">
        <ele>1586.6006</ele>
        <time>2020-08-12T07:48:43+02:00</time>
      </trkpt>
      <trkpt lat="45.18756" lon="6.46698">
        <ele>1586.6006</ele>
        <time>2020-08-12T07:48:44+02:00</time>
      </trkpt>
      <trkpt lat="45.18746" lon="6.46726">
        <ele>1582.2998</ele>
        <time>2020-08-12T07:48:48+02:00</time>
      </trkpt>
      <trkpt lat="45.18743" lon="6.46733">
        <ele>1582.2998</ele>
        <time>2020-08-12T07:48:49+02:00</time>
      </trkpt>
      <trkpt lat="45.18731" lon="6.4676">
        <ele>1578.2002</ele>
        <time>2020-08-12T07:48:53+02:00</time>
      </trkpt>
      <trkpt lat="45.18728" lon="6.46768">
        <ele>1577.2998</ele>
        <time>2020-08-12T07:48:54+02:00</time>
      </trkpt>
      <trkpt lat="45.18715" lon="6.46788">
        <ele>1572.1006</ele>
        <time>2020-08-12T07:48:58+02:00</time>
      </trkpt>
      <trkpt lat="45.18712" lon="6.46792">
        <ele>1572.1006</ele>
        <time>2020-08-12T07:48:59+02:00</time>
      </trkpt>
      <trkpt lat="45.18695" lon="6.46814">
        <ele>1569.1006</ele>
        <time>2020-08-12T07:49:03+02:00</time>
      </trkpt>
      <trkpt lat="45.1869" lon="6.46822">
        <ele>1568.1006</ele>
        <time>2020-08-12T07:49:04+02:00</time>
      </trkpt>
      <trkpt lat="45.18668" lon="6.46849">
        <ele>1568.7998</ele>
        <time>2020-08-12T07:49:08+02:00</time>
      </trkpt>
      <trkpt lat="45.18663" lon="6.46854">
        <ele>1567.9004</ele>
        <time>2020-08-12T07:49:09+02:00</time>
      </trkpt>
      <trkpt lat="45.18642" lon="6.46879">
        <ele>1568</ele>
        <time>2020-08-12T07:49:13+02:00</time>
      </trkpt>
      <trkpt lat="45.18636" lon="6.46885">
        <ele>1566.7998</ele>
        <time>2020-08-12T07:49:14+02:00</time>
      </trkpt>
      <trkpt lat="45.18616" lon="6.4692">
        <ele>1560.2002</ele>
        <time>2020-08-12T07:49:18+02:00</time>
      </trkpt>
      <trkpt lat="45.18611" lon="6.46928">
        <ele>1558.9004</ele>
        <time>2020-08-12T07:49:19+02:00</time>
      </trkpt>
      <trkpt lat="45.18592" lon="6.46954">
        <ele>1555.6006</ele>
        <time>2020-08-12T07:49:23+02:00</time>
      </trkpt>
      <trkpt lat="45.18587" lon="6.4696">
        <ele>1554.4004</ele>
        <time>2020-08-12T07:49:24+02:00</time>
      </trkpt>
      <trkpt lat="45.18572" lon="6.46983">
        <ele>1553.9004</ele>
        <time>2020-08-12T07:49:28+02:00</time>
      </trkpt>
      <trkpt lat="45.18568" lon="6.46989">
        <ele>1550.2998</ele>
        <time>2020-08-12T07:49:29+02:00</time>
      </trkpt>
      <trkpt lat="45.18551" lon="6.47023">
        <ele>1543.6006</ele>
        <time>2020-08-12T07:49:33+02:00</time>
      </trkpt>
      <trkpt lat="45.18546" lon="6.47033">
        <ele>1542.7998</ele>
        <time>2020-08-12T07:49:34+02:00</time>
      </trkpt>
      <trkpt lat="45.18532" lon="6.4707">
        <ele>1533.1006</ele>
        <time>2020-08-12T07:49:38+02:00</time>
      </trkpt>
      <trkpt lat="45.18529" lon="6.47078">
        <ele>1532.7998</ele>
        <time>2020-08-12T07:49:39+02:00</time>
      </trkpt>
      <trkpt lat="45.18519" lon="6.47105">
        <ele>1527.4004</ele>
        <time>2020-08-12T07:49:43+02:00</time>
      </trkpt>
      <trkpt lat="45.18518" lon="6.47109">
        <ele>1529.7998</ele>
        <time>2020-08-12T07:49:44+02:00</time>
      </trkpt>
      <trkpt lat="45.1851" lon="6.47118">
        <ele>1529.7002</ele>
        <time>2020-08-12T07:49:48+02:00</time>
      </trkpt>
      <trkpt lat="45.18508" lon="6.4712">
        <ele>1529.7002</ele>
        <time>2020-08-12T07:49:49+02:00</time>
      </trkpt>
      <trkpt lat="45.185" lon="6.4713">
        <ele>1527.1006</ele>
        <time>2020-08-12T07:49:53+02:00</time>
      </trkpt>
      <trkpt lat="45.18499" lon="6.47133">
        <ele>1529.4004</ele>
        <time>2020-08-12T07:49:54+02:00</time>
      </trkpt>
      <trkpt lat="45.18491" lon="6.47146">
        <ele>1529.2998</ele>
        <time>2020-08-12T07:49:58+02:00</time>
      </trkpt>
      <trkpt lat="45.18489" lon="6.4715">
        <ele>1526.9004</ele>
        <time>2020-08-12T07:49:59+02:00</time>
      </trkpt>
      <trkpt lat="45.18479" lon="6.4717">
        <ele>1527</ele>
        <time>2020-08-12T07:50:03+02:00</time>
      </trkpt>
      <trkpt lat="45.18477" lon="6.47174">
        <ele>1525.1006</ele>
        <time>2020-08-12T07:50:04+02:00</time>
      </trkpt>
      <trkpt lat="45.18467" lon="6.47188">
        <ele>1527.6006</ele>
        <time>2020-08-12T07:50:08+02:00</time>
      </trkpt>
      <trkpt lat="45.18465" lon="6.47191">
        <ele>1525.7998</ele>
        <time>2020-08-12T07:50:09+02:00</time>
      </trkpt>
      <trkpt lat="45.1846" lon="6.47203">
        <ele>1526.1006</ele>
        <time>2020-08-12T07:50:13+02:00</time>
      </trkpt>
      <trkpt lat="45.1846" lon="6.47205">
        <ele>1526.1006</ele>
        <time>2020-08-12T07:50:14+02:00</time>
      </trkpt>
      <trkpt lat="45.18462" lon="6.47199">
        <ele>1526.1006</ele>
        <time>2020-08-12T07:50:18+02:00</time>
      </trkpt>
      <trkpt lat="45.18464" lon="6.47196">
        <ele>1527.9004</ele>
        <time>2020-08-12T07:50:19+02:00</time>
      </trkpt>
      <trkpt lat="45.1847" lon="6.47179">
        <ele>1527.2998</ele>
        <time>2020-08-12T07:50:23+02:00</time>
      </trkpt>
      <trkpt lat="45.18472" lon="6.47174">
        <ele>1527.2998</ele>
        <time>2020-08-12T07:50:24+02:00</time>
      </trkpt>
      <trkpt lat="45.18486" lon="6.47161">
        <ele>1526.9004</ele>
        <time>2020-08-12T07:50:28+02:00</time>
      </trkpt>
      <trkpt lat="45.18488" lon="6.47158">
        <ele>1524.6006</ele>
        <time>2020-08-12T07:50:29+02:00</time>
      </trkpt>
      <trkpt lat="45.18494" lon="6.47144">
        <ele>1529.2998</ele>
        <time>2020-08-12T07:50:33+02:00</time>
      </trkpt>
      <trkpt lat="45.18495" lon="6.47141">
        <ele>1527</ele>
        <time>2020-08-12T07:50:34+02:00</time>
      </trkpt>
      <trkpt lat="45.185" lon="6.47129">
        <ele>1529.4004</ele>
        <time>2020-08-12T07:50:38+02:00</time>
      </trkpt>
      <trkpt lat="45.18501" lon="6.47125">
        <ele>1529.6006</ele>
        <time>2020-08-12T07:50:39+02:00</time>
      </trkpt>
      <trkpt lat="45.18503" lon="6.47106">
        <ele>1534.7002</ele>
        <time>2020-08-12T07:50:43+02:00</time>
      </trkpt>
      <trkpt lat="45.18503" lon="6.47101">
        <ele>1537.2998</ele>
        <time>2020-08-12T07:50:44+02:00</time>
      </trkpt>
      <trkpt lat="45.18506" lon="6.47081">
        <ele>1540.4004</ele>
        <time>2020-08-12T07:50:48+02:00</time>
      </trkpt>
      <trkpt lat="45.18508" lon="6.47076">
        <ele>1543.4004</ele>
        <time>2020-08-12T07:50:49+02:00</time>
      </trkpt>
      <trkpt lat="45.18522" lon="6.4706">
        <ele>1543.9004</ele>
        <time>2020-08-12T07:50:53+02:00</time>
      </trkpt>
      <trkpt lat="45.18525" lon="6.47055">
        <ele>1541.2998</ele>
        <time>2020-08-12T07:50:54+02:00</time>
      </trkpt>
      <trkpt lat="45.18539" lon="6.47034">
        <ele>1545.2002</ele>
        <time>2020-08-12T07:50:58+02:00</time>
      </trkpt>
      <trkpt lat="45.18542" lon="6.47029">
        <ele>1542.7998</ele>
        <time>2020-08-12T07:50:59+02:00</time>
      </trkpt>
      <trkpt lat="45.18559" lon="6.47011">
        <ele>1544.6006</ele>
        <time>2020-08-12T07:51:03+02:00</time>
      </trkpt>
      <trkpt lat="45.18564" lon="6.47007">
        <ele>1545.7002</ele>
        <time>2020-08-12T07:51:04+02:00</time>
      </trkpt>
      <trkpt lat="45.18592" lon="6.46984">
        <ele>1541.5</ele>
        <time>2020-08-12T07:51:08+02:00</time>
      </trkpt>
      <trkpt lat="45.186" lon="6.46978">
        <ele>1542.7998</ele>
        <time>2020-08-12T07:51:09+02:00</time>
      </trkpt>
      <trkpt lat="45.18623" lon="6.46953">
        <ele>1544.2998</ele>
        <time>2020-08-12T07:51:13+02:00</time>
      </trkpt>
      <trkpt lat="45.18627" lon="6.46946">
        <ele>1545.5</ele>
        <time>2020-08-12T07:51:14+02:00</time>
      </trkpt>
      <trkpt lat="45.18641" lon="6.46931">
        <ele>1547.5</ele>
        <time>2020-08-12T07:51:18+02:00</time>
      </trkpt>
      <trkpt lat="45.18645" lon="6.46929">
        <ele>1547.5</ele>
        <time>2020-08-12T07:51:19+02:00</time>
      </trkpt>
      <trkpt lat="45.18658" lon="6.46919">
        <ele>1543.1006</ele>
        <time>2020-08-12T07:51:23+02:00</time>
      </trkpt>
      <trkpt lat="45.18661" lon="6.46917">
        <ele>1543.1006</ele>
        <time>2020-08-12T07:51:24+02:00</time>
      </trkpt>
      <trkpt lat="45.18671" lon="6.46909">
        <ele>1541.2002</ele>
        <time>2020-08-12T07:51:28+02:00</time>
      </trkpt>
      <trkpt lat="45.18673" lon="6.46908">
        <ele>1541.2002</ele>
        <time>2020-08-12T07:51:29+02:00</time>
      </trkpt>
      <trkpt lat="45.18682" lon="6.469">
        <ele>1539.2002</ele>
        <time>2020-08-12T07:51:33+02:00</time>
      </trkpt>
      <trkpt lat="45.18685" lon="6.46897">
        <ele>1542.7002</ele>
        <time>2020-08-12T07:51:34+02:00</time>
      </trkpt>
      <trkpt lat="45.18696" lon="6.46888">
        <ele>1540.7002</ele>
        <time>2020-08-12T07:51:38+02:00</time>
      </trkpt>
      <trkpt lat="45.18699" lon="6.46887">
        <ele>1540.7002</ele>
        <time>2020-08-12T07:51:39+02:00</time>
      </trkpt>
      <trkpt lat="45.1871" lon="6.46884">
        <ele>1535.5</ele>
        <time>2020-08-12T07:51:43+02:00</time>
      </trkpt>
      <trkpt lat="45.18713" lon="6.46882">
        <ele>1532.9004</ele>
        <time>2020-08-12T07:51:44+02:00</time>
      </trkpt>
      <trkpt lat="45.18721" lon="6.46875">
        <ele>1534.1006</ele>
        <time>2020-08-12T07:51:48+02:00</time>
      </trkpt>
      <trkpt lat="45.18724" lon="6.46873">
        <ele>1534.1006</ele>
        <time>2020-08-12T07:51:49+02:00</time>
      </trkpt>
      <trkpt lat="45.18736" lon="6.46865">
        <ele>1533.1006</ele>
        <time>2020-08-12T07:51:53+02:00</time>
      </trkpt>
      <trkpt lat="45.18739" lon="6.46863">
        <ele>1530.9004</ele>
        <time>2020-08-12T07:51:54+02:00</time>
      </trkpt>
      <trkpt lat="45.18754" lon="6.46855">
        <ele>1531.1006</ele>
        <time>2020-08-12T07:51:58+02:00</time>
      </trkpt>
      <trkpt lat="45.18758" lon="6.46853">
        <ele>1533.2002</ele>
        <time>2020-08-12T07:51:59+02:00</time>
      </trkpt>
      <trkpt lat="45.18773" lon="6.46843">
        <ele>1532.1006</ele>
        <time>2020-08-12T07:52:03+02:00</time>
      </trkpt>
      <trkpt lat="45.18776" lon="6.46841">
        <ele>1532.1006</ele>
        <time>2020-08-12T07:52:04+02:00</time>
      </trkpt>
      <trkpt lat="45.18789" lon="6.4683">
        <ele>1532.6006</ele>
        <time>2020-08-12T07:52:08+02:00</time>
      </trkpt>
      <trkpt lat="45.18792" lon="6.46827">
        <ele>1534.5</ele>
        <time>2020-08-12T07:52:09+02:00</time>
      </trkpt>
      <trkpt lat="45.18801" lon="6.46814">
        <ele>1536.2998</ele>
        <time>2020-08-12T07:52:13+02:00</time>
      </trkpt>
      <trkpt lat="45.18804" lon="6.46809">
        <ele>1537.6006</ele>
        <time>2020-08-12T07:52:14+02:00</time>
      </trkpt>
      <trkpt lat="45.18817" lon="6.46784">
        <ele>1541.9004</ele>
        <time>2020-08-12T07:52:18+02:00</time>
      </trkpt>
      <trkpt lat="45.18821" lon="6.46778">
        <ele>1539.4004</ele>
        <time>2020-08-12T07:52:19+02:00</time>
      </trkpt>
      <trkpt lat="45.1884" lon="6.46758">
        <ele>1540.4004</ele>
        <time>2020-08-12T07:52:23+02:00</time>
      </trkpt>
      <trkpt lat="45.18847" lon="6.46754">
        <ele>1537.6006</ele>
        <time>2020-08-12T07:52:24+02:00</time>
      </trkpt>
      <trkpt lat="45.18875" lon="6.46738">
        <ele>1528.2002</ele>
        <time>2020-08-12T07:52:28+02:00</time>
      </trkpt>
      <trkpt lat="45.18882" lon="6.46734">
        <ele>1525.2998</ele>
        <time>2020-08-12T07:52:29+02:00</time>
      </trkpt>
      <trkpt lat="45.18913" lon="6.4672">
        <ele>1517.5</ele>
        <time>2020-08-12T07:52:33+02:00</time>
      </trkpt>
      <trkpt lat="45.18922" lon="6.46716">
        <ele>1517.7002</ele>
        <time>2020-08-12T07:52:34+02:00</time>
      </trkpt>
      <trkpt lat="45.18954" lon="6.467">
        <ele>1513.9004</ele>
        <time>2020-08-12T07:52:38+02:00</time>
      </trkpt>
      <trkpt lat="45.1896" lon="6.46695">
        <ele>1512.5</ele>
        <time>2020-08-12T07:52:39+02:00</time>
      </trkpt>
      <trkpt lat="45.18981" lon="6.46672">
        <ele>1512.2002</ele>
        <time>2020-08-12T07:52:43+02:00</time>
      </trkpt>
      <trkpt lat="45.18985" lon="6.46665">
        <ele>1512.2998</ele>
        <time>2020-08-12T07:52:44+02:00</time>
      </trkpt>
      <trkpt lat="45.18999" lon="6.46633">
        <ele>1514</ele>
        <time>2020-08-12T07:52:48+02:00</time>
      </trkpt>
      <trkpt lat="45.19004" lon="6.46624">
        <ele>1513.6006</ele>
        <time>2020-08-12T07:52:49+02:00</time>
      </trkpt>
      <trkpt lat="45.19019" lon="6.46595">
        <ele>1516.5</ele>
        <time>2020-08-12T07:52:53+02:00</time>
      </trkpt>
      <trkpt lat="45.19024" lon="6.46588">
        <ele>1516</ele>
        <time>2020-08-12T07:52:54+02:00</time>
      </trkpt>
      <trkpt lat="45.19036" lon="6.46565">
        <ele>1515.1006</ele>
        <time>2020-08-12T07:52:58+02:00</time>
      </trkpt>
      <trkpt lat="45.19039" lon="6.46559">
        <ele>1514.7998</ele>
        <time>2020-08-12T07:52:59+02:00</time>
      </trkpt>
      <trkpt lat="45.1904" lon="6.46537">
        <ele>1519.6006</ele>
        <time>2020-08-12T07:53:03+02:00</time>
      </trkpt>
      <trkpt lat="45.19039" lon="6.46533">
        <ele>1522.2002</ele>
        <time>2020-08-12T07:53:04+02:00</time>
      </trkpt>
      <trkpt lat="45.19036" lon="6.46522">
        <ele>1527.1006</ele>
        <time>2020-08-12T07:53:08+02:00</time>
      </trkpt>
      <trkpt lat="45.19036" lon="6.46521">
        <ele>1527.1006</ele>
        <time>2020-08-12T07:53:09+02:00</time>
      </trkpt>
      <trkpt lat="45.19038" lon="6.46511">
        <ele>1529.1006</ele>
        <time>2020-08-12T07:53:13+02:00</time>
      </trkpt>
      <trkpt lat="45.19039" lon="6.46508">
        <ele>1527.7998</ele>
        <time>2020-08-12T07:53:14+02:00</time>
      </trkpt>
      <trkpt lat="45.19042" lon="6.46491">
        <ele>1527</ele>
        <time>2020-08-12T07:53:18+02:00</time>
      </trkpt>
      <trkpt lat="45.19043" lon="6.46486">
        <ele>1527</ele>
        <time>2020-08-12T07:53:19+02:00</time>
      </trkpt>
      <trkpt lat="45.19048" lon="6.46471">
        <ele>1523.7998</ele>
        <time>2020-08-12T07:53:23+02:00</time>
      </trkpt>
      <trkpt lat="45.1905" lon="6.46469">
        <ele>1523.7998</ele>
        <time>2020-08-12T07:53:24+02:00</time>
      </trkpt>
      <trkpt lat="45.1906" lon="6.46463">
        <ele>1506.6006</ele>
        <time>2020-08-12T07:53:28+02:00</time>
      </trkpt>
      <trkpt lat="45.19065" lon="6.46462">
        <ele>1500.9004</ele>
        <time>2020-08-12T07:53:29+02:00</time>
      </trkpt>
      <trkpt lat="45.19083" lon="6.46458">
        <ele>1494.1006</ele>
        <time>2020-08-12T07:53:33+02:00</time>
      </trkpt>
      <trkpt lat="45.19087" lon="6.46457">
        <ele>1496.2002</ele>
        <time>2020-08-12T07:53:34+02:00</time>
      </trkpt>
      <trkpt lat="45.19103" lon="6.46453">
        <ele>1503.9004</ele>
        <time>2020-08-12T07:53:38+02:00</time>
      </trkpt>
      <trkpt lat="45.19106" lon="6.46452">
        <ele>1506.9004</ele>
        <time>2020-08-12T07:53:39+02:00</time>
      </trkpt>
      <trkpt lat="45.19119" lon="6.46446">
        <ele>1511.4004</ele>
        <time>2020-08-12T07:53:43+02:00</time>
      </trkpt>
      <trkpt lat="45.19121" lon="6.46444">
        <ele>1511.4004</ele>
        <time>2020-08-12T07:53:44+02:00</time>
      </trkpt>
      <trkpt lat="45.19133" lon="6.46432">
        <ele>1516.2002</ele>
        <time>2020-08-12T07:53:48+02:00</time>
      </trkpt>
      <trkpt lat="45.19138" lon="6.46429">
        <ele>1514.2998</ele>
        <time>2020-08-12T07:53:49+02:00</time>
      </trkpt>
      <trkpt lat="45.19151" lon="6.4641">
        <ele>1516.5</ele>
        <time>2020-08-12T07:53:53+02:00</time>
      </trkpt>
      <trkpt lat="45.19153" lon="6.46406">
        <ele>1519.5</ele>
        <time>2020-08-12T07:53:54+02:00</time>
      </trkpt>
      <trkpt lat="45.19162" lon="6.46393">
        <ele>1518.7998</ele>
        <time>2020-08-12T07:53:58+02:00</time>
      </trkpt>
      <trkpt lat="45.19166" lon="6.46389">
        <ele>1520</ele>
        <time>2020-08-12T07:53:59+02:00</time>
      </trkpt>
      <trkpt lat="45.19177" lon="6.4638">
        <ele>1521.2998</ele>
        <time>2020-08-12T07:54:03+02:00</time>
      </trkpt>
      <trkpt lat="45.19181" lon="6.46378">
        <ele>1519.6006</ele>
        <time>2020-08-12T07:54:04+02:00</time>
      </trkpt>
      <trkpt lat="45.19196" lon="6.46372">
        <ele>1518.7998</ele>
        <time>2020-08-12T07:54:08+02:00</time>
      </trkpt>
      <trkpt lat="45.192" lon="6.4637">
        <ele>1518.7998</ele>
        <time>2020-08-12T07:54:09+02:00</time>
      </trkpt>
      <trkpt lat="45.19214" lon="6.46365">
        <ele>1519.5</ele>
        <time>2020-08-12T07:54:13+02:00</time>
      </trkpt>
      <trkpt lat="45.19218" lon="6.46364">
        <ele>1519.5</ele>
        <time>2020-08-12T07:54:14+02:00</time>
      </trkpt>
      <trkpt lat="45.19234" lon="6.4636">
        <ele>1517.2998</ele>
        <time>2020-08-12T07:54:18+02:00</time>
      </trkpt>
      <trkpt lat="45.19238" lon="6.46359">
        <ele>1516.7002</ele>
        <time>2020-08-12T07:54:19+02:00</time>
      </trkpt>
      <trkpt lat="45.19252" lon="6.46352">
        <ele>1519.4004</ele>
        <time>2020-08-12T07:54:23+02:00</time>
      </trkpt>
      <trkpt lat="45.19255" lon="6.46351">
        <ele>1519.4004</ele>
        <time>2020-08-12T07:54:24+02:00</time>
      </trkpt>
      <trkpt lat="45.19263" lon="6.46348">
        <ele>1522</ele>
        <time>2020-08-12T07:54:28+02:00</time>
      </trkpt>
      <trkpt lat="45.19265" lon="6.46348">
        <ele>1522</ele>
        <time>2020-08-12T07:54:29+02:00</time>
      </trkpt>
      <trkpt lat="45.19275" lon="6.4635">
        <ele>1517.4004</ele>
        <time>2020-08-12T07:54:33+02:00</time>
      </trkpt>
      <trkpt lat="45.19278" lon="6.4635">
        <ele>1517.4004</ele>
        <time>2020-08-12T07:54:34+02:00</time>
      </trkpt>
      <trkpt lat="45.19289" lon="6.4635">
        <ele>1516.2002</ele>
        <time>2020-08-12T07:54:38+02:00</time>
      </trkpt>
      <trkpt lat="45.19291" lon="6.46349">
        <ele>1516.2002</ele>
        <time>2020-08-12T07:54:39+02:00</time>
      </trkpt>
      <trkpt lat="45.19302" lon="6.46345">
        <ele>1518.4004</ele>
        <time>2020-08-12T07:54:43+02:00</time>
      </trkpt>
      <trkpt lat="45.19304" lon="6.46344">
        <ele>1518.4004</ele>
        <time>2020-08-12T07:54:44+02:00</time>
      </trkpt>
      <trkpt lat="45.19315" lon="6.4634">
        <ele>1516.7002</ele>
        <time>2020-08-12T07:54:48+02:00</time>
      </trkpt>
      <trkpt lat="45.19317" lon="6.46339">
        <ele>1519.5</ele>
        <time>2020-08-12T07:54:49+02:00</time>
      </trkpt>
      <trkpt lat="45.19324" lon="6.46337">
        <ele>1518.4004</ele>
        <time>2020-08-12T07:54:53+02:00</time>
      </trkpt>
      <trkpt lat="45.19325" lon="6.46336">
        <ele>1518.4004</ele>
        <time>2020-08-12T07:54:54+02:00</time>
      </trkpt>
      <trkpt lat="45.19332" lon="6.46334">
        <ele>1517.2002</ele>
        <time>2020-08-12T07:54:58+02:00</time>
      </trkpt>
      <trkpt lat="45.19333" lon="6.46333">
        <ele>1517.2002</ele>
        <time>2020-08-12T07:54:59+02:00</time>
      </trkpt>
      <trkpt lat="45.19338" lon="6.46328">
        <ele>1519.2002</ele>
        <time>2020-08-12T07:55:03+02:00</time>
      </trkpt>
      <trkpt lat="45.1934" lon="6.46326">
        <ele>1519.2002</ele>
        <time>2020-08-12T07:55:04+02:00</time>
      </trkpt>
      <trkpt lat="45.19348" lon="6.46316">
        <ele>1519</ele>
        <time>2020-08-12T07:55:08+02:00</time>
      </trkpt>
      <trkpt lat="45.19349" lon="6.46313">
        <ele>1522.4004</ele>
        <time>2020-08-12T07:55:09+02:00</time>
      </trkpt>
      <trkpt lat="45.19355" lon="6.46304">
        <ele>1523.6006</ele>
        <time>2020-08-12T07:55:13+02:00</time>
      </trkpt>
      <trkpt lat="45.19356" lon="6.46302">
        <ele>1523.6006</ele>
        <time>2020-08-12T07:55:14+02:00</time>
      </trkpt>
      <trkpt lat="45.19363" lon="6.46293">
        <ele>1524.5</ele>
        <time>2020-08-12T07:55:18+02:00</time>
      </trkpt>
      <trkpt lat="45.19365" lon="6.46291">
        <ele>1524.5</ele>
        <time>2020-08-12T07:55:19+02:00</time>
      </trkpt>
      <trkpt lat="45.19371" lon="6.46283">
        <ele>1525.1006</ele>
        <time>2020-08-12T07:55:23+02:00</time>
      </trkpt>
      <trkpt lat="45.19373" lon="6.46282">
        <ele>1522.9004</ele>
        <time>2020-08-12T07:55:24+02:00</time>
      </trkpt>
      <trkpt lat="45.1938" lon="6.46275">
        <ele>1523.4004</ele>
        <time>2020-08-12T07:55:28+02:00</time>
      </trkpt>
      <trkpt lat="45.19383" lon="6.46273">
        <ele>1523.4004</ele>
        <time>2020-08-12T07:55:29+02:00</time>
      </trkpt>
      <trkpt lat="45.19392" lon="6.46264">
        <ele>1521.5</ele>
        <time>2020-08-12T07:55:33+02:00</time>
      </trkpt>
      <trkpt lat="45.19394" lon="6.46261">
        <ele>1524.2002</ele>
        <time>2020-08-12T07:55:34+02:00</time>
      </trkpt>
      <trkpt lat="45.19404" lon="6.46252">
        <ele>1522.1006</ele>
        <time>2020-08-12T07:55:38+02:00</time>
      </trkpt>
      <trkpt lat="45.19407" lon="6.4625">
        <ele>1522.1006</ele>
        <time>2020-08-12T07:55:39+02:00</time>
      </trkpt>
      <trkpt lat="45.19419" lon="6.46236">
        <ele>1522.2002</ele>
        <time>2020-08-12T07:55:43+02:00</time>
      </trkpt>
      <trkpt lat="45.19422" lon="6.46233">
        <ele>1520</ele>
        <time>2020-08-12T07:55:44+02:00</time>
      </trkpt>
      <trkpt lat="45.19432" lon="6.46217">
        <ele>1522.2002</ele>
        <time>2020-08-12T07:55:48+02:00</time>
      </trkpt>
      <trkpt lat="45.19434" lon="6.46213">
        <ele>1520.2998</ele>
        <time>2020-08-12T07:55:49+02:00</time>
      </trkpt>
      <trkpt lat="45.1944" lon="6.46199">
        <ele>1522.7002</ele>
        <time>2020-08-12T07:55:53+02:00</time>
      </trkpt>
      <trkpt lat="45.19441" lon="6.46195">
        <ele>1522.7002</ele>
        <time>2020-08-12T07:55:54+02:00</time>
      </trkpt>
      <trkpt lat="45.19445" lon="6.46179">
        <ele>1525.1006</ele>
        <time>2020-08-12T07:55:58+02:00</time>
      </trkpt>
      <trkpt lat="45.19446" lon="6.46175">
        <ele>1526.9004</ele>
        <time>2020-08-12T07:55:59+02:00</time>
      </trkpt>
      <trkpt lat="45.19449" lon="6.46164">
        <ele>1528.6006</ele>
        <time>2020-08-12T07:56:03+02:00</time>
      </trkpt>
      <trkpt lat="45.19449" lon="6.46161">
        <ele>1528.6006</ele>
        <time>2020-08-12T07:56:04+02:00</time>
      </trkpt>
      <trkpt lat="45.19451" lon="6.46154">
        <ele>1528.5</ele>
        <time>2020-08-12T07:56:08+02:00</time>
      </trkpt>
      <trkpt lat="45.19452" lon="6.46151">
        <ele>1528.5</ele>
        <time>2020-08-12T07:56:09+02:00</time>
      </trkpt>
      <trkpt lat="45.19458" lon="6.46141">
        <ele>1529.5</ele>
        <time>2020-08-12T07:56:13+02:00</time>
      </trkpt>
      <trkpt lat="45.1946" lon="6.46139">
        <ele>1529.5</ele>
        <time>2020-08-12T07:56:14+02:00</time>
      </trkpt>
      <trkpt lat="45.19467" lon="6.46126">
        <ele>1529.1006</ele>
        <time>2020-08-12T07:56:18+02:00</time>
      </trkpt>
      <trkpt lat="45.19469" lon="6.46122">
        <ele>1528.7002</ele>
        <time>2020-08-12T07:56:19+02:00</time>
      </trkpt>
      <trkpt lat="45.19478" lon="6.46109">
        <ele>1528.2998</ele>
        <time>2020-08-12T07:56:23+02:00</time>
      </trkpt>
      <trkpt lat="45.19481" lon="6.46107">
        <ele>1527.9004</ele>
        <time>2020-08-12T07:56:24+02:00</time>
      </trkpt>
      <trkpt lat="45.19492" lon="6.461">
        <ele>1526.7998</ele>
        <time>2020-08-12T07:56:28+02:00</time>
      </trkpt>
      <trkpt lat="45.19495" lon="6.46098">
        <ele>1526.6006</ele>
        <time>2020-08-12T07:56:29+02:00</time>
      </trkpt>
      <trkpt lat="45.19503" lon="6.46091">
        <ele>1525.6006</ele>
        <time>2020-08-12T07:56:33+02:00</time>
      </trkpt>
      <trkpt lat="45.19506" lon="6.46088">
        <ele>1525.5</ele>
        <time>2020-08-12T07:56:34+02:00</time>
      </trkpt>
      <trkpt lat="45.19515" lon="6.46078">
        <ele>1525.2998</ele>
        <time>2020-08-12T07:56:38+02:00</time>
      </trkpt>
      <trkpt lat="45.19517" lon="6.46075">
        <ele>1524.4004</ele>
        <time>2020-08-12T07:56:39+02:00</time>
      </trkpt>
      <trkpt lat="45.19521" lon="6.46062">
        <ele>1525.4004</ele>
        <time>2020-08-12T07:56:43+02:00</time>
      </trkpt>
      <trkpt lat="45.19522" lon="6.46059">
        <ele>1525.4004</ele>
        <time>2020-08-12T07:56:44+02:00</time>
      </trkpt>
      <trkpt lat="45.19521" lon="6.4605">
        <ele>1525.7998</ele>
        <time>2020-08-12T07:56:48+02:00</time>
      </trkpt>
      <trkpt lat="45.1952" lon="6.46048">
        <ele>1526</ele>
        <time>2020-08-12T07:56:49+02:00</time>
      </trkpt>
      <trkpt lat="45.19513" lon="6.46038">
        <ele>1527.1006</ele>
        <time>2020-08-12T07:56:53+02:00</time>
      </trkpt>
      <trkpt lat="45.19511" lon="6.46034">
        <ele>1527.1006</ele>
        <time>2020-08-12T07:56:54+02:00</time>
      </trkpt>
      <trkpt lat="45.19503" lon="6.46023">
        <ele>1529.1006</ele>
        <time>2020-08-12T07:56:58+02:00</time>
      </trkpt>
      <trkpt lat="45.19501" lon="6.46021">
        <ele>1529</ele>
        <time>2020-08-12T07:56:59+02:00</time>
      </trkpt>
      <trkpt lat="45.19494" lon="6.46013">
        <ele>1529.5</ele>
        <time>2020-08-12T07:57:03+02:00</time>
      </trkpt>
      <trkpt lat="45.19493" lon="6.46011">
        <ele>1529.5</ele>
        <time>2020-08-12T07:57:04+02:00</time>
      </trkpt>
      <trkpt lat="45.19488" lon="6.46003">
        <ele>1529.7002</ele>
        <time>2020-08-12T07:57:08+02:00</time>
      </trkpt>
      <trkpt lat="45.19486" lon="6.46002">
        <ele>1529.7002</ele>
        <time>2020-08-12T07:57:09+02:00</time>
      </trkpt>
      <trkpt lat="45.19481" lon="6.45997">
        <ele>1530.4004</ele>
        <time>2020-08-12T07:57:13+02:00</time>
      </trkpt>
      <trkpt lat="45.1948" lon="6.45995">
        <ele>1529.6006</ele>
        <time>2020-08-12T07:57:14+02:00</time>
      </trkpt>
      <trkpt lat="45.19477" lon="6.4599">
        <ele>1530.2998</ele>
        <time>2020-08-12T07:57:18+02:00</time>
      </trkpt>
      <trkpt lat="45.19476" lon="6.45989">
        <ele>1530.2998</ele>
        <time>2020-08-12T07:57:19+02:00</time>
      </trkpt>
      <trkpt lat="45.19468" lon="6.45985">
        <ele>1530.1006</ele>
        <time>2020-08-12T07:57:23+02:00</time>
      </trkpt>
      <trkpt lat="45.19466" lon="6.45985">
        <ele>1531.1006</ele>
        <time>2020-08-12T07:57:24+02:00</time>
      </trkpt>
      <trkpt lat="45.19456" lon="6.45981">
        <ele>1533.2998</ele>
        <time>2020-08-12T07:57:28+02:00</time>
      </trkpt>
      <trkpt lat="45.19453" lon="6.4598">
        <ele>1533.2998</ele>
        <time>2020-08-12T07:57:29+02:00</time>
      </trkpt>
      <trkpt lat="45.1944" lon="6.45976">
        <ele>1534.6006</ele>
        <time>2020-08-12T07:57:33+02:00</time>
      </trkpt>
      <trkpt lat="45.19436" lon="6.45976">
        <ele>1536</ele>
        <time>2020-08-12T07:57:34+02:00</time>
      </trkpt>
      <trkpt lat="45.19422" lon="6.45974">
        <ele>1539</ele>
        <time>2020-08-12T07:57:38+02:00</time>
      </trkpt>
      <trkpt lat="45.19419" lon="6.45974">
        <ele>1540.6006</ele>
        <time>2020-08-12T07:57:39+02:00</time>
      </trkpt>
      <trkpt lat="45.19404" lon="6.45974">
        <ele>1543.9004</ele>
        <time>2020-08-12T07:57:43+02:00</time>
      </trkpt>
      <trkpt lat="45.19401" lon="6.45974">
        <ele>1545.6006</ele>
        <time>2020-08-12T07:57:44+02:00</time>
      </trkpt>
      <trkpt lat="45.19384" lon="6.45961">
        <ele>1545.1006</ele>
        <time>2020-08-12T07:57:48+02:00</time>
      </trkpt>
      <trkpt lat="45.19379" lon="6.45955">
        <ele>1546.9004</ele>
        <time>2020-08-12T07:57:49+02:00</time>
      </trkpt>
      <trkpt lat="45.19362" lon="6.45927">
        <ele>1544.6006</ele>
        <time>2020-08-12T07:57:53+02:00</time>
      </trkpt>
      <trkpt lat="45.19359" lon="6.4592">
        <ele>1544.6006</ele>
        <time>2020-08-12T07:57:54+02:00</time>
      </trkpt>
      <trkpt lat="45.19346" lon="6.45902">
        <ele>1544.5</ele>
        <time>2020-08-12T07:57:58+02:00</time>
      </trkpt>
      <trkpt lat="45.19344" lon="6.459">
        <ele>1540.1006</ele>
        <time>2020-08-12T07:57:59+02:00</time>
      </trkpt>
      <trkpt lat="45.19339" lon="6.45887">
        <ele>1540.7002</ele>
        <time>2020-08-12T07:58:03+02:00</time>
      </trkpt>
      <trkpt lat="45.19339" lon="6.45883">
        <ele>1540</ele>
        <time>2020-08-12T07:58:04+02:00</time>
      </trkpt>
      <trkpt lat="45.19337" lon="6.45865">
        <ele>1540.6006</ele>
        <time>2020-08-12T07:58:08+02:00</time>
      </trkpt>
      <trkpt lat="45.19337" lon="6.45861">
        <ele>1540.6006</ele>
        <time>2020-08-12T07:58:09+02:00</time>
      </trkpt>
      <trkpt lat="45.19338" lon="6.45843">
        <ele>1537.4004</ele>
        <time>2020-08-12T07:58:13+02:00</time>
      </trkpt>
      <trkpt lat="45.19339" lon="6.45839">
        <ele>1535</ele>
        <time>2020-08-12T07:58:14+02:00</time>
      </trkpt>
      <trkpt lat="45.19341" lon="6.45821">
        <ele>1533.1006</ele>
        <time>2020-08-12T07:58:18+02:00</time>
      </trkpt>
      <trkpt lat="45.19341" lon="6.45817">
        <ele>1533.1006</ele>
        <time>2020-08-12T07:58:19+02:00</time>
      </trkpt>
      <trkpt lat="45.19345" lon="6.45799">
        <ele>1529.7002</ele>
        <time>2020-08-12T07:58:23+02:00</time>
      </trkpt>
      <trkpt lat="45.19347" lon="6.45796">
        <ele>1530.1006</ele>
        <time>2020-08-12T07:58:24+02:00</time>
      </trkpt>
      <trkpt lat="45.19352" lon="6.45781">
        <ele>1525.7002</ele>
        <time>2020-08-12T07:58:28+02:00</time>
      </trkpt>
      <trkpt lat="45.19353" lon="6.45777">
        <ele>1521.7002</ele>
        <time>2020-08-12T07:58:29+02:00</time>
      </trkpt>
      <trkpt lat="45.19359" lon="6.45763">
        <ele>1517.7002</ele>
        <time>2020-08-12T07:58:33+02:00</time>
      </trkpt>
      <trkpt lat="45.19361" lon="6.45759">
        <ele>1517.7002</ele>
        <time>2020-08-12T07:58:34+02:00</time>
      </trkpt>
      <trkpt lat="45.19369" lon="6.4574">
        <ele>1514.1006</ele>
        <time>2020-08-12T07:58:38+02:00</time>
      </trkpt>
      <trkpt lat="45.1937" lon="6.45735">
        <ele>1514.2002</ele>
        <time>2020-08-12T07:58:39+02:00</time>
      </trkpt>
      <trkpt lat="45.19372" lon="6.45717">
        <ele>1510.5</ele>
        <time>2020-08-12T07:58:43+02:00</time>
      </trkpt>
      <trkpt lat="45.19372" lon="6.45714">
        <ele>1510.5</ele>
        <time>2020-08-12T07:58:44+02:00</time>
      </trkpt>
      <trkpt lat="45.19368" lon="6.45703">
        <ele>1514.5</ele>
        <time>2020-08-12T07:58:48+02:00</time>
      </trkpt>
      <trkpt lat="45.19367" lon="6.45701">
        <ele>1514.5</ele>
        <time>2020-08-12T07:58:49+02:00</time>
      </trkpt>
      <trkpt lat="45.19363" lon="6.45693">
        <ele>1518.4004</ele>
        <time>2020-08-12T07:58:53+02:00</time>
      </trkpt>
      <trkpt lat="45.19363" lon="6.45691">
        <ele>1518.4004</ele>
        <time>2020-08-12T07:58:54+02:00</time>
      </trkpt>
      <trkpt lat="45.19363" lon="6.45688">
        <ele>1518.4004</ele>
        <time>2020-08-12T07:58:58+02:00</time>
      </trkpt>
      <trkpt lat="45.19363" lon="6.45687">
        <ele>1518.4004</ele>
        <time>2020-08-12T07:58:59+02:00</time>
      </trkpt>
      <trkpt lat="45.19363" lon="6.45686">
        <ele>1518.7002</ele>
        <time>2020-08-12T07:59:03+02:00</time>
      </trkpt>
      <trkpt lat="45.19362" lon="6.45684">
        <ele>1518.7002</ele>
        <time>2020-08-12T07:59:04+02:00</time>
      </trkpt>
      <trkpt lat="45.19363" lon="6.45681">
        <ele>1518.7002</ele>
        <time>2020-08-12T07:59:08+02:00</time>
      </trkpt>
      <trkpt lat="45.19364" lon="6.45681">
        <ele>1518.7002</ele>
        <time>2020-08-12T07:59:09+02:00</time>
      </trkpt>
      <trkpt lat="45.19363" lon="6.45678">
        <ele>1519</ele>
        <time>2020-08-12T07:59:13+02:00</time>
      </trkpt>
      <trkpt lat="45.19363" lon="6.45678">
        <ele>1519</ele>
        <time>2020-08-12T07:59:14+02:00</time>
      </trkpt>
      <trkpt lat="45.19363" lon="6.45674">
        <ele>1519</ele>
        <time>2020-08-12T07:59:18+02:00</time>
      </trkpt>
      <trkpt lat="45.19363" lon="6.45673">
        <ele>1519</ele>
        <time>2020-08-12T07:59:19+02:00</time>
      </trkpt>
      <trkpt lat="45.19361" lon="6.45669">
        <ele>1519.2002</ele>
        <time>2020-08-12T07:59:23+02:00</time>
      </trkpt>
      <trkpt lat="45.19361" lon="6.45667">
        <ele>1519.2002</ele>
        <time>2020-08-12T07:59:24+02:00</time>
      </trkpt>
      <trkpt lat="45.1936" lon="6.45664">
        <ele>1519.2002</ele>
        <time>2020-08-12T07:59:28+02:00</time>
      </trkpt>
      <trkpt lat="45.1936" lon="6.45662">
        <ele>1519.2002</ele>
        <time>2020-08-12T07:59:29+02:00</time>
      </trkpt>
      <trkpt lat="45.19359" lon="6.45658">
        <ele>1519.5</ele>
        <time>2020-08-12T07:59:33+02:00</time>
      </trkpt>
      <trkpt lat="45.19359" lon="6.45655">
        <ele>1523</ele>
        <time>2020-08-12T07:59:34+02:00</time>
      </trkpt>
      <trkpt lat="45.19356" lon="6.45642">
        <ele>1523.5</ele>
        <time>2020-08-12T07:59:38+02:00</time>
      </trkpt>
      <trkpt lat="45.19356" lon="6.45639">
        <ele>1523.5</ele>
        <time>2020-08-12T07:59:39+02:00</time>
      </trkpt>
      <trkpt lat="45.19355" lon="6.45625">
        <ele>1523.4004</ele>
        <time>2020-08-12T07:59:43+02:00</time>
      </trkpt>
      <trkpt lat="45.19355" lon="6.45621">
        <ele>1523.4004</ele>
        <time>2020-08-12T07:59:44+02:00</time>
      </trkpt>
      <trkpt lat="45.19354" lon="6.45606">
        <ele>1522.4004</ele>
        <time>2020-08-12T07:59:48+02:00</time>
      </trkpt>
      <trkpt lat="45.19353" lon="6.45602">
        <ele>1526.2998</ele>
        <time>2020-08-12T07:59:49+02:00</time>
      </trkpt>
      <trkpt lat="45.19347" lon="6.45589">
        <ele>1525.1006</ele>
        <time>2020-08-12T07:59:53+02:00</time>
      </trkpt>
      <trkpt lat="45.19345" lon="6.45586">
        <ele>1529</ele>
        <time>2020-08-12T07:59:54+02:00</time>
      </trkpt>
      <trkpt lat="45.1934" lon="6.45574">
        <ele>1531.4004</ele>
        <time>2020-08-12T07:59:58+02:00</time>
      </trkpt>
      <trkpt lat="45.19338" lon="6.4557">
        <ele>1531.4004</ele>
        <time>2020-08-12T07:59:59+02:00</time>
      </trkpt>
      <trkpt lat="45.19335" lon="6.45553">
        <ele>1529.5</ele>
        <time>2020-08-12T08:00:03+02:00</time>
      </trkpt>
      <trkpt lat="45.19334" lon="6.4555">
        <ele>1533.4004</ele>
        <time>2020-08-12T08:00:04+02:00</time>
      </trkpt>
      <trkpt lat="45.19329" lon="6.45533">
        <ele>1535</ele>
        <time>2020-08-12T08:00:08+02:00</time>
      </trkpt>
      <trkpt lat="45.19327" lon="6.45529">
        <ele>1533.7998</ele>
        <time>2020-08-12T08:00:09+02:00</time>
      </trkpt>
      <trkpt lat="45.19323" lon="6.45517">
        <ele>1536.2002</ele>
        <time>2020-08-12T08:00:13+02:00</time>
      </trkpt>
      <trkpt lat="45.19321" lon="6.45515">
        <ele>1534.9004</ele>
        <time>2020-08-12T08:00:14+02:00</time>
      </trkpt>
      <trkpt lat="45.19323" lon="6.45501">
        <ele>1529.9004</ele>
        <time>2020-08-12T08:00:18+02:00</time>
      </trkpt>
      <trkpt lat="45.19325" lon="6.45499">
        <ele>1529.9004</ele>
        <time>2020-08-12T08:00:19+02:00</time>
      </trkpt>
      <trkpt lat="45.19326" lon="6.45491">
        <ele>1528.5</ele>
        <time>2020-08-12T08:00:23+02:00</time>
      </trkpt>
      <trkpt lat="45.19326" lon="6.4549">
        <ele>1528.5</ele>
        <time>2020-08-12T08:00:24+02:00</time>
      </trkpt>
      <trkpt lat="45.19325" lon="6.4548">
        <ele>1525.6006</ele>
        <time>2020-08-12T08:00:28+02:00</time>
      </trkpt>
      <trkpt lat="45.19326" lon="6.45476">
        <ele>1525.6006</ele>
        <time>2020-08-12T08:00:29+02:00</time>
      </trkpt>
      <trkpt lat="45.19327" lon="6.45465">
        <ele>1524.2002</ele>
        <time>2020-08-12T08:00:33+02:00</time>
      </trkpt>
      <trkpt lat="45.19328" lon="6.45462">
        <ele>1522.6006</ele>
        <time>2020-08-12T08:00:34+02:00</time>
      </trkpt>
      <trkpt lat="45.19332" lon="6.45447">
        <ele>1515.9004</ele>
        <time>2020-08-12T08:00:38+02:00</time>
      </trkpt>
      <trkpt lat="45.19333" lon="6.45443">
        <ele>1515.9004</ele>
        <time>2020-08-12T08:00:39+02:00</time>
      </trkpt>
      <trkpt lat="45.19339" lon="6.45427">
        <ele>1508.9004</ele>
        <time>2020-08-12T08:00:43+02:00</time>
      </trkpt>
      <trkpt lat="45.19339" lon="6.45425">
        <ele>1508.9004</ele>
        <time>2020-08-12T08:00:44+02:00</time>
      </trkpt>
      <trkpt lat="45.19339" lon="6.45419">
        <ele>1507.2002</ele>
        <time>2020-08-12T08:00:48+02:00</time>
      </trkpt>
      <trkpt lat="45.19338" lon="6.45415">
        <ele>1507.2002</ele>
        <time>2020-08-12T08:00:49+02:00</time>
      </trkpt>
      <trkpt lat="45.19334" lon="6.45398">
        <ele>1507.7002</ele>
        <time>2020-08-12T08:00:53+02:00</time>
      </trkpt>
      <trkpt lat="45.19334" lon="6.45394">
        <ele>1506.2002</ele>
        <time>2020-08-12T08:00:54+02:00</time>
      </trkpt>
      <trkpt lat="45.19333" lon="6.45381">
        <ele>1504.7998</ele>
        <time>2020-08-12T08:00:58+02:00</time>
      </trkpt>
      <trkpt lat="45.19333" lon="6.45379">
        <ele>1504.7998</ele>
        <time>2020-08-12T08:00:59+02:00</time>
      </trkpt>
      <trkpt lat="45.19333" lon="6.4537">
        <ele>1503.4004</ele>
        <time>2020-08-12T08:01:03+02:00</time>
      </trkpt>
      <trkpt lat="45.19332" lon="6.45367">
        <ele>1502.1006</ele>
        <time>2020-08-12T08:01:04+02:00</time>
      </trkpt>
      <trkpt lat="45.19328" lon="6.45355">
        <ele>1504.7002</ele>
        <time>2020-08-12T08:01:08+02:00</time>
      </trkpt>
      <trkpt lat="45.19327" lon="6.45352">
        <ele>1503.7002</ele>
        <time>2020-08-12T08:01:09+02:00</time>
      </trkpt>
      <trkpt lat="45.19324" lon="6.4534">
        <ele>1502.7002</ele>
        <time>2020-08-12T08:01:13+02:00</time>
      </trkpt>
      <trkpt lat="45.19323" lon="6.45337">
        <ele>1502.7002</ele>
        <time>2020-08-12T08:01:14+02:00</time>
      </trkpt>
      <trkpt lat="45.19321" lon="6.45323">
        <ele>1505.4004</ele>
        <time>2020-08-12T08:01:18+02:00</time>
      </trkpt>
      <trkpt lat="45.1932" lon="6.45321">
        <ele>1505.4004</ele>
        <time>2020-08-12T08:01:19+02:00</time>
      </trkpt>
      <trkpt lat="45.19317" lon="6.45312">
        <ele>1504.7002</ele>
        <time>2020-08-12T08:01:23+02:00</time>
      </trkpt>
      <trkpt lat="45.19316" lon="6.4531">
        <ele>1509.1006</ele>
        <time>2020-08-12T08:01:24+02:00</time>
      </trkpt>
      <trkpt lat="45.19315" lon="6.45301">
        <ele>1508.6006</ele>
        <time>2020-08-12T08:01:28+02:00</time>
      </trkpt>
      <trkpt lat="45.19314" lon="6.45299">
        <ele>1508</ele>
        <time>2020-08-12T08:01:29+02:00</time>
      </trkpt>
      <trkpt lat="45.19314" lon="6.45293">
        <ele>1508</ele>
        <time>2020-08-12T08:01:33+02:00</time>
      </trkpt>
      <trkpt lat="45.19314" lon="6.45292">
        <ele>1507.6006</ele>
        <time>2020-08-12T08:01:34+02:00</time>
      </trkpt>
      <trkpt lat="45.19314" lon="6.45286">
        <ele>1507.6006</ele>
        <time>2020-08-12T08:01:38+02:00</time>
      </trkpt>
      <trkpt lat="45.19314" lon="6.45285">
        <ele>1507.6006</ele>
        <time>2020-08-12T08:01:39+02:00</time>
      </trkpt>
      <trkpt lat="45.19314" lon="6.45277">
        <ele>1507.1006</ele>
        <time>2020-08-12T08:01:43+02:00</time>
      </trkpt>
      <trkpt lat="45.19314" lon="6.45275">
        <ele>1506.7998</ele>
        <time>2020-08-12T08:01:44+02:00</time>
      </trkpt>
      <trkpt lat="45.19313" lon="6.45265">
        <ele>1506.5</ele>
        <time>2020-08-12T08:01:48+02:00</time>
      </trkpt>
      <trkpt lat="45.19313" lon="6.45264">
        <ele>1506.5</ele>
        <time>2020-08-12T08:01:49+02:00</time>
      </trkpt>
      <trkpt lat="45.19314" lon="6.45256">
        <ele>1506.2998</ele>
        <time>2020-08-12T08:01:53+02:00</time>
      </trkpt>
      <trkpt lat="45.19314" lon="6.45254">
        <ele>1506.2998</ele>
        <time>2020-08-12T08:01:54+02:00</time>
      </trkpt>
      <trkpt lat="45.19316" lon="6.45241">
        <ele>1506.2998</ele>
        <time>2020-08-12T08:01:58+02:00</time>
      </trkpt>
      <trkpt lat="45.19316" lon="6.45237">
        <ele>1506.2002</ele>
        <time>2020-08-12T08:01:59+02:00</time>
      </trkpt>
      <trkpt lat="45.19321" lon="6.45222">
        <ele>1501.7998</ele>
        <time>2020-08-12T08:02:03+02:00</time>
      </trkpt>
      <trkpt lat="45.19322" lon="6.45219">
        <ele>1501.7998</ele>
        <time>2020-08-12T08:02:04+02:00</time>
      </trkpt>
      <trkpt lat="45.19327" lon="6.45208">
        <ele>1497.6006</ele>
        <time>2020-08-12T08:02:08+02:00</time>
      </trkpt>
      <trkpt lat="45.19328" lon="6.45206">
        <ele>1497.7002</ele>
        <time>2020-08-12T08:02:09+02:00</time>
      </trkpt>
      <trkpt lat="45.19333" lon="6.45197">
        <ele>1494.2002</ele>
        <time>2020-08-12T08:02:13+02:00</time>
      </trkpt>
      <trkpt lat="45.19335" lon="6.45195">
        <ele>1490.7998</ele>
        <time>2020-08-12T08:02:14+02:00</time>
      </trkpt>
      <trkpt lat="45.19343" lon="6.45181">
        <ele>1488.2002</ele>
        <time>2020-08-12T08:02:18+02:00</time>
      </trkpt>
      <trkpt lat="45.19346" lon="6.45177">
        <ele>1488.7998</ele>
        <time>2020-08-12T08:02:19+02:00</time>
      </trkpt>
      <trkpt lat="45.19353" lon="6.45161">
        <ele>1486.2998</ele>
        <time>2020-08-12T08:02:23+02:00</time>
      </trkpt>
      <trkpt lat="45.19355" lon="6.45157">
        <ele>1486.2998</ele>
        <time>2020-08-12T08:02:24+02:00</time>
      </trkpt>
      <trkpt lat="45.19359" lon="6.45144">
        <ele>1487.1006</ele>
        <time>2020-08-12T08:02:28+02:00</time>
      </trkpt>
      <trkpt lat="45.19361" lon="6.45141">
        <ele>1487.1006</ele>
        <time>2020-08-12T08:02:29+02:00</time>
      </trkpt>
      <trkpt lat="45.19366" lon="6.45132">
        <ele>1487</ele>
        <time>2020-08-12T08:02:33+02:00</time>
      </trkpt>
      <trkpt lat="45.19368" lon="6.4513">
        <ele>1487</ele>
        <time>2020-08-12T08:02:34+02:00</time>
      </trkpt>
      <trkpt lat="45.19373" lon="6.45125">
        <ele>1486.7998</ele>
        <time>2020-08-12T08:02:38+02:00</time>
      </trkpt>
      <trkpt lat="45.19374" lon="6.45125">
        <ele>1486.7998</ele>
        <time>2020-08-12T08:02:39+02:00</time>
      </trkpt>
      <trkpt lat="45.19377" lon="6.45123">
        <ele>1485.5</ele>
        <time>2020-08-12T08:02:43+02:00</time>
      </trkpt>
      <trkpt lat="45.19379" lon="6.45122">
        <ele>1485.5</ele>
        <time>2020-08-12T08:02:44+02:00</time>
      </trkpt>
      <trkpt lat="45.19386" lon="6.45114">
        <ele>1485.2002</ele>
        <time>2020-08-12T08:02:48+02:00</time>
      </trkpt>
      <trkpt lat="45.19388" lon="6.45111">
        <ele>1486.1006</ele>
        <time>2020-08-12T08:02:49+02:00</time>
      </trkpt>
      <trkpt lat="45.19393" lon="6.45103">
        <ele>1485.6006</ele>
        <time>2020-08-12T08:02:53+02:00</time>
      </trkpt>
      <trkpt lat="45.19395" lon="6.451">
        <ele>1485.6006</ele>
        <time>2020-08-12T08:02:54+02:00</time>
      </trkpt>
      <trkpt lat="45.194" lon="6.45089">
        <ele>1485.1006</ele>
        <time>2020-08-12T08:02:58+02:00</time>
      </trkpt>
      <trkpt lat="45.19401" lon="6.45087">
        <ele>1483.9004</ele>
        <time>2020-08-12T08:02:59+02:00</time>
      </trkpt>
      <trkpt lat="45.19408" lon="6.45074">
        <ele>1484.2002</ele>
        <time>2020-08-12T08:03:03+02:00</time>
      </trkpt>
      <trkpt lat="45.1941" lon="6.4507">
        <ele>1484.2002</ele>
        <time>2020-08-12T08:03:04+02:00</time>
      </trkpt>
      <trkpt lat="45.19418" lon="6.45057">
        <ele>1484.7002</ele>
        <time>2020-08-12T08:03:08+02:00</time>
      </trkpt>
      <trkpt lat="45.1942" lon="6.45053">
        <ele>1483.7002</ele>
        <time>2020-08-12T08:03:09+02:00</time>
      </trkpt>
      <trkpt lat="45.19427" lon="6.45038">
        <ele>1484.2002</ele>
        <time>2020-08-12T08:03:13+02:00</time>
      </trkpt>
      <trkpt lat="45.19428" lon="6.45035">
        <ele>1484.2002</ele>
        <time>2020-08-12T08:03:14+02:00</time>
      </trkpt>
      <trkpt lat="45.19436" lon="6.45023">
        <ele>1485</ele>
        <time>2020-08-12T08:03:18+02:00</time>
      </trkpt>
      <trkpt lat="45.19437" lon="6.4502">
        <ele>1485</ele>
        <time>2020-08-12T08:03:19+02:00</time>
      </trkpt>
      <trkpt lat="45.19444" lon="6.45008">
        <ele>1485.1006</ele>
        <time>2020-08-12T08:03:23+02:00</time>
      </trkpt>
      <trkpt lat="45.19446" lon="6.45004">
        <ele>1485.1006</ele>
        <time>2020-08-12T08:03:24+02:00</time>
      </trkpt>
      <trkpt lat="45.19449" lon="6.44991">
        <ele>1486.7002</ele>
        <time>2020-08-12T08:03:28+02:00</time>
      </trkpt>
      <trkpt lat="45.19451" lon="6.44988">
        <ele>1486.2002</ele>
        <time>2020-08-12T08:03:29+02:00</time>
      </trkpt>
      <trkpt lat="45.19457" lon="6.44976">
        <ele>1486.4004</ele>
        <time>2020-08-12T08:03:33+02:00</time>
      </trkpt>
      <trkpt lat="45.19459" lon="6.44973">
        <ele>1487.2998</ele>
        <time>2020-08-12T08:03:34+02:00</time>
      </trkpt>
      <trkpt lat="45.19467" lon="6.4496">
        <ele>1487.7998</ele>
        <time>2020-08-12T08:03:38+02:00</time>
      </trkpt>
      <trkpt lat="45.19469" lon="6.44957">
        <ele>1488.2002</ele>
        <time>2020-08-12T08:03:39+02:00</time>
      </trkpt>
      <trkpt lat="45.19478" lon="6.44946">
        <ele>1488.7002</ele>
        <time>2020-08-12T08:03:43+02:00</time>
      </trkpt>
      <trkpt lat="45.19479" lon="6.44944">
        <ele>1488.7002</ele>
        <time>2020-08-12T08:03:44+02:00</time>
      </trkpt>
      <trkpt lat="45.19485" lon="6.44933">
        <ele>1488.9004</ele>
        <time>2020-08-12T08:03:48+02:00</time>
      </trkpt>
      <trkpt lat="45.19487" lon="6.4493">
        <ele>1489</ele>
        <time>2020-08-12T08:03:49+02:00</time>
      </trkpt>
      <trkpt lat="45.19492" lon="6.4492">
        <ele>1490</ele>
        <time>2020-08-12T08:03:53+02:00</time>
      </trkpt>
      <trkpt lat="45.19493" lon="6.44917">
        <ele>1488.7998</ele>
        <time>2020-08-12T08:03:54+02:00</time>
      </trkpt>
      <trkpt lat="45.19496" lon="6.44908">
        <ele>1489.9004</ele>
        <time>2020-08-12T08:03:58+02:00</time>
      </trkpt>
      <trkpt lat="45.19496" lon="6.44906">
        <ele>1491.1006</ele>
        <time>2020-08-12T08:03:59+02:00</time>
      </trkpt>
      <trkpt lat="45.19499" lon="6.44896">
        <ele>1490.9004</ele>
        <time>2020-08-12T08:04:03+02:00</time>
      </trkpt>
      <trkpt lat="45.19499" lon="6.44893">
        <ele>1490.9004</ele>
        <time>2020-08-12T08:04:04+02:00</time>
      </trkpt>
      <trkpt lat="45.19498" lon="6.44879">
        <ele>1495.7002</ele>
        <time>2020-08-12T08:04:08+02:00</time>
      </trkpt>
      <trkpt lat="45.19498" lon="6.44876">
        <ele>1494.1006</ele>
        <time>2020-08-12T08:04:09+02:00</time>
      </trkpt>
      <trkpt lat="45.19498" lon="6.44864">
        <ele>1497.4004</ele>
        <time>2020-08-12T08:04:13+02:00</time>
      </trkpt>
      <trkpt lat="45.19497" lon="6.44861">
        <ele>1499.1006</ele>
        <time>2020-08-12T08:04:14+02:00</time>
      </trkpt>
      <trkpt lat="45.19496" lon="6.44847">
        <ele>1500.7998</ele>
        <time>2020-08-12T08:04:18+02:00</time>
      </trkpt>
      <trkpt lat="45.19497" lon="6.44844">
        <ele>1502.4004</ele>
        <time>2020-08-12T08:04:19+02:00</time>
      </trkpt>
      <trkpt lat="45.19497" lon="6.44832">
        <ele>1504.2002</ele>
        <time>2020-08-12T08:04:23+02:00</time>
      </trkpt>
      <trkpt lat="45.19497" lon="6.44828">
        <ele>1506.1006</ele>
        <time>2020-08-12T08:04:24+02:00</time>
      </trkpt>
      <trkpt lat="45.19497" lon="6.44815">
        <ele>1508</ele>
        <time>2020-08-12T08:04:28+02:00</time>
      </trkpt>
      <trkpt lat="45.19497" lon="6.44811">
        <ele>1510.1006</ele>
        <time>2020-08-12T08:04:29+02:00</time>
      </trkpt>
      <trkpt lat="45.195" lon="6.44796">
        <ele>1510.7002</ele>
        <time>2020-08-12T08:04:33+02:00</time>
      </trkpt>
      <trkpt lat="45.19501" lon="6.44792">
        <ele>1513</ele>
        <time>2020-08-12T08:04:34+02:00</time>
      </trkpt>
      <trkpt lat="45.19505" lon="6.44778">
        <ele>1513.7002</ele>
        <time>2020-08-12T08:04:38+02:00</time>
      </trkpt>
      <trkpt lat="45.19507" lon="6.44774">
        <ele>1516</ele>
        <time>2020-08-12T08:04:39+02:00</time>
      </trkpt>
      <trkpt lat="45.19515" lon="6.44761">
        <ele>1516.7998</ele>
        <time>2020-08-12T08:04:43+02:00</time>
      </trkpt>
      <trkpt lat="45.19517" lon="6.44757">
        <ele>1517.7002</ele>
        <time>2020-08-12T08:04:44+02:00</time>
      </trkpt>
      <trkpt lat="45.19524" lon="6.44743">
        <ele>1518.7002</ele>
        <time>2020-08-12T08:04:48+02:00</time>
      </trkpt>
      <trkpt lat="45.19527" lon="6.4474">
        <ele>1521.4004</ele>
        <time>2020-08-12T08:04:49+02:00</time>
      </trkpt>
      <trkpt lat="45.19536" lon="6.44728">
        <ele>1520.2002</ele>
        <time>2020-08-12T08:04:53+02:00</time>
      </trkpt>
      <trkpt lat="45.19538" lon="6.44725">
        <ele>1523</ele>
        <time>2020-08-12T08:04:54+02:00</time>
      </trkpt>
      <trkpt lat="45.19546" lon="6.44717">
        <ele>1524</ele>
        <time>2020-08-12T08:04:58+02:00</time>
      </trkpt>
      <trkpt lat="45.19548" lon="6.44715">
        <ele>1522.2002</ele>
        <time>2020-08-12T08:04:59+02:00</time>
      </trkpt>
      <trkpt lat="45.19559" lon="6.44705">
        <ele>1521.7002</ele>
        <time>2020-08-12T08:05:03+02:00</time>
      </trkpt>
      <trkpt lat="45.19562" lon="6.44702">
        <ele>1521.7002</ele>
        <time>2020-08-12T08:05:04+02:00</time>
      </trkpt>
      <trkpt lat="45.19572" lon="6.44693">
        <ele>1521.5</ele>
        <time>2020-08-12T08:05:08+02:00</time>
      </trkpt>
      <trkpt lat="45.19574" lon="6.44691">
        <ele>1524.7002</ele>
        <time>2020-08-12T08:05:09+02:00</time>
      </trkpt>
      <trkpt lat="45.19581" lon="6.44682">
        <ele>1526.2998</ele>
        <time>2020-08-12T08:05:13+02:00</time>
      </trkpt>
      <trkpt lat="45.19583" lon="6.4468">
        <ele>1526.2998</ele>
        <time>2020-08-12T08:05:14+02:00</time>
      </trkpt>
      <trkpt lat="45.1959" lon="6.44669">
        <ele>1526.5</ele>
        <time>2020-08-12T08:05:18+02:00</time>
      </trkpt>
      <trkpt lat="45.19592" lon="6.44666">
        <ele>1526.5</ele>
        <time>2020-08-12T08:05:19+02:00</time>
      </trkpt>
      <trkpt lat="45.19598" lon="6.44654">
        <ele>1531.9004</ele>
        <time>2020-08-12T08:05:23+02:00</time>
      </trkpt>
      <trkpt lat="45.196" lon="6.44651">
        <ele>1531.9004</ele>
        <time>2020-08-12T08:05:24+02:00</time>
      </trkpt>
      <trkpt lat="45.19607" lon="6.44638">
        <ele>1536.5</ele>
        <time>2020-08-12T08:05:28+02:00</time>
      </trkpt>
      <trkpt lat="45.1961" lon="6.44635">
        <ele>1536.5</ele>
        <time>2020-08-12T08:05:29+02:00</time>
      </trkpt>
      <trkpt lat="45.19619" lon="6.44625">
        <ele>1539.1006</ele>
        <time>2020-08-12T08:05:33+02:00</time>
      </trkpt>
      <trkpt lat="45.19621" lon="6.44623">
        <ele>1537.7998</ele>
        <time>2020-08-12T08:05:34+02:00</time>
      </trkpt>
      <trkpt lat="45.19629" lon="6.44613">
        <ele>1544.7998</ele>
        <time>2020-08-12T08:05:38+02:00</time>
      </trkpt>
      <trkpt lat="45.19631" lon="6.44611">
        <ele>1544.7998</ele>
        <time>2020-08-12T08:05:39+02:00</time>
      </trkpt>
      <trkpt lat="45.19639" lon="6.44602">
        <ele>1546.1006</ele>
        <time>2020-08-12T08:05:43+02:00</time>
      </trkpt>
      <trkpt lat="45.19641" lon="6.44601">
        <ele>1546.1006</ele>
        <time>2020-08-12T08:05:44+02:00</time>
      </trkpt>
      <trkpt lat="45.19649" lon="6.44595">
        <ele>1548.7998</ele>
        <time>2020-08-12T08:05:48+02:00</time>
      </trkpt>
      <trkpt lat="45.19651" lon="6.44593">
        <ele>1547.1006</ele>
        <time>2020-08-12T08:05:49+02:00</time>
      </trkpt>
      <trkpt lat="45.1966" lon="6.44587">
        <ele>1549.7998</ele>
        <time>2020-08-12T08:05:53+02:00</time>
      </trkpt>
      <trkpt lat="45.19662" lon="6.44586">
        <ele>1547.9004</ele>
        <time>2020-08-12T08:05:54+02:00</time>
      </trkpt>
      <trkpt lat="45.19672" lon="6.4458">
        <ele>1546.1006</ele>
        <time>2020-08-12T08:05:58+02:00</time>
      </trkpt>
      <trkpt lat="45.19674" lon="6.44579">
        <ele>1548.7998</ele>
        <time>2020-08-12T08:05:59+02:00</time>
      </trkpt>
      <trkpt lat="45.19684" lon="6.44575">
        <ele>1547</ele>
        <time>2020-08-12T08:06:03+02:00</time>
      </trkpt>
      <trkpt lat="45.19687" lon="6.44574">
        <ele>1545.1006</ele>
        <time>2020-08-12T08:06:04+02:00</time>
      </trkpt>
      <trkpt lat="45.19697" lon="6.44571">
        <ele>1547.7002</ele>
        <time>2020-08-12T08:06:08+02:00</time>
      </trkpt>
      <trkpt lat="45.19699" lon="6.44569">
        <ele>1545.9004</ele>
        <time>2020-08-12T08:06:09+02:00</time>
      </trkpt>
      <trkpt lat="45.19709" lon="6.44565">
        <ele>1544.1006</ele>
        <time>2020-08-12T08:06:13+02:00</time>
      </trkpt>
      <trkpt lat="45.19711" lon="6.44564">
        <ele>1542.5</ele>
        <time>2020-08-12T08:06:14+02:00</time>
      </trkpt>
      <trkpt lat="45.1972" lon="6.44562">
        <ele>1545</ele>
        <time>2020-08-12T08:06:18+02:00</time>
      </trkpt>
      <trkpt lat="45.19722" lon="6.44561">
        <ele>1545</ele>
        <time>2020-08-12T08:06:19+02:00</time>
      </trkpt>
      <trkpt lat="45.19731" lon="6.44558">
        <ele>1541.9004</ele>
        <time>2020-08-12T08:06:23+02:00</time>
      </trkpt>
      <trkpt lat="45.19733" lon="6.44558">
        <ele>1541.9004</ele>
        <time>2020-08-12T08:06:24+02:00</time>
      </trkpt>
      <trkpt lat="45.19743" lon="6.44555">
        <ele>1539</ele>
        <time>2020-08-12T08:06:28+02:00</time>
      </trkpt>
      <trkpt lat="45.19745" lon="6.44555">
        <ele>1539</ele>
        <time>2020-08-12T08:06:29+02:00</time>
      </trkpt>
      <trkpt lat="45.19755" lon="6.44557">
        <ele>1536.2002</ele>
        <time>2020-08-12T08:06:33+02:00</time>
      </trkpt>
      <trkpt lat="45.19757" lon="6.44556">
        <ele>1536.2002</ele>
        <time>2020-08-12T08:06:34+02:00</time>
      </trkpt>
      <trkpt lat="45.19768" lon="6.44557">
        <ele>1533.7002</ele>
        <time>2020-08-12T08:06:38+02:00</time>
      </trkpt>
      <trkpt lat="45.19771" lon="6.44557">
        <ele>1532.7002</ele>
        <time>2020-08-12T08:06:39+02:00</time>
      </trkpt>
      <trkpt lat="45.19783" lon="6.44556">
        <ele>1531.6006</ele>
        <time>2020-08-12T08:06:43+02:00</time>
      </trkpt>
      <trkpt lat="45.19786" lon="6.44556">
        <ele>1531.6006</ele>
        <time>2020-08-12T08:06:44+02:00</time>
      </trkpt>
      <trkpt lat="45.19797" lon="6.44555">
        <ele>1531.2998</ele>
        <time>2020-08-12T08:06:48+02:00</time>
      </trkpt>
      <trkpt lat="45.19799" lon="6.44554">
        <ele>1531.2998</ele>
        <time>2020-08-12T08:06:49+02:00</time>
      </trkpt>
      <trkpt lat="45.1981" lon="6.44551">
        <ele>1534.7002</ele>
        <time>2020-08-12T08:06:53+02:00</time>
      </trkpt>
      <trkpt lat="45.19812" lon="6.4455">
        <ele>1534.7002</ele>
        <time>2020-08-12T08:06:54+02:00</time>
      </trkpt>
      <trkpt lat="45.19823" lon="6.44545">
        <ele>1538.6006</ele>
        <time>2020-08-12T08:06:58+02:00</time>
      </trkpt>
      <trkpt lat="45.19825" lon="6.44543">
        <ele>1539.1006</ele>
        <time>2020-08-12T08:06:59+02:00</time>
      </trkpt>
      <trkpt lat="45.19835" lon="6.44539">
        <ele>1539.7002</ele>
        <time>2020-08-12T08:07:03+02:00</time>
      </trkpt>
      <trkpt lat="45.19838" lon="6.44539">
        <ele>1540.4004</ele>
        <time>2020-08-12T08:07:04+02:00</time>
      </trkpt>
      <trkpt lat="45.1985" lon="6.4454">
        <ele>1541.9004</ele>
        <time>2020-08-12T08:07:08+02:00</time>
      </trkpt>
      <trkpt lat="45.19853" lon="6.44542">
        <ele>1541.9004</ele>
        <time>2020-08-12T08:07:09+02:00</time>
      </trkpt>
      <trkpt lat="45.19863" lon="6.44546">
        <ele>1540.2998</ele>
        <time>2020-08-12T08:07:13+02:00</time>
      </trkpt>
      <trkpt lat="45.19866" lon="6.44547">
        <ele>1540.2998</ele>
        <time>2020-08-12T08:07:14+02:00</time>
      </trkpt>
      <trkpt lat="45.19874" lon="6.44551">
        <ele>1542.2002</ele>
        <time>2020-08-12T08:07:18+02:00</time>
      </trkpt>
      <trkpt lat="45.19877" lon="6.44552">
        <ele>1542.2002</ele>
        <time>2020-08-12T08:07:19+02:00</time>
      </trkpt>
      <trkpt lat="45.19886" lon="6.44558">
        <ele>1540.5</ele>
        <time>2020-08-12T08:07:23+02:00</time>
      </trkpt>
      <trkpt lat="45.19889" lon="6.4456">
        <ele>1540.5</ele>
        <time>2020-08-12T08:07:24+02:00</time>
      </trkpt>
      <trkpt lat="45.19899" lon="6.44566">
        <ele>1538.7998</ele>
        <time>2020-08-12T08:07:28+02:00</time>
      </trkpt>
      <trkpt lat="45.19901" lon="6.44567">
        <ele>1538.7998</ele>
        <time>2020-08-12T08:07:29+02:00</time>
      </trkpt>
      <trkpt lat="45.19911" lon="6.44573">
        <ele>1537</ele>
        <time>2020-08-12T08:07:33+02:00</time>
      </trkpt>
      <trkpt lat="45.19914" lon="6.44575">
        <ele>1537</ele>
        <time>2020-08-12T08:07:34+02:00</time>
      </trkpt>
      <trkpt lat="45.19925" lon="6.44582">
        <ele>1535.2002</ele>
        <time>2020-08-12T08:07:38+02:00</time>
      </trkpt>
      <trkpt lat="45.19928" lon="6.44584">
        <ele>1535.9004</ele>
        <time>2020-08-12T08:07:39+02:00</time>
      </trkpt>
      <trkpt lat="45.19937" lon="6.44589">
        <ele>1533.2998</ele>
        <time>2020-08-12T08:07:43+02:00</time>
      </trkpt>
      <trkpt lat="45.1994" lon="6.44589">
        <ele>1533.9004</ele>
        <time>2020-08-12T08:07:44+02:00</time>
      </trkpt>
      <trkpt lat="45.1995" lon="6.44588">
        <ele>1537.7002</ele>
        <time>2020-08-12T08:07:48+02:00</time>
      </trkpt>
      <trkpt lat="45.19952" lon="6.44586">
        <ele>1538.2998</ele>
        <time>2020-08-12T08:07:49+02:00</time>
      </trkpt>
      <trkpt lat="45.19959" lon="6.44573">
        <ele>1541.9004</ele>
        <time>2020-08-12T08:07:53+02:00</time>
      </trkpt>
      <trkpt lat="45.19961" lon="6.4457">
        <ele>1545.1006</ele>
        <time>2020-08-12T08:07:54+02:00</time>
      </trkpt>
      <trkpt lat="45.19967" lon="6.44558">
        <ele>1548.5</ele>
        <time>2020-08-12T08:07:58+02:00</time>
      </trkpt>
      <trkpt lat="45.19968" lon="6.44556">
        <ele>1548.5</ele>
        <time>2020-08-12T08:07:59+02:00</time>
      </trkpt>
      <trkpt lat="45.19972" lon="6.44544">
        <ele>1554.4004</ele>
        <time>2020-08-12T08:08:03+02:00</time>
      </trkpt>
      <trkpt lat="45.19973" lon="6.44541">
        <ele>1554.4004</ele>
        <time>2020-08-12T08:08:04+02:00</time>
      </trkpt>
      <trkpt lat="45.19979" lon="6.44527">
        <ele>1559.5</ele>
        <time>2020-08-12T08:08:08+02:00</time>
      </trkpt>
      <trkpt lat="45.1998" lon="6.44524">
        <ele>1559.5</ele>
        <time>2020-08-12T08:08:09+02:00</time>
      </trkpt>
      <trkpt lat="45.19987" lon="6.44512">
        <ele>1561.6006</ele>
        <time>2020-08-12T08:08:13+02:00</time>
      </trkpt>
      <trkpt lat="45.19989" lon="6.4451">
        <ele>1563.6006</ele>
        <time>2020-08-12T08:08:14+02:00</time>
      </trkpt>
      <trkpt lat="45.2" lon="6.4451">
        <ele>1563.2002</ele>
        <time>2020-08-12T08:08:18+02:00</time>
      </trkpt>
      <trkpt lat="45.20003" lon="6.4451">
        <ele>1562.7002</ele>
        <time>2020-08-12T08:08:19+02:00</time>
      </trkpt>
      <trkpt lat="45.20017" lon="6.44515">
        <ele>1559.7002</ele>
        <time>2020-08-12T08:08:23+02:00</time>
      </trkpt>
      <trkpt lat="45.2002" lon="6.44515">
        <ele>1559.2002</ele>
        <time>2020-08-12T08:08:24+02:00</time>
      </trkpt>
      <trkpt lat="45.20031" lon="6.44516">
        <ele>1558.2998</ele>
        <time>2020-08-12T08:08:28+02:00</time>
      </trkpt>
      <trkpt lat="45.20034" lon="6.44515">
        <ele>1558.2998</ele>
        <time>2020-08-12T08:08:29+02:00</time>
      </trkpt>
      <trkpt lat="45.20046" lon="6.44518">
        <ele>1557.4004</ele>
        <time>2020-08-12T08:08:33+02:00</time>
      </trkpt>
      <trkpt lat="45.20049" lon="6.44519">
        <ele>1557</ele>
        <time>2020-08-12T08:08:34+02:00</time>
      </trkpt>
      <trkpt lat="45.20064" lon="6.44529">
        <ele>1552</ele>
        <time>2020-08-12T08:08:38+02:00</time>
      </trkpt>
      <trkpt lat="45.20068" lon="6.44532">
        <ele>1551.7002</ele>
        <time>2020-08-12T08:08:39+02:00</time>
      </trkpt>
      <trkpt lat="45.20081" lon="6.44546">
        <ele>1549.2998</ele>
        <time>2020-08-12T08:08:43+02:00</time>
      </trkpt>
      <trkpt lat="45.20085" lon="6.44549">
        <ele>1546.9004</ele>
        <time>2020-08-12T08:08:44+02:00</time>
      </trkpt>
      <trkpt lat="45.20099" lon="6.44554">
        <ele>1545.7998</ele>
        <time>2020-08-12T08:08:48+02:00</time>
      </trkpt>
      <trkpt lat="45.20102" lon="6.44554">
        <ele>1548.2998</ele>
        <time>2020-08-12T08:08:49+02:00</time>
      </trkpt>
      <trkpt lat="45.20115" lon="6.44545">
        <ele>1551.2002</ele>
        <time>2020-08-12T08:08:53+02:00</time>
      </trkpt>
      <trkpt lat="45.20118" lon="6.44541">
        <ele>1551.5</ele>
        <time>2020-08-12T08:08:54+02:00</time>
      </trkpt>
      <trkpt lat="45.2013" lon="6.44527">
        <ele>1555.5</ele>
        <time>2020-08-12T08:08:58+02:00</time>
      </trkpt>
      <trkpt lat="45.20132" lon="6.44525">
        <ele>1555.5</ele>
        <time>2020-08-12T08:08:59+02:00</time>
      </trkpt>
      <trkpt lat="45.2014" lon="6.4452">
        <ele>1555.7998</ele>
        <time>2020-08-12T08:09:03+02:00</time>
      </trkpt>
      <trkpt lat="45.20142" lon="6.4452">
        <ele>1557.1006</ele>
        <time>2020-08-12T08:09:04+02:00</time>
      </trkpt>
      <trkpt lat="45.20151" lon="6.44515">
        <ele>1557.2002</ele>
        <time>2020-08-12T08:09:08+02:00</time>
      </trkpt>
      <trkpt lat="45.20153" lon="6.44514">
        <ele>1557.2998</ele>
        <time>2020-08-12T08:09:09+02:00</time>
      </trkpt>
      <trkpt lat="45.20162" lon="6.44514">
        <ele>1557.4004</ele>
        <time>2020-08-12T08:09:13+02:00</time>
      </trkpt>
      <trkpt lat="45.20165" lon="6.44514">
        <ele>1557.5</ele>
        <time>2020-08-12T08:09:14+02:00</time>
      </trkpt>
      <trkpt lat="45.20174" lon="6.44513">
        <ele>1557.7002</ele>
        <time>2020-08-12T08:09:18+02:00</time>
      </trkpt>
      <trkpt lat="45.20176" lon="6.44512">
        <ele>1557.7002</ele>
        <time>2020-08-12T08:09:19+02:00</time>
      </trkpt>
      <trkpt lat="45.20183" lon="6.44513">
        <ele>1558.1006</ele>
        <time>2020-08-12T08:09:23+02:00</time>
      </trkpt>
      <trkpt lat="45.20184" lon="6.44514">
        <ele>1558.1006</ele>
        <time>2020-08-12T08:09:24+02:00</time>
      </trkpt>
      <trkpt lat="45.20193" lon="6.44511">
        <ele>1559.1006</ele>
        <time>2020-08-12T08:09:28+02:00</time>
      </trkpt>
      <trkpt lat="45.20195" lon="6.4451">
        <ele>1559.2998</ele>
        <time>2020-08-12T08:09:29+02:00</time>
      </trkpt>
      <trkpt lat="45.20202" lon="6.44508">
        <ele>1559.2998</ele>
        <time>2020-08-12T08:09:33+02:00</time>
      </trkpt>
      <trkpt lat="45.20204" lon="6.44507">
        <ele>1559.2998</ele>
        <time>2020-08-12T08:09:34+02:00</time>
      </trkpt>
      <trkpt lat="45.20212" lon="6.44502">
        <ele>1559.7002</ele>
        <time>2020-08-12T08:09:38+02:00</time>
      </trkpt>
      <trkpt lat="45.20214" lon="6.44501">
        <ele>1559.7002</ele>
        <time>2020-08-12T08:09:39+02:00</time>
      </trkpt>
      <trkpt lat="45.2022" lon="6.44496">
        <ele>1559.7998</ele>
        <time>2020-08-12T08:09:43+02:00</time>
      </trkpt>
      <trkpt lat="45.20223" lon="6.44495">
        <ele>1559.7998</ele>
        <time>2020-08-12T08:09:44+02:00</time>
      </trkpt>
      <trkpt lat="45.20231" lon="6.44492">
        <ele>1560.5</ele>
        <time>2020-08-12T08:09:48+02:00</time>
      </trkpt>
      <trkpt lat="45.20233" lon="6.44491">
        <ele>1560.5</ele>
        <time>2020-08-12T08:09:49+02:00</time>
      </trkpt>
      <trkpt lat="45.20242" lon="6.44485">
        <ele>1560.9004</ele>
        <time>2020-08-12T08:09:53+02:00</time>
      </trkpt>
      <trkpt lat="45.20244" lon="6.44483">
        <ele>1561.2002</ele>
        <time>2020-08-12T08:09:54+02:00</time>
      </trkpt>
      <trkpt lat="45.20253" lon="6.44479">
        <ele>1561.5</ele>
        <time>2020-08-12T08:09:58+02:00</time>
      </trkpt>
      <trkpt lat="45.20255" lon="6.44478">
        <ele>1561.7998</ele>
        <time>2020-08-12T08:09:59+02:00</time>
      </trkpt>
      <trkpt lat="45.20259" lon="6.4447">
        <ele>1561.7002</ele>
        <time>2020-08-12T08:10:03+02:00</time>
      </trkpt>
      <trkpt lat="45.2026" lon="6.44467">
        <ele>1561.4004</ele>
        <time>2020-08-12T08:10:04+02:00</time>
      </trkpt>
      <trkpt lat="45.20259" lon="6.44456">
        <ele>1561.1006</ele>
        <time>2020-08-12T08:10:08+02:00</time>
      </trkpt>
      <trkpt lat="45.20259" lon="6.44453">
        <ele>1561.1006</ele>
        <time>2020-08-12T08:10:09+02:00</time>
      </trkpt>
      <trkpt lat="45.20258" lon="6.44444">
        <ele>1560.6006</ele>
        <time>2020-08-12T08:10:13+02:00</time>
      </trkpt>
      <trkpt lat="45.20258" lon="6.44442">
        <ele>1559.9004</ele>
        <time>2020-08-12T08:10:14+02:00</time>
      </trkpt>
      <trkpt lat="45.20254" lon="6.44437">
        <ele>1559.6006</ele>
        <time>2020-08-12T08:10:18+02:00</time>
      </trkpt>
      <trkpt lat="45.20252" lon="6.44436">
        <ele>1559.6006</ele>
        <time>2020-08-12T08:10:19+02:00</time>
      </trkpt>
      <trkpt lat="45.20247" lon="6.44432">
        <ele>1558.2998</ele>
        <time>2020-08-12T08:10:23+02:00</time>
      </trkpt>
      <trkpt lat="45.20246" lon="6.4443">
        <ele>1558.2998</ele>
        <time>2020-08-12T08:10:24+02:00</time>
      </trkpt>
      <trkpt lat="45.20241" lon="6.44427">
        <ele>1557.9004</ele>
        <time>2020-08-12T08:10:28+02:00</time>
      </trkpt>
      <trkpt lat="45.2024" lon="6.44427">
        <ele>1557.9004</ele>
        <time>2020-08-12T08:10:29+02:00</time>
      </trkpt>
      <trkpt lat="45.20235" lon="6.44425">
        <ele>1556.5</ele>
        <time>2020-08-12T08:10:33+02:00</time>
      </trkpt>
      <trkpt lat="45.20233" lon="6.44425">
        <ele>1556.5</ele>
        <time>2020-08-12T08:10:34+02:00</time>
      </trkpt>
      <trkpt lat="45.20228" lon="6.44427">
        <ele>1557.2002</ele>
        <time>2020-08-12T08:10:38+02:00</time>
      </trkpt>
      <trkpt lat="45.20227" lon="6.44428">
        <ele>1557.2002</ele>
        <time>2020-08-12T08:10:39+02:00</time>
      </trkpt>
      <trkpt lat="45.20222" lon="6.44431">
        <ele>1556.9004</ele>
        <time>2020-08-12T08:10:43+02:00</time>
      </trkpt>
      <trkpt lat="45.20221" lon="6.44431">
        <ele>1556.9004</ele>
        <time>2020-08-12T08:10:44+02:00</time>
      </trkpt>
      <trkpt lat="45.20215" lon="6.44436">
        <ele>1557.4004</ele>
        <time>2020-08-12T08:10:48+02:00</time>
      </trkpt>
      <trkpt lat="45.20214" lon="6.44437">
        <ele>1557.4004</ele>
        <time>2020-08-12T08:10:49+02:00</time>
      </trkpt>
      <trkpt lat="45.20209" lon="6.44441">
        <ele>1557.2002</ele>
        <time>2020-08-12T08:10:53+02:00</time>
      </trkpt>
      <trkpt lat="45.20207" lon="6.44441">
        <ele>1557.2002</ele>
        <time>2020-08-12T08:10:54+02:00</time>
      </trkpt>
      <trkpt lat="45.20204" lon="6.44443">
        <ele>1557.7998</ele>
        <time>2020-08-12T08:10:58+02:00</time>
      </trkpt>
      <trkpt lat="45.20202" lon="6.44443">
        <ele>1557.7998</ele>
        <time>2020-08-12T08:10:59+02:00</time>
      </trkpt>
      <trkpt lat="45.20196" lon="6.44444">
        <ele>1557.7998</ele>
        <time>2020-08-12T08:11:03+02:00</time>
      </trkpt>
      <trkpt lat="45.20196" lon="6.44444">
        <ele>1557.7998</ele>
        <time>2020-08-12T08:11:04+02:00</time>
      </trkpt>
      <trkpt lat="45.2019" lon="6.44445">
        <ele>1557.7998</ele>
        <time>2020-08-12T08:11:08+02:00</time>
      </trkpt>
      <trkpt lat="45.20189" lon="6.44445">
        <ele>1557.7998</ele>
        <time>2020-08-12T08:11:09+02:00</time>
      </trkpt>
      <trkpt lat="45.20185" lon="6.44445">
        <ele>1558</ele>
        <time>2020-08-12T08:11:13+02:00</time>
      </trkpt>
      <trkpt lat="45.20185" lon="6.44445">
        <ele>1558</ele>
        <time>2020-08-12T08:11:14+02:00</time>
      </trkpt>
      <trkpt lat="45.20177" lon="6.44443">
        <ele>1558.2002</ele>
        <time>2020-08-12T08:11:18+02:00</time>
      </trkpt>
      <trkpt lat="45.20177" lon="6.44443">
        <ele>1558.2002</ele>
        <time>2020-08-12T08:11:19+02:00</time>
      </trkpt>
      <trkpt lat="45.20169" lon="6.44444">
        <ele>1558.6006</ele>
        <time>2020-08-12T08:11:23+02:00</time>
      </trkpt>
      <trkpt lat="45.20167" lon="6.44444">
        <ele>1558.6006</ele>
        <time>2020-08-12T08:11:24+02:00</time>
      </trkpt>
      <trkpt lat="45.20162" lon="6.44444">
        <ele>1558.6006</ele>
        <time>2020-08-12T08:11:28+02:00</time>
      </trkpt>
      <trkpt lat="45.20161" lon="6.44444">
        <ele>1558.6006</ele>
        <time>2020-08-12T08:11:29+02:00</time>
      </trkpt>
      <trkpt lat="45.20157" lon="6.44443">
        <ele>1558.7002</ele>
        <time>2020-08-12T08:11:33+02:00</time>
      </trkpt>
      <trkpt lat="45.20156" lon="6.44443">
        <ele>1558.7002</ele>
        <time>2020-08-12T08:11:34+02:00</time>
      </trkpt>
      <trkpt lat="45.20152" lon="6.44444">
        <ele>1558.7002</ele>
        <time>2020-08-12T08:11:38+02:00</time>
      </trkpt>
      <trkpt lat="45.20151" lon="6.44444">
        <ele>1558.7998</ele>
        <time>2020-08-12T08:11:39+02:00</time>
      </trkpt>
      <trkpt lat="45.20146" lon="6.44447">
        <ele>1558.7998</ele>
        <time>2020-08-12T08:11:43+02:00</time>
      </trkpt>
      <trkpt lat="45.20146" lon="6.44448">
        <ele>1558.7998</ele>
        <time>2020-08-12T08:11:44+02:00</time>
      </trkpt>
      <trkpt lat="45.20142" lon="6.4445">
        <ele>1559</ele>
        <time>2020-08-12T08:11:48+02:00</time>
      </trkpt>
      <trkpt lat="45.20141" lon="6.44451">
        <ele>1559.5</ele>
        <time>2020-08-12T08:11:49+02:00</time>
      </trkpt>
      <trkpt lat="45.20137" lon="6.44454">
        <ele>1559.7002</ele>
        <time>2020-08-12T08:11:53+02:00</time>
      </trkpt>
      <trkpt lat="45.20133" lon="6.44454">
        <ele>1559.9004</ele>
        <time>2020-08-12T08:11:54+02:00</time>
      </trkpt>
      <trkpt lat="45.20124" lon="6.44457">
        <ele>1560.2002</ele>
        <time>2020-08-12T08:11:58+02:00</time>
      </trkpt>
      <trkpt lat="45.20123" lon="6.44458">
        <ele>1560.2002</ele>
        <time>2020-08-12T08:11:59+02:00</time>
      </trkpt>
      <trkpt lat="45.20116" lon="6.44461">
        <ele>1560.5</ele>
        <time>2020-08-12T08:12:03+02:00</time>
      </trkpt>
      <trkpt lat="45.20114" lon="6.44462">
        <ele>1560.7998</ele>
        <time>2020-08-12T08:12:04+02:00</time>
      </trkpt>
      <trkpt lat="45.20106" lon="6.44466">
        <ele>1561</ele>
        <time>2020-08-12T08:12:08+02:00</time>
      </trkpt>
      <trkpt lat="45.20104" lon="6.44466">
        <ele>1561</ele>
        <time>2020-08-12T08:12:09+02:00</time>
      </trkpt>
      <trkpt lat="45.20097" lon="6.44463">
        <ele>1561.2998</ele>
        <time>2020-08-12T08:12:13+02:00</time>
      </trkpt>
      <trkpt lat="45.20095" lon="6.44462">
        <ele>1561.6006</ele>
        <time>2020-08-12T08:12:14+02:00</time>
      </trkpt>
      <trkpt lat="45.20088" lon="6.44459">
        <ele>1562.2002</ele>
        <time>2020-08-12T08:12:18+02:00</time>
      </trkpt>
      <trkpt lat="45.20086" lon="6.44458">
        <ele>1562.2002</ele>
        <time>2020-08-12T08:12:19+02:00</time>
      </trkpt>
      <trkpt lat="45.2008" lon="6.44456">
        <ele>1562.6006</ele>
        <time>2020-08-12T08:12:23+02:00</time>
      </trkpt>
      <trkpt lat="45.20078" lon="6.44455">
        <ele>1563</ele>
        <time>2020-08-12T08:12:24+02:00</time>
      </trkpt>
      <trkpt lat="45.20073" lon="6.44452">
        <ele>1563</ele>
        <time>2020-08-12T08:12:28+02:00</time>
      </trkpt>
      <trkpt lat="45.20072" lon="6.44452">
        <ele>1563.7998</ele>
        <time>2020-08-12T08:12:29+02:00</time>
      </trkpt>
      <trkpt lat="45.20064" lon="6.44452">
        <ele>1564.5</ele>
        <time>2020-08-12T08:12:33+02:00</time>
      </trkpt>
      <trkpt lat="45.20062" lon="6.44452">
        <ele>1564.5</ele>
        <time>2020-08-12T08:12:34+02:00</time>
      </trkpt>
      <trkpt lat="45.20057" lon="6.44452">
        <ele>1565.2002</ele>
        <time>2020-08-12T08:12:38+02:00</time>
      </trkpt>
      <trkpt lat="45.20056" lon="6.44451">
        <ele>1565.5</ele>
        <time>2020-08-12T08:12:39+02:00</time>
      </trkpt>
      <trkpt lat="45.20048" lon="6.44447">
        <ele>1566.6006</ele>
        <time>2020-08-12T08:12:43+02:00</time>
      </trkpt>
      <trkpt lat="45.20048" lon="6.44446">
        <ele>1566.6006</ele>
        <time>2020-08-12T08:12:44+02:00</time>
      </trkpt>
      <trkpt lat="45.20041" lon="6.44444">
        <ele>1567.1006</ele>
        <time>2020-08-12T08:12:48+02:00</time>
      </trkpt>
      <trkpt lat="45.20041" lon="6.44444">
        <ele>1567.1006</ele>
        <time>2020-08-12T08:12:49+02:00</time>
      </trkpt>
      <trkpt lat="45.20036" lon="6.44442">
        <ele>1567.9004</ele>
        <time>2020-08-12T08:12:53+02:00</time>
      </trkpt>
      <trkpt lat="45.20035" lon="6.44441">
        <ele>1567.9004</ele>
        <time>2020-08-12T08:12:54+02:00</time>
      </trkpt>
      <trkpt lat="45.20029" lon="6.44437">
        <ele>1568.6006</ele>
        <time>2020-08-12T08:12:58+02:00</time>
      </trkpt>
      <trkpt lat="45.20027" lon="6.44437">
        <ele>1568.6006</ele>
        <time>2020-08-12T08:12:59+02:00</time>
      </trkpt>
      <trkpt lat="45.20019" lon="6.44435">
        <ele>1569.2998</ele>
        <time>2020-08-12T08:13:03+02:00</time>
      </trkpt>
      <trkpt lat="45.20017" lon="6.44435">
        <ele>1570.1006</ele>
        <time>2020-08-12T08:13:04+02:00</time>
      </trkpt>
      <trkpt lat="45.2001" lon="6.44433">
        <ele>1571</ele>
        <time>2020-08-12T08:13:08+02:00</time>
      </trkpt>
      <trkpt lat="45.20008" lon="6.44433">
        <ele>1571</ele>
        <time>2020-08-12T08:13:09+02:00</time>
      </trkpt>
      <trkpt lat="45.2" lon="6.44432">
        <ele>1572.9004</ele>
        <time>2020-08-12T08:13:13+02:00</time>
      </trkpt>
      <trkpt lat="45.19999" lon="6.44432">
        <ele>1572.9004</ele>
        <time>2020-08-12T08:13:14+02:00</time>
      </trkpt>
      <trkpt lat="45.19995" lon="6.44432">
        <ele>1572.9004</ele>
        <time>2020-08-12T08:13:18+02:00</time>
      </trkpt>
      <trkpt lat="45.19993" lon="6.44431">
        <ele>1573.9004</ele>
        <time>2020-08-12T08:13:19+02:00</time>
      </trkpt>
      <trkpt lat="45.19988" lon="6.44431">
        <ele>1574.9004</ele>
        <time>2020-08-12T08:13:23+02:00</time>
      </trkpt>
      <trkpt lat="45.19986" lon="6.44431">
        <ele>1574.9004</ele>
        <time>2020-08-12T08:13:24+02:00</time>
      </trkpt>
      <trkpt lat="45.19979" lon="6.44432">
        <ele>1575.9004</ele>
        <time>2020-08-12T08:13:28+02:00</time>
      </trkpt>
      <trkpt lat="45.19978" lon="6.44432">
        <ele>1575.9004</ele>
        <time>2020-08-12T08:13:29+02:00</time>
      </trkpt>
      <trkpt lat="45.19974" lon="6.44432">
        <ele>1576.9004</ele>
        <time>2020-08-12T08:13:33+02:00</time>
      </trkpt>
      <trkpt lat="45.19971" lon="6.44432">
        <ele>1576.9004</ele>
        <time>2020-08-12T08:13:34+02:00</time>
      </trkpt>
      <trkpt lat="45.19967" lon="6.44432">
        <ele>1577.9004</ele>
        <time>2020-08-12T08:13:38+02:00</time>
      </trkpt>
      <trkpt lat="45.19964" lon="6.44432">
        <ele>1579</ele>
        <time>2020-08-12T08:13:39+02:00</time>
      </trkpt>
      <trkpt lat="45.19955" lon="6.44431">
        <ele>1580.2002</ele>
        <time>2020-08-12T08:13:43+02:00</time>
      </trkpt>
      <trkpt lat="45.19954" lon="6.44431">
        <ele>1580.2002</ele>
        <time>2020-08-12T08:13:44+02:00</time>
      </trkpt>
      <trkpt lat="45.19949" lon="6.4443">
        <ele>1581.4004</ele>
        <time>2020-08-12T08:13:48+02:00</time>
      </trkpt>
      <trkpt lat="45.19947" lon="6.4443">
        <ele>1581.4004</ele>
        <time>2020-08-12T08:13:49+02:00</time>
      </trkpt>
      <trkpt lat="45.19943" lon="6.44429">
        <ele>1582.5</ele>
        <time>2020-08-12T08:13:53+02:00</time>
      </trkpt>
      <trkpt lat="45.19942" lon="6.44429">
        <ele>1582.5</ele>
        <time>2020-08-12T08:13:54+02:00</time>
      </trkpt>
      <trkpt lat="45.19937" lon="6.44427">
        <ele>1583.5</ele>
        <time>2020-08-12T08:13:58+02:00</time>
      </trkpt>
      <trkpt lat="45.19936" lon="6.44426">
        <ele>1583.5</ele>
        <time>2020-08-12T08:13:59+02:00</time>
      </trkpt>
      <trkpt lat="45.19931" lon="6.44425">
        <ele>1584.9004</ele>
        <time>2020-08-12T08:14:03+02:00</time>
      </trkpt>
      <trkpt lat="45.19929" lon="6.44425">
        <ele>1584.9004</ele>
        <time>2020-08-12T08:14:04+02:00</time>
      </trkpt>
      <trkpt lat="45.19924" lon="6.44422">
        <ele>1585.7002</ele>
        <time>2020-08-12T08:14:08+02:00</time>
      </trkpt>
      <trkpt lat="45.19922" lon="6.44422">
        <ele>1585.7002</ele>
        <time>2020-08-12T08:14:09+02:00</time>
      </trkpt>
      <trkpt lat="45.19917" lon="6.44421">
        <ele>1586.4004</ele>
        <time>2020-08-12T08:14:13+02:00</time>
      </trkpt>
      <trkpt lat="45.19916" lon="6.4442">
        <ele>1586.4004</ele>
        <time>2020-08-12T08:14:14+02:00</time>
      </trkpt>
      <trkpt lat="45.19911" lon="6.44418">
        <ele>1586.9004</ele>
        <time>2020-08-12T08:14:18+02:00</time>
      </trkpt>
      <trkpt lat="45.19909" lon="6.44418">
        <ele>1587.2998</ele>
        <time>2020-08-12T08:14:19+02:00</time>
      </trkpt>
      <trkpt lat="45.19904" lon="6.44416">
        <ele>1588.1006</ele>
        <time>2020-08-12T08:14:23+02:00</time>
      </trkpt>
      <trkpt lat="45.19903" lon="6.44415">
        <ele>1588.4004</ele>
        <time>2020-08-12T08:14:24+02:00</time>
      </trkpt>
      <trkpt lat="45.19898" lon="6.44411">
        <ele>1588.4004</ele>
        <time>2020-08-12T08:14:28+02:00</time>
      </trkpt>
      <trkpt lat="45.19897" lon="6.4441">
        <ele>1588.6006</ele>
        <time>2020-08-12T08:14:29+02:00</time>
      </trkpt>
      <trkpt lat="45.19891" lon="6.44409">
        <ele>1588.6006</ele>
        <time>2020-08-12T08:14:33+02:00</time>
      </trkpt>
      <trkpt lat="45.1989" lon="6.44409">
        <ele>1588.5</ele>
        <time>2020-08-12T08:14:34+02:00</time>
      </trkpt>
      <trkpt lat="45.19883" lon="6.44406">
        <ele>1589.2998</ele>
        <time>2020-08-12T08:14:38+02:00</time>
      </trkpt>
      <trkpt lat="45.19882" lon="6.44406">
        <ele>1589.2998</ele>
        <time>2020-08-12T08:14:39+02:00</time>
      </trkpt>
      <trkpt lat="45.19876" lon="6.44404">
        <ele>1589.1006</ele>
        <time>2020-08-12T08:14:43+02:00</time>
      </trkpt>
      <trkpt lat="45.19875" lon="6.44404">
        <ele>1589.1006</ele>
        <time>2020-08-12T08:14:44+02:00</time>
      </trkpt>
      <trkpt lat="45.19869" lon="6.44403">
        <ele>1588.9004</ele>
        <time>2020-08-12T08:14:48+02:00</time>
      </trkpt>
      <trkpt lat="45.19868" lon="6.44402">
        <ele>1588.9004</ele>
        <time>2020-08-12T08:14:49+02:00</time>
      </trkpt>
      <trkpt lat="45.19863" lon="6.44399">
        <ele>1589.2002</ele>
        <time>2020-08-12T08:14:53+02:00</time>
      </trkpt>
      <trkpt lat="45.19861" lon="6.44399">
        <ele>1589.2002</ele>
        <time>2020-08-12T08:14:54+02:00</time>
      </trkpt>
      <trkpt lat="45.19855" lon="6.44397">
        <ele>1588.4004</ele>
        <time>2020-08-12T08:14:58+02:00</time>
      </trkpt>
      <trkpt lat="45.19852" lon="6.44396">
        <ele>1588.4004</ele>
        <time>2020-08-12T08:14:59+02:00</time>
      </trkpt>
      <trkpt lat="45.19846" lon="6.44392">
        <ele>1588</ele>
        <time>2020-08-12T08:15:03+02:00</time>
      </trkpt>
      <trkpt lat="45.19844" lon="6.44392">
        <ele>1588</ele>
        <time>2020-08-12T08:15:04+02:00</time>
      </trkpt>
      <trkpt lat="45.19835" lon="6.4439">
        <ele>1587.7998</ele>
        <time>2020-08-12T08:15:08+02:00</time>
      </trkpt>
      <trkpt lat="45.19833" lon="6.4439">
        <ele>1587.7998</ele>
        <time>2020-08-12T08:15:09+02:00</time>
      </trkpt>
      <trkpt lat="45.19824" lon="6.4439">
        <ele>1587.7002</ele>
        <time>2020-08-12T08:15:13+02:00</time>
      </trkpt>
      <trkpt lat="45.19821" lon="6.4439">
        <ele>1587.7002</ele>
        <time>2020-08-12T08:15:14+02:00</time>
      </trkpt>
      <trkpt lat="45.19812" lon="6.44388">
        <ele>1588.7998</ele>
        <time>2020-08-12T08:15:18+02:00</time>
      </trkpt>
      <trkpt lat="45.1981" lon="6.44387">
        <ele>1588.7998</ele>
        <time>2020-08-12T08:15:19+02:00</time>
      </trkpt>
      <trkpt lat="45.19803" lon="6.44383">
        <ele>1589.7002</ele>
        <time>2020-08-12T08:15:23+02:00</time>
      </trkpt>
      <trkpt lat="45.19801" lon="6.44382">
        <ele>1590.2998</ele>
        <time>2020-08-12T08:15:24+02:00</time>
      </trkpt>
      <trkpt lat="45.19792" lon="6.44382">
        <ele>1592.9004</ele>
        <time>2020-08-12T08:15:28+02:00</time>
      </trkpt>
      <trkpt lat="45.1979" lon="6.44381">
        <ele>1592.9004</ele>
        <time>2020-08-12T08:15:29+02:00</time>
      </trkpt>
      <trkpt lat="45.19782" lon="6.44377">
        <ele>1596.2002</ele>
        <time>2020-08-12T08:15:33+02:00</time>
      </trkpt>
      <trkpt lat="45.19779" lon="6.44376">
        <ele>1596.2002</ele>
        <time>2020-08-12T08:15:34+02:00</time>
      </trkpt>
      <trkpt lat="45.19769" lon="6.44376">
        <ele>1599.7998</ele>
        <time>2020-08-12T08:15:38+02:00</time>
      </trkpt>
      <trkpt lat="45.19767" lon="6.44375">
        <ele>1599.7998</ele>
        <time>2020-08-12T08:15:39+02:00</time>
      </trkpt>
      <trkpt lat="45.19759" lon="6.4437">
        <ele>1601.7998</ele>
        <time>2020-08-12T08:15:43+02:00</time>
      </trkpt>
      <trkpt lat="45.19756" lon="6.44369">
        <ele>1603.7002</ele>
        <time>2020-08-12T08:15:44+02:00</time>
      </trkpt>
      <trkpt lat="45.19747" lon="6.44364">
        <ele>1605.2998</ele>
        <time>2020-08-12T08:15:48+02:00</time>
      </trkpt>
      <trkpt lat="45.19745" lon="6.44363">
        <ele>1607.2002</ele>
        <time>2020-08-12T08:15:49+02:00</time>
      </trkpt>
      <trkpt lat="45.19737" lon="6.44359">
        <ele>1609.2002</ele>
        <time>2020-08-12T08:15:53+02:00</time>
      </trkpt>
      <trkpt lat="45.19735" lon="6.44358">
        <ele>1609.2002</ele>
        <time>2020-08-12T08:15:54+02:00</time>
      </trkpt>
      <trkpt lat="45.19724" lon="6.44357">
        <ele>1613.2002</ele>
        <time>2020-08-12T08:15:58+02:00</time>
      </trkpt>
      <trkpt lat="45.19722" lon="6.44357">
        <ele>1615.2002</ele>
        <time>2020-08-12T08:15:59+02:00</time>
      </trkpt>
      <trkpt lat="45.19712" lon="6.44354">
        <ele>1616.2998</ele>
        <time>2020-08-12T08:16:03+02:00</time>
      </trkpt>
      <trkpt lat="45.19709" lon="6.44353">
        <ele>1618.1006</ele>
        <time>2020-08-12T08:16:04+02:00</time>
      </trkpt>
      <trkpt lat="45.19695" lon="6.44347">
        <ele>1620.2002</ele>
        <time>2020-08-12T08:16:08+02:00</time>
      </trkpt>
      <trkpt lat="45.19692" lon="6.44346">
        <ele>1620.2002</ele>
        <time>2020-08-12T08:16:09+02:00</time>
      </trkpt>
      <trkpt lat="45.19681" lon="6.44342">
        <ele>1623.2998</ele>
        <time>2020-08-12T08:16:13+02:00</time>
      </trkpt>
      <trkpt lat="45.19678" lon="6.4434">
        <ele>1624.7002</ele>
        <time>2020-08-12T08:16:14+02:00</time>
      </trkpt>
      <trkpt lat="45.19666" lon="6.44336">
        <ele>1625.2002</ele>
        <time>2020-08-12T08:16:18+02:00</time>
      </trkpt>
      <trkpt lat="45.19663" lon="6.44335">
        <ele>1625.2002</ele>
        <time>2020-08-12T08:16:19+02:00</time>
      </trkpt>
      <trkpt lat="45.19649" lon="6.44331">
        <ele>1625.9004</ele>
        <time>2020-08-12T08:16:23+02:00</time>
      </trkpt>
      <trkpt lat="45.19645" lon="6.44331">
        <ele>1628.2998</ele>
        <time>2020-08-12T08:16:24+02:00</time>
      </trkpt>
      <trkpt lat="45.1963" lon="6.44335">
        <ele>1630.6006</ele>
        <time>2020-08-12T08:16:28+02:00</time>
      </trkpt>
      <trkpt lat="45.19627" lon="6.44336">
        <ele>1630.6006</ele>
        <time>2020-08-12T08:16:29+02:00</time>
      </trkpt>
      <trkpt lat="45.19615" lon="6.44342">
        <ele>1633.5</ele>
        <time>2020-08-12T08:16:33+02:00</time>
      </trkpt>
      <trkpt lat="45.19613" lon="6.44344">
        <ele>1633.5</ele>
        <time>2020-08-12T08:16:34+02:00</time>
      </trkpt>
      <trkpt lat="45.19604" lon="6.44351">
        <ele>1635.2002</ele>
        <time>2020-08-12T08:16:38+02:00</time>
      </trkpt>
      <trkpt lat="45.19602" lon="6.44352">
        <ele>1635.2002</ele>
        <time>2020-08-12T08:16:39+02:00</time>
      </trkpt>
      <trkpt lat="45.19592" lon="6.44354">
        <ele>1635.1006</ele>
        <time>2020-08-12T08:16:43+02:00</time>
      </trkpt>
      <trkpt lat="45.1959" lon="6.44355">
        <ele>1635.1006</ele>
        <time>2020-08-12T08:16:44+02:00</time>
      </trkpt>
      <trkpt lat="45.19583" lon="6.44356">
        <ele>1634.7998</ele>
        <time>2020-08-12T08:16:48+02:00</time>
      </trkpt>
      <trkpt lat="45.19581" lon="6.44357">
        <ele>1634.5</ele>
        <time>2020-08-12T08:16:49+02:00</time>
      </trkpt>
      <trkpt lat="45.19574" lon="6.44357">
        <ele>1634.7998</ele>
        <time>2020-08-12T08:16:53+02:00</time>
      </trkpt>
      <trkpt lat="45.19572" lon="6.44357">
        <ele>1634.7998</ele>
        <time>2020-08-12T08:16:54+02:00</time>
      </trkpt>
      <trkpt lat="45.19566" lon="6.44358">
        <ele>1634.5</ele>
        <time>2020-08-12T08:16:58+02:00</time>
      </trkpt>
      <trkpt lat="45.19564" lon="6.44358">
        <ele>1634.2002</ele>
        <time>2020-08-12T08:16:59+02:00</time>
      </trkpt>
      <trkpt lat="45.19559" lon="6.4436">
        <ele>1634.2002</ele>
        <time>2020-08-12T08:17:03+02:00</time>
      </trkpt>
      <trkpt lat="45.19557" lon="6.44361">
        <ele>1633.9004</ele>
        <time>2020-08-12T08:17:04+02:00</time>
      </trkpt>
      <trkpt lat="45.1955" lon="6.44364">
        <ele>1633.6006</ele>
        <time>2020-08-12T08:17:08+02:00</time>
      </trkpt>
      <trkpt lat="45.19549" lon="6.44364">
        <ele>1633.6006</ele>
        <time>2020-08-12T08:17:09+02:00</time>
      </trkpt>
      <trkpt lat="45.19543" lon="6.44363">
        <ele>1633.4004</ele>
        <time>2020-08-12T08:17:13+02:00</time>
      </trkpt>
      <trkpt lat="45.19541" lon="6.44363">
        <ele>1633.4004</ele>
        <time>2020-08-12T08:17:14+02:00</time>
      </trkpt>
      <trkpt lat="45.19535" lon="6.44363">
        <ele>1633.1006</ele>
        <time>2020-08-12T08:17:18+02:00</time>
      </trkpt>
      <trkpt lat="45.19534" lon="6.44364">
        <ele>1633</ele>
        <time>2020-08-12T08:17:19+02:00</time>
      </trkpt>
      <trkpt lat="45.19528" lon="6.44367">
        <ele>1633.4004</ele>
        <time>2020-08-12T08:17:23+02:00</time>
      </trkpt>
      <trkpt lat="45.19527" lon="6.44366">
        <ele>1633.4004</ele>
        <time>2020-08-12T08:17:24+02:00</time>
      </trkpt>
      <trkpt lat="45.19521" lon="6.4437">
        <ele>1633.5</ele>
        <time>2020-08-12T08:17:28+02:00</time>
      </trkpt>
      <trkpt lat="45.19519" lon="6.44371">
        <ele>1633.5</ele>
        <time>2020-08-12T08:17:29+02:00</time>
      </trkpt>
      <trkpt lat="45.19513" lon="6.44375">
        <ele>1633.9004</ele>
        <time>2020-08-12T08:17:33+02:00</time>
      </trkpt>
      <trkpt lat="45.19511" lon="6.44375">
        <ele>1633.9004</ele>
        <time>2020-08-12T08:17:34+02:00</time>
      </trkpt>
      <trkpt lat="45.19506" lon="6.44378">
        <ele>1634.2998</ele>
        <time>2020-08-12T08:17:38+02:00</time>
      </trkpt>
      <trkpt lat="45.19504" lon="6.44379">
        <ele>1634.7998</ele>
        <time>2020-08-12T08:17:39+02:00</time>
      </trkpt>
      <trkpt lat="45.19498" lon="6.44383">
        <ele>1634.9004</ele>
        <time>2020-08-12T08:17:43+02:00</time>
      </trkpt>
      <trkpt lat="45.19496" lon="6.44384">
        <ele>1634.9004</ele>
        <time>2020-08-12T08:17:44+02:00</time>
      </trkpt>
      <trkpt lat="45.19489" lon="6.44385">
        <ele>1635.2002</ele>
        <time>2020-08-12T08:17:48+02:00</time>
      </trkpt>
      <trkpt lat="45.19487" lon="6.44385">
        <ele>1635.2002</ele>
        <time>2020-08-12T08:17:49+02:00</time>
      </trkpt>
      <trkpt lat="45.19479" lon="6.44384">
        <ele>1635.6006</ele>
        <time>2020-08-12T08:17:53+02:00</time>
      </trkpt>
      <trkpt lat="45.19476" lon="6.44384">
        <ele>1635.6006</ele>
        <time>2020-08-12T08:17:54+02:00</time>
      </trkpt>
      <trkpt lat="45.19467" lon="6.44383">
        <ele>1635.6006</ele>
        <time>2020-08-12T08:17:58+02:00</time>
      </trkpt>
      <trkpt lat="45.19464" lon="6.44383">
        <ele>1635.6006</ele>
        <time>2020-08-12T08:17:59+02:00</time>
      </trkpt>
      <trkpt lat="45.19456" lon="6.44384">
        <ele>1635.5</ele>
        <time>2020-08-12T08:18:03+02:00</time>
      </trkpt>
      <trkpt lat="45.19455" lon="6.44384">
        <ele>1635.4004</ele>
        <time>2020-08-12T08:18:04+02:00</time>
      </trkpt>
      <trkpt lat="45.1945" lon="6.44386">
        <ele>1635.4004</ele>
        <time>2020-08-12T08:18:08+02:00</time>
      </trkpt>
      <trkpt lat="45.1945" lon="6.44386">
        <ele>1635.2998</ele>
        <time>2020-08-12T08:18:09+02:00</time>
      </trkpt>
      <trkpt lat="45.19448" lon="6.44385">
        <ele>1635.2998</ele>
        <time>2020-08-12T08:18:13+02:00</time>
      </trkpt>
      <trkpt lat="45.19446" lon="6.44386">
        <ele>1635.2998</ele>
        <time>2020-08-12T08:18:14+02:00</time>
      </trkpt>
      <trkpt lat="45.19437" lon="6.44384">
        <ele>1635</ele>
        <time>2020-08-12T08:18:18+02:00</time>
      </trkpt>
      <trkpt lat="45.19435" lon="6.44383">
        <ele>1635</ele>
        <time>2020-08-12T08:18:19+02:00</time>
      </trkpt>
      <trkpt lat="45.19425" lon="6.4438">
        <ele>1635.9004</ele>
        <time>2020-08-12T08:18:23+02:00</time>
      </trkpt>
      <trkpt lat="45.19423" lon="6.44379">
        <ele>1635.9004</ele>
        <time>2020-08-12T08:18:24+02:00</time>
      </trkpt>
      <trkpt lat="45.19411" lon="6.44376">
        <ele>1635.7002</ele>
        <time>2020-08-12T08:18:28+02:00</time>
      </trkpt>
      <trkpt lat="45.19408" lon="6.44373">
        <ele>1636.9004</ele>
        <time>2020-08-12T08:18:29+02:00</time>
      </trkpt>
      <trkpt lat="45.194" lon="6.44363">
        <ele>1637.6006</ele>
        <time>2020-08-12T08:18:33+02:00</time>
      </trkpt>
      <trkpt lat="45.19398" lon="6.44361">
        <ele>1637.6006</ele>
        <time>2020-08-12T08:18:34+02:00</time>
      </trkpt>
      <trkpt lat="45.19389" lon="6.44354">
        <ele>1638.1006</ele>
        <time>2020-08-12T08:18:38+02:00</time>
      </trkpt>
      <trkpt lat="45.19386" lon="6.44353">
        <ele>1638</ele>
        <time>2020-08-12T08:18:39+02:00</time>
      </trkpt>
      <trkpt lat="45.19374" lon="6.44349">
        <ele>1637.7002</ele>
        <time>2020-08-12T08:18:43+02:00</time>
      </trkpt>
      <trkpt lat="45.19372" lon="6.44348">
        <ele>1637.7002</ele>
        <time>2020-08-12T08:18:44+02:00</time>
      </trkpt>
      <trkpt lat="45.19361" lon="6.4435">
        <ele>1637.2002</ele>
        <time>2020-08-12T08:18:48+02:00</time>
      </trkpt>
      <trkpt lat="45.19358" lon="6.4435">
        <ele>1637</ele>
        <time>2020-08-12T08:18:49+02:00</time>
      </trkpt>
      <trkpt lat="45.19347" lon="6.44347">
        <ele>1637.2002</ele>
        <time>2020-08-12T08:18:53+02:00</time>
      </trkpt>
      <trkpt lat="45.19345" lon="6.44346">
        <ele>1637</ele>
        <time>2020-08-12T08:18:54+02:00</time>
      </trkpt>
      <trkpt lat="45.19332" lon="6.4434">
        <ele>1636.7002</ele>
        <time>2020-08-12T08:18:58+02:00</time>
      </trkpt>
      <trkpt lat="45.19329" lon="6.44339">
        <ele>1636.9004</ele>
        <time>2020-08-12T08:18:59+02:00</time>
      </trkpt>
      <trkpt lat="45.19313" lon="6.44332">
        <ele>1636.6006</ele>
        <time>2020-08-12T08:19:03+02:00</time>
      </trkpt>
      <trkpt lat="45.1931" lon="6.44331">
        <ele>1636.6006</ele>
        <time>2020-08-12T08:19:04+02:00</time>
      </trkpt>
      <trkpt lat="45.19295" lon="6.44326">
        <ele>1636.6006</ele>
        <time>2020-08-12T08:19:08+02:00</time>
      </trkpt>
      <trkpt lat="45.19292" lon="6.44325">
        <ele>1636.6006</ele>
        <time>2020-08-12T08:19:09+02:00</time>
      </trkpt>
      <trkpt lat="45.19279" lon="6.44319">
        <ele>1636.2002</ele>
        <time>2020-08-12T08:19:13+02:00</time>
      </trkpt>
      <trkpt lat="45.19276" lon="6.44316">
        <ele>1636.2002</ele>
        <time>2020-08-12T08:19:14+02:00</time>
      </trkpt>
      <trkpt lat="45.19262" lon="6.44307">
        <ele>1636.2002</ele>
        <time>2020-08-12T08:19:18+02:00</time>
      </trkpt>
      <trkpt lat="45.19258" lon="6.44305">
        <ele>1636.2002</ele>
        <time>2020-08-12T08:19:19+02:00</time>
      </trkpt>
      <trkpt lat="45.19243" lon="6.44299">
        <ele>1636.1006</ele>
        <time>2020-08-12T08:19:23+02:00</time>
      </trkpt>
      <trkpt lat="45.19239" lon="6.44298">
        <ele>1636.1006</ele>
        <time>2020-08-12T08:19:24+02:00</time>
      </trkpt>
      <trkpt lat="45.19224" lon="6.44294">
        <ele>1636</ele>
        <time>2020-08-12T08:19:28+02:00</time>
      </trkpt>
      <trkpt lat="45.19221" lon="6.44292">
        <ele>1636</ele>
        <time>2020-08-12T08:19:29+02:00</time>
      </trkpt>
      <trkpt lat="45.19206" lon="6.44286">
        <ele>1635.5</ele>
        <time>2020-08-12T08:19:33+02:00</time>
      </trkpt>
      <trkpt lat="45.19202" lon="6.44285">
        <ele>1635.5</ele>
        <time>2020-08-12T08:19:34+02:00</time>
      </trkpt>
      <trkpt lat="45.19188" lon="6.4428">
        <ele>1637.6006</ele>
        <time>2020-08-12T08:19:38+02:00</time>
      </trkpt>
      <trkpt lat="45.19185" lon="6.44278">
        <ele>1636.5</ele>
        <time>2020-08-12T08:19:39+02:00</time>
      </trkpt>
      <trkpt lat="45.19174" lon="6.44274">
        <ele>1637.7002</ele>
        <time>2020-08-12T08:19:43+02:00</time>
      </trkpt>
      <trkpt lat="45.1917" lon="6.44274">
        <ele>1638.2998</ele>
        <time>2020-08-12T08:19:44+02:00</time>
      </trkpt>
      <trkpt lat="45.19156" lon="6.44276">
        <ele>1639.5</ele>
        <time>2020-08-12T08:19:48+02:00</time>
      </trkpt>
      <trkpt lat="45.19152" lon="6.44277">
        <ele>1640.1006</ele>
        <time>2020-08-12T08:19:49+02:00</time>
      </trkpt>
      <trkpt lat="45.19138" lon="6.44276">
        <ele>1641.4004</ele>
        <time>2020-08-12T08:19:53+02:00</time>
      </trkpt>
      <trkpt lat="45.19134" lon="6.44276">
        <ele>1642</ele>
        <time>2020-08-12T08:19:54+02:00</time>
      </trkpt>
      <trkpt lat="45.19123" lon="6.44275">
        <ele>1643.5</ele>
        <time>2020-08-12T08:19:58+02:00</time>
      </trkpt>
      <trkpt lat="45.19121" lon="6.44275">
        <ele>1643.5</ele>
        <time>2020-08-12T08:19:59+02:00</time>
      </trkpt>
      <trkpt lat="45.19114" lon="6.4427">
        <ele>1643.4004</ele>
        <time>2020-08-12T08:20:03+02:00</time>
      </trkpt>
      <trkpt lat="45.19112" lon="6.44269">
        <ele>1643.4004</ele>
        <time>2020-08-12T08:20:04+02:00</time>
      </trkpt>
      <trkpt lat="45.19105" lon="6.44264">
        <ele>1644.1006</ele>
        <time>2020-08-12T08:20:08+02:00</time>
      </trkpt>
      <trkpt lat="45.19104" lon="6.44262">
        <ele>1643.7998</ele>
        <time>2020-08-12T08:20:09+02:00</time>
      </trkpt>
      <trkpt lat="45.19102" lon="6.44259">
        <ele>1643.7998</ele>
        <time>2020-08-12T08:20:13+02:00</time>
      </trkpt>
      <trkpt lat="45.19102" lon="6.44259">
        <ele>1643.7998</ele>
        <time>2020-08-12T08:20:14+02:00</time>
      </trkpt>
      <trkpt lat="45.19102" lon="6.44259">
        <ele>1643.7998</ele>
        <time>2020-08-12T08:20:18+02:00</time>
      </trkpt>
      <trkpt lat="45.19102" lon="6.44259">
        <ele>1643.7998</ele>
        <time>2020-08-12T08:20:19+02:00</time>
      </trkpt>
      <trkpt lat="45.19102" lon="6.44259">
        <ele>1643.7998</ele>
        <time>2020-08-12T08:20:23+02:00</time>
      </trkpt>
      <trkpt lat="45.19102" lon="6.44259">
        <ele>1643.7998</ele>
        <time>2020-08-12T08:20:24+02:00</time>
      </trkpt>
      <trkpt lat="45.19102" lon="6.44259">
        <ele>1643.7998</ele>
        <time>2020-08-12T08:20:28+02:00</time>
      </trkpt>
      <trkpt lat="45.19102" lon="6.4426">
        <ele>1643.7998</ele>
        <time>2020-08-12T08:20:29+02:00</time>
      </trkpt>
      <trkpt lat="45.19099" lon="6.44259">
        <ele>1644.6006</ele>
        <time>2020-08-12T08:20:33+02:00</time>
      </trkpt>
      <trkpt lat="45.19098" lon="6.44259">
        <ele>1644.6006</ele>
        <time>2020-08-12T08:20:34+02:00</time>
      </trkpt>
      <trkpt lat="45.19097" lon="6.44258">
        <ele>1644.6006</ele>
        <time>2020-08-12T08:20:38+02:00</time>
      </trkpt>
      <trkpt lat="45.19097" lon="6.44259">
        <ele>1644.6006</ele>
        <time>2020-08-12T08:20:39+02:00</time>
      </trkpt>
      <trkpt lat="45.19097" lon="6.4426">
        <ele>1644.6006</ele>
        <time>2020-08-12T08:20:43+02:00</time>
      </trkpt>
      <trkpt lat="45.19098" lon="6.44262">
        <ele>1644.6006</ele>
        <time>2020-08-12T08:20:44+02:00</time>
      </trkpt>
      <trkpt lat="45.19096" lon="6.44265">
        <ele>1645.7002</ele>
        <time>2020-08-12T08:20:48+02:00</time>
      </trkpt>
      <trkpt lat="45.19096" lon="6.44265">
        <ele>1645.7002</ele>
        <time>2020-08-12T08:20:49+02:00</time>
      </trkpt>
      <trkpt lat="45.19096" lon="6.44265">
        <ele>1645.7002</ele>
        <time>2020-08-12T08:20:53+02:00</time>
      </trkpt>
      <trkpt lat="45.19096" lon="6.44265">
        <ele>1645.7002</ele>
        <time>2020-08-12T08:20:54+02:00</time>
      </trkpt>
      <trkpt lat="45.19096" lon="6.44265">
        <ele>1645.7002</ele>
        <time>2020-08-12T08:20:58+02:00</time>
      </trkpt>
      <trkpt lat="45.19096" lon="6.44265">
        <ele>1645.7002</ele>
        <time>2020-08-12T08:20:59+02:00</time>
      </trkpt>
      <trkpt lat="45.19096" lon="6.44265">
        <ele>1645.7002</ele>
        <time>2020-08-12T08:21:03+02:00</time>
      </trkpt>
      <trkpt lat="45.19096" lon="6.44265">
        <ele>1645.7002</ele>
        <time>2020-08-12T08:21:04+02:00</time>
      </trkpt>
      <trkpt lat="45.19095" lon="6.44262">
        <ele>1644.6006</ele>
        <time>2020-08-12T08:21:08+02:00</time>
      </trkpt>
      <trkpt lat="45.19095" lon="6.44261">
        <ele>1644.6006</ele>
        <time>2020-08-12T08:21:09+02:00</time>
      </trkpt>
      <trkpt lat="45.19093" lon="6.44258">
        <ele>1644.6006</ele>
        <time>2020-08-12T08:21:13+02:00</time>
      </trkpt>
      <trkpt lat="45.19093" lon="6.44258">
        <ele>1644.6006</ele>
        <time>2020-08-12T08:21:14+02:00</time>
      </trkpt>
      <trkpt lat="45.19094" lon="6.44258">
        <ele>1644.6006</ele>
        <time>2020-08-12T08:21:19+02:00</time>
      </trkpt>
      <trkpt lat="45.19096" lon="6.44256">
        <ele>1644.6006</ele>
        <time>2020-08-12T08:21:23+02:00</time>
      </trkpt>
      <trkpt lat="45.19096" lon="6.44256">
        <ele>1644.6006</ele>
        <time>2020-08-12T08:21:24+02:00</time>
      </trkpt>
      <trkpt lat="45.19096" lon="6.44256">
        <ele>1644.6006</ele>
        <time>2020-08-12T08:21:28+02:00</time>
      </trkpt>
      <trkpt lat="45.19097" lon="6.44256">
        <ele>1644.6006</ele>
        <time>2020-08-12T08:21:29+02:00</time>
      </trkpt>
      <trkpt lat="45.19098" lon="6.44257">
        <ele>1644.6006</ele>
        <time>2020-08-12T08:21:33+02:00</time>
      </trkpt>
      <trkpt lat="45.19098" lon="6.44257">
        <ele>1644.6006</ele>
        <time>2020-08-12T08:21:34+02:00</time>
      </trkpt>
      <trkpt lat="45.19098" lon="6.44257">
        <ele>1644.6006</ele>
        <time>2020-08-12T08:21:38+02:00</time>
      </trkpt>
      <trkpt lat="45.19098" lon="6.44257">
        <ele>1644.6006</ele>
        <time>2020-08-12T08:21:39+02:00</time>
      </trkpt>
      <trkpt lat="45.19098" lon="6.44257">
        <ele>1644.6006</ele>
        <time>2020-08-12T08:21:43+02:00</time>
      </trkpt>
      <trkpt lat="45.19098" lon="6.44257">
        <ele>1644.6006</ele>
        <time>2020-08-12T08:21:44+02:00</time>
      </trkpt>
      <trkpt lat="45.19099" lon="6.44257">
        <ele>1644.6006</ele>
        <time>2020-08-12T08:21:48+02:00</time>
      </trkpt>
      <trkpt lat="45.19099" lon="6.44257">
        <ele>1644.6006</ele>
        <time>2020-08-12T08:21:49+02:00</time>
      </trkpt>
      <trkpt lat="45.19098" lon="6.44259">
        <ele>1644.6006</ele>
        <time>2020-08-12T08:21:53+02:00</time>
      </trkpt>
      <trkpt lat="45.19099" lon="6.44259">
        <ele>1644.6006</ele>
        <time>2020-08-12T08:21:54+02:00</time>
      </trkpt>
      <trkpt lat="45.19105" lon="6.44263">
        <ele>1644.9004</ele>
        <time>2020-08-12T08:21:58+02:00</time>
      </trkpt>
      <trkpt lat="45.19106" lon="6.44264">
        <ele>1644.1006</ele>
        <time>2020-08-12T08:21:59+02:00</time>
      </trkpt>
      <trkpt lat="45.19109" lon="6.44258">
        <ele>1643.1006</ele>
        <time>2020-08-12T08:22:03+02:00</time>
      </trkpt>
      <trkpt lat="45.19108" lon="6.44255">
        <ele>1643.1006</ele>
        <time>2020-08-12T08:22:04+02:00</time>
      </trkpt>
      <trkpt lat="45.19097" lon="6.44239">
        <ele>1642.2002</ele>
        <time>2020-08-12T08:22:08+02:00</time>
      </trkpt>
      <trkpt lat="45.19092" lon="6.44237">
        <ele>1641.5</ele>
        <time>2020-08-12T08:22:09+02:00</time>
      </trkpt>
      <trkpt lat="45.1907" lon="6.4423">
        <ele>1643.7998</ele>
        <time>2020-08-12T08:22:13+02:00</time>
      </trkpt>
      <trkpt lat="45.19064" lon="6.44228">
        <ele>1644.7002</ele>
        <time>2020-08-12T08:22:14+02:00</time>
      </trkpt>
      <trkpt lat="45.19038" lon="6.44217">
        <ele>1643.9004</ele>
        <time>2020-08-12T08:22:18+02:00</time>
      </trkpt>
      <trkpt lat="45.19033" lon="6.44213">
        <ele>1643.9004</ele>
        <time>2020-08-12T08:22:19+02:00</time>
      </trkpt>
      <trkpt lat="45.1902" lon="6.44201">
        <ele>1640.4004</ele>
        <time>2020-08-12T08:22:23+02:00</time>
      </trkpt>
      <trkpt lat="45.19017" lon="6.44199">
        <ele>1640.4004</ele>
        <time>2020-08-12T08:22:24+02:00</time>
      </trkpt>
      <trkpt lat="45.19005" lon="6.44194">
        <ele>1641.9004</ele>
        <time>2020-08-12T08:22:28+02:00</time>
      </trkpt>
      <trkpt lat="45.19002" lon="6.44193">
        <ele>1639.2002</ele>
        <time>2020-08-12T08:22:29+02:00</time>
      </trkpt>
      <trkpt lat="45.18992" lon="6.44189">
        <ele>1640</ele>
        <time>2020-08-12T08:22:33+02:00</time>
      </trkpt>
      <trkpt lat="45.1899" lon="6.44189">
        <ele>1640</ele>
        <time>2020-08-12T08:22:34+02:00</time>
      </trkpt>
      <trkpt lat="45.18978" lon="6.4419">
        <ele>1641.6006</ele>
        <time>2020-08-12T08:22:38+02:00</time>
      </trkpt>
      <trkpt lat="45.18975" lon="6.4419">
        <ele>1642.5</ele>
        <time>2020-08-12T08:22:39+02:00</time>
      </trkpt>
      <trkpt lat="45.18954" lon="6.44188">
        <ele>1644.6006</ele>
        <time>2020-08-12T08:22:43+02:00</time>
      </trkpt>
      <trkpt lat="45.18948" lon="6.44188">
        <ele>1645.5</ele>
        <time>2020-08-12T08:22:44+02:00</time>
      </trkpt>
      <trkpt lat="45.18929" lon="6.4419">
        <ele>1646.6006</ele>
        <time>2020-08-12T08:22:48+02:00</time>
      </trkpt>
      <trkpt lat="45.18925" lon="6.44192">
        <ele>1646.6006</ele>
        <time>2020-08-12T08:22:49+02:00</time>
      </trkpt>
      <trkpt lat="45.18903" lon="6.44207">
        <ele>1652.4004</ele>
        <time>2020-08-12T08:22:53+02:00</time>
      </trkpt>
      <trkpt lat="45.189" lon="6.44208">
        <ele>1652.4004</ele>
        <time>2020-08-12T08:22:54+02:00</time>
      </trkpt>
      <trkpt lat="45.18891" lon="6.44211">
        <ele>1654.2002</ele>
        <time>2020-08-12T08:22:58+02:00</time>
      </trkpt>
      <trkpt lat="45.18888" lon="6.4421">
        <ele>1651.6006</ele>
        <time>2020-08-12T08:22:59+02:00</time>
      </trkpt>
      <trkpt lat="45.18874" lon="6.44206">
        <ele>1650.2002</ele>
        <time>2020-08-12T08:23:03+02:00</time>
      </trkpt>
      <trkpt lat="45.18871" lon="6.44204">
        <ele>1650.2002</ele>
        <time>2020-08-12T08:23:04+02:00</time>
      </trkpt>
      <trkpt lat="45.18856" lon="6.44192">
        <ele>1643.4004</ele>
        <time>2020-08-12T08:23:08+02:00</time>
      </trkpt>
      <trkpt lat="45.18852" lon="6.44188">
        <ele>1643.4004</ele>
        <time>2020-08-12T08:23:09+02:00</time>
      </trkpt>
      <trkpt lat="45.18837" lon="6.44177">
        <ele>1638.7998</ele>
        <time>2020-08-12T08:23:13+02:00</time>
      </trkpt>
      <trkpt lat="45.18831" lon="6.44173">
        <ele>1635.4004</ele>
        <time>2020-08-12T08:23:14+02:00</time>
      </trkpt>
      <trkpt lat="45.18814" lon="6.44163">
        <ele>1631.7002</ele>
        <time>2020-08-12T08:23:18+02:00</time>
      </trkpt>
      <trkpt lat="45.18811" lon="6.44161">
        <ele>1631.7002</ele>
        <time>2020-08-12T08:23:19+02:00</time>
      </trkpt>
      <trkpt lat="45.18797" lon="6.44152">
        <ele>1628.4004</ele>
        <time>2020-08-12T08:23:23+02:00</time>
      </trkpt>
      <trkpt lat="45.18793" lon="6.4415">
        <ele>1625.5</ele>
        <time>2020-08-12T08:23:24+02:00</time>
      </trkpt>
      <trkpt lat="45.18772" lon="6.44136">
        <ele>1621.9004</ele>
        <time>2020-08-12T08:23:28+02:00</time>
      </trkpt>
      <trkpt lat="45.18765" lon="6.44132">
        <ele>1619.1006</ele>
        <time>2020-08-12T08:23:29+02:00</time>
      </trkpt>
      <trkpt lat="45.18745" lon="6.44118">
        <ele>1615.2002</ele>
        <time>2020-08-12T08:23:33+02:00</time>
      </trkpt>
      <trkpt lat="45.18742" lon="6.44116">
        <ele>1612.7998</ele>
        <time>2020-08-12T08:23:34+02:00</time>
      </trkpt>
      <trkpt lat="45.18732" lon="6.44108">
        <ele>1611.7998</ele>
        <time>2020-08-12T08:23:38+02:00</time>
      </trkpt>
      <trkpt lat="45.1873" lon="6.44106">
        <ele>1609.2002</ele>
        <time>2020-08-12T08:23:39+02:00</time>
      </trkpt>
      <trkpt lat="45.18723" lon="6.44104">
        <ele>1608.7998</ele>
        <time>2020-08-12T08:23:43+02:00</time>
      </trkpt>
      <trkpt lat="45.18721" lon="6.44105">
        <ele>1608.7998</ele>
        <time>2020-08-12T08:23:44+02:00</time>
      </trkpt>
      <trkpt lat="45.18707" lon="6.44111">
        <ele>1610.4004</ele>
        <time>2020-08-12T08:23:48+02:00</time>
      </trkpt>
      <trkpt lat="45.18702" lon="6.44112">
        <ele>1610.2002</ele>
        <time>2020-08-12T08:23:49+02:00</time>
      </trkpt>
      <trkpt lat="45.18679" lon="6.44113">
        <ele>1609.2998</ele>
        <time>2020-08-12T08:23:53+02:00</time>
      </trkpt>
      <trkpt lat="45.18673" lon="6.44112">
        <ele>1609.2002</ele>
        <time>2020-08-12T08:23:54+02:00</time>
      </trkpt>
      <trkpt lat="45.18649" lon="6.44101">
        <ele>1606.7002</ele>
        <time>2020-08-12T08:23:58+02:00</time>
      </trkpt>
      <trkpt lat="45.18645" lon="6.44098">
        <ele>1604.2002</ele>
        <time>2020-08-12T08:23:59+02:00</time>
      </trkpt>
      <trkpt lat="45.18627" lon="6.44093">
        <ele>1604.1006</ele>
        <time>2020-08-12T08:24:03+02:00</time>
      </trkpt>
      <trkpt lat="45.18623" lon="6.44093">
        <ele>1604.1006</ele>
        <time>2020-08-12T08:24:04+02:00</time>
      </trkpt>
      <trkpt lat="45.18607" lon="6.44094">
        <ele>1604.2002</ele>
        <time>2020-08-12T08:24:08+02:00</time>
      </trkpt>
      <trkpt lat="45.18603" lon="6.44093">
        <ele>1604.2002</ele>
        <time>2020-08-12T08:24:09+02:00</time>
      </trkpt>
      <trkpt lat="45.18584" lon="6.44093">
        <ele>1604.4004</ele>
        <time>2020-08-12T08:24:13+02:00</time>
      </trkpt>
      <trkpt lat="45.18579" lon="6.44093">
        <ele>1604.4004</ele>
        <time>2020-08-12T08:24:14+02:00</time>
      </trkpt>
      <trkpt lat="45.18555" lon="6.44092">
        <ele>1604.2998</ele>
        <time>2020-08-12T08:24:18+02:00</time>
      </trkpt>
      <trkpt lat="45.18551" lon="6.44092">
        <ele>1604.2002</ele>
        <time>2020-08-12T08:24:19+02:00</time>
      </trkpt>
      <trkpt lat="45.18531" lon="6.44089">
        <ele>1600.6006</ele>
        <time>2020-08-12T08:24:23+02:00</time>
      </trkpt>
      <trkpt lat="45.18526" lon="6.44088">
        <ele>1600</ele>
        <time>2020-08-12T08:24:24+02:00</time>
      </trkpt>
      <trkpt lat="45.18505" lon="6.44081">
        <ele>1593.4004</ele>
        <time>2020-08-12T08:24:28+02:00</time>
      </trkpt>
      <trkpt lat="45.185" lon="6.44078">
        <ele>1593.4004</ele>
        <time>2020-08-12T08:24:29+02:00</time>
      </trkpt>
      <trkpt lat="45.18483" lon="6.44068">
        <ele>1586.7002</ele>
        <time>2020-08-12T08:24:33+02:00</time>
      </trkpt>
      <trkpt lat="45.18479" lon="6.44067">
        <ele>1585.4004</ele>
        <time>2020-08-12T08:24:34+02:00</time>
      </trkpt>
      <trkpt lat="45.18459" lon="6.44059">
        <ele>1578.4004</ele>
        <time>2020-08-12T08:24:38+02:00</time>
      </trkpt>
      <trkpt lat="45.18454" lon="6.44058">
        <ele>1577.2002</ele>
        <time>2020-08-12T08:24:39+02:00</time>
      </trkpt>
      <trkpt lat="45.18437" lon="6.44054">
        <ele>1571.1006</ele>
        <time>2020-08-12T08:24:43+02:00</time>
      </trkpt>
      <trkpt lat="45.18434" lon="6.44054">
        <ele>1571.1006</ele>
        <time>2020-08-12T08:24:44+02:00</time>
      </trkpt>
      <trkpt lat="45.18424" lon="6.44049">
        <ele>1569.6006</ele>
        <time>2020-08-12T08:24:48+02:00</time>
      </trkpt>
      <trkpt lat="45.18422" lon="6.44048">
        <ele>1569.6006</ele>
        <time>2020-08-12T08:24:49+02:00</time>
      </trkpt>
      <trkpt lat="45.18411" lon="6.44046">
        <ele>1566.1006</ele>
        <time>2020-08-12T08:24:53+02:00</time>
      </trkpt>
      <trkpt lat="45.18408" lon="6.44045">
        <ele>1565.7002</ele>
        <time>2020-08-12T08:24:54+02:00</time>
      </trkpt>
      <trkpt lat="45.18398" lon="6.4404">
        <ele>1565.4004</ele>
        <time>2020-08-12T08:24:58+02:00</time>
      </trkpt>
      <trkpt lat="45.18395" lon="6.44038">
        <ele>1562.6006</ele>
        <time>2020-08-12T08:24:59+02:00</time>
      </trkpt>
      <trkpt lat="45.18382" lon="6.44036">
        <ele>1562.1006</ele>
        <time>2020-08-12T08:25:03+02:00</time>
      </trkpt>
      <trkpt lat="45.18378" lon="6.44036">
        <ele>1561.9004</ele>
        <time>2020-08-12T08:25:04+02:00</time>
      </trkpt>
      <trkpt lat="45.18358" lon="6.44032">
        <ele>1561.1006</ele>
        <time>2020-08-12T08:25:08+02:00</time>
      </trkpt>
      <trkpt lat="45.18354" lon="6.44031">
        <ele>1560.9004</ele>
        <time>2020-08-12T08:25:09+02:00</time>
      </trkpt>
      <trkpt lat="45.18342" lon="6.4402">
        <ele>1556.2002</ele>
        <time>2020-08-12T08:25:13+02:00</time>
      </trkpt>
      <trkpt lat="45.1834" lon="6.44017">
        <ele>1556.2002</ele>
        <time>2020-08-12T08:25:14+02:00</time>
      </trkpt>
      <trkpt lat="45.18335" lon="6.44002">
        <ele>1552.2998</ele>
        <time>2020-08-12T08:25:18+02:00</time>
      </trkpt>
      <trkpt lat="45.18334" lon="6.43999">
        <ele>1552.2998</ele>
        <time>2020-08-12T08:25:19+02:00</time>
      </trkpt>
      <trkpt lat="45.18323" lon="6.43995">
        <ele>1550.5</ele>
        <time>2020-08-12T08:25:23+02:00</time>
      </trkpt>
      <trkpt lat="45.18319" lon="6.43995">
        <ele>1550.5</ele>
        <time>2020-08-12T08:25:24+02:00</time>
      </trkpt>
      <trkpt lat="45.18297" lon="6.44004">
        <ele>1552.2002</ele>
        <time>2020-08-12T08:25:28+02:00</time>
      </trkpt>
      <trkpt lat="45.18291" lon="6.44006">
        <ele>1553.9004</ele>
        <time>2020-08-12T08:25:29+02:00</time>
      </trkpt>
      <trkpt lat="45.18266" lon="6.44012">
        <ele>1552.9004</ele>
        <time>2020-08-12T08:25:33+02:00</time>
      </trkpt>
      <trkpt lat="45.1826" lon="6.44014">
        <ele>1554.7998</ele>
        <time>2020-08-12T08:25:34+02:00</time>
      </trkpt>
      <trkpt lat="45.18235" lon="6.44021">
        <ele>1553.9004</ele>
        <time>2020-08-12T08:25:38+02:00</time>
      </trkpt>
      <trkpt lat="45.18228" lon="6.44021">
        <ele>1553.7002</ele>
        <time>2020-08-12T08:25:39+02:00</time>
      </trkpt>
      <trkpt lat="45.18196" lon="6.44018">
        <ele>1553</ele>
        <time>2020-08-12T08:25:43+02:00</time>
      </trkpt>
      <trkpt lat="45.18188" lon="6.44019">
        <ele>1552.9004</ele>
        <time>2020-08-12T08:25:44+02:00</time>
      </trkpt>
      <trkpt lat="45.18164" lon="6.4402">
        <ele>1552.5</ele>
        <time>2020-08-12T08:25:48+02:00</time>
      </trkpt>
      <trkpt lat="45.1816" lon="6.4402">
        <ele>1552.4004</ele>
        <time>2020-08-12T08:25:49+02:00</time>
      </trkpt>
      <trkpt lat="45.18149" lon="6.44021">
        <ele>1552.2998</ele>
        <time>2020-08-12T08:25:53+02:00</time>
      </trkpt>
      <trkpt lat="45.18146" lon="6.4402">
        <ele>1552.2998</ele>
        <time>2020-08-12T08:25:54+02:00</time>
      </trkpt>
      <trkpt lat="45.18132" lon="6.44019">
        <ele>1552.2002</ele>
        <time>2020-08-12T08:25:58+02:00</time>
      </trkpt>
      <trkpt lat="45.18128" lon="6.44019">
        <ele>1552.1006</ele>
        <time>2020-08-12T08:25:59+02:00</time>
      </trkpt>
      <trkpt lat="45.18113" lon="6.44021">
        <ele>1551.6006</ele>
        <time>2020-08-12T08:26:03+02:00</time>
      </trkpt>
      <trkpt lat="45.18109" lon="6.44022">
        <ele>1554.6006</ele>
        <time>2020-08-12T08:26:04+02:00</time>
      </trkpt>
      <trkpt lat="45.18097" lon="6.44027">
        <ele>1554.2998</ele>
        <time>2020-08-12T08:26:08+02:00</time>
      </trkpt>
      <trkpt lat="45.18094" lon="6.44028">
        <ele>1554.2998</ele>
        <time>2020-08-12T08:26:09+02:00</time>
      </trkpt>
      <trkpt lat="45.18084" lon="6.44035">
        <ele>1557.2998</ele>
        <time>2020-08-12T08:26:13+02:00</time>
      </trkpt>
      <trkpt lat="45.18082" lon="6.44036">
        <ele>1557.2002</ele>
        <time>2020-08-12T08:26:14+02:00</time>
      </trkpt>
      <trkpt lat="45.18077" lon="6.44037">
        <ele>1557</ele>
        <time>2020-08-12T08:26:18+02:00</time>
      </trkpt>
      <trkpt lat="45.18074" lon="6.44034">
        <ele>1557</ele>
        <time>2020-08-12T08:26:19+02:00</time>
      </trkpt>
      <trkpt lat="45.18059" lon="6.44023">
        <ele>1553.2998</ele>
        <time>2020-08-12T08:26:23+02:00</time>
      </trkpt>
      <trkpt lat="45.18055" lon="6.44021">
        <ele>1550.1006</ele>
        <time>2020-08-12T08:26:24+02:00</time>
      </trkpt>
      <trkpt lat="45.18039" lon="6.44005">
        <ele>1547.1006</ele>
        <time>2020-08-12T08:26:28+02:00</time>
      </trkpt>
      <trkpt lat="45.18034" lon="6.44001">
        <ele>1544.2998</ele>
        <time>2020-08-12T08:26:29+02:00</time>
      </trkpt>
      <trkpt lat="45.18018" lon="6.43989">
        <ele>1541.6006</ele>
        <time>2020-08-12T08:26:33+02:00</time>
      </trkpt>
      <trkpt lat="45.18014" lon="6.43988">
        <ele>1541.5</ele>
        <time>2020-08-12T08:26:34+02:00</time>
      </trkpt>
      <trkpt lat="45.17994" lon="6.43985">
        <ele>1537.7998</ele>
        <time>2020-08-12T08:26:38+02:00</time>
      </trkpt>
      <trkpt lat="45.1799" lon="6.43985">
        <ele>1537.5</ele>
        <time>2020-08-12T08:26:39+02:00</time>
      </trkpt>
      <trkpt lat="45.1797" lon="6.43984">
        <ele>1536.9004</ele>
        <time>2020-08-12T08:26:43+02:00</time>
      </trkpt>
      <trkpt lat="45.17965" lon="6.43982">
        <ele>1536.9004</ele>
        <time>2020-08-12T08:26:44+02:00</time>
      </trkpt>
      <trkpt lat="45.17941" lon="6.43973">
        <ele>1534.7002</ele>
        <time>2020-08-12T08:26:48+02:00</time>
      </trkpt>
      <trkpt lat="45.17935" lon="6.43971">
        <ele>1534.7002</ele>
        <time>2020-08-12T08:26:49+02:00</time>
      </trkpt>
      <trkpt lat="45.17914" lon="6.43966">
        <ele>1531.6006</ele>
        <time>2020-08-12T08:26:53+02:00</time>
      </trkpt>
      <trkpt lat="45.17911" lon="6.43966">
        <ele>1531.6006</ele>
        <time>2020-08-12T08:26:54+02:00</time>
      </trkpt>
      <trkpt lat="45.179" lon="6.43965">
        <ele>1531.7998</ele>
        <time>2020-08-12T08:26:58+02:00</time>
      </trkpt>
      <trkpt lat="45.17898" lon="6.43965">
        <ele>1531.7998</ele>
        <time>2020-08-12T08:26:59+02:00</time>
      </trkpt>
      <trkpt lat="45.17889" lon="6.43961">
        <ele>1528.7998</ele>
        <time>2020-08-12T08:27:03+02:00</time>
      </trkpt>
      <trkpt lat="45.17886" lon="6.4396">
        <ele>1528.7998</ele>
        <time>2020-08-12T08:27:04+02:00</time>
      </trkpt>
      <trkpt lat="45.17877" lon="6.43954">
        <ele>1529.1006</ele>
        <time>2020-08-12T08:27:08+02:00</time>
      </trkpt>
      <trkpt lat="45.17874" lon="6.43952">
        <ele>1526.1006</ele>
        <time>2020-08-12T08:27:09+02:00</time>
      </trkpt>
      <trkpt lat="45.17863" lon="6.4395">
        <ele>1526.9004</ele>
        <time>2020-08-12T08:27:13+02:00</time>
      </trkpt>
      <trkpt lat="45.1786" lon="6.43949">
        <ele>1526.9004</ele>
        <time>2020-08-12T08:27:14+02:00</time>
      </trkpt>
      <trkpt lat="45.17848" lon="6.43946">
        <ele>1527.7998</ele>
        <time>2020-08-12T08:27:18+02:00</time>
      </trkpt>
      <trkpt lat="45.17845" lon="6.43944">
        <ele>1525.1006</ele>
        <time>2020-08-12T08:27:19+02:00</time>
      </trkpt>
      <trkpt lat="45.17831" lon="6.43936">
        <ele>1526.1006</ele>
        <time>2020-08-12T08:27:23+02:00</time>
      </trkpt>
      <trkpt lat="45.17827" lon="6.43935">
        <ele>1523.7002</ele>
        <time>2020-08-12T08:27:24+02:00</time>
      </trkpt>
      <trkpt lat="45.17813" lon="6.43929">
        <ele>1525.7002</ele>
        <time>2020-08-12T08:27:28+02:00</time>
      </trkpt>
      <trkpt lat="45.17809" lon="6.43926">
        <ele>1524.1006</ele>
        <time>2020-08-12T08:27:29+02:00</time>
      </trkpt>
      <trkpt lat="45.17795" lon="6.4391">
        <ele>1521.6006</ele>
        <time>2020-08-12T08:27:33+02:00</time>
      </trkpt>
      <trkpt lat="45.17793" lon="6.43906">
        <ele>1521.6006</ele>
        <time>2020-08-12T08:27:34+02:00</time>
      </trkpt>
      <trkpt lat="45.17783" lon="6.43888">
        <ele>1520.1006</ele>
        <time>2020-08-12T08:27:38+02:00</time>
      </trkpt>
      <trkpt lat="45.1778" lon="6.43884">
        <ele>1519.6006</ele>
        <time>2020-08-12T08:27:39+02:00</time>
      </trkpt>
      <trkpt lat="45.17766" lon="6.43872">
        <ele>1520.7002</ele>
        <time>2020-08-12T08:27:43+02:00</time>
      </trkpt>
      <trkpt lat="45.17764" lon="6.43869">
        <ele>1520.7002</ele>
        <time>2020-08-12T08:27:44+02:00</time>
      </trkpt>
      <trkpt lat="45.17758" lon="6.43856">
        <ele>1518.2002</ele>
        <time>2020-08-12T08:27:48+02:00</time>
      </trkpt>
      <trkpt lat="45.17756" lon="6.43853">
        <ele>1518.2002</ele>
        <time>2020-08-12T08:27:49+02:00</time>
      </trkpt>
      <trkpt lat="45.17753" lon="6.4384">
        <ele>1515.9004</ele>
        <time>2020-08-12T08:27:53+02:00</time>
      </trkpt>
      <trkpt lat="45.17752" lon="6.43838">
        <ele>1515.9004</ele>
        <time>2020-08-12T08:27:54+02:00</time>
      </trkpt>
      <trkpt lat="45.17748" lon="6.43827">
        <ele>1515.7998</ele>
        <time>2020-08-12T08:27:58+02:00</time>
      </trkpt>
      <trkpt lat="45.17747" lon="6.43824">
        <ele>1513.7998</ele>
        <time>2020-08-12T08:27:59+02:00</time>
      </trkpt>
      <trkpt lat="45.17744" lon="6.43812">
        <ele>1511.9004</ele>
        <time>2020-08-12T08:28:03+02:00</time>
      </trkpt>
      <trkpt lat="45.17744" lon="6.4381">
        <ele>1513.7002</ele>
        <time>2020-08-12T08:28:04+02:00</time>
      </trkpt>
      <trkpt lat="45.17742" lon="6.43806">
        <ele>1511.7002</ele>
        <time>2020-08-12T08:28:08+02:00</time>
      </trkpt>
      <trkpt lat="45.17742" lon="6.43805">
        <ele>1511.7002</ele>
        <time>2020-08-12T08:28:09+02:00</time>
      </trkpt>
      <trkpt lat="45.17739" lon="6.43801">
        <ele>1511.7002</ele>
        <time>2020-08-12T08:28:13+02:00</time>
      </trkpt>
      <trkpt lat="45.17738" lon="6.43799">
        <ele>1511.5</ele>
        <time>2020-08-12T08:28:14+02:00</time>
      </trkpt>
      <trkpt lat="45.17731" lon="6.43789">
        <ele>1511.1006</ele>
        <time>2020-08-12T08:28:18+02:00</time>
      </trkpt>
      <trkpt lat="45.17729" lon="6.43786">
        <ele>1511.1006</ele>
        <time>2020-08-12T08:28:19+02:00</time>
      </trkpt>
      <trkpt lat="45.17722" lon="6.43776">
        <ele>1510.2002</ele>
        <time>2020-08-12T08:28:23+02:00</time>
      </trkpt>
      <trkpt lat="45.17719" lon="6.43774">
        <ele>1511.2998</ele>
        <time>2020-08-12T08:28:24+02:00</time>
      </trkpt>
      <trkpt lat="45.17711" lon="6.43766">
        <ele>1509.5</ele>
        <time>2020-08-12T08:28:28+02:00</time>
      </trkpt>
      <trkpt lat="45.1771" lon="6.43763">
        <ele>1506.7998</ele>
        <time>2020-08-12T08:28:29+02:00</time>
      </trkpt>
      <trkpt lat="45.17704" lon="6.43759">
        <ele>1506.9004</ele>
        <time>2020-08-12T08:28:33+02:00</time>
      </trkpt>
      <trkpt lat="45.17703" lon="6.43758">
        <ele>1506.9004</ele>
        <time>2020-08-12T08:28:34+02:00</time>
      </trkpt>
      <trkpt lat="45.177" lon="6.43756">
        <ele>1506.7002</ele>
        <time>2020-08-12T08:28:38+02:00</time>
      </trkpt>
      <trkpt lat="45.177" lon="6.43755">
        <ele>1503.1006</ele>
        <time>2020-08-12T08:28:39+02:00</time>
      </trkpt>
      <trkpt lat="45.17696" lon="6.4375">
        <ele>1503.1006</ele>
        <time>2020-08-12T08:28:43+02:00</time>
      </trkpt>
      <trkpt lat="45.17696" lon="6.43748">
        <ele>1503.1006</ele>
        <time>2020-08-12T08:28:44+02:00</time>
      </trkpt>
      <trkpt lat="45.17697" lon="6.4374">
        <ele>1500</ele>
        <time>2020-08-12T08:28:48+02:00</time>
      </trkpt>
      <trkpt lat="45.17697" lon="6.43739">
        <ele>1497.5</ele>
        <time>2020-08-12T08:28:49+02:00</time>
      </trkpt>
      <trkpt lat="45.17696" lon="6.43735">
        <ele>1497.5</ele>
        <time>2020-08-12T08:28:53+02:00</time>
      </trkpt>
      <trkpt lat="45.17695" lon="6.43733">
        <ele>1495.7002</ele>
        <time>2020-08-12T08:28:54+02:00</time>
      </trkpt>
      <trkpt lat="45.17694" lon="6.43729">
        <ele>1494.4004</ele>
        <time>2020-08-12T08:28:58+02:00</time>
      </trkpt>
      <trkpt lat="45.17694" lon="6.43726">
        <ele>1494.4004</ele>
        <time>2020-08-12T08:28:59+02:00</time>
      </trkpt>
      <trkpt lat="45.17692" lon="6.43717">
        <ele>1494.4004</ele>
        <time>2020-08-12T08:29:03+02:00</time>
      </trkpt>
      <trkpt lat="45.17692" lon="6.43716">
        <ele>1494.4004</ele>
        <time>2020-08-12T08:29:04+02:00</time>
      </trkpt>
      <trkpt lat="45.1769" lon="6.43713">
        <ele>1493.6006</ele>
        <time>2020-08-12T08:29:08+02:00</time>
      </trkpt>
      <trkpt lat="45.1769" lon="6.43712">
        <ele>1493.6006</ele>
        <time>2020-08-12T08:29:09+02:00</time>
      </trkpt>
      <trkpt lat="45.17687" lon="6.43709">
        <ele>1495</ele>
        <time>2020-08-12T08:29:13+02:00</time>
      </trkpt>
      <trkpt lat="45.17686" lon="6.43709">
        <ele>1495</ele>
        <time>2020-08-12T08:29:14+02:00</time>
      </trkpt>
      <trkpt lat="45.17685" lon="6.43707">
        <ele>1495</ele>
        <time>2020-08-12T08:29:18+02:00</time>
      </trkpt>
      <trkpt lat="45.17684" lon="6.43706">
        <ele>1495</ele>
        <time>2020-08-12T08:29:19+02:00</time>
      </trkpt>
      <trkpt lat="45.17681" lon="6.43701">
        <ele>1497.9004</ele>
        <time>2020-08-12T08:29:23+02:00</time>
      </trkpt>
      <trkpt lat="45.1768" lon="6.43698">
        <ele>1497.9004</ele>
        <time>2020-08-12T08:29:24+02:00</time>
      </trkpt>
      <trkpt lat="45.17677" lon="6.43688">
        <ele>1501.2998</ele>
        <time>2020-08-12T08:29:28+02:00</time>
      </trkpt>
      <trkpt lat="45.17677" lon="6.43684">
        <ele>1501.7998</ele>
        <time>2020-08-12T08:29:29+02:00</time>
      </trkpt>
      <trkpt lat="45.17673" lon="6.4367">
        <ele>1502</ele>
        <time>2020-08-12T08:29:33+02:00</time>
      </trkpt>
      <trkpt lat="45.1767" lon="6.43666">
        <ele>1503.2998</ele>
        <time>2020-08-12T08:29:34+02:00</time>
      </trkpt>
      <trkpt lat="45.17658" lon="6.43646">
        <ele>1504.7002</ele>
        <time>2020-08-12T08:29:38+02:00</time>
      </trkpt>
      <trkpt lat="45.17654" lon="6.43641">
        <ele>1503.5</ele>
        <time>2020-08-12T08:29:39+02:00</time>
      </trkpt>
      <trkpt lat="45.17644" lon="6.43631">
        <ele>1505</ele>
        <time>2020-08-12T08:29:43+02:00</time>
      </trkpt>
      <trkpt lat="45.17643" lon="6.43628">
        <ele>1505</ele>
        <time>2020-08-12T08:29:44+02:00</time>
      </trkpt>
      <trkpt lat="45.17637" lon="6.43616">
        <ele>1503.6006</ele>
        <time>2020-08-12T08:29:48+02:00</time>
      </trkpt>
      <trkpt lat="45.17635" lon="6.43612">
        <ele>1503.6006</ele>
        <time>2020-08-12T08:29:49+02:00</time>
      </trkpt>
      <trkpt lat="45.17633" lon="6.43596">
        <ele>1502.4004</ele>
        <time>2020-08-12T08:29:53+02:00</time>
      </trkpt>
      <trkpt lat="45.17633" lon="6.43592">
        <ele>1501.1006</ele>
        <time>2020-08-12T08:29:54+02:00</time>
      </trkpt>
      <trkpt lat="45.17632" lon="6.43576">
        <ele>1499.9004</ele>
        <time>2020-08-12T08:29:58+02:00</time>
      </trkpt>
      <trkpt lat="45.1763" lon="6.43573">
        <ele>1498.6006</ele>
        <time>2020-08-12T08:29:59+02:00</time>
      </trkpt>
      <trkpt lat="45.17624" lon="6.43561">
        <ele>1498.5</ele>
        <time>2020-08-12T08:30:03+02:00</time>
      </trkpt>
      <trkpt lat="45.17622" lon="6.43559">
        <ele>1499.6006</ele>
        <time>2020-08-12T08:30:04+02:00</time>
      </trkpt>
      <trkpt lat="45.17615" lon="6.43551">
        <ele>1499.2998</ele>
        <time>2020-08-12T08:30:08+02:00</time>
      </trkpt>
      <trkpt lat="45.17614" lon="6.4355">
        <ele>1498</ele>
        <time>2020-08-12T08:30:09+02:00</time>
      </trkpt>
      <trkpt lat="45.17606" lon="6.43547">
        <ele>1499</ele>
        <time>2020-08-12T08:30:13+02:00</time>
      </trkpt>
      <trkpt lat="45.17605" lon="6.43547">
        <ele>1499</ele>
        <time>2020-08-12T08:30:14+02:00</time>
      </trkpt>
      <trkpt lat="45.17603" lon="6.4355">
        <ele>1501.4004</ele>
        <time>2020-08-12T08:30:18+02:00</time>
      </trkpt>
      <trkpt lat="45.17602" lon="6.43552">
        <ele>1501.4004</ele>
        <time>2020-08-12T08:30:19+02:00</time>
      </trkpt>
      <trkpt lat="45.17601" lon="6.43556">
        <ele>1501.4004</ele>
        <time>2020-08-12T08:30:23+02:00</time>
      </trkpt>
      <trkpt lat="45.176" lon="6.43557">
        <ele>1501.4004</ele>
        <time>2020-08-12T08:30:24+02:00</time>
      </trkpt>
      <trkpt lat="45.17599" lon="6.43559">
        <ele>1502.9004</ele>
        <time>2020-08-12T08:30:28+02:00</time>
      </trkpt>
      <trkpt lat="45.17598" lon="6.4356">
        <ele>1503.9004</ele>
        <time>2020-08-12T08:30:29+02:00</time>
      </trkpt>
      <trkpt lat="45.17598" lon="6.43555">
        <ele>1502.4004</ele>
        <time>2020-08-12T08:30:33+02:00</time>
      </trkpt>
      <trkpt lat="45.17599" lon="6.43552">
        <ele>1501.4004</ele>
        <time>2020-08-12T08:30:34+02:00</time>
      </trkpt>
      <trkpt lat="45.17605" lon="6.43538">
        <ele>1497.7002</ele>
        <time>2020-08-12T08:30:38+02:00</time>
      </trkpt>
      <trkpt lat="45.17607" lon="6.43534">
        <ele>1497.7002</ele>
        <time>2020-08-12T08:30:39+02:00</time>
      </trkpt>
      <trkpt lat="45.17617" lon="6.43517">
        <ele>1493.5</ele>
        <time>2020-08-12T08:30:43+02:00</time>
      </trkpt>
      <trkpt lat="45.17619" lon="6.43514">
        <ele>1492.4004</ele>
        <time>2020-08-12T08:30:44+02:00</time>
      </trkpt>
      <trkpt lat="45.17614" lon="6.435">
        <ele>1492.2002</ele>
        <time>2020-08-12T08:30:48+02:00</time>
      </trkpt>
      <trkpt lat="45.17611" lon="6.43496">
        <ele>1491.1006</ele>
        <time>2020-08-12T08:30:49+02:00</time>
      </trkpt>
      <trkpt lat="45.17596" lon="6.43482">
        <ele>1492.7002</ele>
        <time>2020-08-12T08:30:53+02:00</time>
      </trkpt>
      <trkpt lat="45.17593" lon="6.43478">
        <ele>1491.7002</ele>
        <time>2020-08-12T08:30:54+02:00</time>
      </trkpt>
      <trkpt lat="45.17584" lon="6.43463">
        <ele>1491</ele>
        <time>2020-08-12T08:30:58+02:00</time>
      </trkpt>
      <trkpt lat="45.17582" lon="6.43459">
        <ele>1491</ele>
        <time>2020-08-12T08:30:59+02:00</time>
      </trkpt>
      <trkpt lat="45.17573" lon="6.43446">
        <ele>1489.5</ele>
        <time>2020-08-12T08:31:03+02:00</time>
      </trkpt>
      <trkpt lat="45.17571" lon="6.43443">
        <ele>1489.5</ele>
        <time>2020-08-12T08:31:04+02:00</time>
      </trkpt>
      <trkpt lat="45.17561" lon="6.43432">
        <ele>1489</ele>
        <time>2020-08-12T08:31:08+02:00</time>
      </trkpt>
      <trkpt lat="45.17559" lon="6.4343">
        <ele>1487.7002</ele>
        <time>2020-08-12T08:31:09+02:00</time>
      </trkpt>
      <trkpt lat="45.17554" lon="6.43425">
        <ele>1488.1006</ele>
        <time>2020-08-12T08:31:13+02:00</time>
      </trkpt>
      <trkpt lat="45.17552" lon="6.43425">
        <ele>1488.1006</ele>
        <time>2020-08-12T08:31:14+02:00</time>
      </trkpt>
      <trkpt lat="45.17549" lon="6.43425">
        <ele>1488.4004</ele>
        <time>2020-08-12T08:31:18+02:00</time>
      </trkpt>
      <trkpt lat="45.17549" lon="6.43425">
        <ele>1488.4004</ele>
        <time>2020-08-12T08:31:19+02:00</time>
      </trkpt>
      <trkpt lat="45.17558" lon="6.43427">
        <ele>1487.7002</ele>
        <time>2020-08-12T08:31:23+02:00</time>
      </trkpt>
      <trkpt lat="45.1756" lon="6.43428">
        <ele>1487.7002</ele>
        <time>2020-08-12T08:31:24+02:00</time>
      </trkpt>
      <trkpt lat="45.17571" lon="6.43437">
        <ele>1488.2002</ele>
        <time>2020-08-12T08:31:28+02:00</time>
      </trkpt>
      <trkpt lat="45.17573" lon="6.43439">
        <ele>1489.5</ele>
        <time>2020-08-12T08:31:29+02:00</time>
      </trkpt>
      <trkpt lat="45.1758" lon="6.43442">
        <ele>1489.1006</ele>
        <time>2020-08-12T08:31:33+02:00</time>
      </trkpt>
      <trkpt lat="45.1758" lon="6.43441">
        <ele>1489.1006</ele>
        <time>2020-08-12T08:31:34+02:00</time>
      </trkpt>
      <trkpt lat="45.17576" lon="6.43432">
        <ele>1487.7998</ele>
        <time>2020-08-12T08:31:38+02:00</time>
      </trkpt>
      <trkpt lat="45.17574" lon="6.43427">
        <ele>1486.9004</ele>
        <time>2020-08-12T08:31:39+02:00</time>
      </trkpt>
      <trkpt lat="45.17564" lon="6.43402">
        <ele>1483.4004</ele>
        <time>2020-08-12T08:31:43+02:00</time>
      </trkpt>
      <trkpt lat="45.17562" lon="6.43396">
        <ele>1483.7002</ele>
        <time>2020-08-12T08:31:44+02:00</time>
      </trkpt>
      <trkpt lat="45.1755" lon="6.43373">
        <ele>1479</ele>
        <time>2020-08-12T08:31:48+02:00</time>
      </trkpt>
      <trkpt lat="45.17547" lon="6.43367">
        <ele>1477.2002</ele>
        <time>2020-08-12T08:31:49+02:00</time>
      </trkpt>
      <trkpt lat="45.1753" lon="6.43354">
        <ele>1475.7998</ele>
        <time>2020-08-12T08:31:53+02:00</time>
      </trkpt>
      <trkpt lat="45.17526" lon="6.43352">
        <ele>1473.9004</ele>
        <time>2020-08-12T08:31:54+02:00</time>
      </trkpt>
      <trkpt lat="45.17512" lon="6.43338">
        <ele>1472.7002</ele>
        <time>2020-08-12T08:31:58+02:00</time>
      </trkpt>
      <trkpt lat="45.17507" lon="6.43334">
        <ele>1471</ele>
        <time>2020-08-12T08:31:59+02:00</time>
      </trkpt>
      <trkpt lat="45.17489" lon="6.43322">
        <ele>1469.6006</ele>
        <time>2020-08-12T08:32:03+02:00</time>
      </trkpt>
      <trkpt lat="45.17484" lon="6.43321">
        <ele>1469.6006</ele>
        <time>2020-08-12T08:32:04+02:00</time>
      </trkpt>
      <trkpt lat="45.17461" lon="6.4332">
        <ele>1470</ele>
        <time>2020-08-12T08:32:08+02:00</time>
      </trkpt>
      <trkpt lat="45.17455" lon="6.43318">
        <ele>1470</ele>
        <time>2020-08-12T08:32:09+02:00</time>
      </trkpt>
      <trkpt lat="45.17433" lon="6.43309">
        <ele>1466.6006</ele>
        <time>2020-08-12T08:32:13+02:00</time>
      </trkpt>
      <trkpt lat="45.17428" lon="6.43308">
        <ele>1466.4004</ele>
        <time>2020-08-12T08:32:14+02:00</time>
      </trkpt>
      <trkpt lat="45.174" lon="6.43304">
        <ele>1465</ele>
        <time>2020-08-12T08:32:18+02:00</time>
      </trkpt>
      <trkpt lat="45.17394" lon="6.43302">
        <ele>1464.6006</ele>
        <time>2020-08-12T08:32:19+02:00</time>
      </trkpt>
      <trkpt lat="45.17373" lon="6.43296">
        <ele>1460.7002</ele>
        <time>2020-08-12T08:32:23+02:00</time>
      </trkpt>
      <trkpt lat="45.17369" lon="6.43295">
        <ele>1460</ele>
        <time>2020-08-12T08:32:24+02:00</time>
      </trkpt>
      <trkpt lat="45.17351" lon="6.43296">
        <ele>1458.6006</ele>
        <time>2020-08-12T08:32:28+02:00</time>
      </trkpt>
      <trkpt lat="45.17345" lon="6.43297">
        <ele>1457.9004</ele>
        <time>2020-08-12T08:32:29+02:00</time>
      </trkpt>
      <trkpt lat="45.17325" lon="6.43303">
        <ele>1456.7002</ele>
        <time>2020-08-12T08:32:33+02:00</time>
      </trkpt>
      <trkpt lat="45.17322" lon="6.43303">
        <ele>1456.7002</ele>
        <time>2020-08-12T08:32:34+02:00</time>
      </trkpt>
      <trkpt lat="45.17314" lon="6.43301">
        <ele>1453.6006</ele>
        <time>2020-08-12T08:32:38+02:00</time>
      </trkpt>
      <trkpt lat="45.17311" lon="6.433">
        <ele>1453.6006</ele>
        <time>2020-08-12T08:32:39+02:00</time>
      </trkpt>
      <trkpt lat="45.173" lon="6.4331">
        <ele>1454.6006</ele>
        <time>2020-08-12T08:32:43+02:00</time>
      </trkpt>
      <trkpt lat="45.17296" lon="6.43315">
        <ele>1453.7002</ele>
        <time>2020-08-12T08:32:44+02:00</time>
      </trkpt>
      <trkpt lat="45.1728" lon="6.43344">
        <ele>1457.4004</ele>
        <time>2020-08-12T08:32:48+02:00</time>
      </trkpt>
      <trkpt lat="45.17275" lon="6.43351">
        <ele>1456.5</ele>
        <time>2020-08-12T08:32:49+02:00</time>
      </trkpt>
      <trkpt lat="45.17254" lon="6.43377">
        <ele>1459.4004</ele>
        <time>2020-08-12T08:32:53+02:00</time>
      </trkpt>
      <trkpt lat="45.17248" lon="6.43381">
        <ele>1460</ele>
        <time>2020-08-12T08:32:54+02:00</time>
      </trkpt>
      <trkpt lat="45.17222" lon="6.43387">
        <ele>1459</ele>
        <time>2020-08-12T08:32:58+02:00</time>
      </trkpt>
      <trkpt lat="45.17216" lon="6.43388">
        <ele>1458.2002</ele>
        <time>2020-08-12T08:32:59+02:00</time>
      </trkpt>
      <trkpt lat="45.17196" lon="6.43389">
        <ele>1455.6006</ele>
        <time>2020-08-12T08:33:03+02:00</time>
      </trkpt>
      <trkpt lat="45.17191" lon="6.43389">
        <ele>1454.7002</ele>
        <time>2020-08-12T08:33:04+02:00</time>
      </trkpt>
      <trkpt lat="45.17167" lon="6.43395">
        <ele>1451.2002</ele>
        <time>2020-08-12T08:33:08+02:00</time>
      </trkpt>
      <trkpt lat="45.1716" lon="6.43397">
        <ele>1452.1006</ele>
        <time>2020-08-12T08:33:09+02:00</time>
      </trkpt>
      <trkpt lat="45.17128" lon="6.43406">
        <ele>1449.2998</ele>
        <time>2020-08-12T08:33:13+02:00</time>
      </trkpt>
      <trkpt lat="45.17118" lon="6.43409">
        <ele>1447.4004</ele>
        <time>2020-08-12T08:33:14+02:00</time>
      </trkpt>
      <trkpt lat="45.17078" lon="6.43414">
        <ele>1442.5</ele>
        <time>2020-08-12T08:33:18+02:00</time>
      </trkpt>
      <trkpt lat="45.1707" lon="6.43412">
        <ele>1438.6006</ele>
        <time>2020-08-12T08:33:19+02:00</time>
      </trkpt>
      <trkpt lat="45.17039" lon="6.43417">
        <ele>1435</ele>
        <time>2020-08-12T08:33:23+02:00</time>
      </trkpt>
      <trkpt lat="45.17032" lon="6.43423">
        <ele>1435.7998</ele>
        <time>2020-08-12T08:33:24+02:00</time>
      </trkpt>
      <trkpt lat="45.16999" lon="6.43451">
        <ele>1436.6006</ele>
        <time>2020-08-12T08:33:28+02:00</time>
      </trkpt>
      <trkpt lat="45.16991" lon="6.43459">
        <ele>1438.2002</ele>
        <time>2020-08-12T08:33:29+02:00</time>
      </trkpt>
      <trkpt lat="45.16976" lon="6.43473">
        <ele>1441.7002</ele>
        <time>2020-08-12T08:33:31+02:00</time>
      </trkpt>
      <trkpt lat="45.16957" lon="6.43478">
        <ele>1441.2002</ele>
        <time>2020-08-12T08:33:33+02:00</time>
      </trkpt>
      <trkpt lat="45.16946" lon="6.43478">
        <ele>1441.2002</ele>
        <time>2020-08-12T08:33:34+02:00</time>
      </trkpt>
      <trkpt lat="45.1691" lon="6.43466">
        <ele>1440.1006</ele>
        <time>2020-08-12T08:33:38+02:00</time>
      </trkpt>
      <trkpt lat="45.16901" lon="6.43461">
        <ele>1438.2998</ele>
        <time>2020-08-12T08:33:39+02:00</time>
      </trkpt>
      <trkpt lat="45.16866" lon="6.43443">
        <ele>1433.9004</ele>
        <time>2020-08-12T08:33:43+02:00</time>
      </trkpt>
      <trkpt lat="45.16858" lon="6.43442">
        <ele>1434</ele>
        <time>2020-08-12T08:33:44+02:00</time>
      </trkpt>
      <trkpt lat="45.1682" lon="6.43445">
        <ele>1434.2998</ele>
        <time>2020-08-12T08:33:48+02:00</time>
      </trkpt>
      <trkpt lat="45.1681" lon="6.43446">
        <ele>1435.2002</ele>
        <time>2020-08-12T08:33:49+02:00</time>
      </trkpt>
      <trkpt lat="45.16771" lon="6.43439">
        <ele>1439.7998</ele>
        <time>2020-08-12T08:33:53+02:00</time>
      </trkpt>
      <trkpt lat="45.16761" lon="6.43434">
        <ele>1438.9004</ele>
        <time>2020-08-12T08:33:54+02:00</time>
      </trkpt>
      <trkpt lat="45.16723" lon="6.43408">
        <ele>1436.5</ele>
        <time>2020-08-12T08:33:58+02:00</time>
      </trkpt>
      <trkpt lat="45.16715" lon="6.43401">
        <ele>1436.2998</ele>
        <time>2020-08-12T08:33:59+02:00</time>
      </trkpt>
      <trkpt lat="45.16687" lon="6.43358">
        <ele>1428.7998</ele>
        <time>2020-08-12T08:34:03+02:00</time>
      </trkpt>
      <trkpt lat="45.16682" lon="6.43344">
        <ele>1427.7002</ele>
        <time>2020-08-12T08:34:04+02:00</time>
      </trkpt>
      <trkpt lat="45.16658" lon="6.43296">
        <ele>1419.2998</ele>
        <time>2020-08-12T08:34:08+02:00</time>
      </trkpt>
      <trkpt lat="45.1665" lon="6.43287">
        <ele>1418.2998</ele>
        <time>2020-08-12T08:34:09+02:00</time>
      </trkpt>
      <trkpt lat="45.16614" lon="6.43261">
        <ele>1418.5</ele>
        <time>2020-08-12T08:34:13+02:00</time>
      </trkpt>
      <trkpt lat="45.16605" lon="6.43255">
        <ele>1418.2998</ele>
        <time>2020-08-12T08:34:14+02:00</time>
      </trkpt>
      <trkpt lat="45.16573" lon="6.4324">
        <ele>1417.5</ele>
        <time>2020-08-12T08:34:18+02:00</time>
      </trkpt>
      <trkpt lat="45.16566" lon="6.43236">
        <ele>1417.9004</ele>
        <time>2020-08-12T08:34:19+02:00</time>
      </trkpt>
      <trkpt lat="45.16541" lon="6.43219">
        <ele>1416.2998</ele>
        <time>2020-08-12T08:34:23+02:00</time>
      </trkpt>
      <trkpt lat="45.16536" lon="6.43213">
        <ele>1415.2002</ele>
        <time>2020-08-12T08:34:24+02:00</time>
      </trkpt>
      <trkpt lat="45.16519" lon="6.4319">
        <ele>1413.7998</ele>
        <time>2020-08-12T08:34:28+02:00</time>
      </trkpt>
      <trkpt lat="45.16517" lon="6.43187">
        <ele>1412.4004</ele>
        <time>2020-08-12T08:34:29+02:00</time>
      </trkpt>
      <trkpt lat="45.16512" lon="6.43192">
        <ele>1414.1006</ele>
        <time>2020-08-12T08:34:33+02:00</time>
      </trkpt>
      <trkpt lat="45.16512" lon="6.43195">
        <ele>1414.1006</ele>
        <time>2020-08-12T08:34:34+02:00</time>
      </trkpt>
      <trkpt lat="45.16508" lon="6.43205">
        <ele>1415.9004</ele>
        <time>2020-08-12T08:34:38+02:00</time>
      </trkpt>
      <trkpt lat="45.16507" lon="6.43207">
        <ele>1415.9004</ele>
        <time>2020-08-12T08:34:39+02:00</time>
      </trkpt>
      <trkpt lat="45.16499" lon="6.43207">
        <ele>1417.7998</ele>
        <time>2020-08-12T08:34:43+02:00</time>
      </trkpt>
      <trkpt lat="45.16497" lon="6.43208">
        <ele>1418.2998</ele>
        <time>2020-08-12T08:34:44+02:00</time>
      </trkpt>
      <trkpt lat="45.16491" lon="6.43211">
        <ele>1418.2998</ele>
        <time>2020-08-12T08:34:48+02:00</time>
      </trkpt>
      <trkpt lat="45.1649" lon="6.43214">
        <ele>1418.7998</ele>
        <time>2020-08-12T08:34:49+02:00</time>
      </trkpt>
      <trkpt lat="45.1649" lon="6.43224">
        <ele>1422.2998</ele>
        <time>2020-08-12T08:34:53+02:00</time>
      </trkpt>
      <trkpt lat="45.1649" lon="6.43226">
        <ele>1422.2998</ele>
        <time>2020-08-12T08:34:54+02:00</time>
      </trkpt>
      <trkpt lat="45.16493" lon="6.43233">
        <ele>1423.7002</ele>
        <time>2020-08-12T08:34:58+02:00</time>
      </trkpt>
      <trkpt lat="45.16495" lon="6.43235">
        <ele>1423.7002</ele>
        <time>2020-08-12T08:34:59+02:00</time>
      </trkpt>
      <trkpt lat="45.165" lon="6.43242">
        <ele>1425.1006</ele>
        <time>2020-08-12T08:35:03+02:00</time>
      </trkpt>
      <trkpt lat="45.16501" lon="6.43244">
        <ele>1425.1006</ele>
        <time>2020-08-12T08:35:04+02:00</time>
      </trkpt>
      <trkpt lat="45.16508" lon="6.43248">
        <ele>1424.5</ele>
        <time>2020-08-12T08:35:08+02:00</time>
      </trkpt>
      <trkpt lat="45.1651" lon="6.43249">
        <ele>1423.9004</ele>
        <time>2020-08-12T08:35:09+02:00</time>
      </trkpt>
      <trkpt lat="45.16516" lon="6.43257">
        <ele>1425.2998</ele>
        <time>2020-08-12T08:35:13+02:00</time>
      </trkpt>
      <trkpt lat="45.16517" lon="6.43259">
        <ele>1427.4004</ele>
        <time>2020-08-12T08:35:14+02:00</time>
      </trkpt>
      <trkpt lat="45.16521" lon="6.43268">
        <ele>1429.4004</ele>
        <time>2020-08-12T08:35:18+02:00</time>
      </trkpt>
      <trkpt lat="45.16523" lon="6.4327">
        <ele>1428.9004</ele>
        <time>2020-08-12T08:35:19+02:00</time>
      </trkpt>
      <trkpt lat="45.16523" lon="6.43274">
        <ele>1428.9004</ele>
        <time>2020-08-12T08:35:23+02:00</time>
      </trkpt>
      <trkpt lat="45.16523" lon="6.43274">
        <ele>1428.9004</ele>
        <time>2020-08-12T08:35:24+02:00</time>
      </trkpt>
      <trkpt lat="45.16523" lon="6.43275">
        <ele>1428.9004</ele>
        <time>2020-08-12T08:35:28+02:00</time>
      </trkpt>
      <trkpt lat="45.16523" lon="6.43275">
        <ele>1428.9004</ele>
        <time>2020-08-12T08:35:29+02:00</time>
      </trkpt>
      <trkpt lat="45.16523" lon="6.43278">
        <ele>1430.9004</ele>
        <time>2020-08-12T08:35:33+02:00</time>
      </trkpt>
      <trkpt lat="45.16523" lon="6.43278">
        <ele>1430.9004</ele>
        <time>2020-08-12T08:35:34+02:00</time>
      </trkpt>
      <trkpt lat="45.16525" lon="6.43281">
        <ele>1430.9004</ele>
        <time>2020-08-12T08:35:38+02:00</time>
      </trkpt>
      <trkpt lat="45.16525" lon="6.43281">
        <ele>1430.9004</ele>
        <time>2020-08-12T08:35:39+02:00</time>
      </trkpt>
      <trkpt lat="45.16525" lon="6.43279">
        <ele>1430.9004</ele>
        <time>2020-08-12T08:35:43+02:00</time>
      </trkpt>
      <trkpt lat="45.16525" lon="6.43278">
        <ele>1430.9004</ele>
        <time>2020-08-12T08:35:44+02:00</time>
      </trkpt>
      <trkpt lat="45.16528" lon="6.43275">
        <ele>1428.2998</ele>
        <time>2020-08-12T08:35:48+02:00</time>
      </trkpt>
      <trkpt lat="45.16528" lon="6.43275">
        <ele>1428.2998</ele>
        <time>2020-08-12T08:35:49+02:00</time>
      </trkpt>
      <trkpt lat="45.16528" lon="6.43276">
        <ele>1430.2998</ele>
        <time>2020-08-12T08:35:53+02:00</time>
      </trkpt>
      <trkpt lat="45.16528" lon="6.43276">
        <ele>1430.2998</ele>
        <time>2020-08-12T08:35:54+02:00</time>
      </trkpt>
      <trkpt lat="45.16528" lon="6.43276">
        <ele>1430.2998</ele>
        <time>2020-08-12T08:35:58+02:00</time>
      </trkpt>
      <trkpt lat="45.16528" lon="6.43276">
        <ele>1430.2998</ele>
        <time>2020-08-12T08:35:59+02:00</time>
      </trkpt>
      <trkpt lat="45.16528" lon="6.43276">
        <ele>1430.2998</ele>
        <time>2020-08-12T08:36:03+02:00</time>
      </trkpt>
      <trkpt lat="45.16528" lon="6.43276">
        <ele>1430.2998</ele>
        <time>2020-08-12T08:36:04+02:00</time>
      </trkpt>
      <trkpt lat="45.16528" lon="6.43276">
        <ele>1430.2998</ele>
        <time>2020-08-12T08:36:08+02:00</time>
      </trkpt>
      <trkpt lat="45.16528" lon="6.43276">
        <ele>1430.2998</ele>
        <time>2020-08-12T08:36:09+02:00</time>
      </trkpt>
      <trkpt lat="45.16528" lon="6.43276">
        <ele>1430.2998</ele>
        <time>2020-08-12T08:36:13+02:00</time>
      </trkpt>
      <trkpt lat="45.16528" lon="6.43276">
        <ele>1430.2998</ele>
        <time>2020-08-12T08:36:14+02:00</time>
      </trkpt>
      <trkpt lat="45.16528" lon="6.43276">
        <ele>1430.2998</ele>
        <time>2020-08-12T08:36:18+02:00</time>
      </trkpt>
      <trkpt lat="45.16528" lon="6.43276">
        <ele>1430.2998</ele>
        <time>2020-08-12T08:36:19+02:00</time>
      </trkpt>
      <trkpt lat="45.16528" lon="6.43276">
        <ele>1430.2998</ele>
        <time>2020-08-12T08:36:23+02:00</time>
      </trkpt>
      <trkpt lat="45.16528" lon="6.43276">
        <ele>1430.2998</ele>
        <time>2020-08-12T08:36:24+02:00</time>
      </trkpt>
      <trkpt lat="45.16526" lon="6.43276">
        <ele>1430.9004</ele>
        <time>2020-08-12T08:36:28+02:00</time>
      </trkpt>
      <trkpt lat="45.16526" lon="6.43276">
        <ele>1430.9004</ele>
        <time>2020-08-12T08:36:29+02:00</time>
      </trkpt>
      <trkpt lat="45.16526" lon="6.43276">
        <ele>1430.9004</ele>
        <time>2020-08-12T08:36:33+02:00</time>
      </trkpt>
      <trkpt lat="45.16526" lon="6.43276">
        <ele>1430.9004</ele>
        <time>2020-08-12T08:36:34+02:00</time>
      </trkpt>
      <trkpt lat="45.16526" lon="6.43276">
        <ele>1430.9004</ele>
        <time>2020-08-12T08:36:38+02:00</time>
      </trkpt>
      <trkpt lat="45.16526" lon="6.43276">
        <ele>1430.9004</ele>
        <time>2020-08-12T08:36:39+02:00</time>
      </trkpt>
      <trkpt lat="45.16527" lon="6.43275">
        <ele>1428.9004</ele>
        <time>2020-08-12T08:36:43+02:00</time>
      </trkpt>
      <trkpt lat="45.16526" lon="6.43276">
        <ele>1430.9004</ele>
        <time>2020-08-12T08:36:44+02:00</time>
      </trkpt>
      <trkpt lat="45.16525" lon="6.43277">
        <ele>1430.9004</ele>
        <time>2020-08-12T08:36:48+02:00</time>
      </trkpt>
      <trkpt lat="45.16526" lon="6.43278">
        <ele>1430.9004</ele>
        <time>2020-08-12T08:36:49+02:00</time>
      </trkpt>
      <trkpt lat="45.16528" lon="6.43279">
        <ele>1430.2998</ele>
        <time>2020-08-12T08:36:53+02:00</time>
      </trkpt>
      <trkpt lat="45.16529" lon="6.43279">
        <ele>1430.2998</ele>
        <time>2020-08-12T08:36:54+02:00</time>
      </trkpt>
      <trkpt lat="45.16533" lon="6.43285">
        <ele>1432.2002</ele>
        <time>2020-08-12T08:36:58+02:00</time>
      </trkpt>
      <trkpt lat="45.16535" lon="6.43286">
        <ele>1431.6006</ele>
        <time>2020-08-12T08:36:59+02:00</time>
      </trkpt>
      <trkpt lat="45.1654" lon="6.43291">
        <ele>1431.1006</ele>
        <time>2020-08-12T08:37:03+02:00</time>
      </trkpt>
      <trkpt lat="45.16542" lon="6.43293">
        <ele>1433.1006</ele>
        <time>2020-08-12T08:37:04+02:00</time>
      </trkpt>
      <trkpt lat="45.1655" lon="6.43299">
        <ele>1432.6006</ele>
        <time>2020-08-12T08:37:08+02:00</time>
      </trkpt>
      <trkpt lat="45.16551" lon="6.433">
        <ele>1432.6006</ele>
        <time>2020-08-12T08:37:09+02:00</time>
      </trkpt>
      <trkpt lat="45.16558" lon="6.43307">
        <ele>1433.7998</ele>
        <time>2020-08-12T08:37:13+02:00</time>
      </trkpt>
      <trkpt lat="45.1656" lon="6.43308">
        <ele>1433.7998</ele>
        <time>2020-08-12T08:37:14+02:00</time>
      </trkpt>
      <trkpt lat="45.16566" lon="6.43311">
        <ele>1435.4004</ele>
        <time>2020-08-12T08:37:18+02:00</time>
      </trkpt>
      <trkpt lat="45.16568" lon="6.43313">
        <ele>1435.4004</ele>
        <time>2020-08-12T08:37:19+02:00</time>
      </trkpt>
      <trkpt lat="45.16576" lon="6.43315">
        <ele>1434.9004</ele>
        <time>2020-08-12T08:37:23+02:00</time>
      </trkpt>
      <trkpt lat="45.16577" lon="6.43315">
        <ele>1434.5</ele>
        <time>2020-08-12T08:37:24+02:00</time>
      </trkpt>
      <trkpt lat="45.16584" lon="6.43318">
        <ele>1434</ele>
        <time>2020-08-12T08:37:28+02:00</time>
      </trkpt>
      <trkpt lat="45.16586" lon="6.43319">
        <ele>1436.2002</ele>
        <time>2020-08-12T08:37:29+02:00</time>
      </trkpt>
      <trkpt lat="45.16594" lon="6.4332">
        <ele>1435.7002</ele>
        <time>2020-08-12T08:37:33+02:00</time>
      </trkpt>
      <trkpt lat="45.16596" lon="6.43321">
        <ele>1435.2002</ele>
        <time>2020-08-12T08:37:34+02:00</time>
      </trkpt>
      <trkpt lat="45.16602" lon="6.43322">
        <ele>1434.6006</ele>
        <time>2020-08-12T08:37:38+02:00</time>
      </trkpt>
      <trkpt lat="45.16604" lon="6.43323">
        <ele>1434.6006</ele>
        <time>2020-08-12T08:37:39+02:00</time>
      </trkpt>
      <trkpt lat="45.16612" lon="6.43323">
        <ele>1433.9004</ele>
        <time>2020-08-12T08:37:43+02:00</time>
      </trkpt>
      <trkpt lat="45.16613" lon="6.43324">
        <ele>1433</ele>
        <time>2020-08-12T08:37:44+02:00</time>
      </trkpt>
      <trkpt lat="45.1662" lon="6.43325">
        <ele>1432</ele>
        <time>2020-08-12T08:37:48+02:00</time>
      </trkpt>
      <trkpt lat="45.16622" lon="6.43326">
        <ele>1432</ele>
        <time>2020-08-12T08:37:49+02:00</time>
      </trkpt>
      <trkpt lat="45.16629" lon="6.43327">
        <ele>1433.2002</ele>
        <time>2020-08-12T08:37:53+02:00</time>
      </trkpt>
      <trkpt lat="45.16631" lon="6.43328">
        <ele>1432.2002</ele>
        <time>2020-08-12T08:37:54+02:00</time>
      </trkpt>
      <trkpt lat="45.16639" lon="6.43331">
        <ele>1431.1006</ele>
        <time>2020-08-12T08:37:58+02:00</time>
      </trkpt>
      <trkpt lat="45.16641" lon="6.43332">
        <ele>1431.1006</ele>
        <time>2020-08-12T08:37:59+02:00</time>
      </trkpt>
      <trkpt lat="45.16648" lon="6.43337">
        <ele>1432.4004</ele>
        <time>2020-08-12T08:38:03+02:00</time>
      </trkpt>
      <trkpt lat="45.16649" lon="6.43337">
        <ele>1431.4004</ele>
        <time>2020-08-12T08:38:04+02:00</time>
      </trkpt>
      <trkpt lat="45.16654" lon="6.43343">
        <ele>1431.4004</ele>
        <time>2020-08-12T08:38:08+02:00</time>
      </trkpt>
      <trkpt lat="45.16655" lon="6.43344">
        <ele>1432.7002</ele>
        <time>2020-08-12T08:38:09+02:00</time>
      </trkpt>
      <trkpt lat="45.1666" lon="6.4335">
        <ele>1432.7002</ele>
        <time>2020-08-12T08:38:13+02:00</time>
      </trkpt>
      <trkpt lat="45.16661" lon="6.43352">
        <ele>1431.5</ele>
        <time>2020-08-12T08:38:14+02:00</time>
      </trkpt>
      <trkpt lat="45.16665" lon="6.43357">
        <ele>1433.9004</ele>
        <time>2020-08-12T08:38:18+02:00</time>
      </trkpt>
      <trkpt lat="45.16667" lon="6.43358">
        <ele>1433.9004</ele>
        <time>2020-08-12T08:38:19+02:00</time>
      </trkpt>
      <trkpt lat="45.16669" lon="6.43367">
        <ele>1435.1006</ele>
        <time>2020-08-12T08:38:23+02:00</time>
      </trkpt>
      <trkpt lat="45.16669" lon="6.4337">
        <ele>1435.1006</ele>
        <time>2020-08-12T08:38:24+02:00</time>
      </trkpt>
      <trkpt lat="45.16673" lon="6.43377">
        <ele>1437.5</ele>
        <time>2020-08-12T08:38:28+02:00</time>
      </trkpt>
      <trkpt lat="45.16673" lon="6.43379">
        <ele>1438.7998</ele>
        <time>2020-08-12T08:38:29+02:00</time>
      </trkpt>
      <trkpt lat="45.16677" lon="6.43385">
        <ele>1438.7998</ele>
        <time>2020-08-12T08:38:33+02:00</time>
      </trkpt>
      <trkpt lat="45.16677" lon="6.43386">
        <ele>1438.7998</ele>
        <time>2020-08-12T08:38:34+02:00</time>
      </trkpt>
      <trkpt lat="45.16681" lon="6.43392">
        <ele>1440.1006</ele>
        <time>2020-08-12T08:38:38+02:00</time>
      </trkpt>
      <trkpt lat="45.16681" lon="6.43394">
        <ele>1440.1006</ele>
        <time>2020-08-12T08:38:39+02:00</time>
      </trkpt>
      <trkpt lat="45.16682" lon="6.43407">
        <ele>1445.4004</ele>
        <time>2020-08-12T08:38:43+02:00</time>
      </trkpt>
      <trkpt lat="45.16681" lon="6.43411">
        <ele>1445.4004</ele>
        <time>2020-08-12T08:38:44+02:00</time>
      </trkpt>
      <trkpt lat="45.16678" lon="6.43424">
        <ele>1451.7998</ele>
        <time>2020-08-12T08:38:48+02:00</time>
      </trkpt>
      <trkpt lat="45.16677" lon="6.43425">
        <ele>1451.7998</ele>
        <time>2020-08-12T08:38:49+02:00</time>
      </trkpt>
      <trkpt lat="45.16672" lon="6.43426">
        <ele>1452.9004</ele>
        <time>2020-08-12T08:38:53+02:00</time>
      </trkpt>
      <trkpt lat="45.16671" lon="6.43426">
        <ele>1452.9004</ele>
        <time>2020-08-12T08:38:54+02:00</time>
      </trkpt>
      <trkpt lat="45.16663" lon="6.43425">
        <ele>1454</ele>
        <time>2020-08-12T08:38:58+02:00</time>
      </trkpt>
      <trkpt lat="45.16661" lon="6.43424">
        <ele>1454</ele>
        <time>2020-08-12T08:38:59+02:00</time>
      </trkpt>
      <trkpt lat="45.16656" lon="6.43419">
        <ele>1452.5</ele>
        <time>2020-08-12T08:39:03+02:00</time>
      </trkpt>
      <trkpt lat="45.16655" lon="6.43417">
        <ele>1452.5</ele>
        <time>2020-08-12T08:39:04+02:00</time>
      </trkpt>
      <trkpt lat="45.16647" lon="6.4341">
        <ele>1452.2002</ele>
        <time>2020-08-12T08:39:08+02:00</time>
      </trkpt>
      <trkpt lat="45.16645" lon="6.43409">
        <ele>1452.2002</ele>
        <time>2020-08-12T08:39:09+02:00</time>
      </trkpt>
      <trkpt lat="45.16637" lon="6.43403">
        <ele>1450.7002</ele>
        <time>2020-08-12T08:39:13+02:00</time>
      </trkpt>
      <trkpt lat="45.16635" lon="6.43402">
        <ele>1451.7002</ele>
        <time>2020-08-12T08:39:14+02:00</time>
      </trkpt>
      <trkpt lat="45.16628" lon="6.43397">
        <ele>1452.6006</ele>
        <time>2020-08-12T08:39:18+02:00</time>
      </trkpt>
      <trkpt lat="45.16627" lon="6.43396">
        <ele>1452.6006</ele>
        <time>2020-08-12T08:39:19+02:00</time>
      </trkpt>
      <trkpt lat="45.16617" lon="6.43395">
        <ele>1451.7998</ele>
        <time>2020-08-12T08:39:23+02:00</time>
      </trkpt>
      <trkpt lat="45.16615" lon="6.43395">
        <ele>1451.7998</ele>
        <time>2020-08-12T08:39:24+02:00</time>
      </trkpt>
      <trkpt lat="45.16605" lon="6.43395">
        <ele>1453.5</ele>
        <time>2020-08-12T08:39:28+02:00</time>
      </trkpt>
      <trkpt lat="45.16602" lon="6.43394">
        <ele>1453.5</ele>
        <time>2020-08-12T08:39:29+02:00</time>
      </trkpt>
      <trkpt lat="45.16592" lon="6.43392">
        <ele>1455.2002</ele>
        <time>2020-08-12T08:39:33+02:00</time>
      </trkpt>
      <trkpt lat="45.1659" lon="6.43391">
        <ele>1455.2002</ele>
        <time>2020-08-12T08:39:34+02:00</time>
      </trkpt>
      <trkpt lat="45.1658" lon="6.43391">
        <ele>1456.6006</ele>
        <time>2020-08-12T08:39:38+02:00</time>
      </trkpt>
      <trkpt lat="45.16578" lon="6.43391">
        <ele>1456.6006</ele>
        <time>2020-08-12T08:39:39+02:00</time>
      </trkpt>
      <trkpt lat="45.16567" lon="6.43391">
        <ele>1457.7998</ele>
        <time>2020-08-12T08:39:43+02:00</time>
      </trkpt>
      <trkpt lat="45.16564" lon="6.43391">
        <ele>1457.7998</ele>
        <time>2020-08-12T08:39:44+02:00</time>
      </trkpt>
      <trkpt lat="45.16554" lon="6.43389">
        <ele>1458.4004</ele>
        <time>2020-08-12T08:39:48+02:00</time>
      </trkpt>
      <trkpt lat="45.16551" lon="6.43388">
        <ele>1458.7998</ele>
        <time>2020-08-12T08:39:49+02:00</time>
      </trkpt>
      <trkpt lat="45.1654" lon="6.43384">
        <ele>1456.5</ele>
        <time>2020-08-12T08:39:53+02:00</time>
      </trkpt>
      <trkpt lat="45.16538" lon="6.43383">
        <ele>1456.9004</ele>
        <time>2020-08-12T08:39:54+02:00</time>
      </trkpt>
      <trkpt lat="45.16529" lon="6.43379">
        <ele>1457.2998</ele>
        <time>2020-08-12T08:39:58+02:00</time>
      </trkpt>
      <trkpt lat="45.16527" lon="6.43379">
        <ele>1457.7998</ele>
        <time>2020-08-12T08:39:59+02:00</time>
      </trkpt>
      <trkpt lat="45.16518" lon="6.43375">
        <ele>1455.6006</ele>
        <time>2020-08-12T08:40:03+02:00</time>
      </trkpt>
      <trkpt lat="45.16516" lon="6.43375">
        <ele>1455.6006</ele>
        <time>2020-08-12T08:40:04+02:00</time>
      </trkpt>
      <trkpt lat="45.1651" lon="6.43379">
        <ele>1459</ele>
        <time>2020-08-12T08:40:08+02:00</time>
      </trkpt>
      <trkpt lat="45.16509" lon="6.43382">
        <ele>1459.7002</ele>
        <time>2020-08-12T08:40:09+02:00</time>
      </trkpt>
      <trkpt lat="45.16505" lon="6.43393">
        <ele>1462.6006</ele>
        <time>2020-08-12T08:40:13+02:00</time>
      </trkpt>
      <trkpt lat="45.16505" lon="6.43395">
        <ele>1462.6006</ele>
        <time>2020-08-12T08:40:14+02:00</time>
      </trkpt>
      <trkpt lat="45.16507" lon="6.43401">
        <ele>1465.7002</ele>
        <time>2020-08-12T08:40:18+02:00</time>
      </trkpt>
      <trkpt lat="45.16508" lon="6.43402">
        <ele>1465.7002</ele>
        <time>2020-08-12T08:40:19+02:00</time>
      </trkpt>
      <trkpt lat="45.16514" lon="6.43407">
        <ele>1468.1006</ele>
        <time>2020-08-12T08:40:23+02:00</time>
      </trkpt>
      <trkpt lat="45.16516" lon="6.43407">
        <ele>1467.2998</ele>
        <time>2020-08-12T08:40:24+02:00</time>
      </trkpt>
      <trkpt lat="45.16524" lon="6.43407">
        <ele>1466.6006</ele>
        <time>2020-08-12T08:40:28+02:00</time>
      </trkpt>
      <trkpt lat="45.16526" lon="6.43406">
        <ele>1466.6006</ele>
        <time>2020-08-12T08:40:29+02:00</time>
      </trkpt>
      <trkpt lat="45.16535" lon="6.4341">
        <ele>1465.5</ele>
        <time>2020-08-12T08:40:33+02:00</time>
      </trkpt>
      <trkpt lat="45.16538" lon="6.43411">
        <ele>1465.5</ele>
        <time>2020-08-12T08:40:34+02:00</time>
      </trkpt>
      <trkpt lat="45.16546" lon="6.43414">
        <ele>1467.4004</ele>
        <time>2020-08-12T08:40:38+02:00</time>
      </trkpt>
      <trkpt lat="45.16548" lon="6.43414">
        <ele>1467.4004</ele>
        <time>2020-08-12T08:40:39+02:00</time>
      </trkpt>
      <trkpt lat="45.16555" lon="6.43418">
        <ele>1466.9004</ele>
        <time>2020-08-12T08:40:43+02:00</time>
      </trkpt>
      <trkpt lat="45.16556" lon="6.43419">
        <ele>1466.9004</ele>
        <time>2020-08-12T08:40:44+02:00</time>
      </trkpt>
      <trkpt lat="45.16561" lon="6.43423">
        <ele>1469.2998</ele>
        <time>2020-08-12T08:40:48+02:00</time>
      </trkpt>
      <trkpt lat="45.16563" lon="6.43424">
        <ele>1469.2998</ele>
        <time>2020-08-12T08:40:49+02:00</time>
      </trkpt>
      <trkpt lat="45.16569" lon="6.43429">
        <ele>1468.7998</ele>
        <time>2020-08-12T08:40:53+02:00</time>
      </trkpt>
      <trkpt lat="45.16571" lon="6.4343">
        <ele>1470.9004</ele>
        <time>2020-08-12T08:40:54+02:00</time>
      </trkpt>
      <trkpt lat="45.16578" lon="6.43437">
        <ele>1470.1006</ele>
        <time>2020-08-12T08:40:58+02:00</time>
      </trkpt>
      <trkpt lat="45.1658" lon="6.43438">
        <ele>1470.1006</ele>
        <time>2020-08-12T08:40:59+02:00</time>
      </trkpt>
      <trkpt lat="45.16587" lon="6.43442">
        <ele>1471.9004</ele>
        <time>2020-08-12T08:41:03+02:00</time>
      </trkpt>
      <trkpt lat="45.16589" lon="6.43443">
        <ele>1471</ele>
        <time>2020-08-12T08:41:04+02:00</time>
      </trkpt>
      <trkpt lat="45.16595" lon="6.43448">
        <ele>1472.7002</ele>
        <time>2020-08-12T08:41:08+02:00</time>
      </trkpt>
      <trkpt lat="45.16596" lon="6.4345">
        <ele>1472.7002</ele>
        <time>2020-08-12T08:41:09+02:00</time>
      </trkpt>
      <trkpt lat="45.16598" lon="6.43458">
        <ele>1475.2002</ele>
        <time>2020-08-12T08:41:13+02:00</time>
      </trkpt>
      <trkpt lat="45.16598" lon="6.43462">
        <ele>1475.2002</ele>
        <time>2020-08-12T08:41:14+02:00</time>
      </trkpt>
      <trkpt lat="45.16597" lon="6.43475">
        <ele>1480.2002</ele>
        <time>2020-08-12T08:41:18+02:00</time>
      </trkpt>
      <trkpt lat="45.16597" lon="6.43478">
        <ele>1480.2002</ele>
        <time>2020-08-12T08:41:19+02:00</time>
      </trkpt>
      <trkpt lat="45.16593" lon="6.43482">
        <ele>1483.7002</ele>
        <time>2020-08-12T08:41:23+02:00</time>
      </trkpt>
      <trkpt lat="45.16591" lon="6.43481">
        <ele>1483.7002</ele>
        <time>2020-08-12T08:41:24+02:00</time>
      </trkpt>
      <trkpt lat="45.16585" lon="6.4348">
        <ele>1482.2002</ele>
        <time>2020-08-12T08:41:28+02:00</time>
      </trkpt>
      <trkpt lat="45.16583" lon="6.43479">
        <ele>1482.2002</ele>
        <time>2020-08-12T08:41:29+02:00</time>
      </trkpt>
      <trkpt lat="45.16575" lon="6.43478">
        <ele>1484.2998</ele>
        <time>2020-08-12T08:41:33+02:00</time>
      </trkpt>
      <trkpt lat="45.16573" lon="6.43477">
        <ele>1484.2998</ele>
        <time>2020-08-12T08:41:34+02:00</time>
      </trkpt>
      <trkpt lat="45.16567" lon="6.43475">
        <ele>1485.2002</ele>
        <time>2020-08-12T08:41:38+02:00</time>
      </trkpt>
      <trkpt lat="45.16565" lon="6.43475">
        <ele>1485.2002</ele>
        <time>2020-08-12T08:41:39+02:00</time>
      </trkpt>
      <trkpt lat="45.16559" lon="6.43471">
        <ele>1483.2998</ele>
        <time>2020-08-12T08:41:43+02:00</time>
      </trkpt>
      <trkpt lat="45.16558" lon="6.43469">
        <ele>1484.1006</ele>
        <time>2020-08-12T08:41:44+02:00</time>
      </trkpt>
      <trkpt lat="45.16551" lon="6.43466">
        <ele>1485.1006</ele>
        <time>2020-08-12T08:41:48+02:00</time>
      </trkpt>
      <trkpt lat="45.16549" lon="6.43466">
        <ele>1485.1006</ele>
        <time>2020-08-12T08:41:49+02:00</time>
      </trkpt>
      <trkpt lat="45.16541" lon="6.43466">
        <ele>1486</ele>
        <time>2020-08-12T08:41:53+02:00</time>
      </trkpt>
      <trkpt lat="45.1654" lon="6.43465">
        <ele>1486</ele>
        <time>2020-08-12T08:41:54+02:00</time>
      </trkpt>
      <trkpt lat="45.16538" lon="6.43465">
        <ele>1487</ele>
        <time>2020-08-12T08:41:58+02:00</time>
      </trkpt>
      <trkpt lat="45.16537" lon="6.43465">
        <ele>1487</ele>
        <time>2020-08-12T08:41:59+02:00</time>
      </trkpt>
      <trkpt lat="45.16534" lon="6.43465">
        <ele>1487</ele>
        <time>2020-08-12T08:42:03+02:00</time>
      </trkpt>
      <trkpt lat="45.16534" lon="6.43465">
        <ele>1487</ele>
        <time>2020-08-12T08:42:04+02:00</time>
      </trkpt>
      <trkpt lat="45.16534" lon="6.43465">
        <ele>1487</ele>
        <time>2020-08-12T08:42:08+02:00</time>
      </trkpt>
      <trkpt lat="45.16534" lon="6.43465">
        <ele>1487</ele>
        <time>2020-08-12T08:42:09+02:00</time>
      </trkpt>
      <trkpt lat="45.16534" lon="6.43465">
        <ele>1487</ele>
        <time>2020-08-12T08:42:13+02:00</time>
      </trkpt>
      <trkpt lat="45.16534" lon="6.43465">
        <ele>1487</ele>
        <time>2020-08-12T08:42:14+02:00</time>
      </trkpt>
      <trkpt lat="45.16534" lon="6.43465">
        <ele>1487</ele>
        <time>2020-08-12T08:42:18+02:00</time>
      </trkpt>
      <trkpt lat="45.16534" lon="6.43465">
        <ele>1487</ele>
        <time>2020-08-12T08:42:19+02:00</time>
      </trkpt>
      <trkpt lat="45.16533" lon="6.43463">
        <ele>1485</ele>
        <time>2020-08-12T08:42:23+02:00</time>
      </trkpt>
      <trkpt lat="45.16533" lon="6.43463">
        <ele>1485</ele>
        <time>2020-08-12T08:42:24+02:00</time>
      </trkpt>
      <trkpt lat="45.16533" lon="6.43463">
        <ele>1485</ele>
        <time>2020-08-12T08:42:28+02:00</time>
      </trkpt>
      <trkpt lat="45.16533" lon="6.43463">
        <ele>1485</ele>
        <time>2020-08-12T08:42:29+02:00</time>
      </trkpt>
      <trkpt lat="45.16533" lon="6.43463">
        <ele>1485</ele>
        <time>2020-08-12T08:42:34+02:00</time>
      </trkpt>
    </trkseg>
  </trk>
</gpx>